<?xml version='1.0' encoding='UTF-8'?><gpx version="1.1" creator="JPX - https://github.com/jenetics/jpx" xmlns="http://www.topografix.com/GPX/1/1"><trk><trkseg><trkpt lat="45.9005507" lon="12.0035642"><ele>254.00000000000003</ele><time>2026-04-18T09:06:15.144Z</time></trkpt><trkpt lat="45.9005472" lon="12.0034472"><ele>254.0</ele><time>2026-04-18T09:07:05.144Z</time></trkpt><trkpt lat="45.9006313" lon="12.0033537"><ele>254.0</ele><time>2026-04-18T09:07:07.145Z</time></trkpt><trkpt lat="45.900701" lon="12.0033141"><ele>254.0</ele><time>2026-04-18T09:07:08.144Z</time></trkpt><trkpt lat="45.9007753" lon="12.0032648"><ele>254.00000000000003</ele><time>2026-04-18T09:07:09.145Z</time></trkpt><trkpt lat="45.9008499" lon="12.0032067"><ele>254.0</ele><time>2026-04-18T09:07:10.145Z</time></trkpt><trkpt lat="45.900906" lon="12.0031533"><ele>254.6</ele><time>2026-04-18T09:07:11.145Z</time></trkpt><trkpt lat="45.9009761" lon="12.0031279"><ele>255.2</ele><time>2026-04-18T09:07:13.145Z</time></trkpt><trkpt lat="45.9010583" lon="12.0032823"><ele>255.79999999999998</ele><time>2026-04-18T09:07:15.145Z</time></trkpt><trkpt lat="45.9010956" lon="12.003383"><ele>256.4</ele><time>2026-04-18T09:07:16.144Z</time></trkpt><trkpt lat="45.9011526" lon="12.0034979"><ele>257.0</ele><time>2026-04-18T09:07:17.145Z</time></trkpt><trkpt lat="45.9012266" lon="12.0036078"><ele>257.5</ele><time>2026-04-18T09:07:18.144Z</time></trkpt><trkpt lat="45.901305" lon="12.0036946"><ele>258.0</ele><time>2026-04-18T09:07:19.144Z</time></trkpt><trkpt lat="45.9013758" lon="12.0037533"><ele>258.5</ele><time>2026-04-18T09:07:20.144Z</time></trkpt><trkpt lat="45.901461" lon="12.0037571"><ele>259.0</ele><time>2026-04-18T09:07:22.145Z</time></trkpt><trkpt lat="45.9015047" lon="12.0036548"><ele>259.5</ele><time>2026-04-18T09:07:27.145Z</time></trkpt><trkpt lat="45.9014887" lon="12.0035604"><ele>260.0</ele><time>2026-04-18T09:07:28.146Z</time></trkpt><trkpt lat="45.9014519" lon="12.0034415"><ele>259.25</ele><time>2026-04-18T09:07:29.145Z</time></trkpt><trkpt lat="45.9014115" lon="12.0032982"><ele>258.5</ele><time>2026-04-18T09:07:30.144Z</time></trkpt><trkpt lat="45.9013751" lon="12.0031297"><ele>257.75</ele><time>2026-04-18T09:07:31.144Z</time></trkpt><trkpt lat="45.9013504" lon="12.0029427"><ele>257.0</ele><time>2026-04-18T09:07:32.144Z</time></trkpt><trkpt lat="45.9013378" lon="12.0027552"><ele>257.0</ele><time>2026-04-18T09:07:33.144Z</time></trkpt><trkpt lat="45.9013325" lon="12.0025702"><ele>257.0</ele><time>2026-04-18T09:07:34.144Z</time></trkpt><trkpt lat="45.9013217" lon="12.0023957"><ele>257.0</ele><time>2026-04-18T09:07:35.145Z</time></trkpt><trkpt lat="45.9013136" lon="12.0022274"><ele>257.0</ele><time>2026-04-18T09:07:36.144Z</time></trkpt><trkpt lat="45.9013102" lon="12.0020712"><ele>257.2</ele><time>2026-04-18T09:07:37.146Z</time></trkpt><trkpt lat="45.9013017" lon="12.0019201"><ele>257.4</ele><time>2026-04-18T09:07:38.145Z</time></trkpt><trkpt lat="45.9012998" lon="12.0017742"><ele>257.6</ele><time>2026-04-18T09:07:39.145Z</time></trkpt><trkpt lat="45.9013034" lon="12.0016358"><ele>257.8</ele><time>2026-04-18T09:07:40.145Z</time></trkpt><trkpt lat="45.9013138" lon="12.0014997"><ele>258.0</ele><time>2026-04-18T09:07:41.145Z</time></trkpt><trkpt lat="45.9013275" lon="12.0013679"><ele>257.6666666666667</ele><time>2026-04-18T09:07:42.146Z</time></trkpt><trkpt lat="45.9013441" lon="12.0012501"><ele>257.3333333333333</ele><time>2026-04-18T09:07:43.145Z</time></trkpt><trkpt lat="45.9013591" lon="12.0011493"><ele>257.0</ele><time>2026-04-18T09:07:44.145Z</time></trkpt><trkpt lat="45.9013777" lon="12.0010479"><ele>256.66666666666663</ele><time>2026-04-18T09:07:45.145Z</time></trkpt><trkpt lat="45.9013895" lon="12.0009109"><ele>256.3333333333333</ele><time>2026-04-18T09:07:46.144Z</time></trkpt><trkpt lat="45.9014075" lon="12.0007525"><ele>256.0</ele><time>2026-04-18T09:07:47.144Z</time></trkpt><trkpt lat="45.9014306" lon="12.0005747"><ele>255.25</ele><time>2026-04-18T09:07:48.145Z</time></trkpt><trkpt lat="45.9014548" lon="12.0003833"><ele>254.5</ele><time>2026-04-18T09:07:49.145Z</time></trkpt><trkpt lat="45.9014731" lon="12.0001759"><ele>253.75</ele><time>2026-04-18T09:07:50.145Z</time></trkpt><trkpt lat="45.9014946" lon="11.9999559"><ele>253.0</ele><time>2026-04-18T09:07:51.144Z</time></trkpt><trkpt lat="45.9015166" lon="11.999733"><ele>253.0</ele><time>2026-04-18T09:07:52.145Z</time></trkpt><trkpt lat="45.9015426" lon="11.9995111"><ele>253.0</ele><time>2026-04-18T09:07:53.144Z</time></trkpt><trkpt lat="45.9015727" lon="11.9992915"><ele>253.0</ele><time>2026-04-18T09:07:54.145Z</time></trkpt><trkpt lat="45.9016014" lon="11.9990729"><ele>252.66666666666666</ele><time>2026-04-18T09:07:55.144Z</time></trkpt><trkpt lat="45.9016287" lon="11.9988538"><ele>252.33333333333331</ele><time>2026-04-18T09:07:56.144Z</time></trkpt><trkpt lat="45.9016573" lon="11.9986331"><ele>252.0</ele><time>2026-04-18T09:07:57.144Z</time></trkpt><trkpt lat="45.9016855" lon="11.9984207"><ele>252.25</ele><time>2026-04-18T09:07:58.145Z</time></trkpt><trkpt lat="45.9017087" lon="11.9982233"><ele>252.5</ele><time>2026-04-18T09:07:59.145Z</time></trkpt><trkpt lat="45.9017321" lon="11.9980457"><ele>252.75</ele><time>2026-04-18T09:08:00.144Z</time></trkpt><trkpt lat="45.9017503" lon="11.9978739"><ele>253.0</ele><time>2026-04-18T09:08:01.145Z</time></trkpt><trkpt lat="45.9017689" lon="11.9977053"><ele>255.5</ele><time>2026-04-18T09:08:02.144Z</time></trkpt><trkpt lat="45.9017882" lon="11.997532"><ele>258.0</ele><time>2026-04-18T09:08:03.144Z</time></trkpt><trkpt lat="45.9018083" lon="11.9973406"><ele>260.5</ele><time>2026-04-18T09:08:04.145Z</time></trkpt><trkpt lat="45.9018355" lon="11.9971209"><ele>263.0</ele><time>2026-04-18T09:08:05.145Z</time></trkpt><trkpt lat="45.9018601" lon="11.9968682"><ele>263.33333333333337</ele><time>2026-04-18T09:08:06.145Z</time></trkpt><trkpt lat="45.9018736" lon="11.9966171"><ele>263.6666666666667</ele><time>2026-04-18T09:08:07.144Z</time></trkpt><trkpt lat="45.9018795" lon="11.9963954"><ele>264.0</ele><time>2026-04-18T09:08:08.144Z</time></trkpt><trkpt lat="45.9018758" lon="11.9962069"><ele>264.0</ele><time>2026-04-18T09:08:09.145Z</time></trkpt><trkpt lat="45.9018628" lon="11.9960424"><ele>264.0</ele><time>2026-04-18T09:08:10.144Z</time></trkpt><trkpt lat="45.9018442" lon="11.9959001"><ele>264.0</ele><time>2026-04-18T09:08:11.146Z</time></trkpt><trkpt lat="45.9018364" lon="11.9957708"><ele>264.0</ele><time>2026-04-18T09:08:12.144Z</time></trkpt><trkpt lat="45.901849" lon="11.9956287"><ele>264.0</ele><time>2026-04-18T09:08:13.145Z</time></trkpt><trkpt lat="45.9018846" lon="11.9954926"><ele>263.59999999999997</ele><time>2026-04-18T09:08:14.145Z</time></trkpt><trkpt lat="45.9019336" lon="11.9953854"><ele>263.2</ele><time>2026-04-18T09:08:15.145Z</time></trkpt><trkpt lat="45.9019891" lon="11.9952973"><ele>262.79999999999995</ele><time>2026-04-18T09:08:16.145Z</time></trkpt><trkpt lat="45.9020473" lon="11.9952076"><ele>262.4</ele><time>2026-04-18T09:08:17.145Z</time></trkpt><trkpt lat="45.9021186" lon="11.9951025"><ele>262.0</ele><time>2026-04-18T09:08:18.145Z</time></trkpt><trkpt lat="45.9021791" lon="11.995006"><ele>262.0</ele><time>2026-04-18T09:08:19.145Z</time></trkpt><trkpt lat="45.9022346" lon="11.9949127"><ele>262.0</ele><time>2026-04-18T09:08:20.145Z</time></trkpt><trkpt lat="45.902293" lon="11.9948295"><ele>262.0</ele><time>2026-04-18T09:08:21.145Z</time></trkpt><trkpt lat="45.902342" lon="11.9947612"><ele>262.0</ele><time>2026-04-18T09:08:22.144Z</time></trkpt><trkpt lat="45.9024183" lon="11.9946552"><ele>262.0</ele><time>2026-04-18T09:08:24.144Z</time></trkpt><trkpt lat="45.902463" lon="11.9945381"><ele>262.0</ele><time>2026-04-18T09:08:26.144Z</time></trkpt><trkpt lat="45.9024342" lon="11.9944004"><ele>262.0</ele><time>2026-04-18T09:08:28.145Z</time></trkpt><trkpt lat="45.9023897" lon="11.9943346"><ele>262.0</ele><time>2026-04-18T09:08:29.144Z</time></trkpt><trkpt lat="45.9022683" lon="11.9942677"><ele>262.0</ele><time>2026-04-18T09:08:31.146Z</time></trkpt><trkpt lat="45.9021982" lon="11.9942691"><ele>262.0</ele><time>2026-04-18T09:08:32.144Z</time></trkpt><trkpt lat="45.9021327" lon="11.9942852"><ele>262.0</ele><time>2026-04-18T09:08:33.145Z</time></trkpt><trkpt lat="45.9020098" lon="11.9943298"><ele>262.0</ele><time>2026-04-18T09:08:35.144Z</time></trkpt><trkpt lat="45.9019395" lon="11.9943581"><ele>262.0</ele><time>2026-04-18T09:08:36.143Z</time></trkpt><trkpt lat="45.9018602" lon="11.9943824"><ele>262.0</ele><time>2026-04-18T09:08:37.144Z</time></trkpt><trkpt lat="45.9017857" lon="11.9944014"><ele>262.0</ele><time>2026-04-18T09:08:38.143Z</time></trkpt><trkpt lat="45.9017096" lon="11.9944219"><ele>262.0</ele><time>2026-04-18T09:08:39.144Z</time></trkpt><trkpt lat="45.9016335" lon="11.9944397"><ele>262.0</ele><time>2026-04-18T09:08:40.143Z</time></trkpt><trkpt lat="45.9015527" lon="11.9944467"><ele>261.66666666666663</ele><time>2026-04-18T09:08:41.144Z</time></trkpt><trkpt lat="45.9014762" lon="11.9944495"><ele>261.3333333333333</ele><time>2026-04-18T09:08:42.143Z</time></trkpt><trkpt lat="45.9013677" lon="11.9944584"><ele>261.0</ele><time>2026-04-18T09:08:44.143Z</time></trkpt><trkpt lat="45.9012765" lon="11.994458"><ele>260.6666666666667</ele><time>2026-04-18T09:08:46.143Z</time></trkpt><trkpt lat="45.9011726" lon="11.9944432"><ele>260.33333333333337</ele><time>2026-04-18T09:08:48.144Z</time></trkpt><trkpt lat="45.9011148" lon="11.9943916"><ele>260.0</ele><time>2026-04-18T09:08:49.145Z</time></trkpt><trkpt lat="45.9010578" lon="11.9943186"><ele>260.0</ele><time>2026-04-18T09:08:50.144Z</time></trkpt><trkpt lat="45.9009957" lon="11.9942284"><ele>260.0</ele><time>2026-04-18T09:08:51.144Z</time></trkpt><trkpt lat="45.9009392" lon="11.9941445"><ele>260.0</ele><time>2026-04-18T09:08:52.145Z</time></trkpt><trkpt lat="45.9008834" lon="11.9940624"><ele>260.0</ele><time>2026-04-18T09:08:53.144Z</time></trkpt><trkpt lat="45.9008252" lon="11.9939946"><ele>260.0</ele><time>2026-04-18T09:08:54.143Z</time></trkpt><trkpt lat="45.9007686" lon="11.9939259"><ele>260.0</ele><time>2026-04-18T09:08:55.143Z</time></trkpt><trkpt lat="45.9007172" lon="11.9938549"><ele>260.1666666666667</ele><time>2026-04-18T09:08:56.143Z</time></trkpt><trkpt lat="45.9006817" lon="11.9937709"><ele>260.33333333333337</ele><time>2026-04-18T09:08:57.144Z</time></trkpt><trkpt lat="45.9006527" lon="11.9936837"><ele>260.5</ele><time>2026-04-18T09:08:58.143Z</time></trkpt><trkpt lat="45.9006317" lon="11.9935832"><ele>260.6666666666667</ele><time>2026-04-18T09:08:59.143Z</time></trkpt><trkpt lat="45.9006114" lon="11.9934715"><ele>260.8333333333333</ele><time>2026-04-18T09:09:00.143Z</time></trkpt><trkpt lat="45.9006085" lon="11.9933457"><ele>261.0</ele><time>2026-04-18T09:09:01.144Z</time></trkpt><trkpt lat="45.9006461" lon="11.9932525"><ele>261.75</ele><time>2026-04-18T09:09:02.144Z</time></trkpt><trkpt lat="45.9007114" lon="11.9931594"><ele>262.5</ele><time>2026-04-18T09:09:03.143Z</time></trkpt><trkpt lat="45.9007789" lon="11.9930578"><ele>263.25</ele><time>2026-04-18T09:09:04.143Z</time></trkpt><trkpt lat="45.9008447" lon="11.9928931"><ele>264.0</ele><time>2026-04-18T09:09:05.144Z</time></trkpt><trkpt lat="45.9008927" lon="11.9927006"><ele>264.1666666666667</ele><time>2026-04-18T09:09:06.143Z</time></trkpt><trkpt lat="45.9009267" lon="11.9925393"><ele>264.3333333333333</ele><time>2026-04-18T09:09:07.144Z</time></trkpt><trkpt lat="45.9009583" lon="11.9924083"><ele>264.5</ele><time>2026-04-18T09:09:08.143Z</time></trkpt><trkpt lat="45.9009644" lon="11.9923063"><ele>264.66666666666663</ele><time>2026-04-18T09:09:09.143Z</time></trkpt><trkpt lat="45.9009193" lon="11.9922019"><ele>264.8333333333333</ele><time>2026-04-18T09:09:11.143Z</time></trkpt><trkpt lat="45.900898" lon="11.992116"><ele>265.0</ele><time>2026-04-18T09:12:37.143Z</time></trkpt><trkpt lat="45.9009523" lon="11.9921724"><ele>267.6</ele><time>2026-04-18T09:12:41.143Z</time></trkpt><trkpt lat="45.9010341" lon="11.9920977"><ele>270.2</ele><time>2026-04-18T09:12:45.142Z</time></trkpt><trkpt lat="45.9010601" lon="11.9919721"><ele>272.8</ele><time>2026-04-18T09:12:46.142Z</time></trkpt><trkpt lat="45.901093" lon="11.9918315"><ele>275.4</ele><time>2026-04-18T09:12:47.142Z</time></trkpt><trkpt lat="45.9011357" lon="11.991667"><ele>278.0</ele><time>2026-04-18T09:12:48.143Z</time></trkpt><trkpt lat="45.9011852" lon="11.9914867"><ele>278.0</ele><time>2026-04-18T09:12:49.144Z</time></trkpt><trkpt lat="45.9012297" lon="11.9912986"><ele>278.0</ele><time>2026-04-18T09:12:50.142Z</time></trkpt><trkpt lat="45.9012714" lon="11.9910978"><ele>278.0</ele><time>2026-04-18T09:12:51.142Z</time></trkpt><trkpt lat="45.9013173" lon="11.9908993"><ele>278.0</ele><time>2026-04-18T09:12:52.142Z</time></trkpt><trkpt lat="45.9013642" lon="11.9907109"><ele>278.0</ele><time>2026-04-18T09:12:53.143Z</time></trkpt><trkpt lat="45.9013886" lon="11.9905151"><ele>278.0</ele><time>2026-04-18T09:12:54.143Z</time></trkpt><trkpt lat="45.9013988" lon="11.9903103"><ele>278.0</ele><time>2026-04-18T09:12:55.143Z</time></trkpt><trkpt lat="45.901409" lon="11.9901022"><ele>278.0</ele><time>2026-04-18T09:12:56.144Z</time></trkpt><trkpt lat="45.9014261" lon="11.9899038"><ele>278.0</ele><time>2026-04-18T09:12:57.143Z</time></trkpt><trkpt lat="45.9014435" lon="11.9897183"><ele>278.0</ele><time>2026-04-18T09:12:58.143Z</time></trkpt><trkpt lat="45.9014644" lon="11.989544"><ele>278.0</ele><time>2026-04-18T09:12:59.144Z</time></trkpt><trkpt lat="45.9014759" lon="11.9893836"><ele>278.0</ele><time>2026-04-18T09:13:00.142Z</time></trkpt><trkpt lat="45.9014888" lon="11.9892374"><ele>277.6666666666667</ele><time>2026-04-18T09:13:01.143Z</time></trkpt><trkpt lat="45.901516" lon="11.9891074"><ele>277.33333333333337</ele><time>2026-04-18T09:13:02.143Z</time></trkpt><trkpt lat="45.9015637" lon="11.989004"><ele>277.0</ele><time>2026-04-18T09:13:03.143Z</time></trkpt><trkpt lat="45.9016169" lon="11.9889183"><ele>276.6666666666667</ele><time>2026-04-18T09:13:04.142Z</time></trkpt><trkpt lat="45.9016727" lon="11.9888303"><ele>276.3333333333333</ele><time>2026-04-18T09:13:05.144Z</time></trkpt><trkpt lat="45.9017263" lon="11.9887489"><ele>276.0</ele><time>2026-04-18T09:13:06.142Z</time></trkpt><trkpt lat="45.9017799" lon="11.9886668"><ele>276.1666666666667</ele><time>2026-04-18T09:13:07.142Z</time></trkpt><trkpt lat="45.9018322" lon="11.9885909"><ele>276.3333333333333</ele><time>2026-04-18T09:13:08.143Z</time></trkpt><trkpt lat="45.9018802" lon="11.9885195"><ele>276.5</ele><time>2026-04-18T09:13:09.143Z</time></trkpt><trkpt lat="45.9019824" lon="11.9884045"><ele>276.66666666666663</ele><time>2026-04-18T09:13:11.142Z</time></trkpt><trkpt lat="45.9020431" lon="11.9883525"><ele>276.8333333333333</ele><time>2026-04-18T09:13:12.142Z</time></trkpt><trkpt lat="45.9021053" lon="11.9882962"><ele>277.0</ele><time>2026-04-18T09:13:13.144Z</time></trkpt><trkpt lat="45.9021685" lon="11.9882398"><ele>277.0</ele><time>2026-04-18T09:13:14.144Z</time></trkpt><trkpt lat="45.9022357" lon="11.9881831"><ele>277.0</ele><time>2026-04-18T09:13:15.144Z</time></trkpt><trkpt lat="45.9023037" lon="11.9881302"><ele>277.0</ele><time>2026-04-18T09:13:16.142Z</time></trkpt><trkpt lat="45.9023787" lon="11.9880849"><ele>277.0</ele><time>2026-04-18T09:13:17.142Z</time></trkpt><trkpt lat="45.9024527" lon="11.988047"><ele>277.0</ele><time>2026-04-18T09:13:18.143Z</time></trkpt><trkpt lat="45.9025271" lon="11.9880225"><ele>277.0</ele><time>2026-04-18T09:13:19.143Z</time></trkpt><trkpt lat="45.9026034" lon="11.9880011"><ele>277.4</ele><time>2026-04-18T09:13:20.143Z</time></trkpt><trkpt lat="45.9026797" lon="11.9879782"><ele>277.79999999999995</ele><time>2026-04-18T09:13:21.143Z</time></trkpt><trkpt lat="45.9027493" lon="11.9879618"><ele>278.2</ele><time>2026-04-18T09:13:22.143Z</time></trkpt><trkpt lat="45.9028208" lon="11.9879506"><ele>278.59999999999997</ele><time>2026-04-18T09:13:23.143Z</time></trkpt><trkpt lat="45.9029415" lon="11.9879018"><ele>279.0</ele><time>2026-04-18T09:13:25.142Z</time></trkpt><trkpt lat="45.9029969" lon="11.9877586"><ele>279.0</ele><time>2026-04-18T09:13:27.142Z</time></trkpt><trkpt lat="45.9030199" lon="11.9876652"><ele>279.0</ele><time>2026-04-18T09:13:30.143Z</time></trkpt><trkpt lat="45.9031282" lon="11.9875889"><ele>279.0</ele><time>2026-04-18T09:14:08.143Z</time></trkpt><trkpt lat="45.9031953" lon="11.9875773"><ele>279.0</ele><time>2026-04-18T09:14:09.142Z</time></trkpt><trkpt lat="45.9033103" lon="11.9876036"><ele>279.0</ele><time>2026-04-18T09:14:10.143Z</time></trkpt><trkpt lat="45.9034241" lon="11.9876497"><ele>280.3333333333333</ele><time>2026-04-18T09:14:11.144Z</time></trkpt><trkpt lat="45.9035506" lon="11.9877032"><ele>281.66666666666663</ele><time>2026-04-18T09:14:12.142Z</time></trkpt><trkpt lat="45.9037059" lon="11.987727"><ele>283.0</ele><time>2026-04-18T09:14:13.144Z</time></trkpt><trkpt lat="45.9038693" lon="11.9877288"><ele>283.0</ele><time>2026-04-18T09:14:14.143Z</time></trkpt><trkpt lat="45.9040462" lon="11.9877249"><ele>283.0</ele><time>2026-04-18T09:14:15.142Z</time></trkpt><trkpt lat="45.9042279" lon="11.9877504"><ele>283.0</ele><time>2026-04-18T09:14:16.143Z</time></trkpt><trkpt lat="45.904393" lon="11.9877828"><ele>285.66666666666663</ele><time>2026-04-18T09:14:17.142Z</time></trkpt><trkpt lat="45.9045427" lon="11.9877967"><ele>288.3333333333333</ele><time>2026-04-18T09:14:18.144Z</time></trkpt><trkpt lat="45.9046902" lon="11.9877635"><ele>291.0</ele><time>2026-04-18T09:14:19.142Z</time></trkpt><trkpt lat="45.9048524" lon="11.9877001"><ele>291.0</ele><time>2026-04-18T09:14:20.143Z</time></trkpt><trkpt lat="45.90502" lon="11.9876462"><ele>291.0</ele><time>2026-04-18T09:14:21.142Z</time></trkpt><trkpt lat="45.9051884" lon="11.98763"><ele>291.0</ele><time>2026-04-18T09:14:22.143Z</time></trkpt><trkpt lat="45.9053553" lon="11.9876338"><ele>292.6666666666667</ele><time>2026-04-18T09:14:23.143Z</time></trkpt><trkpt lat="45.9055216" lon="11.987647"><ele>294.33333333333337</ele><time>2026-04-18T09:14:24.143Z</time></trkpt><trkpt lat="45.9056674" lon="11.9876358"><ele>296.0</ele><time>2026-04-18T09:14:25.142Z</time></trkpt><trkpt lat="45.9058147" lon="11.9875864"><ele>293.0</ele><time>2026-04-18T09:14:26.143Z</time></trkpt><trkpt lat="45.9059659" lon="11.9874881"><ele>290.0</ele><time>2026-04-18T09:14:27.142Z</time></trkpt><trkpt lat="45.9061294" lon="11.9873873"><ele>287.0</ele><time>2026-04-18T09:14:28.142Z</time></trkpt><trkpt lat="45.9063032" lon="11.9873071"><ele>287.0</ele><time>2026-04-18T09:14:29.143Z</time></trkpt><trkpt lat="45.9064783" lon="11.9872456"><ele>287.0</ele><time>2026-04-18T09:14:30.142Z</time></trkpt><trkpt lat="45.9066518" lon="11.9871937"><ele>287.0</ele><time>2026-04-18T09:14:31.142Z</time></trkpt><trkpt lat="45.9068114" lon="11.9871637"><ele>289.5</ele><time>2026-04-18T09:14:32.142Z</time></trkpt><trkpt lat="45.9069562" lon="11.9871567"><ele>292.0</ele><time>2026-04-18T09:14:33.143Z</time></trkpt><trkpt lat="45.9070943" lon="11.9871807"><ele>294.5</ele><time>2026-04-18T09:14:34.142Z</time></trkpt><trkpt lat="45.9072191" lon="11.9872131"><ele>297.0</ele><time>2026-04-18T09:14:35.142Z</time></trkpt><trkpt lat="45.9073495" lon="11.9872979"><ele>297.0</ele><time>2026-04-18T09:14:36.142Z</time></trkpt><trkpt lat="45.9074824" lon="11.9874088"><ele>297.0</ele><time>2026-04-18T09:14:37.143Z</time></trkpt><trkpt lat="45.9076348" lon="11.9875289"><ele>297.0</ele><time>2026-04-18T09:14:38.143Z</time></trkpt><trkpt lat="45.9078" lon="11.9876452"><ele>300.0</ele><time>2026-04-18T09:14:39.143Z</time></trkpt><trkpt lat="45.9079496" lon="11.9877238"><ele>303.0</ele><time>2026-04-18T09:14:40.142Z</time></trkpt><trkpt lat="45.9080903" lon="11.98779"><ele>306.0</ele><time>2026-04-18T09:14:41.143Z</time></trkpt><trkpt lat="45.9082295" lon="11.9878845"><ele>306.0</ele><time>2026-04-18T09:14:42.143Z</time></trkpt><trkpt lat="45.9083675" lon="11.9879966"><ele>306.0</ele><time>2026-04-18T09:14:43.142Z</time></trkpt><trkpt lat="45.9084979" lon="11.9881301"><ele>306.0</ele><time>2026-04-18T09:14:44.142Z</time></trkpt><trkpt lat="45.9086184" lon="11.9882726"><ele>308.5</ele><time>2026-04-18T09:14:45.142Z</time></trkpt><trkpt lat="45.9087271" lon="11.9884045"><ele>311.0</ele><time>2026-04-18T09:14:46.142Z</time></trkpt><trkpt lat="45.9088295" lon="11.9885154"><ele>313.5</ele><time>2026-04-18T09:14:47.142Z</time></trkpt><trkpt lat="45.9089191" lon="11.9886046"><ele>316.0</ele><time>2026-04-18T09:14:48.142Z</time></trkpt><trkpt lat="45.9089876" lon="11.9886966"><ele>316.0</ele><time>2026-04-18T09:14:49.142Z</time></trkpt><trkpt lat="45.9090358" lon="11.9887652"><ele>316.0</ele><time>2026-04-18T09:14:50.142Z</time></trkpt><trkpt lat="45.909108" lon="11.9888436"><ele>316.0</ele><time>2026-04-18T09:14:52.141Z</time></trkpt><trkpt lat="45.9091769" lon="11.988778"><ele>316.0</ele><time>2026-04-18T09:14:54.141Z</time></trkpt><trkpt lat="45.9092261" lon="11.9886861"><ele>316.0</ele><time>2026-04-18T09:14:55.142Z</time></trkpt><trkpt lat="45.9092834" lon="11.9885667"><ele>316.0</ele><time>2026-04-18T09:14:56.142Z</time></trkpt><trkpt lat="45.9093521" lon="11.988412"><ele>318.20000000000005</ele><time>2026-04-18T09:14:57.142Z</time></trkpt><trkpt lat="45.9094229" lon="11.9882715"><ele>320.40000000000003</ele><time>2026-04-18T09:14:58.141Z</time></trkpt><trkpt lat="45.9094879" lon="11.9881431"><ele>322.6</ele><time>2026-04-18T09:14:59.141Z</time></trkpt><trkpt lat="45.9095401" lon="11.9880257"><ele>324.8</ele><time>2026-04-18T09:15:00.142Z</time></trkpt><trkpt lat="45.9095784" lon="11.9879196"><ele>327.0</ele><time>2026-04-18T09:15:01.141Z</time></trkpt><trkpt lat="45.909594" lon="11.9878173"><ele>327.0</ele><time>2026-04-18T09:15:02.142Z</time></trkpt><trkpt lat="45.9095923" lon="11.9877202"><ele>327.0</ele><time>2026-04-18T09:15:03.141Z</time></trkpt><trkpt lat="45.9095609" lon="11.9876416"><ele>327.0</ele><time>2026-04-18T09:15:04.143Z</time></trkpt><trkpt lat="45.9095023" lon="11.9875668"><ele>327.0</ele><time>2026-04-18T09:15:05.143Z</time></trkpt><trkpt lat="45.9094184" lon="11.9874879"><ele>327.0</ele><time>2026-04-18T09:15:06.142Z</time></trkpt><trkpt lat="45.9093192" lon="11.9873947"><ele>327.0</ele><time>2026-04-18T09:15:07.141Z</time></trkpt><trkpt lat="45.9092444" lon="11.9872802"><ele>324.25</ele><time>2026-04-18T09:15:08.141Z</time></trkpt><trkpt lat="45.9091778" lon="11.9871324"><ele>321.5</ele><time>2026-04-18T09:15:09.142Z</time></trkpt><trkpt lat="45.9091073" lon="11.986978"><ele>318.75</ele><time>2026-04-18T09:15:10.141Z</time></trkpt><trkpt lat="45.9090167" lon="11.9868547"><ele>316.0</ele><time>2026-04-18T09:15:11.141Z</time></trkpt><trkpt lat="45.9089167" lon="11.9867423"><ele>320.5</ele><time>2026-04-18T09:15:12.141Z</time></trkpt><trkpt lat="45.9088233" lon="11.9866065"><ele>325.0</ele><time>2026-04-18T09:15:13.142Z</time></trkpt><trkpt lat="45.9087371" lon="11.9864604"><ele>329.5</ele><time>2026-04-18T09:15:14.142Z</time></trkpt><trkpt lat="45.9086459" lon="11.9863031"><ele>334.0</ele><time>2026-04-18T09:15:15.141Z</time></trkpt><trkpt lat="45.9085511" lon="11.9861455"><ele>334.0</ele><time>2026-04-18T09:15:16.141Z</time></trkpt><trkpt lat="45.9084723" lon="11.986011"><ele>334.0</ele><time>2026-04-18T09:15:17.142Z</time></trkpt><trkpt lat="45.9084137" lon="11.9858627"><ele>334.0</ele><time>2026-04-18T09:15:18.141Z</time></trkpt><trkpt lat="45.9083777" lon="11.9856865"><ele>334.0</ele><time>2026-04-18T09:15:19.141Z</time></trkpt><trkpt lat="45.9083457" lon="11.9854904"><ele>333.0</ele><time>2026-04-18T09:15:20.142Z</time></trkpt><trkpt lat="45.9083207" lon="11.9853227"><ele>332.0</ele><time>2026-04-18T09:15:21.141Z</time></trkpt><trkpt lat="45.9083047" lon="11.9851998"><ele>331.0</ele><time>2026-04-18T09:15:22.142Z</time></trkpt><trkpt lat="45.9083277" lon="11.9850676"><ele>330.0</ele><time>2026-04-18T09:15:24.142Z</time></trkpt><trkpt lat="45.9084176" lon="11.9851349"><ele>329.0</ele><time>2026-04-18T09:15:26.141Z</time></trkpt><trkpt lat="45.9084603" lon="11.9852444"><ele>335.79999999999995</ele><time>2026-04-18T09:15:27.141Z</time></trkpt><trkpt lat="45.908506" lon="11.9853671"><ele>342.59999999999997</ele><time>2026-04-18T09:15:28.141Z</time></trkpt><trkpt lat="45.9085801" lon="11.9854654"><ele>349.4</ele><time>2026-04-18T09:15:29.143Z</time></trkpt><trkpt lat="45.9086582" lon="11.9855615"><ele>356.2</ele><time>2026-04-18T09:15:30.141Z</time></trkpt><trkpt lat="45.9087578" lon="11.9856272"><ele>363.0</ele><time>2026-04-18T09:15:31.141Z</time></trkpt><trkpt lat="45.9088091" lon="11.9856903"><ele>363.0</ele><time>2026-04-18T09:15:32.142Z</time></trkpt><trkpt lat="45.9088825" lon="11.9856723"><ele>363.0</ele><time>2026-04-18T09:15:34.141Z</time></trkpt><trkpt lat="45.9088598" lon="11.9855575"><ele>363.0</ele><time>2026-04-18T09:15:36.142Z</time></trkpt><trkpt lat="45.9088145" lon="11.9854806"><ele>363.0</ele><time>2026-04-18T09:15:37.142Z</time></trkpt><trkpt lat="45.9087613" lon="11.9853819"><ele>363.0</ele><time>2026-04-18T09:15:38.141Z</time></trkpt><trkpt lat="45.9087212" lon="11.9852709"><ele>363.0</ele><time>2026-04-18T09:15:39.141Z</time></trkpt><trkpt lat="45.9086999" lon="11.9851227"><ele>367.4</ele><time>2026-04-18T09:15:40.141Z</time></trkpt><trkpt lat="45.908703" lon="11.9849514"><ele>371.79999999999995</ele><time>2026-04-18T09:15:41.141Z</time></trkpt><trkpt lat="45.9086999" lon="11.9847653"><ele>376.2</ele><time>2026-04-18T09:15:42.141Z</time></trkpt><trkpt lat="45.9086937" lon="11.9846158"><ele>380.6</ele><time>2026-04-18T09:15:43.143Z</time></trkpt><trkpt lat="45.9086918" lon="11.9844908"><ele>385.0</ele><time>2026-04-18T09:15:44.143Z</time></trkpt><trkpt lat="45.908698" lon="11.9843919"><ele>385.0</ele><time>2026-04-18T09:15:45.143Z</time></trkpt><trkpt lat="45.9087782" lon="11.9843199"><ele>385.0</ele><time>2026-04-18T09:15:47.141Z</time></trkpt><trkpt lat="45.9088686" lon="11.9844122"><ele>385.0</ele><time>2026-04-18T09:15:49.141Z</time></trkpt><trkpt lat="45.9089101" lon="11.9844861"><ele>385.0</ele><time>2026-04-18T09:15:50.141Z</time></trkpt><trkpt lat="45.9089366" lon="11.9846161"><ele>385.0</ele><time>2026-04-18T09:15:51.141Z</time></trkpt><trkpt lat="45.9089774" lon="11.9847331"><ele>385.0</ele><time>2026-04-18T09:15:52.142Z</time></trkpt><trkpt lat="45.9090305" lon="11.984847"><ele>385.0</ele><time>2026-04-18T09:15:53.142Z</time></trkpt><trkpt lat="45.9090858" lon="11.9849652"><ele>385.0</ele><time>2026-04-18T09:15:54.141Z</time></trkpt><trkpt lat="45.909151" lon="11.9850791"><ele>385.0</ele><time>2026-04-18T09:15:55.141Z</time></trkpt><trkpt lat="45.909216" lon="11.9851916"><ele>385.0</ele><time>2026-04-18T09:15:56.143Z</time></trkpt><trkpt lat="45.9092862" lon="11.9853269"><ele>388.0</ele><time>2026-04-18T09:15:57.142Z</time></trkpt><trkpt lat="45.9093624" lon="11.9854432"><ele>391.0</ele><time>2026-04-18T09:15:58.141Z</time></trkpt><trkpt lat="45.9094308" lon="11.9855666"><ele>394.0</ele><time>2026-04-18T09:15:59.142Z</time></trkpt><trkpt lat="45.9094861" lon="11.9856832"><ele>397.0</ele><time>2026-04-18T09:16:00.143Z</time></trkpt><trkpt lat="45.9095405" lon="11.9857834"><ele>400.0</ele><time>2026-04-18T09:16:01.141Z</time></trkpt><trkpt lat="45.9096014" lon="11.9858732"><ele>393.0</ele><time>2026-04-18T09:16:02.141Z</time></trkpt><trkpt lat="45.9096615" lon="11.9859575"><ele>386.0</ele><time>2026-04-18T09:16:03.141Z</time></trkpt><trkpt lat="45.9097232" lon="11.9860246"><ele>379.0</ele><time>2026-04-18T09:16:04.142Z</time></trkpt><trkpt lat="45.9098098" lon="11.9860962"><ele>372.0</ele><time>2026-04-18T09:16:05.141Z</time></trkpt><trkpt lat="45.909915" lon="11.9861526"><ele>365.0</ele><time>2026-04-18T09:16:06.141Z</time></trkpt><trkpt lat="45.9100041" lon="11.9861597"><ele>369.6</ele><time>2026-04-18T09:16:07.141Z</time></trkpt><trkpt lat="45.9100967" lon="11.9861967"><ele>374.2</ele><time>2026-04-18T09:16:08.143Z</time></trkpt><trkpt lat="45.9101778" lon="11.9862717"><ele>378.79999999999995</ele><time>2026-04-18T09:16:09.141Z</time></trkpt><trkpt lat="45.9102698" lon="11.9863203"><ele>383.4</ele><time>2026-04-18T09:16:10.142Z</time></trkpt><trkpt lat="45.9103795" lon="11.9863564"><ele>388.0</ele><time>2026-04-18T09:16:11.142Z</time></trkpt><trkpt lat="45.9104526" lon="11.9863624"><ele>388.0</ele><time>2026-04-18T09:16:12.142Z</time></trkpt><trkpt lat="45.9105716" lon="11.9863568"><ele>388.0</ele><time>2026-04-18T09:16:13.143Z</time></trkpt><trkpt lat="45.9106851" lon="11.9863635"><ele>388.0</ele><time>2026-04-18T09:16:14.141Z</time></trkpt><trkpt lat="45.9108006" lon="11.9863574"><ele>388.0</ele><time>2026-04-18T09:16:15.142Z</time></trkpt><trkpt lat="45.9109203" lon="11.9863462"><ele>393.5</ele><time>2026-04-18T09:16:16.141Z</time></trkpt><trkpt lat="45.9110144" lon="11.9863941"><ele>399.0</ele><time>2026-04-18T09:16:17.143Z</time></trkpt><trkpt lat="45.911113" lon="11.986416"><ele>404.5</ele><time>2026-04-18T09:16:18.142Z</time></trkpt><trkpt lat="45.9112513" lon="11.9864818"><ele>410.0</ele><time>2026-04-18T09:16:19.143Z</time></trkpt><trkpt lat="45.9113838" lon="11.986552"><ele>410.0</ele><time>2026-04-18T09:16:20.141Z</time></trkpt><trkpt lat="45.911495" lon="11.9866253"><ele>410.0</ele><time>2026-04-18T09:16:21.143Z</time></trkpt><trkpt lat="45.9116105" lon="11.986685"><ele>410.0</ele><time>2026-04-18T09:16:22.141Z</time></trkpt><trkpt lat="45.9117088" lon="11.9867655"><ele>410.0</ele><time>2026-04-18T09:16:23.143Z</time></trkpt><trkpt lat="45.9118005" lon="11.9868304"><ele>416.25</ele><time>2026-04-18T09:16:24.141Z</time></trkpt><trkpt lat="45.9118727" lon="11.9869347"><ele>422.5</ele><time>2026-04-18T09:16:25.142Z</time></trkpt><trkpt lat="45.9119575" lon="11.9871021"><ele>428.75</ele><time>2026-04-18T09:16:26.142Z</time></trkpt><trkpt lat="45.9120528" lon="11.9872987"><ele>435.0</ele><time>2026-04-18T09:16:27.142Z</time></trkpt><trkpt lat="45.9121483" lon="11.9874249"><ele>431.0</ele><time>2026-04-18T09:16:28.143Z</time></trkpt><trkpt lat="45.9121965" lon="11.9875854"><ele>427.0</ele><time>2026-04-18T09:16:29.141Z</time></trkpt><trkpt lat="45.9122558" lon="11.9877078"><ele>423.0</ele><time>2026-04-18T09:16:30.141Z</time></trkpt><trkpt lat="45.9123183" lon="11.9878344"><ele>419.0</ele><time>2026-04-18T09:16:31.142Z</time></trkpt><trkpt lat="45.9124135" lon="11.9879472"><ele>419.0</ele><time>2026-04-18T09:16:32.141Z</time></trkpt><trkpt lat="45.9124842" lon="11.9880694"><ele>419.0</ele><time>2026-04-18T09:16:33.142Z</time></trkpt><trkpt lat="45.9125723" lon="11.9881462"><ele>419.0</ele><time>2026-04-18T09:16:34.142Z</time></trkpt><trkpt lat="45.912653" lon="11.9882462"><ele>419.0</ele><time>2026-04-18T09:16:35.141Z</time></trkpt><trkpt lat="45.9126981" lon="11.9883441"><ele>419.0</ele><time>2026-04-18T09:16:36.143Z</time></trkpt><trkpt lat="45.9127081" lon="11.9884556"><ele>423.3333333333333</ele><time>2026-04-18T09:16:37.142Z</time></trkpt><trkpt lat="45.912764" lon="11.9885457"><ele>427.66666666666663</ele><time>2026-04-18T09:16:38.141Z</time></trkpt><trkpt lat="45.9128089" lon="11.9886449"><ele>432.0</ele><time>2026-04-18T09:16:39.143Z</time></trkpt><trkpt lat="45.9128651" lon="11.9887362"><ele>436.33333333333337</ele><time>2026-04-18T09:16:40.142Z</time></trkpt><trkpt lat="45.9129255" lon="11.9888285"><ele>440.6666666666667</ele><time>2026-04-18T09:16:41.143Z</time></trkpt><trkpt lat="45.9129922" lon="11.9889303"><ele>445.0</ele><time>2026-04-18T09:16:42.141Z</time></trkpt><trkpt lat="45.9130599" lon="11.9890517"><ele>441.6</ele><time>2026-04-18T09:16:43.141Z</time></trkpt><trkpt lat="45.9131193" lon="11.9891772"><ele>438.2</ele><time>2026-04-18T09:16:44.142Z</time></trkpt><trkpt lat="45.9131767" lon="11.9892897"><ele>434.79999999999995</ele><time>2026-04-18T09:16:45.141Z</time></trkpt><trkpt lat="45.9132361" lon="11.989399"><ele>431.4</ele><time>2026-04-18T09:16:46.142Z</time></trkpt><trkpt lat="45.913331" lon="11.9895048"><ele>428.0</ele><time>2026-04-18T09:16:47.141Z</time></trkpt><trkpt lat="45.9133752" lon="11.9896042"><ele>428.0</ele><time>2026-04-18T09:16:48.141Z</time></trkpt><trkpt lat="45.9134285" lon="11.9896886"><ele>427.99999999999994</ele><time>2026-04-18T09:16:49.142Z</time></trkpt><trkpt lat="45.9134847" lon="11.9897542"><ele>427.99999999999994</ele><time>2026-04-18T09:16:50.141Z</time></trkpt><trkpt lat="45.9134323" lon="11.9895562"><ele>428.0</ele><time>2026-04-18T09:16:52.143Z</time></trkpt><trkpt lat="45.9133716" lon="11.9893678"><ele>428.0</ele><time>2026-04-18T09:16:54.142Z</time></trkpt><trkpt lat="45.9133483" lon="11.9892204"><ele>431.4</ele><time>2026-04-18T09:16:55.142Z</time></trkpt><trkpt lat="45.9133188" lon="11.9890735"><ele>434.79999999999995</ele><time>2026-04-18T09:16:56.142Z</time></trkpt><trkpt lat="45.9133028" lon="11.9889177"><ele>438.2</ele><time>2026-04-18T09:16:57.142Z</time></trkpt><trkpt lat="45.9132882" lon="11.9887535"><ele>441.6</ele><time>2026-04-18T09:16:58.141Z</time></trkpt><trkpt lat="45.9132584" lon="11.9885939"><ele>445.0</ele><time>2026-04-18T09:16:59.141Z</time></trkpt><trkpt lat="45.9132219" lon="11.9884105"><ele>448.2</ele><time>2026-04-18T09:17:00.143Z</time></trkpt><trkpt lat="45.9131991" lon="11.98826"><ele>451.4</ele><time>2026-04-18T09:17:01.141Z</time></trkpt><trkpt lat="45.9132186" lon="11.9881528"><ele>454.6</ele><time>2026-04-18T09:17:02.141Z</time></trkpt><trkpt lat="45.9131923" lon="11.9880459"><ele>457.8</ele><time>2026-04-18T09:17:03.142Z</time></trkpt><trkpt lat="45.9131733" lon="11.9879128"><ele>461.0</ele><time>2026-04-18T09:17:04.141Z</time></trkpt><trkpt lat="45.9131428" lon="11.9877577"><ele>461.0</ele><time>2026-04-18T09:17:05.142Z</time></trkpt><trkpt lat="45.9131443" lon="11.9876094"><ele>461.0</ele><time>2026-04-18T09:17:06.143Z</time></trkpt><trkpt lat="45.9131381" lon="11.9874349"><ele>461.0</ele><time>2026-04-18T09:17:07.142Z</time></trkpt><trkpt lat="45.9131175" lon="11.9872965"><ele>461.0</ele><time>2026-04-18T09:17:08.142Z</time></trkpt><trkpt lat="45.9131103" lon="11.9871535"><ele>461.0</ele><time>2026-04-18T09:17:09.141Z</time></trkpt><trkpt lat="45.9131264" lon="11.9870266"><ele>463.8</ele><time>2026-04-18T09:17:10.142Z</time></trkpt><trkpt lat="45.9131374" lon="11.9869134"><ele>466.6</ele><time>2026-04-18T09:17:11.141Z</time></trkpt><trkpt lat="45.9131381" lon="11.9868071"><ele>469.4</ele><time>2026-04-18T09:17:12.143Z</time></trkpt><trkpt lat="45.913118" lon="11.9866922"><ele>472.2</ele><time>2026-04-18T09:17:13.141Z</time></trkpt><trkpt lat="45.9131247" lon="11.9865882"><ele>475.0</ele><time>2026-04-18T09:17:14.141Z</time></trkpt><trkpt lat="45.9130409" lon="11.9864074"><ele>479.0</ele><time>2026-04-18T09:17:15.143Z</time></trkpt><trkpt lat="45.9129889" lon="11.9862475"><ele>483.0</ele><time>2026-04-18T09:17:16.142Z</time></trkpt><trkpt lat="45.9129173" lon="11.9860703"><ele>487.0</ele><time>2026-04-18T09:17:17.143Z</time></trkpt><trkpt lat="45.9128612" lon="11.985912"><ele>491.0</ele><time>2026-04-18T09:17:18.141Z</time></trkpt><trkpt lat="45.9128064" lon="11.9857607"><ele>496.5</ele><time>2026-04-18T09:17:19.142Z</time></trkpt><trkpt lat="45.9127633" lon="11.9856049"><ele>502.0</ele><time>2026-04-18T09:17:20.141Z</time></trkpt><trkpt lat="45.9127033" lon="11.9854514"><ele>507.5</ele><time>2026-04-18T09:17:21.142Z</time></trkpt><trkpt lat="45.9126192" lon="11.9853341"><ele>513.0</ele><time>2026-04-18T09:17:22.142Z</time></trkpt><trkpt lat="45.9125546" lon="11.985172"><ele>511.0</ele><time>2026-04-18T09:17:23.142Z</time></trkpt><trkpt lat="45.9124889" lon="11.9850789"><ele>508.99999999999994</ele><time>2026-04-18T09:17:24.142Z</time></trkpt><trkpt lat="45.9124241" lon="11.9849519"><ele>506.99999999999994</ele><time>2026-04-18T09:17:25.142Z</time></trkpt><trkpt lat="45.9123434" lon="11.9848287"><ele>505.0</ele><time>2026-04-18T09:17:26.141Z</time></trkpt><trkpt lat="45.9122697" lon="11.9847043"><ele>503.0</ele><time>2026-04-18T09:17:27.142Z</time></trkpt><trkpt lat="45.9121703" lon="11.9845886"><ele>503.0</ele><time>2026-04-18T09:17:28.141Z</time></trkpt><trkpt lat="45.9120609" lon="11.9844934"><ele>503.0</ele><time>2026-04-18T09:17:29.142Z</time></trkpt><trkpt lat="45.9119784" lon="11.9844239"><ele>503.0</ele><time>2026-04-18T09:17:30.142Z</time></trkpt><trkpt lat="45.9118348" lon="11.984508"><ele>503.0</ele><time>2026-04-18T09:17:31.142Z</time></trkpt><trkpt lat="45.9117468" lon="11.9845195"><ele>503.0</ele><time>2026-04-18T09:17:33.141Z</time></trkpt><trkpt lat="45.9118102" lon="11.984453"><ele>502.99999999999994</ele><time>2026-04-18T09:17:36.142Z</time></trkpt><trkpt lat="45.9118842" lon="11.9844415"><ele>502.99999999999994</ele><time>2026-04-18T09:17:37.142Z</time></trkpt><trkpt lat="45.9120543" lon="11.9844703"><ele>503.0</ele><time>2026-04-18T09:17:38.142Z</time></trkpt><trkpt lat="45.9121673" lon="11.9845293"><ele>503.0</ele><time>2026-04-18T09:17:39.142Z</time></trkpt><trkpt lat="45.9122822" lon="11.9845706"><ele>503.0</ele><time>2026-04-18T09:17:40.141Z</time></trkpt><trkpt lat="45.9124089" lon="11.9846258"><ele>503.0</ele><time>2026-04-18T09:17:41.142Z</time></trkpt><trkpt lat="45.9125667" lon="11.9846992"><ele>503.0</ele><time>2026-04-18T09:17:42.142Z</time></trkpt><trkpt lat="45.9127041" lon="11.9847543"><ele>503.0</ele><time>2026-04-18T09:17:43.141Z</time></trkpt><trkpt lat="45.9128288" lon="11.9848007"><ele>505.5</ele><time>2026-04-18T09:17:44.143Z</time></trkpt><trkpt lat="45.9129509" lon="11.9848998"><ele>508.0</ele><time>2026-04-18T09:17:45.14Z</time></trkpt><trkpt lat="45.9130478" lon="11.9849662"><ele>510.5</ele><time>2026-04-18T09:17:46.14Z</time></trkpt><trkpt lat="45.9131158" lon="11.9851107"><ele>513.0</ele><time>2026-04-18T09:17:47.14Z</time></trkpt><trkpt lat="45.9132069" lon="11.9852062"><ele>513.0</ele><time>2026-04-18T09:17:48.141Z</time></trkpt><trkpt lat="45.9133012" lon="11.9852988"><ele>513.0</ele><time>2026-04-18T09:17:49.141Z</time></trkpt><trkpt lat="45.9133902" lon="11.9854151"><ele>513.0</ele><time>2026-04-18T09:17:50.141Z</time></trkpt><trkpt lat="45.9134817" lon="11.9855588"><ele>513.0</ele><time>2026-04-18T09:17:51.141Z</time></trkpt><trkpt lat="45.9135826" lon="11.9857068"><ele>519.75</ele><time>2026-04-18T09:17:52.141Z</time></trkpt><trkpt lat="45.9136865" lon="11.9858381"><ele>526.5</ele><time>2026-04-18T09:17:53.141Z</time></trkpt><trkpt lat="45.9137705" lon="11.9859768"><ele>533.25</ele><time>2026-04-18T09:17:54.14Z</time></trkpt><trkpt lat="45.9138432" lon="11.9860814"><ele>540.0</ele><time>2026-04-18T09:17:55.141Z</time></trkpt><trkpt lat="45.9139162" lon="11.9861405"><ele>540.0</ele><time>2026-04-18T09:17:56.141Z</time></trkpt><trkpt lat="45.9139903" lon="11.9861987"><ele>540.0</ele><time>2026-04-18T09:17:57.14Z</time></trkpt><trkpt lat="45.9140867" lon="11.9862996"><ele>540.0</ele><time>2026-04-18T09:17:59.142Z</time></trkpt><trkpt lat="45.9141624" lon="11.98645"><ele>540.0</ele><time>2026-04-18T09:18:01.14Z</time></trkpt><trkpt lat="45.9142021" lon="11.9865343"><ele>540.0</ele><time>2026-04-18T09:18:02.141Z</time></trkpt><trkpt lat="45.9142333" lon="11.986638"><ele>548.8</ele><time>2026-04-18T09:18:03.141Z</time></trkpt><trkpt lat="45.9142658" lon="11.9867652"><ele>557.6</ele><time>2026-04-18T09:18:04.142Z</time></trkpt><trkpt lat="45.9143006" lon="11.986894"><ele>566.4</ele><time>2026-04-18T09:18:05.141Z</time></trkpt><trkpt lat="45.9143489" lon="11.9870374"><ele>575.2</ele><time>2026-04-18T09:18:06.141Z</time></trkpt><trkpt lat="45.9144301" lon="11.9872069"><ele>584.0</ele><time>2026-04-18T09:18:07.141Z</time></trkpt><trkpt lat="45.9145031" lon="11.9873576"><ele>578.3333333333333</ele><time>2026-04-18T09:18:08.141Z</time></trkpt><trkpt lat="45.9145831" lon="11.9875468"><ele>572.6666666666666</ele><time>2026-04-18T09:18:09.14Z</time></trkpt><trkpt lat="45.9146629" lon="11.9877448"><ele>567.0</ele><time>2026-04-18T09:18:10.141Z</time></trkpt><trkpt lat="45.9147033" lon="11.9879627"><ele>567.0</ele><time>2026-04-18T09:18:11.14Z</time></trkpt><trkpt lat="45.9147566" lon="11.9881602"><ele>567.0</ele><time>2026-04-18T09:18:12.14Z</time></trkpt><trkpt lat="45.9147898" lon="11.9882589"><ele>567.0</ele><time>2026-04-18T09:18:13.14Z</time></trkpt><trkpt lat="45.9148442" lon="11.9883669"><ele>567.0</ele><time>2026-04-18T09:18:14.14Z</time></trkpt><trkpt lat="45.9148775" lon="11.9885024"><ele>567.0</ele><time>2026-04-18T09:18:15.14Z</time></trkpt><trkpt lat="45.914919" lon="11.9886178"><ele>568.6666666666666</ele><time>2026-04-18T09:18:16.141Z</time></trkpt><trkpt lat="45.9149481" lon="11.9887231"><ele>570.3333333333334</ele><time>2026-04-18T09:18:17.14Z</time></trkpt><trkpt lat="45.9149817" lon="11.9888236"><ele>572.0</ele><time>2026-04-18T09:18:18.14Z</time></trkpt><trkpt lat="45.9150157" lon="11.9889321"><ele>573.6666666666667</ele><time>2026-04-18T09:18:19.141Z</time></trkpt><trkpt lat="45.9150532" lon="11.9890536"><ele>575.3333333333334</ele><time>2026-04-18T09:18:20.14Z</time></trkpt><trkpt lat="45.9151596" lon="11.9890903"><ele>577.0</ele><time>2026-04-18T09:18:21.14Z</time></trkpt><trkpt lat="45.9151942" lon="11.9892049"><ele>577.0</ele><time>2026-04-18T09:18:22.14Z</time></trkpt><trkpt lat="45.9152688" lon="11.9892884"><ele>577.0</ele><time>2026-04-18T09:18:23.141Z</time></trkpt><trkpt lat="45.9153356" lon="11.9893762"><ele>577.0</ele><time>2026-04-18T09:18:24.14Z</time></trkpt><trkpt lat="45.9154098" lon="11.9894763"><ele>577.0</ele><time>2026-04-18T09:18:25.14Z</time></trkpt><trkpt lat="45.9154625" lon="11.9895335"><ele>577.0</ele><time>2026-04-18T09:18:26.141Z</time></trkpt><trkpt lat="45.915553" lon="11.9895745"><ele>577.0</ele><time>2026-04-18T09:18:27.14Z</time></trkpt><trkpt lat="45.9156201" lon="11.9896344"><ele>577.0</ele><time>2026-04-18T09:18:28.141Z</time></trkpt><trkpt lat="45.9156927" lon="11.9897041"><ele>577.0</ele><time>2026-04-18T09:18:29.142Z</time></trkpt><trkpt lat="45.9157777" lon="11.989816"><ele>577.0</ele><time>2026-04-18T09:18:30.14Z</time></trkpt><trkpt lat="45.9158362" lon="11.9898862"><ele>577.0</ele><time>2026-04-18T09:18:31.141Z</time></trkpt><trkpt lat="45.9159212" lon="11.989971"><ele>577.0</ele><time>2026-04-18T09:18:32.141Z</time></trkpt><trkpt lat="45.9159912" lon="11.9900484"><ele>577.6</ele><time>2026-04-18T09:18:33.14Z</time></trkpt><trkpt lat="45.916056" lon="11.9901294"><ele>578.2</ele><time>2026-04-18T09:18:34.14Z</time></trkpt><trkpt lat="45.9161473" lon="11.9902253"><ele>578.8</ele><time>2026-04-18T09:18:35.14Z</time></trkpt><trkpt lat="45.9162687" lon="11.9903447"><ele>579.4</ele><time>2026-04-18T09:18:37.141Z</time></trkpt><trkpt lat="45.9163179" lon="11.9904026"><ele>580.0</ele><time>2026-04-18T09:18:38.141Z</time></trkpt><trkpt lat="45.9163817" lon="11.9904476"><ele>580.0</ele><time>2026-04-18T09:18:39.14Z</time></trkpt><trkpt lat="45.9164549" lon="11.9904996"><ele>580.0</ele><time>2026-04-18T09:18:40.141Z</time></trkpt><trkpt lat="45.9165232" lon="11.9905627"><ele>580.0</ele><time>2026-04-18T09:18:41.141Z</time></trkpt><trkpt lat="45.9166161" lon="11.9906225"><ele>580.0</ele><time>2026-04-18T09:18:42.141Z</time></trkpt><trkpt lat="45.9167131" lon="11.9906864"><ele>580.0</ele><time>2026-04-18T09:18:43.14Z</time></trkpt><trkpt lat="45.9167799" lon="11.9907778"><ele>582.8333333333334</ele><time>2026-04-18T09:18:44.141Z</time></trkpt><trkpt lat="45.916843" lon="11.9908562"><ele>585.6666666666667</ele><time>2026-04-18T09:18:45.14Z</time></trkpt><trkpt lat="45.9169125" lon="11.9909319"><ele>588.5</ele><time>2026-04-18T09:18:46.141Z</time></trkpt><trkpt lat="45.9169788" lon="11.9910248"><ele>591.3333333333334</ele><time>2026-04-18T09:18:47.14Z</time></trkpt><trkpt lat="45.9170509" lon="11.9911048"><ele>594.1666666666666</ele><time>2026-04-18T09:18:48.141Z</time></trkpt><trkpt lat="45.9171208" lon="11.9911881"><ele>597.0</ele><time>2026-04-18T09:18:49.14Z</time></trkpt><trkpt lat="45.9172112" lon="11.9912548"><ele>597.0</ele><time>2026-04-18T09:18:50.141Z</time></trkpt><trkpt lat="45.9172717" lon="11.9913158"><ele>597.0</ele><time>2026-04-18T09:18:51.141Z</time></trkpt><trkpt lat="45.9173458" lon="11.9913258"><ele>597.0</ele><time>2026-04-18T09:18:52.141Z</time></trkpt><trkpt lat="45.9174221" lon="11.9913614"><ele>597.0</ele><time>2026-04-18T09:18:53.141Z</time></trkpt><trkpt lat="45.9175142" lon="11.9913618"><ele>597.0</ele><time>2026-04-18T09:18:54.142Z</time></trkpt><trkpt lat="45.9176083" lon="11.9913605"><ele>597.0</ele><time>2026-04-18T09:18:55.14Z</time></trkpt><trkpt lat="45.9176755" lon="11.9913838"><ele>603.2</ele><time>2026-04-18T09:18:56.142Z</time></trkpt><trkpt lat="45.9177396" lon="11.9914173"><ele>609.4000000000001</ele><time>2026-04-18T09:18:58.14Z</time></trkpt><trkpt lat="45.917699" lon="11.9916275"><ele>615.5999999999999</ele><time>2026-04-18T09:19:00.142Z</time></trkpt><trkpt lat="45.9176701" lon="11.9917447"><ele>621.8</ele><time>2026-04-18T09:19:01.141Z</time></trkpt><trkpt lat="45.9176538" lon="11.991877"><ele>628.0</ele><time>2026-04-18T09:19:02.14Z</time></trkpt><trkpt lat="45.917654" lon="11.9919972"><ele>628.0</ele><time>2026-04-18T09:19:03.141Z</time></trkpt><trkpt lat="45.917675" lon="11.9921267"><ele>628.0</ele><time>2026-04-18T09:19:04.141Z</time></trkpt><trkpt lat="45.9177143" lon="11.9922356"><ele>628.0</ele><time>2026-04-18T09:19:05.141Z</time></trkpt><trkpt lat="45.9177515" lon="11.9923278"><ele>628.0</ele><time>2026-04-18T09:19:06.141Z</time></trkpt><trkpt lat="45.917793" lon="11.9924146"><ele>628.0</ele><time>2026-04-18T09:19:07.14Z</time></trkpt><trkpt lat="45.9178356" lon="11.9924924"><ele>628.0</ele><time>2026-04-18T09:19:08.14Z</time></trkpt><trkpt lat="45.9178912" lon="11.9925772"><ele>626.0</ele><time>2026-04-18T09:19:09.14Z</time></trkpt><trkpt lat="45.9179432" lon="11.9926773"><ele>624.0</ele><time>2026-04-18T09:19:10.14Z</time></trkpt><trkpt lat="45.9179913" lon="11.9927941"><ele>622.0</ele><time>2026-04-18T09:19:11.141Z</time></trkpt><trkpt lat="45.9179881" lon="11.9929735"><ele>620.0</ele><time>2026-04-18T09:19:12.141Z</time></trkpt><trkpt lat="45.9180212" lon="11.9931213"><ele>618.0</ele><time>2026-04-18T09:19:13.141Z</time></trkpt><trkpt lat="45.918065" lon="11.9932699"><ele>618.4</ele><time>2026-04-18T09:19:14.14Z</time></trkpt><trkpt lat="45.9181051" lon="11.9934248"><ele>618.8</ele><time>2026-04-18T09:19:15.141Z</time></trkpt><trkpt lat="45.9181514" lon="11.9935867"><ele>619.2</ele><time>2026-04-18T09:19:16.14Z</time></trkpt><trkpt lat="45.9181865" lon="11.993743"><ele>619.6</ele><time>2026-04-18T09:19:17.141Z</time></trkpt><trkpt lat="45.9182164" lon="11.9938754"><ele>620.0</ele><time>2026-04-18T09:19:18.14Z</time></trkpt><trkpt lat="45.9182596" lon="11.9939986"><ele>620.0</ele><time>2026-04-18T09:19:19.141Z</time></trkpt><trkpt lat="45.9183316" lon="11.9941427"><ele>620.0</ele><time>2026-04-18T09:19:20.141Z</time></trkpt><trkpt lat="45.9183936" lon="11.9942818"><ele>620.0</ele><time>2026-04-18T09:19:21.14Z</time></trkpt><trkpt lat="45.9184477" lon="11.9944081"><ele>620.0</ele><time>2026-04-18T09:19:22.141Z</time></trkpt><trkpt lat="45.918468" lon="11.9945564"><ele>620.0</ele><time>2026-04-18T09:19:23.14Z</time></trkpt><trkpt lat="45.9184683" lon="11.9947002"><ele>624.5</ele><time>2026-04-18T09:19:24.141Z</time></trkpt><trkpt lat="45.9184767" lon="11.994839"><ele>629.0</ele><time>2026-04-18T09:19:25.141Z</time></trkpt><trkpt lat="45.9184823" lon="11.9949732"><ele>633.5</ele><time>2026-04-18T09:19:26.142Z</time></trkpt><trkpt lat="45.9185327" lon="11.9951077"><ele>638.0</ele><time>2026-04-18T09:19:27.141Z</time></trkpt><trkpt lat="45.9185642" lon="11.9951867"><ele>642.5</ele><time>2026-04-18T09:19:28.141Z</time></trkpt><trkpt lat="45.9185839" lon="11.9952979"><ele>647.0</ele><time>2026-04-18T09:19:29.141Z</time></trkpt><trkpt lat="45.9186378" lon="11.9953482"><ele>647.0</ele><time>2026-04-18T09:19:32.14Z</time></trkpt><trkpt lat="45.918683" lon="11.9952634"><ele>647.0</ele><time>2026-04-18T09:19:34.141Z</time></trkpt><trkpt lat="45.9187327" lon="11.9951538"><ele>647.0</ele><time>2026-04-18T09:19:36.14Z</time></trkpt><trkpt lat="45.918802" lon="11.994968"><ele>647.0</ele><time>2026-04-18T09:19:38.14Z</time></trkpt><trkpt lat="45.9188534" lon="11.9948792"><ele>647.0</ele><time>2026-04-18T09:19:39.14Z</time></trkpt><trkpt lat="45.9188958" lon="11.9947706"><ele>648.5</ele><time>2026-04-18T09:19:40.141Z</time></trkpt><trkpt lat="45.9189266" lon="11.994624"><ele>650.0</ele><time>2026-04-18T09:19:41.141Z</time></trkpt><trkpt lat="45.9189673" lon="11.9945185"><ele>651.5</ele><time>2026-04-18T09:19:42.142Z</time></trkpt><trkpt lat="45.9190126" lon="11.9944552"><ele>653.0</ele><time>2026-04-18T09:19:43.141Z</time></trkpt><trkpt lat="45.9190721" lon="11.994377"><ele>654.5</ele><time>2026-04-18T09:19:45.141Z</time></trkpt><trkpt lat="45.9191174" lon="11.9944625"><ele>656.0</ele><time>2026-04-18T09:19:46.14Z</time></trkpt><trkpt lat="45.9191343" lon="11.9946301"><ele>656.0</ele><time>2026-04-18T09:19:48.14Z</time></trkpt><trkpt lat="45.9191541" lon="11.9947982"><ele>656.0</ele><time>2026-04-18T09:19:49.141Z</time></trkpt><trkpt lat="45.9191716" lon="11.9949522"><ele>656.0</ele><time>2026-04-18T09:19:50.141Z</time></trkpt><trkpt lat="45.9191896" lon="11.9951195"><ele>656.0</ele><time>2026-04-18T09:19:51.141Z</time></trkpt><trkpt lat="45.9192154" lon="11.9952727"><ele>662.75</ele><time>2026-04-18T09:19:52.14Z</time></trkpt><trkpt lat="45.9192351" lon="11.9954052"><ele>669.5</ele><time>2026-04-18T09:19:53.14Z</time></trkpt><trkpt lat="45.9193726" lon="11.9954962"><ele>676.25</ele><time>2026-04-18T09:19:54.141Z</time></trkpt><trkpt lat="45.9194565" lon="11.995618"><ele>683.0</ele><time>2026-04-18T09:19:55.14Z</time></trkpt><trkpt lat="45.9195392" lon="11.9957317"><ele>682.1666666666666</ele><time>2026-04-18T09:19:56.141Z</time></trkpt><trkpt lat="45.9196048" lon="11.9958611"><ele>681.3333333333333</ele><time>2026-04-18T09:19:57.141Z</time></trkpt><trkpt lat="45.9196992" lon="11.9959314"><ele>680.5</ele><time>2026-04-18T09:19:58.14Z</time></trkpt><trkpt lat="45.9197636" lon="11.9959132"><ele>679.6666666666666</ele><time>2026-04-18T09:19:59.141Z</time></trkpt><trkpt lat="45.9198424" lon="11.9959682"><ele>678.8333333333334</ele><time>2026-04-18T09:20:00.14Z</time></trkpt><trkpt lat="45.9199044" lon="11.995994"><ele>678.0</ele><time>2026-04-18T09:20:01.14Z</time></trkpt><trkpt lat="45.9199777" lon="11.9960298"><ele>678.0</ele><time>2026-04-18T09:20:02.141Z</time></trkpt><trkpt lat="45.9200524" lon="11.9960569"><ele>678.0</ele><time>2026-04-18T09:20:03.141Z</time></trkpt><trkpt lat="45.9201215" lon="11.9961001"><ele>678.0</ele><time>2026-04-18T09:20:04.142Z</time></trkpt><trkpt lat="45.9201818" lon="11.9961468"><ele>678.0</ele><time>2026-04-18T09:20:05.141Z</time></trkpt><trkpt lat="45.9202197" lon="11.9962235"><ele>678.0</ele><time>2026-04-18T09:20:06.141Z</time></trkpt><trkpt lat="45.9202347" lon="11.9963409"><ele>678.0</ele><time>2026-04-18T09:20:07.14Z</time></trkpt><trkpt lat="45.920227" lon="11.996522"><ele>683.1666666666666</ele><time>2026-04-18T09:20:09.141Z</time></trkpt><trkpt lat="45.9202164" lon="11.996625"><ele>688.3333333333334</ele><time>2026-04-18T09:20:10.141Z</time></trkpt><trkpt lat="45.9201879" lon="11.9967433"><ele>693.5</ele><time>2026-04-18T09:20:11.141Z</time></trkpt><trkpt lat="45.920192" lon="11.996916"><ele>698.6666666666667</ele><time>2026-04-18T09:20:12.142Z</time></trkpt><trkpt lat="45.920176" lon="11.9970236"><ele>703.8333333333334</ele><time>2026-04-18T09:20:13.14Z</time></trkpt><trkpt lat="45.9201539" lon="11.9971244"><ele>709.0</ele><time>2026-04-18T09:20:14.141Z</time></trkpt><trkpt lat="45.9201324" lon="11.9972417"><ele>709.8000000000001</ele><time>2026-04-18T09:20:15.14Z</time></trkpt><trkpt lat="45.9201279" lon="11.9973529"><ele>710.6</ele><time>2026-04-18T09:20:16.141Z</time></trkpt><trkpt lat="45.9200999" lon="11.9974809"><ele>711.4</ele><time>2026-04-18T09:20:17.14Z</time></trkpt><trkpt lat="45.9200702" lon="11.997605"><ele>712.2</ele><time>2026-04-18T09:20:18.141Z</time></trkpt><trkpt lat="45.9200856" lon="11.9977358"><ele>713.0</ele><time>2026-04-18T09:20:19.142Z</time></trkpt><trkpt lat="45.9201103" lon="11.9978888"><ele>713.2</ele><time>2026-04-18T09:20:20.141Z</time></trkpt><trkpt lat="45.9202064" lon="11.998024"><ele>713.4</ele><time>2026-04-18T09:20:22.142Z</time></trkpt><trkpt lat="45.9202698" lon="11.998098"><ele>713.6</ele><time>2026-04-18T09:20:23.14Z</time></trkpt><trkpt lat="45.9203529" lon="11.9981784"><ele>713.8000000000001</ele><time>2026-04-18T09:20:24.141Z</time></trkpt><trkpt lat="45.9204276" lon="11.9982111"><ele>714.0</ele><time>2026-04-18T09:20:25.14Z</time></trkpt><trkpt lat="45.920511" lon="11.998245"><ele>714.0</ele><time>2026-04-18T09:20:26.142Z</time></trkpt><trkpt lat="45.9206106" lon="11.9982679"><ele>714.0</ele><time>2026-04-18T09:20:27.14Z</time></trkpt><trkpt lat="45.9206974" lon="11.9983227"><ele>714.0</ele><time>2026-04-18T09:20:28.14Z</time></trkpt><trkpt lat="45.9207717" lon="11.9983616"><ele>714.0</ele><time>2026-04-18T09:20:29.141Z</time></trkpt><trkpt lat="45.9208685" lon="11.9984013"><ele>714.0</ele><time>2026-04-18T09:20:31.141Z</time></trkpt><trkpt lat="45.9209322" lon="11.9982609"><ele>718.4000000000001</ele><time>2026-04-18T09:20:33.141Z</time></trkpt><trkpt lat="45.9209535" lon="11.9981607"><ele>722.8</ele><time>2026-04-18T09:20:34.142Z</time></trkpt><trkpt lat="45.9210326" lon="11.9980006"><ele>727.2</ele><time>2026-04-18T09:20:36.141Z</time></trkpt><trkpt lat="45.9211102" lon="11.9979451"><ele>731.5999999999999</ele><time>2026-04-18T09:20:37.142Z</time></trkpt><trkpt lat="45.9211993" lon="11.9978787"><ele>736.0</ele><time>2026-04-18T09:20:38.141Z</time></trkpt><trkpt lat="45.9212691" lon="11.997808"><ele>736.0</ele><time>2026-04-18T09:20:39.14Z</time></trkpt><trkpt lat="45.9213643" lon="11.9977607"><ele>736.0</ele><time>2026-04-18T09:20:40.141Z</time></trkpt><trkpt lat="45.9214059" lon="11.9976888"><ele>736.0</ele><time>2026-04-18T09:20:41.14Z</time></trkpt><trkpt lat="45.9214502" lon="11.9976083"><ele>736.0</ele><time>2026-04-18T09:20:42.141Z</time></trkpt><trkpt lat="45.9215336" lon="11.9974998"><ele>736.0</ele><time>2026-04-18T09:20:44.14Z</time></trkpt><trkpt lat="45.9215921" lon="11.9974558"><ele>736.0</ele><time>2026-04-18T09:20:45.14Z</time></trkpt><trkpt lat="45.9216951" lon="11.9973784"><ele>740.8333333333334</ele><time>2026-04-18T09:20:47.141Z</time></trkpt><trkpt lat="45.9217791" lon="11.9974129"><ele>745.6666666666667</ele><time>2026-04-18T09:20:48.14Z</time></trkpt><trkpt lat="45.9218896" lon="11.9974091"><ele>750.5</ele><time>2026-04-18T09:20:50.14Z</time></trkpt><trkpt lat="45.9219242" lon="11.9973316"><ele>755.3333333333334</ele><time>2026-04-18T09:20:51.141Z</time></trkpt><trkpt lat="45.9219084" lon="11.9972105"><ele>760.1666666666666</ele><time>2026-04-18T09:20:52.141Z</time></trkpt><trkpt lat="45.9218991" lon="11.9970859"><ele>765.0</ele><time>2026-04-18T09:20:53.14Z</time></trkpt><trkpt lat="45.9219199" lon="11.9969491"><ele>765.0</ele><time>2026-04-18T09:20:54.14Z</time></trkpt><trkpt lat="45.9219122" lon="11.996802"><ele>765.0</ele><time>2026-04-18T09:20:55.141Z</time></trkpt><trkpt lat="45.9219628" lon="11.9967411"><ele>765.0</ele><time>2026-04-18T09:20:59.139Z</time></trkpt><trkpt lat="45.9220647" lon="11.9968083"><ele>765.0</ele><time>2026-04-18T09:21:01.14Z</time></trkpt><trkpt lat="45.9220681" lon="11.9970323"><ele>765.0</ele><time>2026-04-18T09:21:02.141Z</time></trkpt><trkpt lat="45.9221259" lon="11.997202"><ele>765.0</ele><time>2026-04-18T09:21:03.139Z</time></trkpt><trkpt lat="45.9221682" lon="11.9973454"><ele>765.0</ele><time>2026-04-18T09:21:04.14Z</time></trkpt><trkpt lat="45.922231" lon="11.9974449"><ele>765.0</ele><time>2026-04-18T09:21:05.139Z</time></trkpt><trkpt lat="45.9222944" lon="11.9975245"><ele>765.0</ele><time>2026-04-18T09:21:06.14Z</time></trkpt><trkpt lat="45.9223255" lon="11.9976638"><ele>765.0</ele><time>2026-04-18T09:21:08.14Z</time></trkpt><trkpt lat="45.9222271" lon="11.9978073"><ele>765.0</ele><time>2026-04-18T09:21:10.139Z</time></trkpt><trkpt lat="45.9221274" lon="11.9979144"><ele>765.0</ele><time>2026-04-18T09:21:12.14Z</time></trkpt><trkpt lat="45.9220671" lon="11.9980514"><ele>765.0</ele><time>2026-04-18T09:21:14.141Z</time></trkpt><trkpt lat="45.9220574" lon="11.9982237"><ele>765.0</ele><time>2026-04-18T09:21:16.14Z</time></trkpt><trkpt lat="45.9220739" lon="11.9983396"><ele>765.0</ele><time>2026-04-18T09:21:17.14Z</time></trkpt><trkpt lat="45.922124" lon="11.9984745"><ele>764.8333333333334</ele><time>2026-04-18T09:21:19.139Z</time></trkpt><trkpt lat="45.9221987" lon="11.9985564"><ele>764.6666666666666</ele><time>2026-04-18T09:21:21.14Z</time></trkpt><trkpt lat="45.9222758" lon="11.9986493"><ele>764.5</ele><time>2026-04-18T09:21:35.14Z</time></trkpt><trkpt lat="45.9223355" lon="11.9987094"><ele>764.3333333333333</ele><time>2026-04-18T09:21:36.14Z</time></trkpt><trkpt lat="45.9224072" lon="11.9988163"><ele>764.1666666666666</ele><time>2026-04-18T09:21:37.139Z</time></trkpt><trkpt lat="45.9224569" lon="11.9988876"><ele>764.0</ele><time>2026-04-18T09:21:38.14Z</time></trkpt><trkpt lat="45.9225032" lon="11.9989851"><ele>764.0</ele><time>2026-04-18T09:21:39.139Z</time></trkpt><trkpt lat="45.9225601" lon="11.9990817"><ele>764.0</ele><time>2026-04-18T09:21:40.139Z</time></trkpt><trkpt lat="45.9226268" lon="11.9991804"><ele>764.0</ele><time>2026-04-18T09:21:41.139Z</time></trkpt><trkpt lat="45.922719" lon="11.9993351"><ele>764.0</ele><time>2026-04-18T09:21:43.14Z</time></trkpt><trkpt lat="45.9227152" lon="11.9994328"><ele>764.0</ele><time>2026-04-18T09:21:45.14Z</time></trkpt><trkpt lat="45.9227381" lon="11.9995285"><ele>765.4000000000001</ele><time>2026-04-18T09:21:47.14Z</time></trkpt><trkpt lat="45.9226488" lon="11.9996296"><ele>766.8</ele><time>2026-04-18T09:21:48.14Z</time></trkpt><trkpt lat="45.9225393" lon="11.9996618"><ele>768.2</ele><time>2026-04-18T09:21:49.139Z</time></trkpt><trkpt lat="45.9224821" lon="11.9997588"><ele>769.5999999999999</ele><time>2026-04-18T09:21:50.139Z</time></trkpt><trkpt lat="45.9224165" lon="11.9998499"><ele>771.0</ele><time>2026-04-18T09:21:51.139Z</time></trkpt><trkpt lat="45.9223586" lon="11.999972"><ele>771.0</ele><time>2026-04-18T09:21:52.139Z</time></trkpt><trkpt lat="45.922329" lon="12.0001016"><ele>771.0</ele><time>2026-04-18T09:21:53.14Z</time></trkpt><trkpt lat="45.9222892" lon="12.000214"><ele>771.0</ele><time>2026-04-18T09:21:54.141Z</time></trkpt><trkpt lat="45.922295" lon="12.0003702"><ele>771.0</ele><time>2026-04-18T09:21:55.139Z</time></trkpt><trkpt lat="45.9222801" lon="12.0005066"><ele>771.0</ele><time>2026-04-18T09:21:56.14Z</time></trkpt><trkpt lat="45.9222787" lon="12.0006449"><ele>771.0</ele><time>2026-04-18T09:21:57.139Z</time></trkpt><trkpt lat="45.9222836" lon="12.000747"><ele>771.0</ele><time>2026-04-18T09:21:58.14Z</time></trkpt><trkpt lat="45.9222915" lon="12.0008544"><ele>771.0</ele><time>2026-04-18T09:21:59.139Z</time></trkpt><trkpt lat="45.9223129" lon="12.000941"><ele>771.0</ele><time>2026-04-18T09:22:00.139Z</time></trkpt><trkpt lat="45.9223553" lon="12.0010284"><ele>771.0</ele><time>2026-04-18T09:22:01.139Z</time></trkpt><trkpt lat="45.9224216" lon="12.0011218"><ele>771.0</ele><time>2026-04-18T09:22:03.14Z</time></trkpt><trkpt lat="45.9225008" lon="12.0012546"><ele>777.6666666666666</ele><time>2026-04-18T09:22:05.14Z</time></trkpt><trkpt lat="45.9225917" lon="12.0013827"><ele>784.3333333333333</ele><time>2026-04-18T09:22:07.14Z</time></trkpt><trkpt lat="45.9226511" lon="12.0014553"><ele>791.0</ele><time>2026-04-18T09:22:08.14Z</time></trkpt><trkpt lat="45.9226941" lon="12.0015241"><ele>797.6666666666666</ele><time>2026-04-18T09:22:09.139Z</time></trkpt><trkpt lat="45.9227429" lon="12.0016105"><ele>804.3333333333333</ele><time>2026-04-18T09:22:10.14Z</time></trkpt><trkpt lat="45.9227973" lon="12.0016815"><ele>811.0</ele><time>2026-04-18T09:22:11.139Z</time></trkpt><trkpt lat="45.9228185" lon="12.0018058"><ele>811.0</ele><time>2026-04-18T09:22:12.14Z</time></trkpt><trkpt lat="45.9228664" lon="12.0019017"><ele>811.0</ele><time>2026-04-18T09:22:13.14Z</time></trkpt><trkpt lat="45.9229178" lon="12.0020022"><ele>811.0</ele><time>2026-04-18T09:22:14.139Z</time></trkpt><trkpt lat="45.9229697" lon="12.0021218"><ele>811.0</ele><time>2026-04-18T09:22:15.139Z</time></trkpt><trkpt lat="45.923012" lon="12.0022339"><ele>811.0</ele><time>2026-04-18T09:22:16.14Z</time></trkpt><trkpt lat="45.9231009" lon="12.0023657"><ele>811.0</ele><time>2026-04-18T09:22:17.139Z</time></trkpt><trkpt lat="45.9231773" lon="12.002451"><ele>811.0</ele><time>2026-04-18T09:22:18.139Z</time></trkpt><trkpt lat="45.9232199" lon="12.0025963"><ele>811.0</ele><time>2026-04-18T09:22:19.14Z</time></trkpt><trkpt lat="45.9233024" lon="12.0027313"><ele>811.0</ele><time>2026-04-18T09:22:20.139Z</time></trkpt><trkpt lat="45.9234151" lon="12.0028733"><ele>818.8</ele><time>2026-04-18T09:22:21.141Z</time></trkpt><trkpt lat="45.9234798" lon="12.0030122"><ele>826.5999999999999</ele><time>2026-04-18T09:22:22.139Z</time></trkpt><trkpt lat="45.9235453" lon="12.0031505"><ele>834.4</ele><time>2026-04-18T09:22:23.14Z</time></trkpt><trkpt lat="45.9235915" lon="12.0032602"><ele>842.2</ele><time>2026-04-18T09:22:25.139Z</time></trkpt><trkpt lat="45.9235925" lon="12.0031581"><ele>850.0</ele><time>2026-04-18T09:22:29.14Z</time></trkpt><trkpt lat="45.923514" lon="12.0030285"><ele>849.9999999999999</ele><time>2026-04-18T09:22:30.139Z</time></trkpt><trkpt lat="45.9234655" lon="12.0029176"><ele>850.0</ele><time>2026-04-18T09:22:31.139Z</time></trkpt><trkpt lat="45.9234589" lon="12.0028097"><ele>850.0</ele><time>2026-04-18T09:22:32.14Z</time></trkpt><trkpt lat="45.9234464" lon="12.0026984"><ele>850.0</ele><time>2026-04-18T09:22:33.139Z</time></trkpt><trkpt lat="45.9234211" lon="12.0025863"><ele>849.9999999999999</ele><time>2026-04-18T09:22:34.14Z</time></trkpt><trkpt lat="45.9233515" lon="12.0024735"><ele>850.0</ele><time>2026-04-18T09:22:35.139Z</time></trkpt><trkpt lat="45.9233331" lon="12.0023487"><ele>850.8</ele><time>2026-04-18T09:22:36.14Z</time></trkpt><trkpt lat="45.923313" lon="12.0022317"><ele>851.6</ele><time>2026-04-18T09:22:37.14Z</time></trkpt><trkpt lat="45.9232841" lon="12.0020826"><ele>852.4000000000001</ele><time>2026-04-18T09:22:39.139Z</time></trkpt><trkpt lat="45.9233191" lon="12.0018959"><ele>853.2</ele><time>2026-04-18T09:22:41.139Z</time></trkpt><trkpt lat="45.9233895" lon="12.0017729"><ele>854.0</ele><time>2026-04-18T09:22:42.141Z</time></trkpt><trkpt lat="45.9234526" lon="12.0016853"><ele>851.8333333333334</ele><time>2026-04-18T09:22:43.14Z</time></trkpt><trkpt lat="45.9235054" lon="12.0015987"><ele>849.6666666666667</ele><time>2026-04-18T09:22:44.139Z</time></trkpt><trkpt lat="45.9235537" lon="12.0014462"><ele>847.5</ele><time>2026-04-18T09:22:46.139Z</time></trkpt><trkpt lat="45.9235473" lon="12.0013224"><ele>845.3333333333333</ele><time>2026-04-18T09:22:47.14Z</time></trkpt><trkpt lat="45.9235401" lon="12.0012243"><ele>843.1666666666666</ele><time>2026-04-18T09:22:48.139Z</time></trkpt><trkpt lat="45.9235471" lon="12.0011116"><ele>841.0</ele><time>2026-04-18T09:22:49.141Z</time></trkpt><trkpt lat="45.9236151" lon="12.0009836"><ele>840.9999999999999</ele><time>2026-04-18T09:22:50.14Z</time></trkpt><trkpt lat="45.9236646" lon="12.0008644"><ele>841.0</ele><time>2026-04-18T09:22:51.139Z</time></trkpt><trkpt lat="45.9237312" lon="12.0007611"><ele>841.0</ele><time>2026-04-18T09:22:52.139Z</time></trkpt><trkpt lat="45.9237918" lon="12.0007091"><ele>841.0</ele><time>2026-04-18T09:22:53.14Z</time></trkpt><trkpt lat="45.9238727" lon="12.0006801"><ele>840.9999999999999</ele><time>2026-04-18T09:22:54.139Z</time></trkpt><trkpt lat="45.9239682" lon="12.0006681"><ele>841.0</ele><time>2026-04-18T09:22:55.139Z</time></trkpt><trkpt lat="45.9240526" lon="12.0006742"><ele>840.1666666666666</ele><time>2026-04-18T09:22:56.139Z</time></trkpt><trkpt lat="45.9241205" lon="12.0006909"><ele>839.3333333333333</ele><time>2026-04-18T09:22:57.139Z</time></trkpt><trkpt lat="45.9242002" lon="12.0006643"><ele>838.5</ele><time>2026-04-18T09:22:59.14Z</time></trkpt><trkpt lat="45.9242278" lon="12.0005328"><ele>837.6666666666667</ele><time>2026-04-18T09:23:01.139Z</time></trkpt><trkpt lat="45.9242246" lon="12.0004125"><ele>836.8333333333334</ele><time>2026-04-18T09:23:02.139Z</time></trkpt><trkpt lat="45.9242271" lon="12.0002898"><ele>836.0</ele><time>2026-04-18T09:23:03.14Z</time></trkpt><trkpt lat="45.92421" lon="12.0001233"><ele>836.0000000000001</ele><time>2026-04-18T09:23:04.14Z</time></trkpt><trkpt lat="45.9242154" lon="11.9999926"><ele>836.0</ele><time>2026-04-18T09:23:05.14Z</time></trkpt><trkpt lat="45.9242503" lon="11.999911"><ele>836.0</ele><time>2026-04-18T09:23:06.139Z</time></trkpt><trkpt lat="45.9242877" lon="11.9998168"><ele>836.0</ele><time>2026-04-18T09:23:07.139Z</time></trkpt><trkpt lat="45.9243159" lon="11.9997159"><ele>836.0000000000001</ele><time>2026-04-18T09:23:08.139Z</time></trkpt><trkpt lat="45.9243444" lon="11.9996066"><ele>836.0</ele><time>2026-04-18T09:23:09.14Z</time></trkpt><trkpt lat="45.9244011" lon="11.9995557"><ele>840.5714285714286</ele><time>2026-04-18T09:23:10.14Z</time></trkpt><trkpt lat="45.9244398" lon="11.9994669"><ele>845.1428571428571</ele><time>2026-04-18T09:23:11.14Z</time></trkpt><trkpt lat="45.9244731" lon="11.9993797"><ele>849.7142857142858</ele><time>2026-04-18T09:23:12.14Z</time></trkpt><trkpt lat="45.9245184" lon="11.9992904"><ele>854.2857142857142</ele><time>2026-04-18T09:23:13.139Z</time></trkpt><trkpt lat="45.9245445" lon="11.9991978"><ele>858.8571428571429</ele><time>2026-04-18T09:23:14.14Z</time></trkpt><trkpt lat="45.9245665" lon="11.9990979"><ele>863.4285714285714</ele><time>2026-04-18T09:23:15.141Z</time></trkpt><trkpt lat="45.9245195" lon="11.9990003"><ele>868.0</ele><time>2026-04-18T09:23:16.139Z</time></trkpt><trkpt lat="45.9245065" lon="11.9988309"><ele>868.0</ele><time>2026-04-18T09:23:18.141Z</time></trkpt><trkpt lat="45.9245344" lon="11.9986935"><ele>868.0</ele><time>2026-04-18T09:23:20.139Z</time></trkpt><trkpt lat="45.9246031" lon="11.9986958"><ele>868.0</ele><time>2026-04-18T09:23:22.14Z</time></trkpt><trkpt lat="45.9246498" lon="11.9988384"><ele>868.0</ele><time>2026-04-18T09:23:24.139Z</time></trkpt><trkpt lat="45.9246827" lon="11.9989373"><ele>868.0</ele><time>2026-04-18T09:23:25.141Z</time></trkpt><trkpt lat="45.9247387" lon="11.9990514"><ele>869.0</ele><time>2026-04-18T09:23:26.139Z</time></trkpt><trkpt lat="45.9247961" lon="11.9991682"><ele>870.0</ele><time>2026-04-18T09:23:27.14Z</time></trkpt><trkpt lat="45.9248344" lon="11.9992709"><ele>871.0</ele><time>2026-04-18T09:23:28.139Z</time></trkpt><trkpt lat="45.924876" lon="11.9993744"><ele>872.0</ele><time>2026-04-18T09:23:29.14Z</time></trkpt><trkpt lat="45.9248792" lon="11.9994865"><ele>873.0</ele><time>2026-04-18T09:23:30.141Z</time></trkpt><trkpt lat="45.9248198" lon="11.9996458"><ele>873.0</ele><time>2026-04-18T09:23:32.14Z</time></trkpt><trkpt lat="45.9248713" lon="11.9995794"><ele>873.0</ele><time>2026-04-18T09:23:36.139Z</time></trkpt><trkpt lat="45.9249141" lon="11.9994945"><ele>873.0</ele><time>2026-04-18T09:23:37.14Z</time></trkpt><trkpt lat="45.9249631" lon="11.9993609"><ele>873.0</ele><time>2026-04-18T09:23:38.14Z</time></trkpt><trkpt lat="45.9250163" lon="11.9992273"><ele>873.0</ele><time>2026-04-18T09:23:39.139Z</time></trkpt><trkpt lat="45.9250457" lon="11.9991103"><ele>873.0</ele><time>2026-04-18T09:23:40.14Z</time></trkpt><trkpt lat="45.9250595" lon="11.9989739"><ele>872.75</ele><time>2026-04-18T09:23:41.14Z</time></trkpt><trkpt lat="45.9250699" lon="11.9988099"><ele>872.5</ele><time>2026-04-18T09:23:42.139Z</time></trkpt><trkpt lat="45.9250669" lon="11.9986406"><ele>872.25</ele><time>2026-04-18T09:23:43.14Z</time></trkpt><trkpt lat="45.9250587" lon="11.9984748"><ele>872.0</ele><time>2026-04-18T09:23:44.14Z</time></trkpt><trkpt lat="45.925053" lon="11.9983019"><ele>872.0</ele><time>2026-04-18T09:23:45.141Z</time></trkpt><trkpt lat="45.9250524" lon="11.9981434"><ele>872.0</ele><time>2026-04-18T09:23:46.139Z</time></trkpt><trkpt lat="45.9250723" lon="11.9980004"><ele>872.0</ele><time>2026-04-18T09:23:47.139Z</time></trkpt><trkpt lat="45.9250874" lon="11.9978651"><ele>872.0</ele><time>2026-04-18T09:23:48.139Z</time></trkpt><trkpt lat="45.9250835" lon="11.9977324"><ele>872.0</ele><time>2026-04-18T09:23:49.139Z</time></trkpt><trkpt lat="45.9250827" lon="11.9976026"><ele>874.8</ele><time>2026-04-18T09:23:50.14Z</time></trkpt><trkpt lat="45.925078" lon="11.9974636"><ele>877.6</ele><time>2026-04-18T09:23:51.14Z</time></trkpt><trkpt lat="45.9250809" lon="11.9973314"><ele>880.3999999999999</ele><time>2026-04-18T09:23:52.14Z</time></trkpt><trkpt lat="45.9250712" lon="11.9972113"><ele>883.1999999999999</ele><time>2026-04-18T09:23:53.139Z</time></trkpt><trkpt lat="45.9250555" lon="11.9970908"><ele>886.0</ele><time>2026-04-18T09:23:54.14Z</time></trkpt><trkpt lat="45.9250422" lon="11.9969405"><ele>886.0</ele><time>2026-04-18T09:23:55.139Z</time></trkpt><trkpt lat="45.9250289" lon="11.9967556"><ele>885.9999999999999</ele><time>2026-04-18T09:23:56.139Z</time></trkpt><trkpt lat="45.9249732" lon="11.9966741"><ele>885.9999999999999</ele><time>2026-04-18T09:23:57.139Z</time></trkpt><trkpt lat="45.9249478" lon="11.9965612"><ele>886.0</ele><time>2026-04-18T09:23:58.139Z</time></trkpt><trkpt lat="45.9249361" lon="11.9964606"><ele>886.0</ele><time>2026-04-18T09:23:59.139Z</time></trkpt><trkpt lat="45.9249131" lon="11.9962973"><ele>889.0</ele><time>2026-04-18T09:24:01.14Z</time></trkpt><trkpt lat="45.924846" lon="11.9961561"><ele>891.9999999999999</ele><time>2026-04-18T09:24:03.14Z</time></trkpt><trkpt lat="45.9247947" lon="11.9960981"><ele>894.9999999999999</ele><time>2026-04-18T09:24:04.14Z</time></trkpt><trkpt lat="45.924692" lon="11.9959964"><ele>898.0</ele><time>2026-04-18T09:24:06.14Z</time></trkpt><trkpt lat="45.9245556" lon="11.9960027"><ele>901.0</ele><time>2026-04-18T09:24:08.139Z</time></trkpt><trkpt lat="45.9244835" lon="11.9959427"><ele>901.0</ele><time>2026-04-18T09:24:09.14Z</time></trkpt><trkpt lat="45.9244229" lon="11.9958668"><ele>900.9999999999999</ele><time>2026-04-18T09:24:10.139Z</time></trkpt><trkpt lat="45.9243664" lon="11.9958004"><ele>900.9999999999999</ele><time>2026-04-18T09:24:11.14Z</time></trkpt><trkpt lat="45.9242546" lon="11.9956875"><ele>901.0</ele><time>2026-04-18T09:24:13.14Z</time></trkpt><trkpt lat="45.9242033" lon="11.9955927"><ele>901.0</ele><time>2026-04-18T09:24:14.139Z</time></trkpt><trkpt lat="45.9241399" lon="11.995506"><ele>903.4999999999999</ele><time>2026-04-18T09:24:15.14Z</time></trkpt><trkpt lat="45.9240755" lon="11.9954164"><ele>906.0</ele><time>2026-04-18T09:24:16.139Z</time></trkpt><trkpt lat="45.9240179" lon="11.9953236"><ele>908.5</ele><time>2026-04-18T09:24:17.139Z</time></trkpt><trkpt lat="45.9239496" lon="11.9952319"><ele>911.0</ele><time>2026-04-18T09:24:18.14Z</time></trkpt><trkpt lat="45.923896" lon="11.9951479"><ele>913.4999999999999</ele><time>2026-04-18T09:24:19.14Z</time></trkpt><trkpt lat="45.9238176" lon="11.9950672"><ele>916.0</ele><time>2026-04-18T09:24:20.139Z</time></trkpt><trkpt lat="45.9237586" lon="11.9949775"><ele>915.9999999999999</ele><time>2026-04-18T09:24:21.14Z</time></trkpt><trkpt lat="45.9237335" lon="11.9948815"><ele>916.0</ele><time>2026-04-18T09:24:22.14Z</time></trkpt><trkpt lat="45.9236683" lon="11.9947988"><ele>916.0</ele><time>2026-04-18T09:24:23.141Z</time></trkpt><trkpt lat="45.9236253" lon="11.9947243"><ele>916.0</ele><time>2026-04-18T09:24:24.141Z</time></trkpt><trkpt lat="45.9235826" lon="11.9946417"><ele>915.9999999999999</ele><time>2026-04-18T09:24:25.14Z</time></trkpt><trkpt lat="45.923501" lon="11.9945964"><ele>916.0</ele><time>2026-04-18T09:24:26.14Z</time></trkpt><trkpt lat="45.9234504" lon="11.9945105"><ele>911.8</ele><time>2026-04-18T09:24:27.139Z</time></trkpt><trkpt lat="45.9233895" lon="11.9944303"><ele>907.5999999999999</ele><time>2026-04-18T09:24:28.139Z</time></trkpt><trkpt lat="45.9233332" lon="11.9943317"><ele>903.4</ele><time>2026-04-18T09:24:29.139Z</time></trkpt><trkpt lat="45.9232768" lon="11.9942254"><ele>899.2</ele><time>2026-04-18T09:24:30.138Z</time></trkpt><trkpt lat="45.9232372" lon="11.9940689"><ele>895.0</ele><time>2026-04-18T09:24:31.138Z</time></trkpt><trkpt lat="45.9231868" lon="11.9939869"><ele>895.0</ele><time>2026-04-18T09:24:32.139Z</time></trkpt><trkpt lat="45.9231243" lon="11.9938801"><ele>895.0</ele><time>2026-04-18T09:24:33.139Z</time></trkpt><trkpt lat="45.9230978" lon="11.9937941"><ele>895.0</ele><time>2026-04-18T09:24:34.138Z</time></trkpt><trkpt lat="45.9230516" lon="11.9937008"><ele>895.0</ele><time>2026-04-18T09:24:35.14Z</time></trkpt><trkpt lat="45.9229986" lon="11.993548"><ele>895.0</ele><time>2026-04-18T09:24:37.139Z</time></trkpt><trkpt lat="45.9229597" lon="11.993428"><ele>899.0</ele><time>2026-04-18T09:24:38.138Z</time></trkpt><trkpt lat="45.9228839" lon="11.9932786"><ele>903.0</ele><time>2026-04-18T09:24:39.139Z</time></trkpt><trkpt lat="45.9228356" lon="11.9931467"><ele>907.0</ele><time>2026-04-18T09:24:40.138Z</time></trkpt><trkpt lat="45.9227939" lon="11.9930712"><ele>911.0</ele><time>2026-04-18T09:24:41.138Z</time></trkpt><trkpt lat="45.92271" lon="11.992994"><ele>915.0</ele><time>2026-04-18T09:24:42.139Z</time></trkpt><trkpt lat="45.9226514" lon="11.9928876"><ele>915.0</ele><time>2026-04-18T09:24:43.138Z</time></trkpt><trkpt lat="45.9225743" lon="11.9927523"><ele>915.0</ele><time>2026-04-18T09:24:44.139Z</time></trkpt><trkpt lat="45.9224854" lon="11.9926223"><ele>915.0</ele><time>2026-04-18T09:24:45.139Z</time></trkpt><trkpt lat="45.9224106" lon="11.9925106"><ele>915.0</ele><time>2026-04-18T09:24:46.138Z</time></trkpt><trkpt lat="45.9223694" lon="11.9923862"><ele>909.4</ele><time>2026-04-18T09:24:47.138Z</time></trkpt><trkpt lat="45.9223405" lon="11.992261"><ele>903.8</ele><time>2026-04-18T09:24:48.138Z</time></trkpt><trkpt lat="45.9222748" lon="11.9921355"><ele>898.2</ele><time>2026-04-18T09:24:49.138Z</time></trkpt><trkpt lat="45.9222133" lon="11.9920141"><ele>892.6</ele><time>2026-04-18T09:24:50.138Z</time></trkpt><trkpt lat="45.9221549" lon="11.9919031"><ele>887.0</ele><time>2026-04-18T09:24:51.138Z</time></trkpt><trkpt lat="45.9221" lon="11.9918141"><ele>887.0</ele><time>2026-04-18T09:24:52.138Z</time></trkpt><trkpt lat="45.9220537" lon="11.9916888"><ele>887.0</ele><time>2026-04-18T09:24:53.139Z</time></trkpt><trkpt lat="45.9220248" lon="11.9915417"><ele>887.0</ele><time>2026-04-18T09:24:54.139Z</time></trkpt><trkpt lat="45.9219732" lon="11.9914016"><ele>887.0</ele><time>2026-04-18T09:24:55.138Z</time></trkpt><trkpt lat="45.9219349" lon="11.9912625"><ele>887.0</ele><time>2026-04-18T09:24:56.139Z</time></trkpt><trkpt lat="45.9218964" lon="11.9911214"><ele>891.0</ele><time>2026-04-18T09:24:57.139Z</time></trkpt><trkpt lat="45.9218813" lon="11.9909796"><ele>895.0</ele><time>2026-04-18T09:24:58.138Z</time></trkpt><trkpt lat="45.921856" lon="11.9908481"><ele>899.0</ele><time>2026-04-18T09:24:59.138Z</time></trkpt><trkpt lat="45.9218652" lon="11.9907267"><ele>903.0</ele><time>2026-04-18T09:25:00.139Z</time></trkpt><trkpt lat="45.9218529" lon="11.9906139"><ele>907.0</ele><time>2026-04-18T09:25:01.14Z</time></trkpt><trkpt lat="45.9218071" lon="11.9904804"><ele>909.8333333333333</ele><time>2026-04-18T09:25:02.139Z</time></trkpt><trkpt lat="45.9217747" lon="11.9903481"><ele>912.6666666666666</ele><time>2026-04-18T09:25:03.139Z</time></trkpt><trkpt lat="45.9217418" lon="11.9902305"><ele>915.5</ele><time>2026-04-18T09:25:04.139Z</time></trkpt><trkpt lat="45.921715" lon="11.9901378"><ele>918.3333333333333</ele><time>2026-04-18T09:25:05.138Z</time></trkpt><trkpt lat="45.921673" lon="11.9900525"><ele>921.1666666666666</ele><time>2026-04-18T09:25:06.139Z</time></trkpt><trkpt lat="45.9216644" lon="11.9899574"><ele>924.0</ele><time>2026-04-18T09:25:07.138Z</time></trkpt><trkpt lat="45.9216379" lon="11.9898071"><ele>924.6666666666666</ele><time>2026-04-18T09:25:09.138Z</time></trkpt><trkpt lat="45.9216809" lon="11.9896608"><ele>925.3333333333333</ele><time>2026-04-18T09:25:11.139Z</time></trkpt><trkpt lat="45.9217265" lon="11.9895859"><ele>926.0</ele><time>2026-04-18T09:25:12.138Z</time></trkpt><trkpt lat="45.9217837" lon="11.9894653"><ele>926.6666666666666</ele><time>2026-04-18T09:25:14.138Z</time></trkpt><trkpt lat="45.9217815" lon="11.989361"><ele>927.3333333333333</ele><time>2026-04-18T09:25:16.138Z</time></trkpt><trkpt lat="45.9217245" lon="11.9892805"><ele>928.0</ele><time>2026-04-18T09:25:17.138Z</time></trkpt><trkpt lat="45.9216603" lon="11.9892024"><ele>919.0</ele><time>2026-04-18T09:25:18.14Z</time></trkpt><trkpt lat="45.9216062" lon="11.9890987"><ele>910.0</ele><time>2026-04-18T09:25:19.139Z</time></trkpt><trkpt lat="45.921548" lon="11.9889951"><ele>901.0</ele><time>2026-04-18T09:25:20.138Z</time></trkpt><trkpt lat="45.9214943" lon="11.988879"><ele>892.0</ele><time>2026-04-18T09:25:21.138Z</time></trkpt><trkpt lat="45.921415" lon="11.9887891"><ele>883.0</ele><time>2026-04-18T09:25:22.14Z</time></trkpt><trkpt lat="45.9213545" lon="11.9886653"><ele>883.0</ele><time>2026-04-18T09:25:23.139Z</time></trkpt><trkpt lat="45.9212834" lon="11.9885589"><ele>883.0</ele><time>2026-04-18T09:25:24.14Z</time></trkpt><trkpt lat="45.9212196" lon="11.9884158"><ele>883.0</ele><time>2026-04-18T09:25:25.14Z</time></trkpt><trkpt lat="45.9211435" lon="11.9882947"><ele>883.0</ele><time>2026-04-18T09:25:26.138Z</time></trkpt><trkpt lat="45.9210502" lon="11.9881512"><ele>880.25</ele><time>2026-04-18T09:25:27.139Z</time></trkpt><trkpt lat="45.9209761" lon="11.988033"><ele>877.5</ele><time>2026-04-18T09:25:28.138Z</time></trkpt><trkpt lat="45.920903" lon="11.9878968"><ele>874.75</ele><time>2026-04-18T09:25:29.138Z</time></trkpt><trkpt lat="45.9208214" lon="11.9877677"><ele>872.0</ele><time>2026-04-18T09:25:30.138Z</time></trkpt><trkpt lat="45.9207452" lon="11.9876481"><ele>872.0000000000001</ele><time>2026-04-18T09:25:31.138Z</time></trkpt><trkpt lat="45.9206726" lon="11.9875304"><ele>872.0</ele><time>2026-04-18T09:25:32.14Z</time></trkpt><trkpt lat="45.9206185" lon="11.9874279"><ele>872.0</ele><time>2026-04-18T09:25:33.14Z</time></trkpt><trkpt lat="45.9205722" lon="11.9873472"><ele>872.0</ele><time>2026-04-18T09:25:34.139Z</time></trkpt><trkpt lat="45.9205435" lon="11.9872515"><ele>872.0000000000001</ele><time>2026-04-18T09:25:35.138Z</time></trkpt><trkpt lat="45.920497" lon="11.9871321"><ele>872.0</ele><time>2026-04-18T09:25:36.139Z</time></trkpt><trkpt lat="45.9204644" lon="11.9869975"><ele>876.8333333333334</ele><time>2026-04-18T09:25:37.138Z</time></trkpt><trkpt lat="45.9204404" lon="11.9869085"><ele>881.6666666666667</ele><time>2026-04-18T09:25:38.138Z</time></trkpt><trkpt lat="45.9203946" lon="11.9867552"><ele>886.5</ele><time>2026-04-18T09:25:40.138Z</time></trkpt><trkpt lat="45.9204345" lon="11.9866269"><ele>891.3333333333333</ele><time>2026-04-18T09:25:41.139Z</time></trkpt><trkpt lat="45.9204707" lon="11.9865376"><ele>896.1666666666666</ele><time>2026-04-18T09:25:42.139Z</time></trkpt><trkpt lat="45.9204886" lon="11.9864431"><ele>901.0</ele><time>2026-04-18T09:25:43.139Z</time></trkpt><trkpt lat="45.9205299" lon="11.9863653"><ele>902.3333333333333</ele><time>2026-04-18T09:25:44.138Z</time></trkpt><trkpt lat="45.9206043" lon="11.9862452"><ele>903.6666666666666</ele><time>2026-04-18T09:25:46.139Z</time></trkpt><trkpt lat="45.9206806" lon="11.9862133"><ele>905.0</ele><time>2026-04-18T09:25:47.138Z</time></trkpt><trkpt lat="45.9207497" lon="11.9861799"><ele>906.3333333333333</ele><time>2026-04-18T09:25:48.138Z</time></trkpt><trkpt lat="45.9208269" lon="11.9861441"><ele>907.6666666666666</ele><time>2026-04-18T09:25:49.138Z</time></trkpt><trkpt lat="45.9209058" lon="11.9860997"><ele>909.0</ele><time>2026-04-18T09:25:50.138Z</time></trkpt><trkpt lat="45.9210045" lon="11.9860494"><ele>913.4000000000001</ele><time>2026-04-18T09:25:51.139Z</time></trkpt><trkpt lat="45.9210907" lon="11.9860018"><ele>917.8000000000001</ele><time>2026-04-18T09:25:52.138Z</time></trkpt><trkpt lat="45.9211859" lon="11.9859459"><ele>922.1999999999999</ele><time>2026-04-18T09:25:53.138Z</time></trkpt><trkpt lat="45.9212849" lon="11.9859062"><ele>926.5999999999999</ele><time>2026-04-18T09:25:54.138Z</time></trkpt><trkpt lat="45.9213916" lon="11.9858964"><ele>931.0</ele><time>2026-04-18T09:25:55.139Z</time></trkpt><trkpt lat="45.9214576" lon="11.985879"><ele>929.8</ele><time>2026-04-18T09:25:56.139Z</time></trkpt><trkpt lat="45.9215672" lon="11.9858117"><ele>928.5999999999999</ele><time>2026-04-18T09:25:58.138Z</time></trkpt><trkpt lat="45.9216618" lon="11.9856921"><ele>927.4</ele><time>2026-04-18T09:26:00.138Z</time></trkpt><trkpt lat="45.9217178" lon="11.9856235"><ele>926.2</ele><time>2026-04-18T09:26:01.139Z</time></trkpt><trkpt lat="45.9217695" lon="11.9855352"><ele>925.0</ele><time>2026-04-18T09:26:02.139Z</time></trkpt><trkpt lat="45.9218181" lon="11.9854425"><ele>927.0</ele><time>2026-04-18T09:26:03.138Z</time></trkpt><trkpt lat="45.92186" lon="11.9853168"><ele>929.0</ele><time>2026-04-18T09:26:04.138Z</time></trkpt><trkpt lat="45.9219173" lon="11.9852359"><ele>931.0</ele><time>2026-04-18T09:26:05.139Z</time></trkpt><trkpt lat="45.9220116" lon="11.9851189"><ele>933.0</ele><time>2026-04-18T09:26:07.138Z</time></trkpt><trkpt lat="45.9220506" lon="11.9850444"><ele>935.0</ele><time>2026-04-18T09:26:08.139Z</time></trkpt><trkpt lat="45.9221353" lon="11.9848919"><ele>935.0</ele><time>2026-04-18T09:26:10.139Z</time></trkpt><trkpt lat="45.9221752" lon="11.9848047"><ele>935.0</ele><time>2026-04-18T09:26:11.139Z</time></trkpt><trkpt lat="45.9222137" lon="11.9846546"><ele>935.0</ele><time>2026-04-18T09:26:13.139Z</time></trkpt><trkpt lat="45.922256" lon="11.9845282"><ele>935.0</ele><time>2026-04-18T09:26:15.138Z</time></trkpt><trkpt lat="45.9223277" lon="11.98441"><ele>935.0</ele><time>2026-04-18T09:26:17.139Z</time></trkpt><trkpt lat="45.9223765" lon="11.9843092"><ele>935.0000000000001</ele><time>2026-04-18T09:26:19.139Z</time></trkpt><trkpt lat="45.9223911" lon="11.9842167"><ele>935.0</ele><time>2026-04-18T09:26:22.138Z</time></trkpt><trkpt lat="45.9224124" lon="11.9841057"><ele>935.0</ele><time>2026-04-18T09:26:26.138Z</time></trkpt><trkpt lat="45.9224751" lon="11.9840815"><ele>935.0</ele><time>2026-04-18T09:26:29.139Z</time></trkpt><trkpt lat="45.9225216" lon="11.9841845"><ele>935.0000000000001</ele><time>2026-04-18T09:26:31.138Z</time></trkpt><trkpt lat="45.9225746" lon="11.9842813"><ele>935.0</ele><time>2026-04-18T09:26:33.138Z</time></trkpt><trkpt lat="45.9226321" lon="11.9844215"><ele>936.6</ele><time>2026-04-18T09:26:35.139Z</time></trkpt><trkpt lat="45.9227019" lon="11.9845766"><ele>938.2</ele><time>2026-04-18T09:26:37.139Z</time></trkpt><trkpt lat="45.922739" lon="11.9846597"><ele>939.8</ele><time>2026-04-18T09:26:38.138Z</time></trkpt><trkpt lat="45.9227794" lon="11.9847419"><ele>941.4</ele><time>2026-04-18T09:26:39.138Z</time></trkpt><trkpt lat="45.9228325" lon="11.9848844"><ele>943.0</ele><time>2026-04-18T09:26:41.138Z</time></trkpt><trkpt lat="45.9228591" lon="11.9850406"><ele>945.25</ele><time>2026-04-18T09:26:43.139Z</time></trkpt><trkpt lat="45.9228888" lon="11.9852096"><ele>947.5</ele><time>2026-04-18T09:26:45.139Z</time></trkpt><trkpt lat="45.9229153" lon="11.9853752"><ele>949.75</ele><time>2026-04-18T09:26:47.139Z</time></trkpt><trkpt lat="45.9229459" lon="11.985532"><ele>952.0</ele><time>2026-04-18T09:26:49.14Z</time></trkpt><trkpt lat="45.9229949" lon="11.9856625"><ele>952.0</ele><time>2026-04-18T09:26:51.139Z</time></trkpt><trkpt lat="45.9230365" lon="11.9858223"><ele>952.0</ele><time>2026-04-18T09:26:53.138Z</time></trkpt><trkpt lat="45.9230433" lon="11.9859254"><ele>952.0</ele><time>2026-04-18T09:26:54.139Z</time></trkpt><trkpt lat="45.9230432" lon="11.9860319"><ele>952.0</ele><time>2026-04-18T09:26:55.139Z</time></trkpt><trkpt lat="45.9230128" lon="11.986211"><ele>952.0</ele><time>2026-04-18T09:26:57.139Z</time></trkpt><trkpt lat="45.9229975" lon="11.9863004"><ele>954.3333333333333</ele><time>2026-04-18T09:26:58.138Z</time></trkpt><trkpt lat="45.9229875" lon="11.9863962"><ele>956.6666666666666</ele><time>2026-04-18T09:26:59.139Z</time></trkpt><trkpt lat="45.9229808" lon="11.9865067"><ele>959.0</ele><time>2026-04-18T09:27:00.138Z</time></trkpt><trkpt lat="45.922988" lon="11.9866131"><ele>961.3333333333333</ele><time>2026-04-18T09:27:01.138Z</time></trkpt><trkpt lat="45.9230065" lon="11.9867234"><ele>963.6666666666666</ele><time>2026-04-18T09:27:02.138Z</time></trkpt><trkpt lat="45.9230355" lon="11.9868458"><ele>966.0</ele><time>2026-04-18T09:27:03.138Z</time></trkpt><trkpt lat="45.9230752" lon="11.986974"><ele>968.5</ele><time>2026-04-18T09:27:04.139Z</time></trkpt><trkpt lat="45.9231084" lon="11.9870772"><ele>971.0</ele><time>2026-04-18T09:27:05.14Z</time></trkpt><trkpt lat="45.9231463" lon="11.9871707"><ele>973.5</ele><time>2026-04-18T09:27:06.138Z</time></trkpt><trkpt lat="45.9231954" lon="11.9872767"><ele>976.0</ele><time>2026-04-18T09:27:07.138Z</time></trkpt><trkpt lat="45.9232369" lon="11.9874112"><ele>978.5</ele><time>2026-04-18T09:27:08.139Z</time></trkpt><trkpt lat="45.9232782" lon="11.9875344"><ele>981.0</ele><time>2026-04-18T09:27:09.138Z</time></trkpt><trkpt lat="45.92332" lon="11.9876483"><ele>981.1999999999999</ele><time>2026-04-18T09:27:10.138Z</time></trkpt><trkpt lat="45.9233699" lon="11.9877597"><ele>981.3999999999999</ele><time>2026-04-18T09:27:11.139Z</time></trkpt><trkpt lat="45.9234225" lon="11.9878847"><ele>981.6</ele><time>2026-04-18T09:27:12.139Z</time></trkpt><trkpt lat="45.923484" lon="11.9880185"><ele>981.8</ele><time>2026-04-18T09:27:13.139Z</time></trkpt><trkpt lat="45.9235465" lon="11.9881664"><ele>982.0</ele><time>2026-04-18T09:27:14.138Z</time></trkpt><trkpt lat="45.9236046" lon="11.9883156"><ele>989.0</ele><time>2026-04-18T09:27:15.138Z</time></trkpt><trkpt lat="45.9236652" lon="11.9884802"><ele>996.0</ele><time>2026-04-18T09:27:16.138Z</time></trkpt><trkpt lat="45.9237308" lon="11.9886511"><ele>1003.0</ele><time>2026-04-18T09:27:17.139Z</time></trkpt><trkpt lat="45.923793" lon="11.9888272"><ele>1010.0</ele><time>2026-04-18T09:27:18.139Z</time></trkpt><trkpt lat="45.9238346" lon="11.9889759"><ele>1010.0</ele><time>2026-04-18T09:27:19.139Z</time></trkpt><trkpt lat="45.9238781" lon="11.9891238"><ele>1010.0</ele><time>2026-04-18T09:27:20.138Z</time></trkpt><trkpt lat="45.9239149" lon="11.9892574"><ele>1010.0</ele><time>2026-04-18T09:27:21.138Z</time></trkpt><trkpt lat="45.9239457" lon="11.9893828"><ele>1010.0</ele><time>2026-04-18T09:27:22.14Z</time></trkpt><trkpt lat="45.9239674" lon="11.9894815"><ele>1010.0</ele><time>2026-04-18T09:27:23.138Z</time></trkpt><trkpt lat="45.9240366" lon="11.9895915"><ele>1011.0</ele><time>2026-04-18T09:27:25.14Z</time></trkpt><trkpt lat="45.9241525" lon="11.9895636"><ele>1012.0</ele><time>2026-04-18T09:27:27.139Z</time></trkpt><trkpt lat="45.9242195" lon="11.9894937"><ele>1013.0</ele><time>2026-04-18T09:27:28.139Z</time></trkpt><trkpt lat="45.9242916" lon="11.9893929"><ele>1014.0</ele><time>2026-04-18T09:27:29.139Z</time></trkpt><trkpt lat="45.9243696" lon="11.9892835"><ele>1015.0</ele><time>2026-04-18T09:27:30.139Z</time></trkpt><trkpt lat="45.9244683" lon="11.9891786"><ele>1017.75</ele><time>2026-04-18T09:27:31.139Z</time></trkpt><trkpt lat="45.9245772" lon="11.9890798"><ele>1020.5</ele><time>2026-04-18T09:27:32.139Z</time></trkpt><trkpt lat="45.9246829" lon="11.9890059"><ele>1023.25</ele><time>2026-04-18T09:27:33.139Z</time></trkpt><trkpt lat="45.9247868" lon="11.9889675"><ele>1026.0</ele><time>2026-04-18T09:27:34.138Z</time></trkpt><trkpt lat="45.9248883" lon="11.9889651"><ele>1026.0</ele><time>2026-04-18T09:27:35.138Z</time></trkpt><trkpt lat="45.9249843" lon="11.9890023"><ele>1026.0</ele><time>2026-04-18T09:27:36.139Z</time></trkpt><trkpt lat="45.9250579" lon="11.9890488"><ele>1026.0</ele><time>2026-04-18T09:27:37.14Z</time></trkpt><trkpt lat="45.9251014" lon="11.9891153"><ele>1026.0</ele><time>2026-04-18T09:27:38.138Z</time></trkpt><trkpt lat="45.9250841" lon="11.9892466"><ele>1026.0</ele><time>2026-04-18T09:27:40.138Z</time></trkpt><trkpt lat="45.9250426" lon="11.9893151"><ele>1026.0</ele><time>2026-04-18T09:27:41.139Z</time></trkpt><trkpt lat="45.925003" lon="11.9894047"><ele>1027.8</ele><time>2026-04-18T09:27:42.138Z</time></trkpt><trkpt lat="45.9250243" lon="11.9895615"><ele>1029.6</ele><time>2026-04-18T09:27:44.139Z</time></trkpt><trkpt lat="45.9250812" lon="11.9896472"><ele>1031.4</ele><time>2026-04-18T09:27:45.138Z</time></trkpt><trkpt lat="45.9251547" lon="11.9897365"><ele>1033.2</ele><time>2026-04-18T09:27:46.139Z</time></trkpt><trkpt lat="45.9252363" lon="11.9898597"><ele>1035.0</ele><time>2026-04-18T09:27:47.139Z</time></trkpt><trkpt lat="45.9253235" lon="11.9899731"><ele>1040.2</ele><time>2026-04-18T09:27:48.139Z</time></trkpt><trkpt lat="45.9254232" lon="11.9900657"><ele>1045.4</ele><time>2026-04-18T09:27:49.139Z</time></trkpt><trkpt lat="45.925516" lon="11.9901544"><ele>1050.6</ele><time>2026-04-18T09:27:50.138Z</time></trkpt><trkpt lat="45.92559" lon="11.9902249"><ele>1055.8</ele><time>2026-04-18T09:27:51.138Z</time></trkpt><trkpt lat="45.9256554" lon="11.9902647"><ele>1061.0</ele><time>2026-04-18T09:27:52.138Z</time></trkpt><trkpt lat="45.925746" lon="11.9903094"><ele>1061.0</ele><time>2026-04-18T09:27:53.139Z</time></trkpt><trkpt lat="45.9258316" lon="11.9903184"><ele>1061.0</ele><time>2026-04-18T09:27:54.139Z</time></trkpt><trkpt lat="45.9259455" lon="11.9902127"><ele>1061.0</ele><time>2026-04-18T09:27:55.138Z</time></trkpt><trkpt lat="45.9260587" lon="11.990081"><ele>1061.0</ele><time>2026-04-18T09:27:56.138Z</time></trkpt><trkpt lat="45.9261717" lon="11.9900146"><ele>1058.8333333333335</ele><time>2026-04-18T09:27:57.14Z</time></trkpt><trkpt lat="45.9262567" lon="11.9899543"><ele>1056.6666666666667</ele><time>2026-04-18T09:27:58.139Z</time></trkpt><trkpt lat="45.9263208" lon="11.9899198"><ele>1054.5</ele><time>2026-04-18T09:27:59.138Z</time></trkpt><trkpt lat="45.9263857" lon="11.9899631"><ele>1052.3333333333333</ele><time>2026-04-18T09:28:01.138Z</time></trkpt><trkpt lat="45.9263169" lon="11.9900861"><ele>1050.1666666666665</ele><time>2026-04-18T09:28:03.138Z</time></trkpt><trkpt lat="45.9262512" lon="11.9901867"><ele>1048.0</ele><time>2026-04-18T09:28:04.138Z</time></trkpt><trkpt lat="45.9261779" lon="11.9903168"><ele>1053.5</ele><time>2026-04-18T09:28:05.138Z</time></trkpt><trkpt lat="45.9260873" lon="11.9904597"><ele>1059.0</ele><time>2026-04-18T09:28:06.139Z</time></trkpt><trkpt lat="45.9259911" lon="11.9906292"><ele>1064.5</ele><time>2026-04-18T09:28:07.139Z</time></trkpt><trkpt lat="45.9259064" lon="11.990802"><ele>1070.0</ele><time>2026-04-18T09:28:08.139Z</time></trkpt><trkpt lat="45.9258256" lon="11.9909524"><ele>1070.0</ele><time>2026-04-18T09:28:09.139Z</time></trkpt><trkpt lat="45.9257647" lon="11.9910728"><ele>1070.0</ele><time>2026-04-18T09:28:10.139Z</time></trkpt><trkpt lat="45.9257078" lon="11.9911581"><ele>1070.0</ele><time>2026-04-18T09:28:11.139Z</time></trkpt><trkpt lat="45.9256647" lon="11.991228"><ele>1070.0</ele><time>2026-04-18T09:28:12.138Z</time></trkpt><trkpt lat="45.9256885" lon="11.9913495"><ele>1070.0</ele><time>2026-04-18T09:28:14.14Z</time></trkpt><trkpt lat="45.9257991" lon="11.9913372"><ele>1070.0</ele><time>2026-04-18T09:28:16.138Z</time></trkpt><trkpt lat="45.9258994" lon="11.9912801"><ele>1074.5</ele><time>2026-04-18T09:28:17.139Z</time></trkpt><trkpt lat="45.9260099" lon="11.9912139"><ele>1079.0</ele><time>2026-04-18T09:28:18.138Z</time></trkpt><trkpt lat="45.9261304" lon="11.9911335"><ele>1083.5</ele><time>2026-04-18T09:28:19.138Z</time></trkpt><trkpt lat="45.9262769" lon="11.9910399"><ele>1088.0</ele><time>2026-04-18T09:28:20.139Z</time></trkpt><trkpt lat="45.9264037" lon="11.990963"><ele>1088.0</ele><time>2026-04-18T09:28:21.139Z</time></trkpt><trkpt lat="45.9265192" lon="11.9909047"><ele>1088.0</ele><time>2026-04-18T09:28:22.138Z</time></trkpt><trkpt lat="45.9266254" lon="11.9908684"><ele>1088.0</ele><time>2026-04-18T09:28:23.138Z</time></trkpt><trkpt lat="45.9267353" lon="11.9908485"><ele>1088.0</ele><time>2026-04-18T09:28:24.138Z</time></trkpt><trkpt lat="45.9268423" lon="11.9908538"><ele>1088.0</ele><time>2026-04-18T09:28:25.138Z</time></trkpt><trkpt lat="45.9269422" lon="11.9908945"><ele>1088.8333333333335</ele><time>2026-04-18T09:28:26.139Z</time></trkpt><trkpt lat="45.9270336" lon="11.9909548"><ele>1089.6666666666667</ele><time>2026-04-18T09:28:27.139Z</time></trkpt><trkpt lat="45.9271146" lon="11.9909993"><ele>1090.5</ele><time>2026-04-18T09:28:28.138Z</time></trkpt><trkpt lat="45.927187" lon="11.9910254"><ele>1091.3333333333333</ele><time>2026-04-18T09:28:29.138Z</time></trkpt><trkpt lat="45.9272564" lon="11.9910607"><ele>1092.1666666666665</ele><time>2026-04-18T09:28:30.137Z</time></trkpt><trkpt lat="45.9273225" lon="11.9911261"><ele>1093.0</ele><time>2026-04-18T09:28:32.138Z</time></trkpt><trkpt lat="45.9272092" lon="11.9911863"><ele>1093.0</ele><time>2026-04-18T09:28:35.138Z</time></trkpt><trkpt lat="45.9271225" lon="11.9911731"><ele>1093.0</ele><time>2026-04-18T09:28:36.138Z</time></trkpt><trkpt lat="45.9270156" lon="11.991169"><ele>1093.0</ele><time>2026-04-18T09:28:37.138Z</time></trkpt><trkpt lat="45.9269213" lon="11.991209"><ele>1093.0</ele><time>2026-04-18T09:28:38.137Z</time></trkpt><trkpt lat="45.926841" lon="11.9912894"><ele>1093.0</ele><time>2026-04-18T09:28:39.138Z</time></trkpt><trkpt lat="45.9267675" lon="11.9914084"><ele>1092.8</ele><time>2026-04-18T09:28:40.137Z</time></trkpt><trkpt lat="45.9267008" lon="11.9915631"><ele>1092.6</ele><time>2026-04-18T09:28:41.138Z</time></trkpt><trkpt lat="45.9266577" lon="11.9916985"><ele>1092.4</ele><time>2026-04-18T09:28:42.139Z</time></trkpt><trkpt lat="45.9266357" lon="11.9918421"><ele>1092.2</ele><time>2026-04-18T09:28:43.138Z</time></trkpt><trkpt lat="45.9266441" lon="11.9919891"><ele>1092.0</ele><time>2026-04-18T09:28:44.138Z</time></trkpt><trkpt lat="45.92668" lon="11.992139"><ele>1094.5</ele><time>2026-04-18T09:28:45.139Z</time></trkpt><trkpt lat="45.9267435" lon="11.9922641"><ele>1097.0</ele><time>2026-04-18T09:28:46.138Z</time></trkpt><trkpt lat="45.9268299" lon="11.9923584"><ele>1099.5</ele><time>2026-04-18T09:28:47.137Z</time></trkpt><trkpt lat="45.926939" lon="11.9924434"><ele>1102.0</ele><time>2026-04-18T09:28:48.137Z</time></trkpt><trkpt lat="45.9270612" lon="11.9925272"><ele>1102.0</ele><time>2026-04-18T09:28:49.137Z</time></trkpt><trkpt lat="45.9271817" lon="11.9926299"><ele>1102.0</ele><time>2026-04-18T09:28:50.138Z</time></trkpt><trkpt lat="45.9272964" lon="11.9927688"><ele>1102.0</ele><time>2026-04-18T09:28:51.137Z</time></trkpt><trkpt lat="45.9274117" lon="11.992947"><ele>1102.0</ele><time>2026-04-18T09:28:52.137Z</time></trkpt><trkpt lat="45.9275177" lon="11.9931458"><ele>1102.0</ele><time>2026-04-18T09:28:53.139Z</time></trkpt><trkpt lat="45.9276205" lon="11.9933683"><ele>1102.0</ele><time>2026-04-18T09:28:54.138Z</time></trkpt><trkpt lat="45.9277192" lon="11.9935992"><ele>1107.6666666666665</ele><time>2026-04-18T09:28:55.137Z</time></trkpt><trkpt lat="45.9278073" lon="11.9938408"><ele>1113.3333333333333</ele><time>2026-04-18T09:28:56.137Z</time></trkpt><trkpt lat="45.9278931" lon="11.9940816"><ele>1119.0</ele><time>2026-04-18T09:28:57.138Z</time></trkpt><trkpt lat="45.9279763" lon="11.9943096"><ele>1119.0</ele><time>2026-04-18T09:28:58.138Z</time></trkpt><trkpt lat="45.928061" lon="11.9945241"><ele>1119.0</ele><time>2026-04-18T09:28:59.138Z</time></trkpt><trkpt lat="45.9281365" lon="11.9947241"><ele>1119.0</ele><time>2026-04-18T09:29:00.139Z</time></trkpt><trkpt lat="45.9282142" lon="11.9948995"><ele>1117.0</ele><time>2026-04-18T09:29:01.137Z</time></trkpt><trkpt lat="45.9282823" lon="11.9950661"><ele>1115.0</ele><time>2026-04-18T09:29:02.138Z</time></trkpt><trkpt lat="45.9283574" lon="11.9952321"><ele>1113.0</ele><time>2026-04-18T09:29:03.138Z</time></trkpt><trkpt lat="45.9284315" lon="11.9953849"><ele>1111.0</ele><time>2026-04-18T09:29:04.138Z</time></trkpt><trkpt lat="45.9285039" lon="11.9955368"><ele>1118.0</ele><time>2026-04-18T09:29:05.138Z</time></trkpt><trkpt lat="45.9285688" lon="11.9956787"><ele>1125.0</ele><time>2026-04-18T09:29:06.137Z</time></trkpt><trkpt lat="45.9286225" lon="11.9958091"><ele>1132.0</ele><time>2026-04-18T09:29:07.138Z</time></trkpt><trkpt lat="45.9286668" lon="11.9959287"><ele>1139.0</ele><time>2026-04-18T09:29:08.139Z</time></trkpt><trkpt lat="45.9287027" lon="11.9960382"><ele>1146.0</ele><time>2026-04-18T09:29:09.137Z</time></trkpt><trkpt lat="45.9287309" lon="11.9961415"><ele>1146.0</ele><time>2026-04-18T09:29:10.137Z</time></trkpt><trkpt lat="45.9287522" lon="11.9962341"><ele>1146.0</ele><time>2026-04-18T09:29:11.137Z</time></trkpt><trkpt lat="45.9287741" lon="11.9963198"><ele>1146.0</ele><time>2026-04-18T09:29:12.137Z</time></trkpt><trkpt lat="45.9288055" lon="11.9964019"><ele>1146.0</ele><time>2026-04-18T09:29:13.137Z</time></trkpt><trkpt lat="45.9288459" lon="11.9964977"><ele>1146.0</ele><time>2026-04-18T09:29:14.139Z</time></trkpt><trkpt lat="45.9288955" lon="11.9965943"><ele>1146.0</ele><time>2026-04-18T09:29:15.137Z</time></trkpt><trkpt lat="45.9289313" lon="11.9967151"><ele>1146.0</ele><time>2026-04-18T09:29:16.137Z</time></trkpt><trkpt lat="45.9289387" lon="11.9968617"><ele>1145.25</ele><time>2026-04-18T09:29:17.137Z</time></trkpt><trkpt lat="45.9289205" lon="11.997025"><ele>1144.5</ele><time>2026-04-18T09:29:18.138Z</time></trkpt><trkpt lat="45.9289123" lon="11.9971791"><ele>1143.75</ele><time>2026-04-18T09:29:19.138Z</time></trkpt><trkpt lat="45.9289347" lon="11.9973482"><ele>1143.0</ele><time>2026-04-18T09:29:20.138Z</time></trkpt><trkpt lat="45.9289565" lon="11.9975336"><ele>1138.6666666666667</ele><time>2026-04-18T09:29:21.137Z</time></trkpt><trkpt lat="45.928998" lon="11.9977277"><ele>1134.3333333333335</ele><time>2026-04-18T09:29:22.138Z</time></trkpt><trkpt lat="45.9290446" lon="11.9979463"><ele>1130.0</ele><time>2026-04-18T09:29:23.138Z</time></trkpt><trkpt lat="45.9290957" lon="11.9981564"><ele>1127.25</ele><time>2026-04-18T09:29:24.138Z</time></trkpt><trkpt lat="45.9291414" lon="11.9983643"><ele>1124.5</ele><time>2026-04-18T09:29:25.137Z</time></trkpt><trkpt lat="45.929213" lon="11.9985292"><ele>1121.75</ele><time>2026-04-18T09:29:26.138Z</time></trkpt><trkpt lat="45.9292739" lon="11.9987174"><ele>1119.0</ele><time>2026-04-18T09:29:27.137Z</time></trkpt><trkpt lat="45.9293428" lon="11.9989002"><ele>1125.75</ele><time>2026-04-18T09:29:28.137Z</time></trkpt><trkpt lat="45.9294118" lon="11.9990821"><ele>1132.5</ele><time>2026-04-18T09:29:29.138Z</time></trkpt><trkpt lat="45.9294887" lon="11.9992666"><ele>1139.25</ele><time>2026-04-18T09:29:30.137Z</time></trkpt><trkpt lat="45.9295799" lon="11.9994177"><ele>1146.0</ele><time>2026-04-18T09:29:31.138Z</time></trkpt><trkpt lat="45.9296555" lon="11.9995618"><ele>1146.0</ele><time>2026-04-18T09:29:32.137Z</time></trkpt><trkpt lat="45.929723" lon="11.9996987"><ele>1146.0</ele><time>2026-04-18T09:29:33.137Z</time></trkpt><trkpt lat="45.9297791" lon="11.9997744"><ele>1146.0</ele><time>2026-04-18T09:29:34.138Z</time></trkpt><trkpt lat="45.9298233" lon="11.9998493"><ele>1146.0</ele><time>2026-04-18T09:29:35.138Z</time></trkpt><trkpt lat="45.929893" lon="11.999935"><ele>1146.0</ele><time>2026-04-18T09:29:37.138Z</time></trkpt><trkpt lat="45.929921" lon="11.9998185"><ele>1146.0</ele><time>2026-04-18T09:29:42.137Z</time></trkpt><trkpt lat="45.9298698" lon="11.9997307"><ele>1146.0</ele><time>2026-04-18T09:29:43.137Z</time></trkpt><trkpt lat="45.9298198" lon="11.9996256"><ele>1146.0</ele><time>2026-04-18T09:29:44.137Z</time></trkpt><trkpt lat="45.9297659" lon="11.9994991"><ele>1146.0</ele><time>2026-04-18T09:29:45.138Z</time></trkpt><trkpt lat="45.9297266" lon="11.999335"><ele>1146.0</ele><time>2026-04-18T09:29:46.137Z</time></trkpt><trkpt lat="45.9296736" lon="11.9991547"><ele>1146.0</ele><time>2026-04-18T09:29:47.138Z</time></trkpt><trkpt lat="45.9296158" lon="11.9989749"><ele>1152.0</ele><time>2026-04-18T09:29:48.138Z</time></trkpt><trkpt lat="45.9295735" lon="11.998727"><ele>1158.0</ele><time>2026-04-18T09:29:49.137Z</time></trkpt><trkpt lat="45.9295238" lon="11.9985007"><ele>1164.0</ele><time>2026-04-18T09:29:50.138Z</time></trkpt><trkpt lat="45.9294805" lon="11.9982396"><ele>1169.6666666666667</ele><time>2026-04-18T09:29:51.138Z</time></trkpt><trkpt lat="45.9294631" lon="11.9979611"><ele>1175.3333333333335</ele><time>2026-04-18T09:29:52.137Z</time></trkpt><trkpt lat="45.9294377" lon="11.9976918"><ele>1181.0</ele><time>2026-04-18T09:29:53.137Z</time></trkpt><trkpt lat="45.929421" lon="11.9974401"><ele>1184.6666666666667</ele><time>2026-04-18T09:29:54.139Z</time></trkpt><trkpt lat="45.9294282" lon="11.9971918"><ele>1188.3333333333333</ele><time>2026-04-18T09:29:55.137Z</time></trkpt><trkpt lat="45.9294401" lon="11.9969446"><ele>1192.0</ele><time>2026-04-18T09:29:56.138Z</time></trkpt><trkpt lat="45.9294634" lon="11.9966948"><ele>1193.0</ele><time>2026-04-18T09:29:57.138Z</time></trkpt><trkpt lat="45.9294787" lon="11.9964483"><ele>1194.0</ele><time>2026-04-18T09:29:58.137Z</time></trkpt><trkpt lat="45.9294669" lon="11.9961851"><ele>1195.0</ele><time>2026-04-18T09:29:59.139Z</time></trkpt><trkpt lat="45.9294666" lon="11.9959319"><ele>1196.3333333333333</ele><time>2026-04-18T09:30:00.138Z</time></trkpt><trkpt lat="45.9294592" lon="11.9956752"><ele>1197.6666666666667</ele><time>2026-04-18T09:30:01.138Z</time></trkpt><trkpt lat="45.9294522" lon="11.9954344"><ele>1199.0</ele><time>2026-04-18T09:30:02.137Z</time></trkpt><trkpt lat="45.9294387" lon="11.995217"><ele>1199.0</ele><time>2026-04-18T09:30:03.138Z</time></trkpt><trkpt lat="45.9294339" lon="11.9950202"><ele>1199.0</ele><time>2026-04-18T09:30:04.137Z</time></trkpt><trkpt lat="45.929435" lon="11.9948268"><ele>1199.0</ele><time>2026-04-18T09:30:05.137Z</time></trkpt><trkpt lat="45.9294407" lon="11.9946237"><ele>1199.0</ele><time>2026-04-18T09:30:06.138Z</time></trkpt><trkpt lat="45.9294459" lon="11.9944128"><ele>1199.75</ele><time>2026-04-18T09:30:07.138Z</time></trkpt><trkpt lat="45.9294681" lon="11.9941882"><ele>1200.5</ele><time>2026-04-18T09:30:08.138Z</time></trkpt><trkpt lat="45.9295002" lon="11.9939799"><ele>1201.25</ele><time>2026-04-18T09:30:09.138Z</time></trkpt><trkpt lat="45.9295396" lon="11.9937899"><ele>1202.0</ele><time>2026-04-18T09:30:10.138Z</time></trkpt><trkpt lat="45.9295895" lon="11.9936058"><ele>1202.0</ele><time>2026-04-18T09:30:11.138Z</time></trkpt><trkpt lat="45.929652" lon="11.9934231"><ele>1202.0</ele><time>2026-04-18T09:30:12.139Z</time></trkpt><trkpt lat="45.9297139" lon="11.9932464"><ele>1202.0</ele><time>2026-04-18T09:30:13.137Z</time></trkpt><trkpt lat="45.9297933" lon="11.9930751"><ele>1202.0</ele><time>2026-04-18T09:30:14.137Z</time></trkpt><trkpt lat="45.9298749" lon="11.9929063"><ele>1202.5</ele><time>2026-04-18T09:30:15.138Z</time></trkpt><trkpt lat="45.929952" lon="11.9927373"><ele>1203.0</ele><time>2026-04-18T09:30:16.138Z</time></trkpt><trkpt lat="45.9300278" lon="11.9925686"><ele>1203.5</ele><time>2026-04-18T09:30:17.137Z</time></trkpt><trkpt lat="45.9301337" lon="11.9924112"><ele>1204.0</ele><time>2026-04-18T09:30:18.137Z</time></trkpt><trkpt lat="45.9302366" lon="11.9922699"><ele>1204.0</ele><time>2026-04-18T09:30:19.137Z</time></trkpt><trkpt lat="45.930325" lon="11.9921381"><ele>1204.0</ele><time>2026-04-18T09:30:20.138Z</time></trkpt><trkpt lat="45.9303998" lon="11.9920243"><ele>1204.0</ele><time>2026-04-18T09:30:21.137Z</time></trkpt><trkpt lat="45.9304781" lon="11.9919241"><ele>1204.0</ele><time>2026-04-18T09:30:22.138Z</time></trkpt><trkpt lat="45.930549" lon="11.9918905"><ele>1204.0</ele><time>2026-04-18T09:30:23.137Z</time></trkpt><trkpt lat="45.930622" lon="11.9918537"><ele>1204.0</ele><time>2026-04-18T09:30:24.137Z</time></trkpt><trkpt lat="45.9307235" lon="11.9918742"><ele>1204.0</ele><time>2026-04-18T09:30:26.138Z</time></trkpt><trkpt lat="45.9307648" lon="11.9919624"><ele>1204.0</ele><time>2026-04-18T09:30:29.137Z</time></trkpt><trkpt lat="45.9307308" lon="11.9921028"><ele>1204.0</ele><time>2026-04-18T09:30:31.137Z</time></trkpt><trkpt lat="45.930695" lon="11.9921963"><ele>1204.0</ele><time>2026-04-18T09:30:32.138Z</time></trkpt><trkpt lat="45.9306454" lon="11.9923015"><ele>1204.0</ele><time>2026-04-18T09:30:33.138Z</time></trkpt><trkpt lat="45.9305451" lon="11.9924193"><ele>1208.5</ele><time>2026-04-18T09:30:34.137Z</time></trkpt><trkpt lat="45.9304935" lon="11.9925769"><ele>1213.0</ele><time>2026-04-18T09:30:35.137Z</time></trkpt><trkpt lat="45.9304484" lon="11.992752"><ele>1217.5</ele><time>2026-04-18T09:30:36.137Z</time></trkpt><trkpt lat="45.9303911" lon="11.9929394"><ele>1222.0</ele><time>2026-04-18T09:30:37.138Z</time></trkpt><trkpt lat="45.9303323" lon="11.993153"><ele>1226.3333333333333</ele><time>2026-04-18T09:30:38.138Z</time></trkpt><trkpt lat="45.930284" lon="11.9933724"><ele>1230.6666666666667</ele><time>2026-04-18T09:30:39.137Z</time></trkpt><trkpt lat="45.930237" lon="11.9936039"><ele>1235.0</ele><time>2026-04-18T09:30:40.137Z</time></trkpt><trkpt lat="45.9302563" lon="11.9938513"><ele>1235.0</ele><time>2026-04-18T09:30:41.138Z</time></trkpt><trkpt lat="45.9302696" lon="11.9941031"><ele>1235.0</ele><time>2026-04-18T09:30:42.137Z</time></trkpt><trkpt lat="45.9303011" lon="11.9943705"><ele>1235.0</ele><time>2026-04-18T09:30:43.137Z</time></trkpt><trkpt lat="45.9303466" lon="11.9946485"><ele>1236.0</ele><time>2026-04-18T09:30:44.138Z</time></trkpt><trkpt lat="45.9303919" lon="11.9949283"><ele>1237.0</ele><time>2026-04-18T09:30:45.137Z</time></trkpt><trkpt lat="45.9304404" lon="11.995216"><ele>1238.0</ele><time>2026-04-18T09:30:46.137Z</time></trkpt><trkpt lat="45.9304888" lon="11.9955004"><ele>1238.0</ele><time>2026-04-18T09:30:47.137Z</time></trkpt><trkpt lat="45.9305426" lon="11.9957901"><ele>1238.0</ele><time>2026-04-18T09:30:48.137Z</time></trkpt><trkpt lat="45.9305899" lon="11.9960673"><ele>1238.0</ele><time>2026-04-18T09:30:49.139Z</time></trkpt><trkpt lat="45.9306327" lon="11.9963301"><ele>1238.3333333333335</ele><time>2026-04-18T09:30:50.139Z</time></trkpt><trkpt lat="45.9306656" lon="11.9965882"><ele>1238.6666666666667</ele><time>2026-04-18T09:30:51.139Z</time></trkpt><trkpt lat="45.9307091" lon="11.9968466"><ele>1239.0</ele><time>2026-04-18T09:30:52.139Z</time></trkpt><trkpt lat="45.9307676" lon="11.9971031"><ele>1239.0</ele><time>2026-04-18T09:30:53.137Z</time></trkpt><trkpt lat="45.930845" lon="11.9973566"><ele>1239.0</ele><time>2026-04-18T09:30:54.137Z</time></trkpt><trkpt lat="45.9309359" lon="11.9976105"><ele>1239.0</ele><time>2026-04-18T09:30:55.137Z</time></trkpt><trkpt lat="45.931038" lon="11.9978561"><ele>1244.6666666666667</ele><time>2026-04-18T09:30:56.137Z</time></trkpt><trkpt lat="45.9311543" lon="11.9980949"><ele>1250.3333333333335</ele><time>2026-04-18T09:30:57.137Z</time></trkpt><trkpt lat="45.9312837" lon="11.9983217"><ele>1256.0</ele><time>2026-04-18T09:30:58.137Z</time></trkpt><trkpt lat="45.9314146" lon="11.9985303"><ele>1256.0</ele><time>2026-04-18T09:30:59.138Z</time></trkpt><trkpt lat="45.9315351" lon="11.9987404"><ele>1256.0</ele><time>2026-04-18T09:31:00.137Z</time></trkpt><trkpt lat="45.9316528" lon="11.9989464"><ele>1256.0</ele><time>2026-04-18T09:31:01.137Z</time></trkpt><trkpt lat="45.9317497" lon="11.9991454"><ele>1265.75</ele><time>2026-04-18T09:31:02.138Z</time></trkpt><trkpt lat="45.931824" lon="11.9993315"><ele>1275.5</ele><time>2026-04-18T09:31:03.137Z</time></trkpt><trkpt lat="45.9318741" lon="11.9995135"><ele>1285.25</ele><time>2026-04-18T09:31:04.138Z</time></trkpt><trkpt lat="45.9318742" lon="11.9996953"><ele>1295.0</ele><time>2026-04-18T09:31:05.138Z</time></trkpt><trkpt lat="45.9319094" lon="11.9998652"><ele>1295.0</ele><time>2026-04-18T09:31:06.139Z</time></trkpt><trkpt lat="45.9319668" lon="12.0000352"><ele>1295.0</ele><time>2026-04-18T09:31:07.137Z</time></trkpt><trkpt lat="45.9320323" lon="12.000208"><ele>1295.0</ele><time>2026-04-18T09:31:08.137Z</time></trkpt><trkpt lat="45.9321074" lon="12.0003806"><ele>1295.0</ele><time>2026-04-18T09:31:09.139Z</time></trkpt><trkpt lat="45.9321915" lon="12.0005528"><ele>1295.0</ele><time>2026-04-18T09:31:10.137Z</time></trkpt><trkpt lat="45.9322771" lon="12.0007324"><ele>1295.0</ele><time>2026-04-18T09:31:11.137Z</time></trkpt><trkpt lat="45.9323591" lon="12.0009219"><ele>1295.0</ele><time>2026-04-18T09:31:12.138Z</time></trkpt><trkpt lat="45.9324442" lon="12.0011191"><ele>1291.0</ele><time>2026-04-18T09:31:13.137Z</time></trkpt><trkpt lat="45.9325302" lon="12.0013234"><ele>1287.0</ele><time>2026-04-18T09:31:14.138Z</time></trkpt><trkpt lat="45.9326204" lon="12.0015338"><ele>1283.0</ele><time>2026-04-18T09:31:15.137Z</time></trkpt><trkpt lat="45.9327245" lon="12.0017424"><ele>1293.6666666666667</ele><time>2026-04-18T09:31:16.139Z</time></trkpt><trkpt lat="45.9328458" lon="12.0019416"><ele>1304.3333333333333</ele><time>2026-04-18T09:31:17.137Z</time></trkpt><trkpt lat="45.9329701" lon="12.002118"><ele>1315.0</ele><time>2026-04-18T09:31:18.137Z</time></trkpt><trkpt lat="45.93309" lon="12.0022873"><ele>1315.0</ele><time>2026-04-18T09:31:19.138Z</time></trkpt><trkpt lat="45.9331969" lon="12.0024512"><ele>1315.0</ele><time>2026-04-18T09:31:20.137Z</time></trkpt><trkpt lat="45.9332838" lon="12.0026304"><ele>1315.0</ele><time>2026-04-18T09:31:21.137Z</time></trkpt><trkpt lat="45.9333501" lon="12.002841"><ele>1324.0</ele><time>2026-04-18T09:31:22.138Z</time></trkpt><trkpt lat="45.9334002" lon="12.0030713"><ele>1333.0</ele><time>2026-04-18T09:31:23.138Z</time></trkpt><trkpt lat="45.9334644" lon="12.0033077"><ele>1342.0</ele><time>2026-04-18T09:31:24.137Z</time></trkpt><trkpt lat="45.9335475" lon="12.0035484"><ele>1342.0</ele><time>2026-04-18T09:31:25.138Z</time></trkpt><trkpt lat="45.9336381" lon="12.0037897"><ele>1342.0</ele><time>2026-04-18T09:31:26.138Z</time></trkpt><trkpt lat="45.9337373" lon="12.0040323"><ele>1342.0</ele><time>2026-04-18T09:31:27.137Z</time></trkpt><trkpt lat="45.9338318" lon="12.0042823"><ele>1335.6666666666665</ele><time>2026-04-18T09:31:28.138Z</time></trkpt><trkpt lat="45.933919" lon="12.0045246"><ele>1329.3333333333333</ele><time>2026-04-18T09:31:29.139Z</time></trkpt><trkpt lat="45.9340278" lon="12.0047677"><ele>1323.0</ele><time>2026-04-18T09:31:30.138Z</time></trkpt><trkpt lat="45.9341422" lon="12.005011"><ele>1337.6666666666667</ele><time>2026-04-18T09:31:31.138Z</time></trkpt><trkpt lat="45.9342571" lon="12.0052558"><ele>1352.3333333333335</ele><time>2026-04-18T09:31:32.137Z</time></trkpt><trkpt lat="45.9343632" lon="12.0054926"><ele>1367.0</ele><time>2026-04-18T09:31:33.138Z</time></trkpt><trkpt lat="45.9344515" lon="12.0057346"><ele>1361.6666666666667</ele><time>2026-04-18T09:31:34.137Z</time></trkpt><trkpt lat="45.934517" lon="12.0059762"><ele>1356.3333333333333</ele><time>2026-04-18T09:31:35.138Z</time></trkpt><trkpt lat="45.9345658" lon="12.0062172"><ele>1351.0</ele><time>2026-04-18T09:31:36.138Z</time></trkpt><trkpt lat="45.9346249" lon="12.0064514"><ele>1348.0</ele><time>2026-04-18T09:31:37.137Z</time></trkpt><trkpt lat="45.934682" lon="12.006692"><ele>1345.0</ele><time>2026-04-18T09:31:38.138Z</time></trkpt><trkpt lat="45.9347404" lon="12.0069478"><ele>1342.0</ele><time>2026-04-18T09:31:39.138Z</time></trkpt><trkpt lat="45.9348099" lon="12.0072105"><ele>1342.0</ele><time>2026-04-18T09:31:40.139Z</time></trkpt><trkpt lat="45.9348877" lon="12.0074794"><ele>1342.0</ele><time>2026-04-18T09:31:41.138Z</time></trkpt><trkpt lat="45.9349657" lon="12.0077613"><ele>1342.0</ele><time>2026-04-18T09:31:42.137Z</time></trkpt><trkpt lat="45.9350434" lon="12.0080556"><ele>1363.5</ele><time>2026-04-18T09:31:43.138Z</time></trkpt><trkpt lat="45.935123" lon="12.0083606"><ele>1385.0</ele><time>2026-04-18T09:31:44.139Z</time></trkpt><trkpt lat="45.935202" lon="12.0086628"><ele>1385.0</ele><time>2026-04-18T09:31:45.137Z</time></trkpt><trkpt lat="45.9352768" lon="12.0089363"><ele>1385.0</ele><time>2026-04-18T09:31:46.139Z</time></trkpt><trkpt lat="45.9353467" lon="12.0091921"><ele>1385.0</ele><time>2026-04-18T09:31:47.137Z</time></trkpt><trkpt lat="45.935414" lon="12.0094434"><ele>1380.0</ele><time>2026-04-18T09:31:48.137Z</time></trkpt><trkpt lat="45.9354827" lon="12.0096872"><ele>1375.0</ele><time>2026-04-18T09:31:49.137Z</time></trkpt><trkpt lat="45.9355452" lon="12.0099382"><ele>1370.0</ele><time>2026-04-18T09:31:50.137Z</time></trkpt><trkpt lat="45.9355936" lon="12.010213"><ele>1368.3333333333335</ele><time>2026-04-18T09:31:51.137Z</time></trkpt><trkpt lat="45.9356326" lon="12.0104991"><ele>1366.6666666666667</ele><time>2026-04-18T09:31:52.137Z</time></trkpt><trkpt lat="45.9356647" lon="12.0107941"><ele>1365.0</ele><time>2026-04-18T09:31:53.137Z</time></trkpt><trkpt lat="45.9356845" lon="12.0110939"><ele>1364.6666666666667</ele><time>2026-04-18T09:31:54.137Z</time></trkpt><trkpt lat="45.9356994" lon="12.0113966"><ele>1364.3333333333335</ele><time>2026-04-18T09:31:55.137Z</time></trkpt><trkpt lat="45.9357101" lon="12.0116974"><ele>1364.0</ele><time>2026-04-18T09:31:56.138Z</time></trkpt><trkpt lat="45.9357187" lon="12.011997"><ele>1364.0</ele><time>2026-04-18T09:31:57.137Z</time></trkpt><trkpt lat="45.9357218" lon="12.0122933"><ele>1364.0</ele><time>2026-04-18T09:31:58.139Z</time></trkpt><trkpt lat="45.9357194" lon="12.0125739"><ele>1364.0</ele><time>2026-04-18T09:31:59.137Z</time></trkpt><trkpt lat="45.9357034" lon="12.0128377"><ele>1365.3333333333335</ele><time>2026-04-18T09:32:00.137Z</time></trkpt><trkpt lat="45.9356651" lon="12.0131061"><ele>1366.6666666666667</ele><time>2026-04-18T09:32:01.137Z</time></trkpt><trkpt lat="45.9356068" lon="12.0133775"><ele>1368.0</ele><time>2026-04-18T09:32:02.138Z</time></trkpt><trkpt lat="45.9355395" lon="12.0136522"><ele>1371.6666666666667</ele><time>2026-04-18T09:32:03.137Z</time></trkpt><trkpt lat="45.9354534" lon="12.0139258"><ele>1375.3333333333335</ele><time>2026-04-18T09:32:04.137Z</time></trkpt><trkpt lat="45.9353564" lon="12.0141926"><ele>1379.0</ele><time>2026-04-18T09:32:05.138Z</time></trkpt><trkpt lat="45.9352484" lon="12.0144574"><ele>1378.6666666666667</ele><time>2026-04-18T09:32:06.137Z</time></trkpt><trkpt lat="45.9351394" lon="12.0147221"><ele>1378.3333333333333</ele><time>2026-04-18T09:32:07.139Z</time></trkpt><trkpt lat="45.9350363" lon="12.0149747"><ele>1378.0</ele><time>2026-04-18T09:32:08.138Z</time></trkpt><trkpt lat="45.9349316" lon="12.0152187"><ele>1378.0</ele><time>2026-04-18T09:32:09.138Z</time></trkpt><trkpt lat="45.9348081" lon="12.0154585"><ele>1378.0</ele><time>2026-04-18T09:32:10.138Z</time></trkpt><trkpt lat="45.9346799" lon="12.0157027"><ele>1378.0</ele><time>2026-04-18T09:32:11.137Z</time></trkpt><trkpt lat="45.9345473" lon="12.0159496"><ele>1376.3333333333333</ele><time>2026-04-18T09:32:12.138Z</time></trkpt><trkpt lat="45.9344108" lon="12.0161951"><ele>1374.6666666666667</ele><time>2026-04-18T09:32:13.137Z</time></trkpt><trkpt lat="45.9342794" lon="12.0164319"><ele>1373.0</ele><time>2026-04-18T09:32:14.138Z</time></trkpt><trkpt lat="45.9341506" lon="12.0166514"><ele>1381.3333333333335</ele><time>2026-04-18T09:32:15.138Z</time></trkpt><trkpt lat="45.9340154" lon="12.0168675"><ele>1389.6666666666667</ele><time>2026-04-18T09:32:16.138Z</time></trkpt><trkpt lat="45.9338739" lon="12.0170799"><ele>1398.0</ele><time>2026-04-18T09:32:17.137Z</time></trkpt><trkpt lat="45.933733" lon="12.0172849"><ele>1398.0</ele><time>2026-04-18T09:32:18.138Z</time></trkpt><trkpt lat="45.9335972" lon="12.0174735"><ele>1398.0</ele><time>2026-04-18T09:32:19.138Z</time></trkpt><trkpt lat="45.9334716" lon="12.0176377"><ele>1398.0</ele><time>2026-04-18T09:32:20.139Z</time></trkpt><trkpt lat="45.9333596" lon="12.0177886"><ele>1399.0</ele><time>2026-04-18T09:32:21.137Z</time></trkpt><trkpt lat="45.9332703" lon="12.0179318"><ele>1400.0</ele><time>2026-04-18T09:32:22.137Z</time></trkpt><trkpt lat="45.9331891" lon="12.0180814"><ele>1401.0</ele><time>2026-04-18T09:32:23.137Z</time></trkpt><trkpt lat="45.9331216" lon="12.018264"><ele>1402.0</ele><time>2026-04-18T09:32:24.137Z</time></trkpt><trkpt lat="45.9330637" lon="12.0184678"><ele>1406.75</ele><time>2026-04-18T09:32:25.138Z</time></trkpt><trkpt lat="45.9330145" lon="12.0186754"><ele>1411.5</ele><time>2026-04-18T09:32:26.139Z</time></trkpt><trkpt lat="45.9329753" lon="12.0188524"><ele>1416.25</ele><time>2026-04-18T09:32:27.137Z</time></trkpt><trkpt lat="45.9329491" lon="12.0189864"><ele>1421.0</ele><time>2026-04-18T09:32:28.138Z</time></trkpt><trkpt lat="45.9329425" lon="12.0190932"><ele>1423.0</ele><time>2026-04-18T09:32:29.138Z</time></trkpt><trkpt lat="45.9329686" lon="12.0191853"><ele>1425.0</ele><time>2026-04-18T09:32:30.137Z</time></trkpt><trkpt lat="45.9330315" lon="12.0192721"><ele>1427.0</ele><time>2026-04-18T09:32:31.138Z</time></trkpt><trkpt lat="45.9331153" lon="12.019351"><ele>1429.0</ele><time>2026-04-18T09:32:32.137Z</time></trkpt><trkpt lat="45.9332235" lon="12.0194411"><ele>1431.0</ele><time>2026-04-18T09:32:33.137Z</time></trkpt><trkpt lat="45.9333449" lon="12.0195602"><ele>1435.75</ele><time>2026-04-18T09:32:34.139Z</time></trkpt><trkpt lat="45.9334572" lon="12.0197076"><ele>1440.5</ele><time>2026-04-18T09:32:35.137Z</time></trkpt><trkpt lat="45.9335422" lon="12.0198729"><ele>1445.25</ele><time>2026-04-18T09:32:36.139Z</time></trkpt><trkpt lat="45.9335958" lon="12.0200539"><ele>1450.0</ele><time>2026-04-18T09:32:37.138Z</time></trkpt><trkpt lat="45.9336369" lon="12.0202417"><ele>1450.0</ele><time>2026-04-18T09:32:38.137Z</time></trkpt><trkpt lat="45.9336852" lon="12.0204286"><ele>1450.0</ele><time>2026-04-18T09:32:39.137Z</time></trkpt><trkpt lat="45.9337542" lon="12.0205945"><ele>1450.0</ele><time>2026-04-18T09:32:40.138Z</time></trkpt><trkpt lat="45.9338486" lon="12.0207626"><ele>1450.0</ele><time>2026-04-18T09:32:41.138Z</time></trkpt><trkpt lat="45.9339576" lon="12.0209528"><ele>1448.0</ele><time>2026-04-18T09:32:42.138Z</time></trkpt><trkpt lat="45.9340618" lon="12.0211761"><ele>1446.0</ele><time>2026-04-18T09:32:43.137Z</time></trkpt><trkpt lat="45.9341719" lon="12.0214226"><ele>1444.0</ele><time>2026-04-18T09:32:44.138Z</time></trkpt><trkpt lat="45.9342766" lon="12.0216436"><ele>1440.6666666666665</ele><time>2026-04-18T09:32:45.138Z</time></trkpt><trkpt lat="45.9343668" lon="12.0218224"><ele>1437.3333333333333</ele><time>2026-04-18T09:32:46.138Z</time></trkpt><trkpt lat="45.9344708" lon="12.0219699"><ele>1434.0</ele><time>2026-04-18T09:32:47.137Z</time></trkpt><trkpt lat="45.9346056" lon="12.022088"><ele>1434.0</ele><time>2026-04-18T09:32:48.137Z</time></trkpt><trkpt lat="45.9347503" lon="12.0221994"><ele>1434.0</ele><time>2026-04-18T09:32:49.137Z</time></trkpt><trkpt lat="45.9348893" lon="12.0222932"><ele>1434.0</ele><time>2026-04-18T09:32:50.137Z</time></trkpt><trkpt lat="45.935018" lon="12.0223846"><ele>1436.3333333333333</ele><time>2026-04-18T09:32:51.137Z</time></trkpt><trkpt lat="45.9351471" lon="12.0225084"><ele>1438.6666666666665</ele><time>2026-04-18T09:32:52.139Z</time></trkpt><trkpt lat="45.9352715" lon="12.0226631"><ele>1441.0</ele><time>2026-04-18T09:32:53.138Z</time></trkpt><trkpt lat="45.9353954" lon="12.0228385"><ele>1441.0</ele><time>2026-04-18T09:32:54.138Z</time></trkpt><trkpt lat="45.9355184" lon="12.0230278"><ele>1441.0</ele><time>2026-04-18T09:32:55.137Z</time></trkpt><trkpt lat="45.9356309" lon="12.0232333"><ele>1441.0</ele><time>2026-04-18T09:32:56.137Z</time></trkpt><trkpt lat="45.9357296" lon="12.0234538"><ele>1441.3333333333333</ele><time>2026-04-18T09:32:57.139Z</time></trkpt><trkpt lat="45.9358177" lon="12.0236851"><ele>1441.6666666666667</ele><time>2026-04-18T09:32:58.138Z</time></trkpt><trkpt lat="45.9358946" lon="12.0239165"><ele>1442.0</ele><time>2026-04-18T09:32:59.138Z</time></trkpt><trkpt lat="45.9359698" lon="12.0241301"><ele>1448.0</ele><time>2026-04-18T09:33:00.138Z</time></trkpt><trkpt lat="45.9360508" lon="12.0243133"><ele>1454.0</ele><time>2026-04-18T09:33:01.138Z</time></trkpt><trkpt lat="45.9361465" lon="12.0244727"><ele>1460.0</ele><time>2026-04-18T09:33:02.137Z</time></trkpt><trkpt lat="45.9362669" lon="12.0246205"><ele>1460.0</ele><time>2026-04-18T09:33:03.137Z</time></trkpt><trkpt lat="45.9363951" lon="12.0247787"><ele>1460.0</ele><time>2026-04-18T09:33:04.137Z</time></trkpt><trkpt lat="45.9365159" lon="12.0249605"><ele>1460.0</ele><time>2026-04-18T09:33:05.137Z</time></trkpt><trkpt lat="45.9366315" lon="12.0251512"><ele>1465.3333333333335</ele><time>2026-04-18T09:33:06.138Z</time></trkpt><trkpt lat="45.9367491" lon="12.0253399"><ele>1470.6666666666667</ele><time>2026-04-18T09:33:07.137Z</time></trkpt><trkpt lat="45.9368677" lon="12.0255282"><ele>1476.0</ele><time>2026-04-18T09:33:08.138Z</time></trkpt><trkpt lat="45.9369817" lon="12.025707"><ele>1474.75</ele><time>2026-04-18T09:33:09.139Z</time></trkpt><trkpt lat="45.937083" lon="12.0258756"><ele>1473.5</ele><time>2026-04-18T09:33:10.137Z</time></trkpt><trkpt lat="45.9371714" lon="12.0260383"><ele>1472.25</ele><time>2026-04-18T09:33:11.136Z</time></trkpt><trkpt lat="45.9372491" lon="12.0261877"><ele>1471.0</ele><time>2026-04-18T09:33:12.136Z</time></trkpt><trkpt lat="45.9373256" lon="12.0263167"><ele>1471.0</ele><time>2026-04-18T09:33:13.137Z</time></trkpt><trkpt lat="45.9374155" lon="12.0264208"><ele>1471.0</ele><time>2026-04-18T09:33:14.137Z</time></trkpt><trkpt lat="45.9375215" lon="12.0265064"><ele>1471.0</ele><time>2026-04-18T09:33:15.136Z</time></trkpt><trkpt lat="45.9376353" lon="12.0265751"><ele>1471.0</ele><time>2026-04-18T09:33:16.136Z</time></trkpt><trkpt lat="45.9377535" lon="12.0266367"><ele>1472.0</ele><time>2026-04-18T09:33:17.137Z</time></trkpt><trkpt lat="45.9378757" lon="12.0266875"><ele>1473.0</ele><time>2026-04-18T09:33:18.137Z</time></trkpt><trkpt lat="45.9380001" lon="12.0267226"><ele>1474.0</ele><time>2026-04-18T09:33:19.136Z</time></trkpt><trkpt lat="45.9381306" lon="12.0267544"><ele>1475.0</ele><time>2026-04-18T09:33:20.137Z</time></trkpt><trkpt lat="45.9382636" lon="12.0267825"><ele>1477.5</ele><time>2026-04-18T09:33:21.136Z</time></trkpt><trkpt lat="45.9384043" lon="12.0268121"><ele>1480.0</ele><time>2026-04-18T09:33:22.137Z</time></trkpt><trkpt lat="45.9385418" lon="12.0268562"><ele>1482.5</ele><time>2026-04-18T09:33:23.137Z</time></trkpt><trkpt lat="45.9386673" lon="12.0269246"><ele>1485.0</ele><time>2026-04-18T09:33:24.137Z</time></trkpt><trkpt lat="45.9387769" lon="12.0270298"><ele>1485.0</ele><time>2026-04-18T09:33:25.137Z</time></trkpt><trkpt lat="45.9388791" lon="12.0271569"><ele>1485.0</ele><time>2026-04-18T09:33:26.136Z</time></trkpt><trkpt lat="45.9389999" lon="12.0272791"><ele>1485.0</ele><time>2026-04-18T09:33:27.137Z</time></trkpt><trkpt lat="45.9391425" lon="12.0273913"><ele>1485.0</ele><time>2026-04-18T09:33:28.136Z</time></trkpt><trkpt lat="45.9392928" lon="12.0275043"><ele>1486.0</ele><time>2026-04-18T09:33:29.137Z</time></trkpt><trkpt lat="45.9394255" lon="12.0275956"><ele>1487.0</ele><time>2026-04-18T09:33:30.138Z</time></trkpt><trkpt lat="45.9395498" lon="12.0276717"><ele>1488.0</ele><time>2026-04-18T09:33:31.136Z</time></trkpt><trkpt lat="45.9396818" lon="12.0277061"><ele>1489.0</ele><time>2026-04-18T09:33:32.138Z</time></trkpt><trkpt lat="45.9398206" lon="12.027701"><ele>1489.0</ele><time>2026-04-18T09:33:33.137Z</time></trkpt><trkpt lat="45.9399593" lon="12.0276607"><ele>1489.0</ele><time>2026-04-18T09:33:34.137Z</time></trkpt><trkpt lat="45.9400803" lon="12.027592"><ele>1489.0</ele><time>2026-04-18T09:33:35.137Z</time></trkpt><trkpt lat="45.9401842" lon="12.0275302"><ele>1489.0</ele><time>2026-04-18T09:33:36.137Z</time></trkpt><trkpt lat="45.9402752" lon="12.0274814"><ele>1490.5</ele><time>2026-04-18T09:33:37.137Z</time></trkpt><trkpt lat="45.9403546" lon="12.0274377"><ele>1492.0</ele><time>2026-04-18T09:33:38.138Z</time></trkpt><trkpt lat="45.9404215" lon="12.0273997"><ele>1493.5</ele><time>2026-04-18T09:33:39.137Z</time></trkpt><trkpt lat="45.9405206" lon="12.0273493"><ele>1495.0</ele><time>2026-04-18T09:33:41.136Z</time></trkpt><trkpt lat="45.9405884" lon="12.0273141"><ele>1496.5</ele><time>2026-04-18T09:33:43.137Z</time></trkpt><trkpt lat="45.9406603" lon="12.027267"><ele>1498.0</ele><time>2026-04-18T09:33:47.137Z</time></trkpt><trkpt lat="45.9407393" lon="12.0272189"><ele>1498.0</ele><time>2026-04-18T09:33:49.136Z</time></trkpt><trkpt lat="45.9408423" lon="12.0271851"><ele>1498.0</ele><time>2026-04-18T09:33:51.138Z</time></trkpt><trkpt lat="45.9409251" lon="12.0271481"><ele>1498.0</ele><time>2026-04-18T09:33:53.136Z</time></trkpt><trkpt lat="45.9410062" lon="12.0271394"><ele>1498.0</ele><time>2026-04-18T09:33:55.136Z</time></trkpt><trkpt lat="45.9410982" lon="12.0271204"><ele>1498.0</ele><time>2026-04-18T09:33:57.136Z</time></trkpt><trkpt lat="45.9411883" lon="12.027092"><ele>1498.2</ele><time>2026-04-18T09:33:59.137Z</time></trkpt><trkpt lat="45.9412689" lon="12.0270736"><ele>1498.4</ele><time>2026-04-18T09:34:02.137Z</time></trkpt><trkpt lat="45.9413359" lon="12.0270564"><ele>1498.6000000000001</ele><time>2026-04-18T09:34:04.137Z</time></trkpt><trkpt lat="45.9413998" lon="12.0270022"><ele>1498.8000000000002</ele><time>2026-04-18T09:34:07.136Z</time></trkpt><trkpt lat="45.9414953" lon="12.0268754"><ele>1499.0</ele><time>2026-04-18T09:34:48.136Z</time></trkpt><trkpt lat="45.9415829" lon="12.0267814"><ele>1499.0</ele><time>2026-04-18T09:34:50.136Z</time></trkpt><trkpt lat="45.9416772" lon="12.026691"><ele>1499.0</ele><time>2026-04-18T09:34:52.136Z</time></trkpt><trkpt lat="45.9417741" lon="12.0266237"><ele>1499.0</ele><time>2026-04-18T09:34:54.137Z</time></trkpt><trkpt lat="45.9418673" lon="12.0265546"><ele>1499.0</ele><time>2026-04-18T09:34:56.136Z</time></trkpt><trkpt lat="45.941969" lon="12.0264706"><ele>1499.0</ele><time>2026-04-18T09:34:58.137Z</time></trkpt><trkpt lat="45.9420241" lon="12.0264225"><ele>1499.3333333333335</ele><time>2026-04-18T09:34:59.137Z</time></trkpt><trkpt lat="45.9420882" lon="12.0263828"><ele>1499.6666666666667</ele><time>2026-04-18T09:35:00.137Z</time></trkpt><trkpt lat="45.9421574" lon="12.0263414"><ele>1500.0</ele><time>2026-04-18T09:35:01.137Z</time></trkpt><trkpt lat="45.9422323" lon="12.0262997"><ele>1500.3333333333333</ele><time>2026-04-18T09:35:02.136Z</time></trkpt><trkpt lat="45.9423076" lon="12.0262554"><ele>1500.6666666666665</ele><time>2026-04-18T09:35:03.138Z</time></trkpt><trkpt lat="45.9423829" lon="12.0262175"><ele>1501.0</ele><time>2026-04-18T09:35:04.137Z</time></trkpt><trkpt lat="45.9424648" lon="12.0261781"><ele>1497.3333333333333</ele><time>2026-04-18T09:35:05.136Z</time></trkpt><trkpt lat="45.9425504" lon="12.0261334"><ele>1493.6666666666665</ele><time>2026-04-18T09:35:06.138Z</time></trkpt><trkpt lat="45.9426302" lon="12.0260936"><ele>1490.0</ele><time>2026-04-18T09:35:07.137Z</time></trkpt><trkpt lat="45.9427075" lon="12.0260502"><ele>1486.3333333333333</ele><time>2026-04-18T09:35:08.137Z</time></trkpt><trkpt lat="45.9427825" lon="12.0260091"><ele>1482.6666666666667</ele><time>2026-04-18T09:35:09.136Z</time></trkpt><trkpt lat="45.9428587" lon="12.0259748"><ele>1479.0</ele><time>2026-04-18T09:35:10.137Z</time></trkpt><trkpt lat="45.942932" lon="12.0259453"><ele>1479.0</ele><time>2026-04-18T09:35:11.136Z</time></trkpt><trkpt lat="45.9429994" lon="12.0259096"><ele>1479.0</ele><time>2026-04-18T09:35:12.137Z</time></trkpt><trkpt lat="45.9430651" lon="12.0258752"><ele>1479.0</ele><time>2026-04-18T09:35:13.136Z</time></trkpt><trkpt lat="45.9431303" lon="12.0258383"><ele>1479.0</ele><time>2026-04-18T09:35:14.137Z</time></trkpt><trkpt lat="45.9432022" lon="12.025807"><ele>1479.0</ele><time>2026-04-18T09:35:15.136Z</time></trkpt><trkpt lat="45.9432713" lon="12.0257794"><ele>1479.0</ele><time>2026-04-18T09:35:16.136Z</time></trkpt><trkpt lat="45.9433373" lon="12.0257497"><ele>1479.0</ele><time>2026-04-18T09:35:17.136Z</time></trkpt><trkpt lat="45.9434007" lon="12.0257146"><ele>1478.2857142857144</ele><time>2026-04-18T09:35:18.137Z</time></trkpt><trkpt lat="45.9434669" lon="12.0256784"><ele>1477.5714285714284</ele><time>2026-04-18T09:35:19.136Z</time></trkpt><trkpt lat="45.94353" lon="12.0256455"><ele>1476.857142857143</ele><time>2026-04-18T09:35:20.136Z</time></trkpt><trkpt lat="45.9435909" lon="12.025609"><ele>1476.1428571428573</ele><time>2026-04-18T09:35:21.136Z</time></trkpt><trkpt lat="45.9436565" lon="12.0255673"><ele>1475.4285714285716</ele><time>2026-04-18T09:35:22.136Z</time></trkpt><trkpt lat="45.9437167" lon="12.0255255"><ele>1474.7142857142858</ele><time>2026-04-18T09:35:23.136Z</time></trkpt><trkpt lat="45.943777" lon="12.0254892"><ele>1474.0</ele><time>2026-04-18T09:35:24.137Z</time></trkpt><trkpt lat="45.9438419" lon="12.0254293"><ele>1474.0</ele><time>2026-04-18T09:35:25.136Z</time></trkpt><trkpt lat="45.9439048" lon="12.0253825"><ele>1474.0</ele><time>2026-04-18T09:35:26.137Z</time></trkpt><trkpt lat="45.9439648" lon="12.0253274"><ele>1474.0</ele><time>2026-04-18T09:35:27.138Z</time></trkpt><trkpt lat="45.9440269" lon="12.0252682"><ele>1474.0</ele><time>2026-04-18T09:35:28.137Z</time></trkpt><trkpt lat="45.944095" lon="12.0252034"><ele>1474.0</ele><time>2026-04-18T09:35:29.137Z</time></trkpt><trkpt lat="45.9441625" lon="12.0251482"><ele>1474.0</ele><time>2026-04-18T09:35:30.136Z</time></trkpt><trkpt lat="45.9442282" lon="12.0250929"><ele>1473.6666666666665</ele><time>2026-04-18T09:35:31.136Z</time></trkpt><trkpt lat="45.9442865" lon="12.0250279"><ele>1473.3333333333333</ele><time>2026-04-18T09:35:32.136Z</time></trkpt><trkpt lat="45.944341" lon="12.0249745"><ele>1473.0</ele><time>2026-04-18T09:35:33.136Z</time></trkpt><trkpt lat="45.9443954" lon="12.0249174"><ele>1472.6666666666667</ele><time>2026-04-18T09:35:34.138Z</time></trkpt><trkpt lat="45.944448" lon="12.0248629"><ele>1472.3333333333335</ele><time>2026-04-18T09:35:35.136Z</time></trkpt><trkpt lat="45.9445002" lon="12.024808"><ele>1472.0</ele><time>2026-04-18T09:35:36.137Z</time></trkpt><trkpt lat="45.9445945" lon="12.0247069"><ele>1472.0</ele><time>2026-04-18T09:35:38.138Z</time></trkpt><trkpt lat="45.944692" lon="12.0246041"><ele>1472.0</ele><time>2026-04-18T09:35:40.136Z</time></trkpt><trkpt lat="45.9447846" lon="12.0245396"><ele>1472.0</ele><time>2026-04-18T09:35:42.137Z</time></trkpt><trkpt lat="45.9448594" lon="12.0245134"><ele>1472.0</ele><time>2026-04-18T09:35:44.137Z</time></trkpt><trkpt lat="45.9449257" lon="12.0244834"><ele>1472.0</ele><time>2026-04-18T09:35:47.137Z</time></trkpt><trkpt lat="45.944991" lon="12.0244484"><ele>1472.0</ele><time>2026-04-18T09:35:49.136Z</time></trkpt><trkpt lat="45.9450628" lon="12.0244215"><ele>1472.857142857143</ele><time>2026-04-18T09:35:51.138Z</time></trkpt><trkpt lat="45.9451347" lon="12.0243866"><ele>1473.7142857142856</ele><time>2026-04-18T09:35:53.136Z</time></trkpt><trkpt lat="45.9451965" lon="12.0243368"><ele>1474.5714285714284</ele><time>2026-04-18T09:35:55.137Z</time></trkpt><trkpt lat="45.9452599" lon="12.0242796"><ele>1475.4285714285716</ele><time>2026-04-18T09:35:58.138Z</time></trkpt><trkpt lat="45.9453159" lon="12.024238"><ele>1476.2857142857142</ele><time>2026-04-18T09:36:00.136Z</time></trkpt><trkpt lat="45.9453873" lon="12.0241812"><ele>1477.142857142857</ele><time>2026-04-18T09:36:03.136Z</time></trkpt><trkpt lat="45.9454477" lon="12.0241508"><ele>1478.0</ele><time>2026-04-18T09:36:06.136Z</time></trkpt><trkpt lat="45.9455178" lon="12.0241094"><ele>1478.0</ele><time>2026-04-18T09:36:27.138Z</time></trkpt><trkpt lat="45.9455898" lon="12.0240682"><ele>1478.0</ele><time>2026-04-18T09:36:30.137Z</time></trkpt><trkpt lat="45.9456689" lon="12.0240295"><ele>1478.0</ele><time>2026-04-18T09:36:33.136Z</time></trkpt><trkpt lat="45.94575" lon="12.0239891"><ele>1478.0</ele><time>2026-04-18T09:36:36.137Z</time></trkpt><trkpt lat="45.9458202" lon="12.0239462"><ele>1478.0</ele><time>2026-04-18T09:36:39.136Z</time></trkpt><trkpt lat="45.945891" lon="12.0238942"><ele>1478.0</ele><time>2026-04-18T09:36:42.136Z</time></trkpt><trkpt lat="45.9459514" lon="12.0238543"><ele>1471.7142857142858</ele><time>2026-04-18T09:36:59.136Z</time></trkpt><trkpt lat="45.9460158" lon="12.0238099"><ele>1465.4285714285716</ele><time>2026-04-18T09:37:51.137Z</time></trkpt><trkpt lat="45.9460789" lon="12.0237545"><ele>1459.142857142857</ele><time>2026-04-18T09:38:02.137Z</time></trkpt><trkpt lat="45.9461421" lon="12.0237036"><ele>1452.857142857143</ele><time>2026-04-18T09:38:06.136Z</time></trkpt><trkpt lat="45.9461952" lon="12.0236537"><ele>1446.5714285714284</ele><time>2026-04-18T09:38:09.136Z</time></trkpt><trkpt lat="45.9462522" lon="12.0235958"><ele>1440.2857142857142</ele><time>2026-04-18T09:38:14.137Z</time></trkpt><trkpt lat="45.9463142" lon="12.0235334"><ele>1434.0</ele><time>2026-04-18T09:38:20.137Z</time></trkpt><trkpt lat="45.9463765" lon="12.0234633"><ele>1434.0</ele><time>2026-04-18T09:38:24.136Z</time></trkpt><trkpt lat="45.9464217" lon="12.023396"><ele>1434.0</ele><time>2026-04-18T09:38:28.137Z</time></trkpt><trkpt lat="45.9464693" lon="12.023328"><ele>1434.0</ele><time>2026-04-18T09:38:32.138Z</time></trkpt><trkpt lat="45.946527" lon="12.0232517"><ele>1434.0</ele><time>2026-04-18T09:38:35.137Z</time></trkpt><trkpt lat="45.9465768" lon="12.0231912"><ele>1434.0</ele><time>2026-04-18T09:38:37.137Z</time></trkpt><trkpt lat="45.9466219" lon="12.0231217"><ele>1434.0</ele><time>2026-04-18T09:38:39.137Z</time></trkpt><trkpt lat="45.9466743" lon="12.0230628"><ele>1434.0</ele><time>2026-04-18T09:38:41.137Z</time></trkpt><trkpt lat="45.9467452" lon="12.023001"><ele>1433.0</ele><time>2026-04-18T09:38:43.137Z</time></trkpt><trkpt lat="45.9468095" lon="12.0229319"><ele>1432.0</ele><time>2026-04-18T09:38:45.137Z</time></trkpt><trkpt lat="45.9468619" lon="12.0228727"><ele>1431.0</ele><time>2026-04-18T09:38:47.137Z</time></trkpt><trkpt lat="45.9469359" lon="12.0228086"><ele>1430.0</ele><time>2026-04-18T09:38:50.135Z</time></trkpt><trkpt lat="45.9470126" lon="12.0227431"><ele>1429.0</ele><time>2026-04-18T09:38:53.136Z</time></trkpt><trkpt lat="45.94707" lon="12.022695"><ele>1428.0</ele><time>2026-04-18T09:38:57.135Z</time></trkpt><trkpt lat="45.9471388" lon="12.0226503"><ele>1428.0</ele><time>2026-04-18T09:39:03.137Z</time></trkpt><trkpt lat="45.9472008" lon="12.0226056"><ele>1428.0</ele><time>2026-04-18T09:39:08.136Z</time></trkpt><trkpt lat="45.9472617" lon="12.022551"><ele>1428.0</ele><time>2026-04-18T09:39:12.135Z</time></trkpt><trkpt lat="45.9473421" lon="12.0225147"><ele>1428.0</ele><time>2026-04-18T09:39:16.135Z</time></trkpt><trkpt lat="45.9474101" lon="12.0224777"><ele>1428.0</ele><time>2026-04-18T09:39:19.136Z</time></trkpt><trkpt lat="45.9474821" lon="12.0224228"><ele>1428.0</ele><time>2026-04-18T09:39:22.136Z</time></trkpt><trkpt lat="45.9475488" lon="12.0223739"><ele>1428.5</ele><time>2026-04-18T09:39:25.135Z</time></trkpt><trkpt lat="45.9476236" lon="12.0223136"><ele>1429.0</ele><time>2026-04-18T09:39:28.135Z</time></trkpt><trkpt lat="45.9476862" lon="12.022259"><ele>1429.5</ele><time>2026-04-18T09:39:30.136Z</time></trkpt><trkpt lat="45.9477478" lon="12.0222017"><ele>1430.0</ele><time>2026-04-18T09:39:35.135Z</time></trkpt><trkpt lat="45.9478148" lon="12.0221336"><ele>1430.5</ele><time>2026-04-18T09:39:38.135Z</time></trkpt><trkpt lat="45.9478842" lon="12.022091"><ele>1431.0</ele><time>2026-04-18T09:39:55.136Z</time></trkpt><trkpt lat="45.9479511" lon="12.022008"><ele>1431.0</ele><time>2026-04-18T09:39:57.136Z</time></trkpt><trkpt lat="45.9480155" lon="12.0219376"><ele>1431.0</ele><time>2026-04-18T09:39:59.136Z</time></trkpt><trkpt lat="45.9480985" lon="12.0218962"><ele>1431.0</ele><time>2026-04-18T09:40:00.135Z</time></trkpt><trkpt lat="45.9481947" lon="12.021848"><ele>1431.0</ele><time>2026-04-18T09:40:02.137Z</time></trkpt><trkpt lat="45.9482906" lon="12.0218114"><ele>1431.0</ele><time>2026-04-18T09:40:04.136Z</time></trkpt><trkpt lat="45.9483924" lon="12.0217425"><ele>1432.4</ele><time>2026-04-18T09:40:06.135Z</time></trkpt><trkpt lat="45.9484525" lon="12.0217153"><ele>1433.8</ele><time>2026-04-18T09:40:07.136Z</time></trkpt><trkpt lat="45.9485544" lon="12.021675"><ele>1435.2</ele><time>2026-04-18T09:40:09.135Z</time></trkpt><trkpt lat="45.9486697" lon="12.0215731"><ele>1436.6000000000001</ele><time>2026-04-18T09:40:11.136Z</time></trkpt><trkpt lat="45.9487251" lon="12.0215133"><ele>1438.0</ele><time>2026-04-18T09:40:12.135Z</time></trkpt><trkpt lat="45.9488292" lon="12.0214529"><ele>1438.0</ele><time>2026-04-18T09:40:14.136Z</time></trkpt><trkpt lat="45.9489105" lon="12.0213889"><ele>1438.0</ele><time>2026-04-18T09:40:16.137Z</time></trkpt><trkpt lat="45.9490021" lon="12.0213199"><ele>1438.0</ele><time>2026-04-18T09:40:18.135Z</time></trkpt><trkpt lat="45.9490611" lon="12.0212529"><ele>1438.0</ele><time>2026-04-18T09:40:20.136Z</time></trkpt><trkpt lat="45.9491485" lon="12.0211726"><ele>1438.0</ele><time>2026-04-18T09:40:22.135Z</time></trkpt><trkpt lat="45.949265" lon="12.0210984"><ele>1437.0</ele><time>2026-04-18T09:40:24.136Z</time></trkpt><trkpt lat="45.9493594" lon="12.0210335"><ele>1436.0</ele><time>2026-04-18T09:40:25.135Z</time></trkpt><trkpt lat="45.9494604" lon="12.0209477"><ele>1435.0</ele><time>2026-04-18T09:40:26.136Z</time></trkpt><trkpt lat="45.9495253" lon="12.0208935"><ele>1434.0</ele><time>2026-04-18T09:40:27.136Z</time></trkpt><trkpt lat="45.9495895" lon="12.0208404"><ele>1433.0</ele><time>2026-04-18T09:40:28.135Z</time></trkpt><trkpt lat="45.9496591" lon="12.0207824"><ele>1433.0</ele><time>2026-04-18T09:40:29.135Z</time></trkpt><trkpt lat="45.9497259" lon="12.0207121"><ele>1433.0</ele><time>2026-04-18T09:40:30.135Z</time></trkpt><trkpt lat="45.949796" lon="12.0206674"><ele>1433.0</ele><time>2026-04-18T09:40:31.135Z</time></trkpt><trkpt lat="45.9498615" lon="12.0206177"><ele>1433.0</ele><time>2026-04-18T09:40:32.135Z</time></trkpt><trkpt lat="45.9499359" lon="12.0205638"><ele>1433.0</ele><time>2026-04-18T09:40:33.135Z</time></trkpt><trkpt lat="45.9500229" lon="12.0205054"><ele>1433.0</ele><time>2026-04-18T09:40:34.136Z</time></trkpt><trkpt lat="45.9500877" lon="12.020462"><ele>1422.8000000000002</ele><time>2026-04-18T09:40:35.135Z</time></trkpt><trkpt lat="45.9501712" lon="12.0203812"><ele>1412.6</ele><time>2026-04-18T09:40:36.135Z</time></trkpt><trkpt lat="45.9502537" lon="12.0203164"><ele>1402.4</ele><time>2026-04-18T09:40:37.136Z</time></trkpt><trkpt lat="45.9503429" lon="12.0202573"><ele>1392.1999999999998</ele><time>2026-04-18T09:40:38.135Z</time></trkpt><trkpt lat="45.9504398" lon="12.0201779"><ele>1382.0</ele><time>2026-04-18T09:40:39.135Z</time></trkpt><trkpt lat="45.9505147" lon="12.0201236"><ele>1382.0</ele><time>2026-04-18T09:40:40.137Z</time></trkpt><trkpt lat="45.9505902" lon="12.0200416"><ele>1382.0</ele><time>2026-04-18T09:40:41.135Z</time></trkpt><trkpt lat="45.9506947" lon="12.019874"><ele>1382.0</ele><time>2026-04-18T09:40:42.135Z</time></trkpt><trkpt lat="45.9507588" lon="12.0197999"><ele>1382.0</ele><time>2026-04-18T09:40:43.135Z</time></trkpt><trkpt lat="45.9508383" lon="12.0197761"><ele>1382.0</ele><time>2026-04-18T09:40:44.135Z</time></trkpt><trkpt lat="45.9509129" lon="12.0196916"><ele>1378.6</ele><time>2026-04-18T09:40:45.135Z</time></trkpt><trkpt lat="45.950998" lon="12.0195824"><ele>1375.1999999999998</ele><time>2026-04-18T09:40:47.136Z</time></trkpt><trkpt lat="45.9510452" lon="12.0195027"><ele>1371.8</ele><time>2026-04-18T09:40:48.135Z</time></trkpt><trkpt lat="45.9510685" lon="12.0194062"><ele>1368.4</ele><time>2026-04-18T09:40:50.137Z</time></trkpt><trkpt lat="45.9511242" lon="12.0192932"><ele>1365.0</ele><time>2026-04-18T09:40:52.135Z</time></trkpt><trkpt lat="45.9511745" lon="12.0191718"><ele>1369.2</ele><time>2026-04-18T09:40:54.135Z</time></trkpt><trkpt lat="45.9512114" lon="12.0190513"><ele>1373.4</ele><time>2026-04-18T09:40:56.136Z</time></trkpt><trkpt lat="45.9512474" lon="12.0189106"><ele>1377.6</ele><time>2026-04-18T09:40:58.137Z</time></trkpt><trkpt lat="45.951281" lon="12.0187359"><ele>1381.8</ele><time>2026-04-18T09:41:00.136Z</time></trkpt><trkpt lat="45.9513528" lon="12.0186191"><ele>1386.0</ele><time>2026-04-18T09:41:02.136Z</time></trkpt><trkpt lat="45.9514056" lon="12.0185482"><ele>1386.0</ele><time>2026-04-18T09:41:03.137Z</time></trkpt><trkpt lat="45.9514257" lon="12.0184604"><ele>1386.0</ele><time>2026-04-18T09:41:04.137Z</time></trkpt><trkpt lat="45.951447" lon="12.0183036"><ele>1386.0</ele><time>2026-04-18T09:41:06.136Z</time></trkpt><trkpt lat="45.9514591" lon="12.0181582"><ele>1386.0</ele><time>2026-04-18T09:41:08.135Z</time></trkpt><trkpt lat="45.9515172" lon="12.0181099"><ele>1386.0</ele><time>2026-04-18T09:41:10.135Z</time></trkpt><trkpt lat="45.9515809" lon="12.0180241"><ele>1386.0</ele><time>2026-04-18T09:41:12.136Z</time></trkpt><trkpt lat="45.9516833" lon="12.0179515"><ele>1381.6</ele><time>2026-04-18T09:41:14.136Z</time></trkpt><trkpt lat="45.9517757" lon="12.0178798"><ele>1377.1999999999998</ele><time>2026-04-18T09:41:16.137Z</time></trkpt><trkpt lat="45.9518441" lon="12.0178076"><ele>1372.8000000000002</ele><time>2026-04-18T09:41:18.135Z</time></trkpt><trkpt lat="45.9519213" lon="12.0177004"><ele>1368.4</ele><time>2026-04-18T09:41:20.135Z</time></trkpt><trkpt lat="45.9519914" lon="12.0175853"><ele>1364.0</ele><time>2026-04-18T09:41:22.135Z</time></trkpt><trkpt lat="45.9520224" lon="12.0175057"><ele>1365.5</ele><time>2026-04-18T09:41:23.135Z</time></trkpt><trkpt lat="45.9520558" lon="12.0173853"><ele>1367.0</ele><time>2026-04-18T09:41:25.135Z</time></trkpt><trkpt lat="45.952094" lon="12.0173066"><ele>1368.5</ele><time>2026-04-18T09:41:27.135Z</time></trkpt><trkpt lat="45.952108" lon="12.0171858"><ele>1370.0</ele><time>2026-04-18T09:41:29.135Z</time></trkpt><trkpt lat="45.9521285" lon="12.0170343"><ele>1371.5</ele><time>2026-04-18T09:41:31.135Z</time></trkpt><trkpt lat="45.9521702" lon="12.0169474"><ele>1373.0</ele><time>2026-04-18T09:41:33.135Z</time></trkpt><trkpt lat="45.9522034" lon="12.0170588"><ele>1373.0</ele><time>2026-04-18T09:41:37.135Z</time></trkpt><trkpt lat="45.952219" lon="12.0172123"><ele>1373.0</ele><time>2026-04-18T09:41:39.136Z</time></trkpt><trkpt lat="45.9522209" lon="12.0173611"><ele>1373.0</ele><time>2026-04-18T09:41:40.135Z</time></trkpt><trkpt lat="45.9521768" lon="12.0174954"><ele>1373.0</ele><time>2026-04-18T09:41:41.135Z</time></trkpt><trkpt lat="45.9521531" lon="12.0176031"><ele>1373.0</ele><time>2026-04-18T09:41:42.136Z</time></trkpt><trkpt lat="45.9521175" lon="12.0176985"><ele>1371.5</ele><time>2026-04-18T09:41:43.136Z</time></trkpt><trkpt lat="45.9520928" lon="12.0177975"><ele>1370.0</ele><time>2026-04-18T09:41:44.135Z</time></trkpt><trkpt lat="45.9520392" lon="12.0179122"><ele>1368.5</ele><time>2026-04-18T09:41:46.136Z</time></trkpt><trkpt lat="45.9520003" lon="12.0179865"><ele>1367.0</ele><time>2026-04-18T09:41:47.136Z</time></trkpt><trkpt lat="45.9519402" lon="12.0180892"><ele>1365.5</ele><time>2026-04-18T09:41:49.136Z</time></trkpt><trkpt lat="45.9518502" lon="12.0181777"><ele>1364.0</ele><time>2026-04-18T09:41:51.135Z</time></trkpt><trkpt lat="45.9517953" lon="12.0182543"><ele>1359.0</ele><time>2026-04-18T09:41:53.136Z</time></trkpt><trkpt lat="45.9517693" lon="12.0184157"><ele>1354.0</ele><time>2026-04-18T09:41:55.135Z</time></trkpt><trkpt lat="45.9517568" lon="12.0185624"><ele>1349.0</ele><time>2026-04-18T09:41:57.136Z</time></trkpt><trkpt lat="45.9517523" lon="12.0186599"><ele>1344.0</ele><time>2026-04-18T09:41:58.136Z</time></trkpt><trkpt lat="45.9517626" lon="12.0187704"><ele>1339.0</ele><time>2026-04-18T09:42:00.135Z</time></trkpt><trkpt lat="45.9517585" lon="12.0189096"><ele>1339.0</ele><time>2026-04-18T09:42:02.135Z</time></trkpt><trkpt lat="45.9517348" lon="12.0190025"><ele>1339.0</ele><time>2026-04-18T09:42:03.137Z</time></trkpt><trkpt lat="45.9516891" lon="12.0191655"><ele>1339.0</ele><time>2026-04-18T09:42:05.136Z</time></trkpt><trkpt lat="45.9516535" lon="12.0192573"><ele>1339.0</ele><time>2026-04-18T09:42:06.137Z</time></trkpt><trkpt lat="45.9516146" lon="12.0193411"><ele>1339.0</ele><time>2026-04-18T09:42:07.135Z</time></trkpt><trkpt lat="45.9515825" lon="12.0194295"><ele>1339.0</ele><time>2026-04-18T09:42:08.135Z</time></trkpt><trkpt lat="45.9515413" lon="12.0195126"><ele>1344.2</ele><time>2026-04-18T09:42:09.135Z</time></trkpt><trkpt lat="45.951506" lon="12.0196001"><ele>1349.4</ele><time>2026-04-18T09:42:10.135Z</time></trkpt><trkpt lat="45.9514569" lon="12.0196767"><ele>1354.6</ele><time>2026-04-18T09:42:11.135Z</time></trkpt><trkpt lat="45.9513817" lon="12.0197269"><ele>1359.8</ele><time>2026-04-18T09:42:12.135Z</time></trkpt><trkpt lat="45.9512916" lon="12.0198431"><ele>1365.0</ele><time>2026-04-18T09:42:14.135Z</time></trkpt><trkpt lat="45.9512074" lon="12.0199561"><ele>1360.2</ele><time>2026-04-18T09:42:16.136Z</time></trkpt><trkpt lat="45.9511733" lon="12.0201394"><ele>1355.4</ele><time>2026-04-18T09:42:18.136Z</time></trkpt><trkpt lat="45.9511325" lon="12.0202348"><ele>1350.6</ele><time>2026-04-18T09:42:19.136Z</time></trkpt><trkpt lat="45.9510734" lon="12.0203619"><ele>1345.8</ele><time>2026-04-18T09:42:21.136Z</time></trkpt><trkpt lat="45.9509932" lon="12.020467"><ele>1341.0</ele><time>2026-04-18T09:42:23.136Z</time></trkpt><trkpt lat="45.950919" lon="12.0205103"><ele>1343.0</ele><time>2026-04-18T09:42:25.135Z</time></trkpt><trkpt lat="45.9508608" lon="12.0205838"><ele>1345.0</ele><time>2026-04-18T09:42:28.136Z</time></trkpt><trkpt lat="45.9508176" lon="12.0206852"><ele>1347.0</ele><time>2026-04-18T09:42:31.136Z</time></trkpt><trkpt lat="45.9507879" lon="12.0207735"><ele>1349.0</ele><time>2026-04-18T09:42:34.135Z</time></trkpt><trkpt lat="45.9507577" lon="12.0209021"><ele>1351.0</ele><time>2026-04-18T09:42:37.136Z</time></trkpt><trkpt lat="45.9507391" lon="12.0210131"><ele>1353.0</ele><time>2026-04-18T09:42:39.136Z</time></trkpt><trkpt lat="45.9507149" lon="12.0210977"><ele>1353.0</ele><time>2026-04-18T09:42:41.135Z</time></trkpt><trkpt lat="45.9507048" lon="12.0211983"><ele>1353.0</ele><time>2026-04-18T09:42:44.135Z</time></trkpt><trkpt lat="45.9506837" lon="12.0213263"><ele>1353.0</ele><time>2026-04-18T09:42:47.136Z</time></trkpt><trkpt lat="45.9506678" lon="12.0214143"><ele>1353.0</ele><time>2026-04-18T09:42:50.136Z</time></trkpt><trkpt lat="45.9506199" lon="12.0214825"><ele>1353.0</ele><time>2026-04-18T09:43:25.135Z</time></trkpt><trkpt lat="45.9505702" lon="12.0215456"><ele>1353.0</ele><time>2026-04-18T09:43:33.135Z</time></trkpt><trkpt lat="45.9505146" lon="12.0216001"><ele>1353.0</ele><time>2026-04-18T09:43:41.136Z</time></trkpt><trkpt lat="45.9504494" lon="12.0216583"><ele>1350.4285714285716</ele><time>2026-04-18T09:43:47.135Z</time></trkpt><trkpt lat="45.950393" lon="12.0217195"><ele>1347.8571428571427</ele><time>2026-04-18T09:43:53.136Z</time></trkpt><trkpt lat="45.9503499" lon="12.0217877"><ele>1345.2857142857142</ele><time>2026-04-18T09:43:58.136Z</time></trkpt><trkpt lat="45.9502859" lon="12.0218417"><ele>1342.7142857142858</ele><time>2026-04-18T09:44:03.135Z</time></trkpt><trkpt lat="45.9502219" lon="12.0218847"><ele>1340.1428571428573</ele><time>2026-04-18T09:44:08.135Z</time></trkpt><trkpt lat="45.9501576" lon="12.021968"><ele>1337.5714285714284</ele><time>2026-04-18T09:44:14.136Z</time></trkpt><trkpt lat="45.9500997" lon="12.0220178"><ele>1335.0</ele><time>2026-04-18T09:44:20.136Z</time></trkpt><trkpt lat="45.9500458" lon="12.0220786"><ele>1337.7142857142856</ele><time>2026-04-18T09:44:25.135Z</time></trkpt><trkpt lat="45.9499878" lon="12.0221158"><ele>1340.4285714285716</ele><time>2026-04-18T09:44:29.134Z</time></trkpt><trkpt lat="45.9499316" lon="12.0221706"><ele>1343.142857142857</ele><time>2026-04-18T09:44:34.135Z</time></trkpt><trkpt lat="45.9498906" lon="12.0222433"><ele>1345.8571428571427</ele><time>2026-04-18T09:44:39.134Z</time></trkpt><trkpt lat="45.9498366" lon="12.022322"><ele>1348.5714285714284</ele><time>2026-04-18T09:44:44.136Z</time></trkpt><trkpt lat="45.9497897" lon="12.0223965"><ele>1351.2857142857142</ele><time>2026-04-18T09:44:48.134Z</time></trkpt><trkpt lat="45.949735" lon="12.0224614"><ele>1354.0</ele><time>2026-04-18T09:44:54.136Z</time></trkpt><trkpt lat="45.9496782" lon="12.0225163"><ele>1353.9999999999998</ele><time>2026-04-18T09:45:00.134Z</time></trkpt><trkpt lat="45.9496373" lon="12.0225951"><ele>1354.0</ele><time>2026-04-18T09:45:09.134Z</time></trkpt><trkpt lat="45.9496316" lon="12.0226908"><ele>1354.0</ele><time>2026-04-18T09:45:18.135Z</time></trkpt><trkpt lat="45.9496975" lon="12.0226886"><ele>1354.0</ele><time>2026-04-18T09:45:32.135Z</time></trkpt><trkpt lat="45.9497656" lon="12.0226865"><ele>1354.0</ele><time>2026-04-18T09:45:37.134Z</time></trkpt><trkpt lat="45.9498295" lon="12.0226689"><ele>1353.9999999999998</ele><time>2026-04-18T09:45:40.136Z</time></trkpt><trkpt lat="45.9499004" lon="12.0226205"><ele>1354.0</ele><time>2026-04-18T09:45:43.134Z</time></trkpt><trkpt lat="45.949984" lon="12.0225891"><ele>1351.8333333333333</ele><time>2026-04-18T09:45:46.134Z</time></trkpt><trkpt lat="45.9500483" lon="12.0225842"><ele>1349.6666666666665</ele><time>2026-04-18T09:45:48.135Z</time></trkpt><trkpt lat="45.9501204" lon="12.0225787"><ele>1347.5</ele><time>2026-04-18T09:45:50.135Z</time></trkpt><trkpt lat="45.9502015" lon="12.0225671"><ele>1345.3333333333333</ele><time>2026-04-18T09:45:52.135Z</time></trkpt><trkpt lat="45.9502939" lon="12.0225362"><ele>1343.1666666666667</ele><time>2026-04-18T09:45:54.134Z</time></trkpt><trkpt lat="45.9503815" lon="12.0225123"><ele>1341.0</ele><time>2026-04-18T09:45:56.134Z</time></trkpt><trkpt lat="45.9504629" lon="12.0224766"><ele>1340.0</ele><time>2026-04-18T09:45:58.134Z</time></trkpt><trkpt lat="45.9505527" lon="12.0224469"><ele>1339.0</ele><time>2026-04-18T09:46:00.134Z</time></trkpt><trkpt lat="45.9506247" lon="12.0224218"><ele>1338.0</ele><time>2026-04-18T09:46:02.135Z</time></trkpt><trkpt lat="45.9506881" lon="12.0224155"><ele>1337.0</ele><time>2026-04-18T09:46:04.135Z</time></trkpt><trkpt lat="45.9507765" lon="12.0224156"><ele>1336.0</ele><time>2026-04-18T09:46:06.134Z</time></trkpt><trkpt lat="45.9508534" lon="12.0224261"><ele>1335.0</ele><time>2026-04-18T09:46:08.134Z</time></trkpt><trkpt lat="45.950934" lon="12.0224714"><ele>1334.2</ele><time>2026-04-18T09:46:12.135Z</time></trkpt><trkpt lat="45.9510151" lon="12.0225086"><ele>1333.4</ele><time>2026-04-18T09:46:14.134Z</time></trkpt><trkpt lat="45.951127" lon="12.0225531"><ele>1332.6</ele><time>2026-04-18T09:46:16.134Z</time></trkpt><trkpt lat="45.9512119" lon="12.0225792"><ele>1331.8</ele><time>2026-04-18T09:46:17.135Z</time></trkpt><trkpt lat="45.9513278" lon="12.0226111"><ele>1331.0</ele><time>2026-04-18T09:46:19.134Z</time></trkpt><trkpt lat="45.951422" lon="12.0226275"><ele>1331.0</ele><time>2026-04-18T09:46:21.135Z</time></trkpt><trkpt lat="45.951497" lon="12.0226345"><ele>1331.0</ele><time>2026-04-18T09:46:25.134Z</time></trkpt><trkpt lat="45.9515764" lon="12.0226137"><ele>1331.0</ele><time>2026-04-18T09:46:29.135Z</time></trkpt><trkpt lat="45.9516496" lon="12.0225936"><ele>1331.0</ele><time>2026-04-18T09:46:34.134Z</time></trkpt><trkpt lat="45.9517179" lon="12.0225626"><ele>1331.0</ele><time>2026-04-18T09:46:37.134Z</time></trkpt><trkpt lat="45.9517853" lon="12.0225445"><ele>1331.0</ele><time>2026-04-18T09:46:41.134Z</time></trkpt><trkpt lat="45.9519939" lon="12.0225311"><ele>1331.6666666666667</ele><time>2026-04-18T09:47:00.134Z</time></trkpt><trkpt lat="45.9520575" lon="12.0225129"><ele>1332.3333333333335</ele><time>2026-04-18T09:47:05.135Z</time></trkpt><trkpt lat="45.952122" lon="12.0225071"><ele>1333.0</ele><time>2026-04-18T09:47:09.135Z</time></trkpt><trkpt lat="45.9522041" lon="12.0224863"><ele>1333.6666666666667</ele><time>2026-04-18T09:47:14.135Z</time></trkpt><trkpt lat="45.9523688" lon="12.0224612"><ele>1334.3333333333333</ele><time>2026-04-18T09:47:27.134Z</time></trkpt><trkpt lat="45.9524368" lon="12.022436"><ele>1335.0</ele><time>2026-04-18T09:47:33.135Z</time></trkpt><trkpt lat="45.9525115" lon="12.0224027"><ele>1330.857142857143</ele><time>2026-04-18T09:47:37.135Z</time></trkpt><trkpt lat="45.9525845" lon="12.0223756"><ele>1326.7142857142858</ele><time>2026-04-18T09:47:42.134Z</time></trkpt><trkpt lat="45.952681" lon="12.0223732"><ele>1322.5714285714287</ele><time>2026-04-18T09:47:47.135Z</time></trkpt><trkpt lat="45.9527445" lon="12.022359"><ele>1318.4285714285716</ele><time>2026-04-18T09:47:52.134Z</time></trkpt><trkpt lat="45.9528091" lon="12.0223353"><ele>1314.2857142857142</ele><time>2026-04-18T09:47:56.135Z</time></trkpt><trkpt lat="45.9528766" lon="12.0223025"><ele>1310.1428571428573</ele><time>2026-04-18T09:48:00.135Z</time></trkpt><trkpt lat="45.9529457" lon="12.0222787"><ele>1306.0</ele><time>2026-04-18T09:48:04.136Z</time></trkpt><trkpt lat="45.9530601" lon="12.0222745"><ele>1306.0</ele><time>2026-04-18T09:48:11.135Z</time></trkpt><trkpt lat="45.9531295" lon="12.0222337"><ele>1306.0</ele><time>2026-04-18T09:48:16.136Z</time></trkpt><trkpt lat="45.9532082" lon="12.0221892"><ele>1306.0</ele><time>2026-04-18T09:48:20.135Z</time></trkpt><trkpt lat="45.9532704" lon="12.0221552"><ele>1306.0</ele><time>2026-04-18T09:48:22.134Z</time></trkpt><trkpt lat="45.953339" lon="12.0221366"><ele>1306.0</ele><time>2026-04-18T09:48:25.134Z</time></trkpt><trkpt lat="45.9534164" lon="12.0221037"><ele>1306.0</ele><time>2026-04-18T09:48:28.134Z</time></trkpt><trkpt lat="45.9534931" lon="12.0220641"><ele>1308.8333333333333</ele><time>2026-04-18T09:48:31.134Z</time></trkpt><trkpt lat="45.9535661" lon="12.0220045"><ele>1311.6666666666665</ele><time>2026-04-18T09:48:33.136Z</time></trkpt><trkpt lat="45.9536374" lon="12.0219298"><ele>1314.5</ele><time>2026-04-18T09:48:35.134Z</time></trkpt><trkpt lat="45.9537105" lon="12.0218189"><ele>1317.3333333333333</ele><time>2026-04-18T09:48:37.134Z</time></trkpt><trkpt lat="45.9537554" lon="12.021725"><ele>1320.1666666666667</ele><time>2026-04-18T09:48:38.135Z</time></trkpt><trkpt lat="45.9538087" lon="12.0216538"><ele>1323.0</ele><time>2026-04-18T09:48:39.134Z</time></trkpt><trkpt lat="45.9538607" lon="12.0215586"><ele>1319.2</ele><time>2026-04-18T09:48:41.134Z</time></trkpt><trkpt lat="45.9539056" lon="12.0214665"><ele>1315.4</ele><time>2026-04-18T09:48:43.135Z</time></trkpt><trkpt lat="45.9539936" lon="12.0214472"><ele>1311.6000000000001</ele><time>2026-04-18T09:48:45.135Z</time></trkpt><trkpt lat="45.9540909" lon="12.0214097"><ele>1307.8000000000002</ele><time>2026-04-18T09:48:47.135Z</time></trkpt><trkpt lat="45.9542215" lon="12.021343"><ele>1304.0</ele><time>2026-04-18T09:48:49.134Z</time></trkpt><trkpt lat="45.9543097" lon="12.0212977"><ele>1304.0</ele><time>2026-04-18T09:48:50.135Z</time></trkpt><trkpt lat="45.954393" lon="12.0212809"><ele>1304.0</ele><time>2026-04-18T09:48:51.135Z</time></trkpt><trkpt lat="45.9544619" lon="12.0212474"><ele>1304.0</ele><time>2026-04-18T09:48:52.135Z</time></trkpt><trkpt lat="45.9545509" lon="12.0211912"><ele>1304.0</ele><time>2026-04-18T09:48:54.136Z</time></trkpt><trkpt lat="45.9546237" lon="12.0211627"><ele>1304.0</ele><time>2026-04-18T09:48:55.134Z</time></trkpt><trkpt lat="45.9547432" lon="12.0210541"><ele>1304.0</ele><time>2026-04-18T09:48:57.134Z</time></trkpt><trkpt lat="45.9548081" lon="12.0209834"><ele>1304.0</ele><time>2026-04-18T09:48:58.135Z</time></trkpt><trkpt lat="45.9548711" lon="12.0209123"><ele>1304.0</ele><time>2026-04-18T09:48:59.135Z</time></trkpt><trkpt lat="45.954937" lon="12.0208404"><ele>1304.0</ele><time>2026-04-18T09:49:00.134Z</time></trkpt><trkpt lat="45.9550281" lon="12.020736"><ele>1304.0</ele><time>2026-04-18T09:49:02.134Z</time></trkpt><trkpt lat="45.9551209" lon="12.0206707"><ele>1299.6</ele><time>2026-04-18T09:49:04.135Z</time></trkpt><trkpt lat="45.9552463" lon="12.020588"><ele>1295.2</ele><time>2026-04-18T09:49:06.135Z</time></trkpt><trkpt lat="45.9553192" lon="12.0205277"><ele>1290.8</ele><time>2026-04-18T09:49:07.135Z</time></trkpt><trkpt lat="45.9554099" lon="12.0204542"><ele>1286.3999999999999</ele><time>2026-04-18T09:49:08.134Z</time></trkpt><trkpt lat="45.9554637" lon="12.0204049"><ele>1282.0</ele><time>2026-04-18T09:49:09.136Z</time></trkpt><trkpt lat="45.9555383" lon="12.0203568"><ele>1282.0</ele><time>2026-04-18T09:49:11.135Z</time></trkpt><trkpt lat="45.9556325" lon="12.0203255"><ele>1282.0</ele><time>2026-04-18T09:49:13.134Z</time></trkpt><trkpt lat="45.9556972" lon="12.020257"><ele>1282.0</ele><time>2026-04-18T09:49:15.135Z</time></trkpt><trkpt lat="45.9557871" lon="12.0202112"><ele>1282.0</ele><time>2026-04-18T09:49:17.135Z</time></trkpt><trkpt lat="45.955873" lon="12.0202217"><ele>1282.0</ele><time>2026-04-18T09:49:19.134Z</time></trkpt><trkpt lat="45.9559546" lon="12.020223"><ele>1282.0</ele><time>2026-04-18T09:49:21.135Z</time></trkpt><trkpt lat="45.9560271" lon="12.020324"><ele>1281.8333333333333</ele><time>2026-04-18T09:49:23.135Z</time></trkpt><trkpt lat="45.9561327" lon="12.02041"><ele>1281.6666666666665</ele><time>2026-04-18T09:49:25.134Z</time></trkpt><trkpt lat="45.9562" lon="12.0204831"><ele>1281.5</ele><time>2026-04-18T09:49:27.135Z</time></trkpt><trkpt lat="45.9562582" lon="12.0205568"><ele>1281.3333333333333</ele><time>2026-04-18T09:49:29.134Z</time></trkpt><trkpt lat="45.9563031" lon="12.0206507"><ele>1281.1666666666667</ele><time>2026-04-18T09:49:31.135Z</time></trkpt><trkpt lat="45.9563402" lon="12.0207629"><ele>1281.0</ele><time>2026-04-18T09:49:33.133Z</time></trkpt><trkpt lat="45.9563271" lon="12.0209059"><ele>1281.0</ele><time>2026-04-18T09:49:35.133Z</time></trkpt><trkpt lat="45.9563095" lon="12.0210459"><ele>1281.0</ele><time>2026-04-18T09:49:38.134Z</time></trkpt><trkpt lat="45.9563524" lon="12.0211303"><ele>1281.0</ele><time>2026-04-18T09:49:40.133Z</time></trkpt><trkpt lat="45.9565135" lon="12.0211759"><ele>1281.0</ele><time>2026-04-18T09:49:42.135Z</time></trkpt><trkpt lat="45.9565975" lon="12.0212033"><ele>1281.0</ele><time>2026-04-18T09:49:43.134Z</time></trkpt><trkpt lat="45.9566667" lon="12.0212013"><ele>1274.3999999999999</ele><time>2026-04-18T09:49:44.133Z</time></trkpt><trkpt lat="45.956781" lon="12.0212335"><ele>1267.8</ele><time>2026-04-18T09:49:46.134Z</time></trkpt><trkpt lat="45.9568482" lon="12.0212429"><ele>1261.1999999999998</ele><time>2026-04-18T09:49:47.133Z</time></trkpt><trkpt lat="45.9569344" lon="12.0212878"><ele>1254.6</ele><time>2026-04-18T09:49:49.133Z</time></trkpt><trkpt lat="45.9570536" lon="12.021394"><ele>1248.0</ele><time>2026-04-18T09:49:51.133Z</time></trkpt><trkpt lat="45.9571298" lon="12.0214658"><ele>1248.0</ele><time>2026-04-18T09:49:53.133Z</time></trkpt><trkpt lat="45.9572129" lon="12.0216007"><ele>1248.0</ele><time>2026-04-18T09:49:55.135Z</time></trkpt><trkpt lat="45.9572969" lon="12.0217142"><ele>1248.0</ele><time>2026-04-18T09:49:57.133Z</time></trkpt><trkpt lat="45.9573199" lon="12.0218614"><ele>1248.0</ele><time>2026-04-18T09:49:59.133Z</time></trkpt><trkpt lat="45.957329" lon="12.0220055"><ele>1248.0</ele><time>2026-04-18T09:50:01.133Z</time></trkpt><trkpt lat="45.9573615" lon="12.0221429"><ele>1247.5</ele><time>2026-04-18T09:50:03.133Z</time></trkpt><trkpt lat="45.9574086" lon="12.0222277"><ele>1247.0</ele><time>2026-04-18T09:50:04.135Z</time></trkpt><trkpt lat="45.957452" lon="12.0223047"><ele>1246.5</ele><time>2026-04-18T09:50:05.135Z</time></trkpt><trkpt lat="45.9574994" lon="12.0224"><ele>1246.0</ele><time>2026-04-18T09:50:06.135Z</time></trkpt><trkpt lat="45.9575176" lon="12.0224875"><ele>1245.5</ele><time>2026-04-18T09:50:07.134Z</time></trkpt><trkpt lat="45.9575385" lon="12.0225806"><ele>1245.0</ele><time>2026-04-18T09:50:08.134Z</time></trkpt><trkpt lat="45.9575635" lon="12.0227473"><ele>1245.0</ele><time>2026-04-18T09:50:10.133Z</time></trkpt><trkpt lat="45.9575669" lon="12.022897"><ele>1245.0</ele><time>2026-04-18T09:50:12.134Z</time></trkpt><trkpt lat="45.9576093" lon="12.0230064"><ele>1245.0</ele><time>2026-04-18T09:50:14.133Z</time></trkpt><trkpt lat="45.9576839" lon="12.0230544"><ele>1245.0</ele><time>2026-04-18T09:50:16.134Z</time></trkpt><trkpt lat="45.9577484" lon="12.0230668"><ele>1245.0</ele><time>2026-04-18T09:50:17.135Z</time></trkpt><trkpt lat="45.9578285" lon="12.0230478"><ele>1245.0</ele><time>2026-04-18T09:50:18.133Z</time></trkpt><trkpt lat="45.9578924" lon="12.023017"><ele>1245.0</ele><time>2026-04-18T09:50:19.133Z</time></trkpt><trkpt lat="45.957983" lon="12.0229578"><ele>1245.0</ele><time>2026-04-18T09:50:21.134Z</time></trkpt><trkpt lat="45.9580936" lon="12.0229251"><ele>1245.0</ele><time>2026-04-18T09:50:23.135Z</time></trkpt><trkpt lat="45.9581759" lon="12.0229228"><ele>1245.0</ele><time>2026-04-18T09:50:25.134Z</time></trkpt><trkpt lat="45.9582593" lon="12.022923"><ele>1245.0</ele><time>2026-04-18T09:50:27.134Z</time></trkpt><trkpt lat="45.9583571" lon="12.0229995"><ele>1244.6</ele><time>2026-04-18T09:50:29.134Z</time></trkpt><trkpt lat="45.9584524" lon="12.0230647"><ele>1244.2</ele><time>2026-04-18T09:50:31.133Z</time></trkpt><trkpt lat="45.9585296" lon="12.0231542"><ele>1243.8</ele><time>2026-04-18T09:50:33.134Z</time></trkpt><trkpt lat="45.9585818" lon="12.0232295"><ele>1243.4</ele><time>2026-04-18T09:50:34.134Z</time></trkpt><trkpt lat="45.958677" lon="12.0233004"><ele>1243.0</ele><time>2026-04-18T09:50:36.134Z</time></trkpt><trkpt lat="45.9587369" lon="12.0233452"><ele>1243.0</ele><time>2026-04-18T09:50:37.134Z</time></trkpt><trkpt lat="45.9588319" lon="12.0234264"><ele>1243.0</ele><time>2026-04-18T09:50:39.133Z</time></trkpt><trkpt lat="45.958911" lon="12.0235017"><ele>1243.0</ele><time>2026-04-18T09:50:41.133Z</time></trkpt><trkpt lat="45.9590036" lon="12.0235483"><ele>1243.0</ele><time>2026-04-18T09:50:43.133Z</time></trkpt><trkpt lat="45.9590694" lon="12.0236248"><ele>1243.0</ele><time>2026-04-18T09:50:45.134Z</time></trkpt><trkpt lat="45.9591694" lon="12.023719"><ele>1239.8333333333333</ele><time>2026-04-18T09:50:47.133Z</time></trkpt><trkpt lat="45.9592221" lon="12.0237754"><ele>1236.6666666666665</ele><time>2026-04-18T09:50:48.133Z</time></trkpt><trkpt lat="45.9593294" lon="12.0238554"><ele>1233.5</ele><time>2026-04-18T09:50:50.133Z</time></trkpt><trkpt lat="45.9593993" lon="12.0239051"><ele>1230.3333333333333</ele><time>2026-04-18T09:50:51.133Z</time></trkpt><trkpt lat="45.9594672" lon="12.0239691"><ele>1227.1666666666667</ele><time>2026-04-18T09:50:52.134Z</time></trkpt><trkpt lat="45.9595483" lon="12.0239698"><ele>1224.0</ele><time>2026-04-18T09:50:53.134Z</time></trkpt><trkpt lat="45.9596303" lon="12.0239847"><ele>1224.0</ele><time>2026-04-18T09:50:54.134Z</time></trkpt><trkpt lat="45.9597164" lon="12.0239405"><ele>1224.0</ele><time>2026-04-18T09:50:55.134Z</time></trkpt><trkpt lat="45.9598333" lon="12.0239615"><ele>1224.0</ele><time>2026-04-18T09:50:57.133Z</time></trkpt><trkpt lat="45.9599075" lon="12.0239247"><ele>1224.0</ele><time>2026-04-18T09:50:59.133Z</time></trkpt><trkpt lat="45.9600096" lon="12.0238416"><ele>1224.0</ele><time>2026-04-18T09:51:01.135Z</time></trkpt><trkpt lat="45.960098" lon="12.0238059"><ele>1223.1666666666667</ele><time>2026-04-18T09:51:03.134Z</time></trkpt><trkpt lat="45.9601923" lon="12.0237824"><ele>1222.3333333333333</ele><time>2026-04-18T09:51:05.134Z</time></trkpt><trkpt lat="45.9602668" lon="12.0237875"><ele>1221.5</ele><time>2026-04-18T09:51:07.133Z</time></trkpt><trkpt lat="45.9603451" lon="12.0238778"><ele>1220.6666666666665</ele><time>2026-04-18T09:51:09.134Z</time></trkpt><trkpt lat="45.9603713" lon="12.0239984"><ele>1219.8333333333333</ele><time>2026-04-18T09:51:11.134Z</time></trkpt><trkpt lat="45.960428" lon="12.0240731"><ele>1219.0</ele><time>2026-04-18T09:51:13.134Z</time></trkpt><trkpt lat="45.9605063" lon="12.0241355"><ele>1219.0</ele><time>2026-04-18T09:51:15.133Z</time></trkpt><trkpt lat="45.9605714" lon="12.0241302"><ele>1219.0</ele><time>2026-04-18T09:51:17.133Z</time></trkpt><trkpt lat="45.9606074" lon="12.0240416"><ele>1219.0</ele><time>2026-04-18T09:51:18.133Z</time></trkpt><trkpt lat="45.9606857" lon="12.0239124"><ele>1219.0</ele><time>2026-04-18T09:51:20.134Z</time></trkpt><trkpt lat="45.9607501" lon="12.0238348"><ele>1219.0</ele><time>2026-04-18T09:51:21.134Z</time></trkpt><trkpt lat="45.9608336" lon="12.0237519"><ele>1219.0</ele><time>2026-04-18T09:51:22.133Z</time></trkpt><trkpt lat="45.9608972" lon="12.0236815"><ele>1216.5</ele><time>2026-04-18T09:51:23.133Z</time></trkpt><trkpt lat="45.9609544" lon="12.0235941"><ele>1214.0</ele><time>2026-04-18T09:51:24.133Z</time></trkpt><trkpt lat="45.9610176" lon="12.0235142"><ele>1211.5</ele><time>2026-04-18T09:51:25.133Z</time></trkpt><trkpt lat="45.9610753" lon="12.0234337"><ele>1209.0</ele><time>2026-04-18T09:51:26.133Z</time></trkpt><trkpt lat="45.9611109" lon="12.0233331"><ele>1206.5</ele><time>2026-04-18T09:51:27.134Z</time></trkpt><trkpt lat="45.9611586" lon="12.0232527"><ele>1204.0</ele><time>2026-04-18T09:51:28.133Z</time></trkpt><trkpt lat="45.9612082" lon="12.02317"><ele>1204.0</ele><time>2026-04-18T09:51:29.133Z</time></trkpt><trkpt lat="45.9612485" lon="12.0230826"><ele>1204.0</ele><time>2026-04-18T09:51:30.133Z</time></trkpt><trkpt lat="45.9613036" lon="12.0229495"><ele>1204.0</ele><time>2026-04-18T09:51:32.134Z</time></trkpt><trkpt lat="45.9613425" lon="12.0228715"><ele>1204.0</ele><time>2026-04-18T09:51:33.134Z</time></trkpt><trkpt lat="45.9614141" lon="12.0227551"><ele>1204.0</ele><time>2026-04-18T09:51:35.133Z</time></trkpt><trkpt lat="45.9614776" lon="12.0226939"><ele>1204.0</ele><time>2026-04-18T09:51:38.134Z</time></trkpt><trkpt lat="45.9615849" lon="12.0227531"><ele>1204.0</ele><time>2026-04-18T09:51:41.135Z</time></trkpt><trkpt lat="45.9616582" lon="12.0227364"><ele>1204.0</ele><time>2026-04-18T09:51:43.133Z</time></trkpt><trkpt lat="45.9617378" lon="12.0226946"><ele>1204.0</ele><time>2026-04-18T09:51:45.133Z</time></trkpt><trkpt lat="45.9618103" lon="12.022654"><ele>1204.0</ele><time>2026-04-18T09:51:47.134Z</time></trkpt><trkpt lat="45.961898" lon="12.0226448"><ele>1204.0</ele><time>2026-04-18T09:51:50.134Z</time></trkpt><trkpt lat="45.9619709" lon="12.0225914"><ele>1204.0</ele><time>2026-04-18T09:51:52.133Z</time></trkpt><trkpt lat="45.9620862" lon="12.0225266"><ele>1201.8</ele><time>2026-04-18T09:51:54.134Z</time></trkpt><trkpt lat="45.9621619" lon="12.0224682"><ele>1199.6000000000001</ele><time>2026-04-18T09:51:55.133Z</time></trkpt><trkpt lat="45.962267" lon="12.0224057"><ele>1197.4</ele><time>2026-04-18T09:51:56.134Z</time></trkpt><trkpt lat="45.9623604" lon="12.022361"><ele>1195.2</ele><time>2026-04-18T09:51:57.133Z</time></trkpt><trkpt lat="45.9624499" lon="12.0223155"><ele>1193.0</ele><time>2026-04-18T09:51:58.133Z</time></trkpt><trkpt lat="45.9625323" lon="12.0222619"><ele>1191.6666666666667</ele><time>2026-04-18T09:51:59.134Z</time></trkpt><trkpt lat="45.9625954" lon="12.0222047"><ele>1190.3333333333335</ele><time>2026-04-18T09:52:00.134Z</time></trkpt><trkpt lat="45.9626507" lon="12.0221412"><ele>1189.0</ele><time>2026-04-18T09:52:01.133Z</time></trkpt><trkpt lat="45.9627056" lon="12.0220668"><ele>1187.6666666666667</ele><time>2026-04-18T09:52:02.133Z</time></trkpt><trkpt lat="45.9627662" lon="12.021961"><ele>1186.3333333333333</ele><time>2026-04-18T09:52:03.134Z</time></trkpt><trkpt lat="45.9628287" lon="12.0218677"><ele>1185.0</ele><time>2026-04-18T09:52:04.133Z</time></trkpt><trkpt lat="45.9628872" lon="12.0217747"><ele>1185.0</ele><time>2026-04-18T09:52:05.134Z</time></trkpt><trkpt lat="45.9629524" lon="12.0216897"><ele>1185.0</ele><time>2026-04-18T09:52:06.133Z</time></trkpt><trkpt lat="45.9630192" lon="12.021611"><ele>1185.0</ele><time>2026-04-18T09:52:07.134Z</time></trkpt><trkpt lat="45.9630621" lon="12.0215265"><ele>1185.0</ele><time>2026-04-18T09:52:08.134Z</time></trkpt><trkpt lat="45.96313" lon="12.0214373"><ele>1185.0</ele><time>2026-04-18T09:52:09.133Z</time></trkpt><trkpt lat="45.963186" lon="12.0213311"><ele>1185.0</ele><time>2026-04-18T09:52:10.133Z</time></trkpt><trkpt lat="45.9632549" lon="12.0212418"><ele>1185.5</ele><time>2026-04-18T09:52:11.134Z</time></trkpt><trkpt lat="45.9633069" lon="12.0211626"><ele>1186.0</ele><time>2026-04-18T09:52:12.133Z</time></trkpt><trkpt lat="45.9633861" lon="12.0211027"><ele>1186.5</ele><time>2026-04-18T09:52:13.134Z</time></trkpt><trkpt lat="45.963452" lon="12.0210428"><ele>1187.0</ele><time>2026-04-18T09:52:14.134Z</time></trkpt><trkpt lat="45.9635297" lon="12.0209851"><ele>1187.5</ele><time>2026-04-18T09:52:15.134Z</time></trkpt><trkpt lat="45.9636032" lon="12.0209367"><ele>1188.0</ele><time>2026-04-18T09:52:16.135Z</time></trkpt><trkpt lat="45.9636742" lon="12.0208961"><ele>1188.0</ele><time>2026-04-18T09:52:17.133Z</time></trkpt><trkpt lat="45.9637736" lon="12.0208617"><ele>1188.0</ele><time>2026-04-18T09:52:18.133Z</time></trkpt><trkpt lat="45.9638509" lon="12.0208226"><ele>1188.0</ele><time>2026-04-18T09:52:19.133Z</time></trkpt><trkpt lat="45.9639208" lon="12.0207967"><ele>1188.0</ele><time>2026-04-18T09:52:20.134Z</time></trkpt><trkpt lat="45.9639962" lon="12.0207507"><ele>1188.0</ele><time>2026-04-18T09:52:21.134Z</time></trkpt><trkpt lat="45.9641037" lon="12.0207391"><ele>1188.0</ele><time>2026-04-18T09:52:23.134Z</time></trkpt><trkpt lat="45.9642443" lon="12.0207476"><ele>1192.4</ele><time>2026-04-18T09:52:25.133Z</time></trkpt><trkpt lat="45.9643729" lon="12.0207387"><ele>1196.8</ele><time>2026-04-18T09:52:27.135Z</time></trkpt><trkpt lat="45.9644382" lon="12.0207295"><ele>1201.2</ele><time>2026-04-18T09:52:28.134Z</time></trkpt><trkpt lat="45.964506" lon="12.0207228"><ele>1205.6</ele><time>2026-04-18T09:52:29.135Z</time></trkpt><trkpt lat="45.964642" lon="12.0206774"><ele>1210.0</ele><time>2026-04-18T09:52:31.134Z</time></trkpt><trkpt lat="45.9647916" lon="12.0206488"><ele>1210.0</ele><time>2026-04-18T09:52:33.134Z</time></trkpt><trkpt lat="45.9648718" lon="12.0205891"><ele>1210.0</ele><time>2026-04-18T09:52:34.134Z</time></trkpt><trkpt lat="45.9649472" lon="12.0205655"><ele>1210.0</ele><time>2026-04-18T09:52:35.134Z</time></trkpt><trkpt lat="45.9650166" lon="12.0205342"><ele>1210.0</ele><time>2026-04-18T09:52:36.133Z</time></trkpt><trkpt lat="45.9651045" lon="12.020501"><ele>1210.0</ele><time>2026-04-18T09:52:37.133Z</time></trkpt><trkpt lat="45.9651788" lon="12.0204791"><ele>1210.0</ele><time>2026-04-18T09:52:38.133Z</time></trkpt><trkpt lat="45.9652983" lon="12.02043"><ele>1207.0</ele><time>2026-04-18T09:52:40.134Z</time></trkpt><trkpt lat="45.9654233" lon="12.020423"><ele>1204.0</ele><time>2026-04-18T09:52:42.134Z</time></trkpt><trkpt lat="45.9655272" lon="12.0203959"><ele>1201.0</ele><time>2026-04-18T09:52:44.133Z</time></trkpt><trkpt lat="45.9656016" lon="12.0203446"><ele>1198.0</ele><time>2026-04-18T09:52:46.134Z</time></trkpt><trkpt lat="45.9656786" lon="12.0202847"><ele>1195.0</ele><time>2026-04-18T09:52:48.134Z</time></trkpt><trkpt lat="45.9657569" lon="12.0202362"><ele>1195.0</ele><time>2026-04-18T09:52:50.134Z</time></trkpt><trkpt lat="45.9658578" lon="12.0202168"><ele>1195.0</ele><time>2026-04-18T09:52:52.134Z</time></trkpt><trkpt lat="45.9659411" lon="12.0202084"><ele>1195.0</ele><time>2026-04-18T09:52:54.134Z</time></trkpt><trkpt lat="45.9660025" lon="12.0201829"><ele>1195.0</ele><time>2026-04-18T09:52:55.133Z</time></trkpt><trkpt lat="45.9660823" lon="12.0201396"><ele>1195.0</ele><time>2026-04-18T09:52:57.134Z</time></trkpt><trkpt lat="45.9661334" lon="12.0200798"><ele>1195.0</ele><time>2026-04-18T09:52:58.133Z</time></trkpt><trkpt lat="45.9662469" lon="12.0200381"><ele>1198.0</ele><time>2026-04-18T09:53:00.134Z</time></trkpt><trkpt lat="45.966334" lon="12.020008"><ele>1201.0</ele><time>2026-04-18T09:53:01.134Z</time></trkpt><trkpt lat="45.9664612" lon="12.0200123"><ele>1204.0</ele><time>2026-04-18T09:53:03.134Z</time></trkpt><trkpt lat="45.966577" lon="12.0200031"><ele>1207.0</ele><time>2026-04-18T09:53:05.133Z</time></trkpt><trkpt lat="45.966686" lon="12.0199927"><ele>1210.0</ele><time>2026-04-18T09:53:07.134Z</time></trkpt><trkpt lat="45.9667956" lon="12.019953"><ele>1210.0</ele><time>2026-04-18T09:53:09.134Z</time></trkpt><trkpt lat="45.9668626" lon="12.0199423"><ele>1210.0</ele><time>2026-04-18T09:53:10.135Z</time></trkpt><trkpt lat="45.9669332" lon="12.0199371"><ele>1210.0</ele><time>2026-04-18T09:53:11.133Z</time></trkpt><trkpt lat="45.9670089" lon="12.019928"><ele>1210.0</ele><time>2026-04-18T09:53:12.135Z</time></trkpt><trkpt lat="45.9670909" lon="12.0199332"><ele>1210.0</ele><time>2026-04-18T09:53:13.135Z</time></trkpt><trkpt lat="45.9671716" lon="12.019939"><ele>1210.0</ele><time>2026-04-18T09:53:14.134Z</time></trkpt><trkpt lat="45.9672566" lon="12.01996"><ele>1210.0</ele><time>2026-04-18T09:53:15.133Z</time></trkpt><trkpt lat="45.9673724" lon="12.019979"><ele>1210.0</ele><time>2026-04-18T09:53:16.133Z</time></trkpt><trkpt lat="45.9674507" lon="12.0199721"><ele>1210.0</ele><time>2026-04-18T09:53:17.135Z</time></trkpt><trkpt lat="45.9675369" lon="12.0199938"><ele>1210.0</ele><time>2026-04-18T09:53:18.135Z</time></trkpt><trkpt lat="45.9676288" lon="12.0199966"><ele>1210.0</ele><time>2026-04-18T09:53:19.135Z</time></trkpt><trkpt lat="45.9677095" lon="12.0199943"><ele>1208.4</ele><time>2026-04-18T09:53:20.133Z</time></trkpt><trkpt lat="45.9678422" lon="12.0200025"><ele>1206.8</ele><time>2026-04-18T09:53:22.133Z</time></trkpt><trkpt lat="45.9679175" lon="12.0199989"><ele>1205.2</ele><time>2026-04-18T09:53:23.133Z</time></trkpt><trkpt lat="45.9679886" lon="12.0199872"><ele>1203.6</ele><time>2026-04-18T09:53:24.134Z</time></trkpt><trkpt lat="45.9680531" lon="12.0199883"><ele>1202.0</ele><time>2026-04-18T09:53:25.133Z</time></trkpt><trkpt lat="45.9681715" lon="12.0199454"><ele>1202.0</ele><time>2026-04-18T09:53:27.133Z</time></trkpt><trkpt lat="45.9682323" lon="12.0199141"><ele>1202.0</ele><time>2026-04-18T09:53:28.133Z</time></trkpt><trkpt lat="45.9682949" lon="12.0198955"><ele>1202.0</ele><time>2026-04-18T09:53:29.133Z</time></trkpt><trkpt lat="45.9684063" lon="12.0199389"><ele>1202.0</ele><time>2026-04-18T09:53:31.134Z</time></trkpt><trkpt lat="45.9684697" lon="12.0199498"><ele>1202.0</ele><time>2026-04-18T09:53:32.135Z</time></trkpt><trkpt lat="45.9685949" lon="12.0199987"><ele>1202.0</ele><time>2026-04-18T09:53:34.133Z</time></trkpt><trkpt lat="45.9686592" lon="12.020052"><ele>1193.6</ele><time>2026-04-18T09:53:35.135Z</time></trkpt><trkpt lat="45.9687479" lon="12.0200996"><ele>1185.2</ele><time>2026-04-18T09:53:37.133Z</time></trkpt><trkpt lat="45.9688506" lon="12.0201363"><ele>1176.8</ele><time>2026-04-18T09:53:39.134Z</time></trkpt><trkpt lat="45.9689453" lon="12.0201163"><ele>1168.4</ele><time>2026-04-18T09:53:41.134Z</time></trkpt><trkpt lat="45.9690479" lon="12.0200915"><ele>1160.0</ele><time>2026-04-18T09:53:43.135Z</time></trkpt><trkpt lat="45.9691389" lon="12.020046"><ele>1159.6</ele><time>2026-04-18T09:53:45.135Z</time></trkpt><trkpt lat="45.9692509" lon="12.0200756"><ele>1159.2</ele><time>2026-04-18T09:53:47.135Z</time></trkpt><trkpt lat="45.9693124" lon="12.0200954"><ele>1158.8</ele><time>2026-04-18T09:53:48.135Z</time></trkpt><trkpt lat="45.9694262" lon="12.0201665"><ele>1158.4</ele><time>2026-04-18T09:53:50.134Z</time></trkpt><trkpt lat="45.9695274" lon="12.0202434"><ele>1158.0</ele><time>2026-04-18T09:53:52.134Z</time></trkpt><trkpt lat="45.9696322" lon="12.0202468"><ele>1158.0</ele><time>2026-04-18T09:53:54.134Z</time></trkpt><trkpt lat="45.9697316" lon="12.0202292"><ele>1158.0</ele><time>2026-04-18T09:53:56.134Z</time></trkpt><trkpt lat="45.9698061" lon="12.0202143"><ele>1158.0</ele><time>2026-04-18T09:53:57.134Z</time></trkpt><trkpt lat="45.9698706" lon="12.0202164"><ele>1158.0</ele><time>2026-04-18T09:53:58.133Z</time></trkpt><trkpt lat="45.9699607" lon="12.0202387"><ele>1158.0</ele><time>2026-04-18T09:54:00.134Z</time></trkpt><trkpt lat="45.9700351" lon="12.0202788"><ele>1158.0</ele><time>2026-04-18T09:54:01.133Z</time></trkpt><trkpt lat="45.9701341" lon="12.0202841"><ele>1159.6</ele><time>2026-04-18T09:54:03.135Z</time></trkpt><trkpt lat="45.9702511" lon="12.0202197"><ele>1161.1999999999998</ele><time>2026-04-18T09:54:05.133Z</time></trkpt><trkpt lat="45.9703628" lon="12.0202137"><ele>1162.8</ele><time>2026-04-18T09:54:07.134Z</time></trkpt><trkpt lat="45.9704379" lon="12.0202463"><ele>1164.3999999999999</ele><time>2026-04-18T09:54:08.133Z</time></trkpt><trkpt lat="45.9705365" lon="12.0203365"><ele>1166.0</ele><time>2026-04-18T09:54:10.135Z</time></trkpt><trkpt lat="45.9706026" lon="12.0204211"><ele>1166.0</ele><time>2026-04-18T09:54:11.134Z</time></trkpt><trkpt lat="45.9706582" lon="12.0204987"><ele>1166.0</ele><time>2026-04-18T09:54:12.133Z</time></trkpt><trkpt lat="45.9707048" lon="12.0205723"><ele>1166.0</ele><time>2026-04-18T09:54:13.133Z</time></trkpt><trkpt lat="45.9708056" lon="12.0206543"><ele>1166.0</ele><time>2026-04-18T09:54:15.134Z</time></trkpt><trkpt lat="45.9709302" lon="12.020671"><ele>1166.0</ele><time>2026-04-18T09:54:17.134Z</time></trkpt><trkpt lat="45.9709959" lon="12.0206716"><ele>1168.8333333333335</ele><time>2026-04-18T09:54:18.133Z</time></trkpt><trkpt lat="45.9710999" lon="12.0206585"><ele>1171.6666666666667</ele><time>2026-04-18T09:54:19.133Z</time></trkpt><trkpt lat="45.9711819" lon="12.0206814"><ele>1174.5</ele><time>2026-04-18T09:54:20.133Z</time></trkpt><trkpt lat="45.971263" lon="12.0207068"><ele>1177.3333333333333</ele><time>2026-04-18T09:54:21.134Z</time></trkpt><trkpt lat="45.9713327" lon="12.0207244"><ele>1180.1666666666665</ele><time>2026-04-18T09:54:22.134Z</time></trkpt><trkpt lat="45.9714049" lon="12.0207551"><ele>1183.0</ele><time>2026-04-18T09:54:23.134Z</time></trkpt><trkpt lat="45.9714721" lon="12.0207962"><ele>1183.25</ele><time>2026-04-18T09:54:24.134Z</time></trkpt><trkpt lat="45.9715915" lon="12.0208252"><ele>1183.5</ele><time>2026-04-18T09:54:26.133Z</time></trkpt><trkpt lat="45.9717246" lon="12.020779"><ele>1183.75</ele><time>2026-04-18T09:54:28.133Z</time></trkpt><trkpt lat="45.9718312" lon="12.0207145"><ele>1184.0</ele><time>2026-04-18T09:54:30.133Z</time></trkpt><trkpt lat="45.971972" lon="12.0207061"><ele>1184.0</ele><time>2026-04-18T09:54:32.133Z</time></trkpt><trkpt lat="45.9720405" lon="12.0207889"><ele>1184.0</ele><time>2026-04-18T09:54:33.133Z</time></trkpt><trkpt lat="45.9721135" lon="12.0208365"><ele>1184.0</ele><time>2026-04-18T09:54:34.133Z</time></trkpt><trkpt lat="45.9721805" lon="12.0208973"><ele>1184.0</ele><time>2026-04-18T09:54:35.133Z</time></trkpt><trkpt lat="45.9722416" lon="12.020932"><ele>1184.0</ele><time>2026-04-18T09:54:36.134Z</time></trkpt><trkpt lat="45.9723818" lon="12.0209605"><ele>1182.1666666666667</ele><time>2026-04-18T09:54:38.134Z</time></trkpt><trkpt lat="45.972503" lon="12.0209801"><ele>1180.3333333333335</ele><time>2026-04-18T09:54:40.134Z</time></trkpt><trkpt lat="45.9725656" lon="12.0209679"><ele>1178.5</ele><time>2026-04-18T09:54:41.133Z</time></trkpt><trkpt lat="45.9726513" lon="12.0209141"><ele>1176.6666666666667</ele><time>2026-04-18T09:54:43.134Z</time></trkpt><trkpt lat="45.9726996" lon="12.0208432"><ele>1174.8333333333333</ele><time>2026-04-18T09:54:44.134Z</time></trkpt><trkpt lat="45.9727478" lon="12.0207631"><ele>1173.0</ele><time>2026-04-18T09:54:45.133Z</time></trkpt><trkpt lat="45.9728236" lon="12.0206908"><ele>1173.0</ele><time>2026-04-18T09:54:46.133Z</time></trkpt><trkpt lat="45.972885" lon="12.0206204"><ele>1173.0</ele><time>2026-04-18T09:54:47.133Z</time></trkpt><trkpt lat="45.9729476" lon="12.0205637"><ele>1173.0</ele><time>2026-04-18T09:54:48.134Z</time></trkpt><trkpt lat="45.9730347" lon="12.0204849"><ele>1173.0</ele><time>2026-04-18T09:54:50.133Z</time></trkpt><trkpt lat="45.9731242" lon="12.020513"><ele>1173.0</ele><time>2026-04-18T09:54:51.133Z</time></trkpt><trkpt lat="45.9731945" lon="12.020545"><ele>1173.0</ele><time>2026-04-18T09:54:52.134Z</time></trkpt><trkpt lat="45.9732789" lon="12.0206139"><ele>1173.0</ele><time>2026-04-18T09:54:53.135Z</time></trkpt><trkpt lat="45.973351" lon="12.0206593"><ele>1173.0</ele><time>2026-04-18T09:54:54.134Z</time></trkpt><trkpt lat="45.9734368" lon="12.020768"><ele>1173.0</ele><time>2026-04-18T09:54:55.133Z</time></trkpt><trkpt lat="45.9735165" lon="12.0208408"><ele>1173.0</ele><time>2026-04-18T09:54:56.133Z</time></trkpt><trkpt lat="45.9735861" lon="12.0209267"><ele>1173.0</ele><time>2026-04-18T09:54:57.133Z</time></trkpt><trkpt lat="45.9736476" lon="12.0209935"><ele>1168.3333333333333</ele><time>2026-04-18T09:54:58.134Z</time></trkpt><trkpt lat="45.9736991" lon="12.0210703"><ele>1163.6666666666667</ele><time>2026-04-18T09:54:59.134Z</time></trkpt><trkpt lat="45.9737625" lon="12.0211381"><ele>1159.0</ele><time>2026-04-18T09:55:00.133Z</time></trkpt><trkpt lat="45.9738356" lon="12.0211896"><ele>1154.3333333333335</ele><time>2026-04-18T09:55:01.133Z</time></trkpt><trkpt lat="45.97389" lon="12.0212416"><ele>1149.6666666666667</ele><time>2026-04-18T09:55:02.133Z</time></trkpt><trkpt lat="45.9739878" lon="12.0212929"><ele>1145.0</ele><time>2026-04-18T09:55:04.133Z</time></trkpt><trkpt lat="45.9740662" lon="12.0212606"><ele>1145.0</ele><time>2026-04-18T09:55:06.133Z</time></trkpt><trkpt lat="45.9741322" lon="12.0211726"><ele>1145.0</ele><time>2026-04-18T09:55:08.133Z</time></trkpt><trkpt lat="45.9742135" lon="12.0210421"><ele>1145.0</ele><time>2026-04-18T09:55:10.133Z</time></trkpt><trkpt lat="45.9742757" lon="12.0210072"><ele>1145.0</ele><time>2026-04-18T09:55:11.134Z</time></trkpt><trkpt lat="45.9744057" lon="12.0209308"><ele>1145.0</ele><time>2026-04-18T09:55:13.133Z</time></trkpt><trkpt lat="45.9744717" lon="12.020897"><ele>1141.4</ele><time>2026-04-18T09:55:14.133Z</time></trkpt><trkpt lat="45.9745479" lon="12.0208679"><ele>1137.8</ele><time>2026-04-18T09:55:15.135Z</time></trkpt><trkpt lat="45.9746353" lon="12.0208238"><ele>1134.2</ele><time>2026-04-18T09:55:17.134Z</time></trkpt><trkpt lat="45.9747072" lon="12.0206921"><ele>1130.6</ele><time>2026-04-18T09:55:19.133Z</time></trkpt><trkpt lat="45.974776" lon="12.0205706"><ele>1127.0</ele><time>2026-04-18T09:55:21.134Z</time></trkpt><trkpt lat="45.9748499" lon="12.0204797"><ele>1135.4</ele><time>2026-04-18T09:55:23.133Z</time></trkpt><trkpt lat="45.9749548" lon="12.020392"><ele>1143.8000000000002</ele><time>2026-04-18T09:55:25.133Z</time></trkpt><trkpt lat="45.9750423" lon="12.020439"><ele>1152.2</ele><time>2026-04-18T09:55:26.133Z</time></trkpt><trkpt lat="45.9751709" lon="12.0204277"><ele>1160.6000000000001</ele><time>2026-04-18T09:55:28.134Z</time></trkpt><trkpt lat="45.9752473" lon="12.0203911"><ele>1169.0</ele><time>2026-04-18T09:55:29.133Z</time></trkpt><trkpt lat="45.9753181" lon="12.0203646"><ele>1169.25</ele><time>2026-04-18T09:55:30.134Z</time></trkpt><trkpt lat="45.9754186" lon="12.0202926"><ele>1169.5</ele><time>2026-04-18T09:55:32.133Z</time></trkpt><trkpt lat="45.9755148" lon="12.0202756"><ele>1169.75</ele><time>2026-04-18T09:55:34.134Z</time></trkpt><trkpt lat="45.9756121" lon="12.0203651"><ele>1170.0</ele><time>2026-04-18T09:55:36.133Z</time></trkpt><trkpt lat="45.9756481" lon="12.0205457"><ele>1170.0</ele><time>2026-04-18T09:55:37.133Z</time></trkpt><trkpt lat="45.9756972" lon="12.0206551"><ele>1170.0</ele><time>2026-04-18T09:55:38.133Z</time></trkpt><trkpt lat="45.9757631" lon="12.0208281"><ele>1170.0</ele><time>2026-04-18T09:55:39.133Z</time></trkpt><trkpt lat="45.9758267" lon="12.0209586"><ele>1170.0</ele><time>2026-04-18T09:55:40.133Z</time></trkpt><trkpt lat="45.9758756" lon="12.0210795"><ele>1170.0</ele><time>2026-04-18T09:55:41.133Z</time></trkpt><trkpt lat="45.9759171" lon="12.0211671"><ele>1163.6666666666667</ele><time>2026-04-18T09:55:42.133Z</time></trkpt><trkpt lat="45.9759621" lon="12.0212487"><ele>1157.3333333333333</ele><time>2026-04-18T09:55:43.134Z</time></trkpt><trkpt lat="45.9760567" lon="12.0213446"><ele>1151.0</ele><time>2026-04-18T09:55:45.133Z</time></trkpt><trkpt lat="45.9761473" lon="12.0213556"><ele>1144.6666666666665</ele><time>2026-04-18T09:55:47.134Z</time></trkpt><trkpt lat="45.9761997" lon="12.0213048"><ele>1138.3333333333333</ele><time>2026-04-18T09:55:48.133Z</time></trkpt><trkpt lat="45.9762527" lon="12.0212533"><ele>1132.0</ele><time>2026-04-18T09:55:49.133Z</time></trkpt><trkpt lat="45.9763097" lon="12.0211785"><ele>1132.0</ele><time>2026-04-18T09:55:50.133Z</time></trkpt><trkpt lat="45.9763785" lon="12.02108"><ele>1132.0</ele><time>2026-04-18T09:55:51.133Z</time></trkpt><trkpt lat="45.9764338" lon="12.0210108"><ele>1132.0</ele><time>2026-04-18T09:55:52.134Z</time></trkpt><trkpt lat="45.9764881" lon="12.020916"><ele>1132.0</ele><time>2026-04-18T09:55:53.134Z</time></trkpt><trkpt lat="45.9765465" lon="12.0208308"><ele>1132.0</ele><time>2026-04-18T09:55:54.133Z</time></trkpt><trkpt lat="45.9766189" lon="12.0207458"><ele>1132.0</ele><time>2026-04-18T09:55:55.133Z</time></trkpt><trkpt lat="45.976678" lon="12.0206752"><ele>1127.0</ele><time>2026-04-18T09:55:56.133Z</time></trkpt><trkpt lat="45.9767586" lon="12.0206344"><ele>1122.0</ele><time>2026-04-18T09:55:57.133Z</time></trkpt><trkpt lat="45.9768231" lon="12.0205909"><ele>1117.0</ele><time>2026-04-18T09:55:58.133Z</time></trkpt><trkpt lat="45.9768907" lon="12.0205412"><ele>1112.0</ele><time>2026-04-18T09:55:59.133Z</time></trkpt><trkpt lat="45.9769788" lon="12.0204023"><ele>1107.0</ele><time>2026-04-18T09:56:01.133Z</time></trkpt><trkpt lat="45.9770242" lon="12.0203106"><ele>1102.0</ele><time>2026-04-18T09:56:02.134Z</time></trkpt><trkpt lat="45.977055" lon="12.0202095"><ele>1101.9999999999998</ele><time>2026-04-18T09:56:03.133Z</time></trkpt><trkpt lat="45.9770864" lon="12.0201291"><ele>1102.0</ele><time>2026-04-18T09:56:04.134Z</time></trkpt><trkpt lat="45.9771045" lon="12.0200377"><ele>1102.0</ele><time>2026-04-18T09:56:05.133Z</time></trkpt><trkpt lat="45.9771179" lon="12.0199324"><ele>1102.0</ele><time>2026-04-18T09:56:06.134Z</time></trkpt><trkpt lat="45.9771066" lon="12.0198283"><ele>1102.0</ele><time>2026-04-18T09:56:07.133Z</time></trkpt><trkpt lat="45.9770895" lon="12.0197306"><ele>1101.9999999999998</ele><time>2026-04-18T09:56:08.133Z</time></trkpt><trkpt lat="45.9770761" lon="12.0196336"><ele>1102.0</ele><time>2026-04-18T09:56:09.133Z</time></trkpt><trkpt lat="45.9770603" lon="12.0195043"><ele>1106.1666666666665</ele><time>2026-04-18T09:56:10.133Z</time></trkpt><trkpt lat="45.9770444" lon="12.0193852"><ele>1110.3333333333333</ele><time>2026-04-18T09:56:11.133Z</time></trkpt><trkpt lat="45.9770343" lon="12.0192626"><ele>1114.5</ele><time>2026-04-18T09:56:12.134Z</time></trkpt><trkpt lat="45.9770243" lon="12.0191615"><ele>1118.6666666666667</ele><time>2026-04-18T09:56:13.134Z</time></trkpt><trkpt lat="45.9770202" lon="12.0190482"><ele>1122.8333333333335</ele><time>2026-04-18T09:56:14.134Z</time></trkpt><trkpt lat="45.9770503" lon="12.0188996"><ele>1127.0</ele><time>2026-04-18T09:56:16.134Z</time></trkpt><trkpt lat="45.9771281" lon="12.0188464"><ele>1129.6</ele><time>2026-04-18T09:56:17.133Z</time></trkpt><trkpt lat="45.9772641" lon="12.0187005"><ele>1132.2</ele><time>2026-04-18T09:56:19.135Z</time></trkpt><trkpt lat="45.9773282" lon="12.0186278"><ele>1134.8</ele><time>2026-04-18T09:56:20.135Z</time></trkpt><trkpt lat="45.9774007" lon="12.018561"><ele>1137.4</ele><time>2026-04-18T09:56:21.134Z</time></trkpt><trkpt lat="45.9774658" lon="12.0184949"><ele>1140.0</ele><time>2026-04-18T09:56:22.133Z</time></trkpt><trkpt lat="45.9775243" lon="12.0184301"><ele>1146.6666666666667</ele><time>2026-04-18T09:56:24.133Z</time></trkpt><trkpt lat="45.9775783" lon="12.0182941"><ele>1153.3333333333333</ele><time>2026-04-18T09:56:26.133Z</time></trkpt><trkpt lat="45.9776136" lon="12.0181765"><ele>1160.0</ele><time>2026-04-18T09:56:27.133Z</time></trkpt><trkpt lat="45.9776596" lon="12.0181076"><ele>1166.6666666666665</ele><time>2026-04-18T09:56:28.133Z</time></trkpt><trkpt lat="45.977719" lon="12.0180321"><ele>1173.3333333333333</ele><time>2026-04-18T09:56:29.134Z</time></trkpt><trkpt lat="45.9777913" lon="12.0179805"><ele>1180.0</ele><time>2026-04-18T09:56:31.134Z</time></trkpt><trkpt lat="45.9778866" lon="12.0179366"><ele>1180.0</ele><time>2026-04-18T09:56:33.133Z</time></trkpt><trkpt lat="45.977939" lon="12.0178773"><ele>1180.0</ele><time>2026-04-18T09:56:34.133Z</time></trkpt><trkpt lat="45.9780004" lon="12.0178337"><ele>1180.0</ele><time>2026-04-18T09:56:35.133Z</time></trkpt><trkpt lat="45.9781141" lon="12.0177935"><ele>1180.0</ele><time>2026-04-18T09:56:37.134Z</time></trkpt><trkpt lat="45.9781837" lon="12.0177915"><ele>1180.0</ele><time>2026-04-18T09:56:38.134Z</time></trkpt><trkpt lat="45.978247" lon="12.0178044"><ele>1180.0</ele><time>2026-04-18T09:56:39.133Z</time></trkpt><trkpt lat="45.9783757" lon="12.017843"><ele>1177.1666666666665</ele><time>2026-04-18T09:56:41.134Z</time></trkpt><trkpt lat="45.9784494" lon="12.0178686"><ele>1174.3333333333333</ele><time>2026-04-18T09:56:42.134Z</time></trkpt><trkpt lat="45.9785375" lon="12.0179057"><ele>1171.5</ele><time>2026-04-18T09:56:43.133Z</time></trkpt><trkpt lat="45.9786192" lon="12.0179392"><ele>1168.6666666666667</ele><time>2026-04-18T09:56:44.134Z</time></trkpt><trkpt lat="45.9787056" lon="12.0179075"><ele>1165.8333333333335</ele><time>2026-04-18T09:56:46.134Z</time></trkpt><trkpt lat="45.978771" lon="12.0177944"><ele>1163.0</ele><time>2026-04-18T09:56:48.134Z</time></trkpt><trkpt lat="45.978804" lon="12.0176975"><ele>1163.0</ele><time>2026-04-18T09:56:49.133Z</time></trkpt><trkpt lat="45.9788479" lon="12.0175474"><ele>1163.0</ele><time>2026-04-18T09:56:50.134Z</time></trkpt><trkpt lat="45.9788863" lon="12.0174399"><ele>1163.0</ele><time>2026-04-18T09:56:51.134Z</time></trkpt><trkpt lat="45.9789262" lon="12.0173375"><ele>1163.0</ele><time>2026-04-18T09:56:52.133Z</time></trkpt><trkpt lat="45.9789654" lon="12.017243"><ele>1163.0</ele><time>2026-04-18T09:56:53.133Z</time></trkpt><trkpt lat="45.979041" lon="12.0171682"><ele>1163.0</ele><time>2026-04-18T09:56:54.133Z</time></trkpt><trkpt lat="45.9791082" lon="12.0170969"><ele>1165.2</ele><time>2026-04-18T09:56:55.134Z</time></trkpt><trkpt lat="45.9791723" lon="12.0170444"><ele>1167.4</ele><time>2026-04-18T09:56:56.133Z</time></trkpt><trkpt lat="45.9792855" lon="12.0170037"><ele>1169.6000000000001</ele><time>2026-04-18T09:56:57.133Z</time></trkpt><trkpt lat="45.9793886" lon="12.0169108"><ele>1171.8</ele><time>2026-04-18T09:56:58.133Z</time></trkpt><trkpt lat="45.9794805" lon="12.0168594"><ele>1174.0</ele><time>2026-04-18T09:56:59.133Z</time></trkpt><trkpt lat="45.9795814" lon="12.0168587"><ele>1174.0</ele><time>2026-04-18T09:57:00.134Z</time></trkpt><trkpt lat="45.9796659" lon="12.0168375"><ele>1174.0</ele><time>2026-04-18T09:57:01.134Z</time></trkpt><trkpt lat="45.9797578" lon="12.0168219"><ele>1174.0</ele><time>2026-04-18T09:57:02.133Z</time></trkpt><trkpt lat="45.9798266" lon="12.016817"><ele>1174.0</ele><time>2026-04-18T09:57:03.133Z</time></trkpt><trkpt lat="45.9799231" lon="12.0167011"><ele>1174.0</ele><time>2026-04-18T09:57:05.133Z</time></trkpt><trkpt lat="45.9799681" lon="12.0166286"><ele>1174.0</ele><time>2026-04-18T09:57:06.133Z</time></trkpt><trkpt lat="45.9800162" lon="12.0164938"><ele>1172.5</ele><time>2026-04-18T09:57:07.133Z</time></trkpt><trkpt lat="45.9800843" lon="12.0163741"><ele>1171.0</ele><time>2026-04-18T09:57:08.133Z</time></trkpt><trkpt lat="45.9801603" lon="12.0162267"><ele>1169.5</ele><time>2026-04-18T09:57:09.133Z</time></trkpt><trkpt lat="45.980227" lon="12.0160836"><ele>1168.0</ele><time>2026-04-18T09:57:10.132Z</time></trkpt><trkpt lat="45.9802753" lon="12.01596"><ele>1168.0</ele><time>2026-04-18T09:57:11.133Z</time></trkpt><trkpt lat="45.9803002" lon="12.0158471"><ele>1168.0</ele><time>2026-04-18T09:57:12.133Z</time></trkpt><trkpt lat="45.9803144" lon="12.0157013"><ele>1168.0</ele><time>2026-04-18T09:57:13.133Z</time></trkpt><trkpt lat="45.9803251" lon="12.0155607"><ele>1168.0</ele><time>2026-04-18T09:57:14.132Z</time></trkpt><trkpt lat="45.980339" lon="12.0153771"><ele>1168.0</ele><time>2026-04-18T09:57:15.132Z</time></trkpt><trkpt lat="45.980349" lon="12.0151786"><ele>1172.75</ele><time>2026-04-18T09:57:16.133Z</time></trkpt><trkpt lat="45.9803776" lon="12.0150153"><ele>1177.5</ele><time>2026-04-18T09:57:17.132Z</time></trkpt><trkpt lat="45.9803987" lon="12.014863"><ele>1182.25</ele><time>2026-04-18T09:57:18.132Z</time></trkpt><trkpt lat="45.9804323" lon="12.0147212"><ele>1187.0</ele><time>2026-04-18T09:57:19.133Z</time></trkpt><trkpt lat="45.9804998" lon="12.0145747"><ele>1191.5</ele><time>2026-04-18T09:57:20.133Z</time></trkpt><trkpt lat="45.980567" lon="12.0144163"><ele>1196.0</ele><time>2026-04-18T09:57:21.132Z</time></trkpt><trkpt lat="45.9806685" lon="12.0142541"><ele>1200.5</ele><time>2026-04-18T09:57:22.132Z</time></trkpt><trkpt lat="45.9807679" lon="12.0140764"><ele>1205.0</ele><time>2026-04-18T09:57:23.132Z</time></trkpt><trkpt lat="45.9808613" lon="12.0139268"><ele>1205.5</ele><time>2026-04-18T09:57:24.134Z</time></trkpt><trkpt lat="45.9809389" lon="12.0138056"><ele>1206.0</ele><time>2026-04-18T09:57:25.132Z</time></trkpt><trkpt lat="45.9810003" lon="12.0137128"><ele>1206.5</ele><time>2026-04-18T09:57:26.132Z</time></trkpt><trkpt lat="45.9810479" lon="12.0136463"><ele>1207.0</ele><time>2026-04-18T09:57:27.133Z</time></trkpt><trkpt lat="45.9811269" lon="12.0135564"><ele>1207.5</ele><time>2026-04-18T09:57:29.133Z</time></trkpt><trkpt lat="45.9811713" lon="12.0134918"><ele>1208.0</ele><time>2026-04-18T09:57:31.132Z</time></trkpt><trkpt lat="45.981247" lon="12.0134349"><ele>1208.0</ele><time>2026-04-18T09:57:50.133Z</time></trkpt><trkpt lat="45.9813402" lon="12.0133786"><ele>1208.0</ele><time>2026-04-18T09:57:52.132Z</time></trkpt><trkpt lat="45.981454" lon="12.0132915"><ele>1208.0</ele><time>2026-04-18T09:57:54.132Z</time></trkpt><trkpt lat="45.9815157" lon="12.0132441"><ele>1208.0</ele><time>2026-04-18T09:57:55.133Z</time></trkpt><trkpt lat="45.9815827" lon="12.0131971"><ele>1208.0</ele><time>2026-04-18T09:57:56.132Z</time></trkpt><trkpt lat="45.9816582" lon="12.0131396"><ele>1210.75</ele><time>2026-04-18T09:57:57.133Z</time></trkpt><trkpt lat="45.9817478" lon="12.013058"><ele>1213.5</ele><time>2026-04-18T09:57:58.132Z</time></trkpt><trkpt lat="45.9818506" lon="12.0129505"><ele>1216.25</ele><time>2026-04-18T09:57:59.132Z</time></trkpt><trkpt lat="45.9819465" lon="12.0128492"><ele>1219.0</ele><time>2026-04-18T09:58:00.132Z</time></trkpt><trkpt lat="45.98203" lon="12.0127637"><ele>1219.0</ele><time>2026-04-18T09:58:01.132Z</time></trkpt><trkpt lat="45.9821102" lon="12.0127151"><ele>1219.0</ele><time>2026-04-18T09:58:02.134Z</time></trkpt><trkpt lat="45.9821803" lon="12.0126665"><ele>1219.0</ele><time>2026-04-18T09:58:03.133Z</time></trkpt><trkpt lat="45.9822681" lon="12.0126242"><ele>1219.0</ele><time>2026-04-18T09:58:04.132Z</time></trkpt><trkpt lat="45.9823307" lon="12.0125078"><ele>1219.0</ele><time>2026-04-18T09:58:05.132Z</time></trkpt><trkpt lat="45.9824078" lon="12.0123826"><ele>1220.8</ele><time>2026-04-18T09:58:06.132Z</time></trkpt><trkpt lat="45.9824694" lon="12.0122619"><ele>1222.6000000000001</ele><time>2026-04-18T09:58:07.133Z</time></trkpt><trkpt lat="45.9825147" lon="12.012146"><ele>1224.4</ele><time>2026-04-18T09:58:08.132Z</time></trkpt><trkpt lat="45.9825703" lon="12.0120246"><ele>1226.2</ele><time>2026-04-18T09:58:09.132Z</time></trkpt><trkpt lat="45.9825891" lon="12.0119115"><ele>1228.0</ele><time>2026-04-18T09:58:10.133Z</time></trkpt><trkpt lat="45.9826253" lon="12.0118103"><ele>1228.0</ele><time>2026-04-18T09:58:11.133Z</time></trkpt><trkpt lat="45.9826706" lon="12.0117221"><ele>1228.0</ele><time>2026-04-18T09:58:12.132Z</time></trkpt><trkpt lat="45.9827121" lon="12.0116395"><ele>1228.0</ele><time>2026-04-18T09:58:13.132Z</time></trkpt><trkpt lat="45.9827913" lon="12.0115601"><ele>1228.0</ele><time>2026-04-18T09:58:14.133Z</time></trkpt><trkpt lat="45.9828781" lon="12.0115152"><ele>1228.0</ele><time>2026-04-18T09:58:15.134Z</time></trkpt><trkpt lat="45.9829553" lon="12.0114711"><ele>1228.0</ele><time>2026-04-18T09:58:16.133Z</time></trkpt><trkpt lat="45.9830316" lon="12.0114346"><ele>1227.6666666666665</ele><time>2026-04-18T09:58:17.134Z</time></trkpt><trkpt lat="45.9831017" lon="12.0114071"><ele>1227.3333333333333</ele><time>2026-04-18T09:58:18.133Z</time></trkpt><trkpt lat="45.9831775" lon="12.0113754"><ele>1227.0</ele><time>2026-04-18T09:58:19.132Z</time></trkpt><trkpt lat="45.9832465" lon="12.0113538"><ele>1226.6666666666667</ele><time>2026-04-18T09:58:20.133Z</time></trkpt><trkpt lat="45.9833105" lon="12.0112674"><ele>1226.3333333333335</ele><time>2026-04-18T09:58:21.133Z</time></trkpt><trkpt lat="45.9833656" lon="12.0111835"><ele>1226.0</ele><time>2026-04-18T09:58:22.134Z</time></trkpt><trkpt lat="45.9834198" lon="12.0110631"><ele>1226.0</ele><time>2026-04-18T09:58:23.133Z</time></trkpt><trkpt lat="45.9834768" lon="12.0109092"><ele>1226.0</ele><time>2026-04-18T09:58:24.133Z</time></trkpt><trkpt lat="45.9835246" lon="12.0107798"><ele>1226.0</ele><time>2026-04-18T09:58:25.133Z</time></trkpt><trkpt lat="45.983567" lon="12.0106595"><ele>1226.0</ele><time>2026-04-18T09:58:26.132Z</time></trkpt><trkpt lat="45.9836014" lon="12.0105571"><ele>1226.0</ele><time>2026-04-18T09:58:27.133Z</time></trkpt><trkpt lat="45.9836356" lon="12.0104784"><ele>1221.5</ele><time>2026-04-18T09:58:28.133Z</time></trkpt><trkpt lat="45.9837248" lon="12.010368"><ele>1217.0</ele><time>2026-04-18T09:58:30.132Z</time></trkpt><trkpt lat="45.9838434" lon="12.0103745"><ele>1212.5</ele><time>2026-04-18T09:58:32.132Z</time></trkpt><trkpt lat="45.9839051" lon="12.0103927"><ele>1208.0</ele><time>2026-04-18T09:58:33.133Z</time></trkpt><trkpt lat="45.9839782" lon="12.0104182"><ele>1203.5</ele><time>2026-04-18T09:58:34.132Z</time></trkpt><trkpt lat="45.9840428" lon="12.0104345"><ele>1199.0</ele><time>2026-04-18T09:58:35.132Z</time></trkpt><trkpt lat="45.9841094" lon="12.0104166"><ele>1199.0</ele><time>2026-04-18T09:58:36.133Z</time></trkpt><trkpt lat="45.9841741" lon="12.0104347"><ele>1199.0</ele><time>2026-04-18T09:58:37.133Z</time></trkpt><trkpt lat="45.9842423" lon="12.0104516"><ele>1199.0</ele><time>2026-04-18T09:58:38.133Z</time></trkpt><trkpt lat="45.9843515" lon="12.0105002"><ele>1199.0</ele><time>2026-04-18T09:58:40.134Z</time></trkpt><trkpt lat="45.9844103" lon="12.010552"><ele>1199.0</ele><time>2026-04-18T09:58:41.133Z</time></trkpt><trkpt lat="45.9844644" lon="12.0106128"><ele>1199.0</ele><time>2026-04-18T09:58:42.133Z</time></trkpt><trkpt lat="45.9845264" lon="12.0106738"><ele>1200.0</ele><time>2026-04-18T09:58:43.132Z</time></trkpt><trkpt lat="45.9845939" lon="12.0107417"><ele>1201.0</ele><time>2026-04-18T09:58:44.133Z</time></trkpt><trkpt lat="45.9846706" lon="12.0108176"><ele>1202.0</ele><time>2026-04-18T09:58:45.133Z</time></trkpt><trkpt lat="45.9847535" lon="12.0108854"><ele>1203.0</ele><time>2026-04-18T09:58:46.133Z</time></trkpt><trkpt lat="45.984842" lon="12.010942"><ele>1204.0</ele><time>2026-04-18T09:58:47.132Z</time></trkpt><trkpt lat="45.9849356" lon="12.0109922"><ele>1200.6000000000001</ele><time>2026-04-18T09:58:48.132Z</time></trkpt><trkpt lat="45.9850366" lon="12.0110319"><ele>1197.2</ele><time>2026-04-18T09:58:49.133Z</time></trkpt><trkpt lat="45.9851315" lon="12.0110557"><ele>1193.8000000000002</ele><time>2026-04-18T09:58:50.133Z</time></trkpt><trkpt lat="45.9852255" lon="12.0110869"><ele>1190.4</ele><time>2026-04-18T09:58:51.133Z</time></trkpt><trkpt lat="45.9853232" lon="12.0111461"><ele>1187.0</ele><time>2026-04-18T09:58:52.132Z</time></trkpt><trkpt lat="45.9854391" lon="12.0112273"><ele>1187.0</ele><time>2026-04-18T09:58:53.133Z</time></trkpt><trkpt lat="45.9855439" lon="12.011304"><ele>1187.0</ele><time>2026-04-18T09:58:54.132Z</time></trkpt><trkpt lat="45.9856432" lon="12.0113756"><ele>1187.0</ele><time>2026-04-18T09:58:55.132Z</time></trkpt><trkpt lat="45.9857321" lon="12.0114179"><ele>1187.0</ele><time>2026-04-18T09:58:56.134Z</time></trkpt><trkpt lat="45.985808" lon="12.0114989"><ele>1187.0</ele><time>2026-04-18T09:58:57.133Z</time></trkpt><trkpt lat="45.9858887" lon="12.011603"><ele>1187.8</ele><time>2026-04-18T09:58:58.133Z</time></trkpt><trkpt lat="45.9859684" lon="12.0117073"><ele>1188.6</ele><time>2026-04-18T09:58:59.132Z</time></trkpt><trkpt lat="45.9860558" lon="12.0118021"><ele>1189.3999999999999</ele><time>2026-04-18T09:59:00.133Z</time></trkpt><trkpt lat="45.986135" lon="12.0118918"><ele>1190.2</ele><time>2026-04-18T09:59:01.133Z</time></trkpt><trkpt lat="45.9862109" lon="12.0119804"><ele>1191.0</ele><time>2026-04-18T09:59:02.133Z</time></trkpt><trkpt lat="45.9862852" lon="12.0120686"><ele>1191.0</ele><time>2026-04-18T09:59:03.132Z</time></trkpt><trkpt lat="45.986367" lon="12.0121471"><ele>1191.0</ele><time>2026-04-18T09:59:04.132Z</time></trkpt><trkpt lat="45.9864587" lon="12.0122176"><ele>1191.0</ele><time>2026-04-18T09:59:05.132Z</time></trkpt><trkpt lat="45.9865494" lon="12.0122909"><ele>1191.0</ele><time>2026-04-18T09:59:06.133Z</time></trkpt><trkpt lat="45.9866312" lon="12.0123605"><ele>1191.0</ele><time>2026-04-18T09:59:07.133Z</time></trkpt><trkpt lat="45.9867086" lon="12.0124394"><ele>1192.75</ele><time>2026-04-18T09:59:08.133Z</time></trkpt><trkpt lat="45.9867884" lon="12.0125159"><ele>1194.5</ele><time>2026-04-18T09:59:09.133Z</time></trkpt><trkpt lat="45.9868915" lon="12.012597"><ele>1196.25</ele><time>2026-04-18T09:59:10.133Z</time></trkpt><trkpt lat="45.9869969" lon="12.0126613"><ele>1198.0</ele><time>2026-04-18T09:59:11.132Z</time></trkpt><trkpt lat="45.9871246" lon="12.0127275"><ele>1198.0</ele><time>2026-04-18T09:59:12.133Z</time></trkpt><trkpt lat="45.9872718" lon="12.0127961"><ele>1198.0</ele><time>2026-04-18T09:59:13.132Z</time></trkpt><trkpt lat="45.987426" lon="12.0128588"><ele>1198.0</ele><time>2026-04-18T09:59:14.133Z</time></trkpt><trkpt lat="45.9875683" lon="12.0129089"><ele>1196.75</ele><time>2026-04-18T09:59:15.132Z</time></trkpt><trkpt lat="45.9877001" lon="12.0129509"><ele>1195.5</ele><time>2026-04-18T09:59:16.133Z</time></trkpt><trkpt lat="45.9878111" lon="12.0129924"><ele>1194.25</ele><time>2026-04-18T09:59:17.132Z</time></trkpt><trkpt lat="45.9879176" lon="12.0130236"><ele>1193.0</ele><time>2026-04-18T09:59:18.133Z</time></trkpt><trkpt lat="45.988043" lon="12.0130322"><ele>1193.0</ele><time>2026-04-18T09:59:19.132Z</time></trkpt><trkpt lat="45.9881761" lon="12.0130456"><ele>1193.0</ele><time>2026-04-18T09:59:20.133Z</time></trkpt><trkpt lat="45.9882843" lon="12.0130722"><ele>1193.0</ele><time>2026-04-18T09:59:21.133Z</time></trkpt><trkpt lat="45.98838" lon="12.0131083"><ele>1193.0</ele><time>2026-04-18T09:59:22.132Z</time></trkpt><trkpt lat="45.9884695" lon="12.0131679"><ele>1193.0</ele><time>2026-04-18T09:59:23.133Z</time></trkpt><trkpt lat="45.9885692" lon="12.0132302"><ele>1192.0</ele><time>2026-04-18T09:59:24.133Z</time></trkpt><trkpt lat="45.9886762" lon="12.0132756"><ele>1191.0</ele><time>2026-04-18T09:59:25.132Z</time></trkpt><trkpt lat="45.9887805" lon="12.0133043"><ele>1190.0</ele><time>2026-04-18T09:59:26.133Z</time></trkpt><trkpt lat="45.9889011" lon="12.013318"><ele>1189.0</ele><time>2026-04-18T09:59:27.132Z</time></trkpt><trkpt lat="45.9890285" lon="12.0133356"><ele>1193.5</ele><time>2026-04-18T09:59:28.133Z</time></trkpt><trkpt lat="45.9891625" lon="12.0133651"><ele>1198.0</ele><time>2026-04-18T09:59:29.132Z</time></trkpt><trkpt lat="45.9892817" lon="12.0133788"><ele>1202.5</ele><time>2026-04-18T09:59:30.133Z</time></trkpt><trkpt lat="45.9894029" lon="12.0134009"><ele>1207.0</ele><time>2026-04-18T09:59:31.133Z</time></trkpt><trkpt lat="45.9895198" lon="12.0134211"><ele>1208.5</ele><time>2026-04-18T09:59:32.134Z</time></trkpt><trkpt lat="45.9896303" lon="12.0134374"><ele>1210.0</ele><time>2026-04-18T09:59:33.133Z</time></trkpt><trkpt lat="45.9897362" lon="12.0134522"><ele>1211.5</ele><time>2026-04-18T09:59:34.132Z</time></trkpt><trkpt lat="45.9898506" lon="12.0134624"><ele>1213.0</ele><time>2026-04-18T09:59:35.132Z</time></trkpt><trkpt lat="45.9899738" lon="12.0134539"><ele>1213.5</ele><time>2026-04-18T09:59:36.132Z</time></trkpt><trkpt lat="45.9901103" lon="12.013434"><ele>1214.0</ele><time>2026-04-18T09:59:37.134Z</time></trkpt><trkpt lat="45.9902352" lon="12.0134142"><ele>1214.5</ele><time>2026-04-18T09:59:38.133Z</time></trkpt><trkpt lat="45.9903524" lon="12.0134064"><ele>1215.0</ele><time>2026-04-18T09:59:39.133Z</time></trkpt><trkpt lat="45.9904628" lon="12.0134124"><ele>1215.0</ele><time>2026-04-18T09:59:40.133Z</time></trkpt><trkpt lat="45.9905717" lon="12.0134299"><ele>1215.0</ele><time>2026-04-18T09:59:41.134Z</time></trkpt><trkpt lat="45.9906773" lon="12.0134436"><ele>1215.0</ele><time>2026-04-18T09:59:42.132Z</time></trkpt><trkpt lat="45.9907764" lon="12.0134508"><ele>1215.0</ele><time>2026-04-18T09:59:43.132Z</time></trkpt><trkpt lat="45.9908734" lon="12.0134606"><ele>1215.0</ele><time>2026-04-18T09:59:44.132Z</time></trkpt><trkpt lat="45.9909653" lon="12.0134762"><ele>1214.5</ele><time>2026-04-18T09:59:45.133Z</time></trkpt><trkpt lat="45.9910575" lon="12.0134942"><ele>1214.0</ele><time>2026-04-18T09:59:46.133Z</time></trkpt><trkpt lat="45.9911409" lon="12.0135177"><ele>1213.5</ele><time>2026-04-18T09:59:47.132Z</time></trkpt><trkpt lat="45.9912253" lon="12.0135346"><ele>1213.0</ele><time>2026-04-18T09:59:48.133Z</time></trkpt><trkpt lat="45.9913112" lon="12.0135421"><ele>1212.5</ele><time>2026-04-18T09:59:49.132Z</time></trkpt><trkpt lat="45.9914054" lon="12.0135378"><ele>1212.0</ele><time>2026-04-18T09:59:50.132Z</time></trkpt><trkpt lat="45.9915124" lon="12.01353"><ele>1212.0</ele><time>2026-04-18T09:59:51.132Z</time></trkpt><trkpt lat="45.9916159" lon="12.0135195"><ele>1212.0</ele><time>2026-04-18T09:59:52.133Z</time></trkpt><trkpt lat="45.9917221" lon="12.0135097"><ele>1212.0</ele><time>2026-04-18T09:59:53.132Z</time></trkpt><trkpt lat="45.9918387" lon="12.0134855"><ele>1212.0</ele><time>2026-04-18T09:59:54.132Z</time></trkpt><trkpt lat="45.9919518" lon="12.0134503"><ele>1212.0</ele><time>2026-04-18T09:59:55.133Z</time></trkpt><trkpt lat="45.9920627" lon="12.0134244"><ele>1210.8333333333333</ele><time>2026-04-18T09:59:56.132Z</time></trkpt><trkpt lat="45.9921642" lon="12.013409"><ele>1209.6666666666667</ele><time>2026-04-18T09:59:57.132Z</time></trkpt><trkpt lat="45.992255" lon="12.01341"><ele>1208.5</ele><time>2026-04-18T09:59:58.132Z</time></trkpt><trkpt lat="45.9923404" lon="12.0134198"><ele>1207.3333333333335</ele><time>2026-04-18T09:59:59.133Z</time></trkpt><trkpt lat="45.9924208" lon="12.0134229"><ele>1206.1666666666667</ele><time>2026-04-18T10:00:00.132Z</time></trkpt><trkpt lat="45.9924989" lon="12.0134183"><ele>1205.0</ele><time>2026-04-18T10:00:01.132Z</time></trkpt><trkpt lat="45.9925756" lon="12.0134137"><ele>1203.6666666666667</ele><time>2026-04-18T10:00:02.133Z</time></trkpt><trkpt lat="45.9926508" lon="12.013405"><ele>1202.3333333333335</ele><time>2026-04-18T10:00:03.134Z</time></trkpt><trkpt lat="45.9927249" lon="12.0133959"><ele>1201.0</ele><time>2026-04-18T10:00:04.132Z</time></trkpt><trkpt lat="45.9928052" lon="12.0133897"><ele>1199.6666666666667</ele><time>2026-04-18T10:00:05.134Z</time></trkpt><trkpt lat="45.9928803" lon="12.0133879"><ele>1198.3333333333333</ele><time>2026-04-18T10:00:06.133Z</time></trkpt><trkpt lat="45.9929533" lon="12.0133835"><ele>1197.0</ele><time>2026-04-18T10:00:07.132Z</time></trkpt><trkpt lat="45.9930244" lon="12.0133759"><ele>1197.0</ele><time>2026-04-18T10:00:08.133Z</time></trkpt><trkpt lat="45.9930885" lon="12.0133712"><ele>1197.0</ele><time>2026-04-18T10:00:09.132Z</time></trkpt><trkpt lat="45.9931986" lon="12.013368"><ele>1197.0</ele><time>2026-04-18T10:00:11.133Z</time></trkpt><trkpt lat="45.9932942" lon="12.0133736"><ele>1197.0</ele><time>2026-04-18T10:00:13.133Z</time></trkpt><trkpt lat="45.9934152" lon="12.0133829"><ele>1197.0</ele><time>2026-04-18T10:00:15.133Z</time></trkpt><trkpt lat="45.9934909" lon="12.0133908"><ele>1195.1666666666667</ele><time>2026-04-18T10:00:16.133Z</time></trkpt><trkpt lat="45.9935784" lon="12.013396"><ele>1193.3333333333333</ele><time>2026-04-18T10:00:17.133Z</time></trkpt><trkpt lat="45.9936643" lon="12.0134061"><ele>1191.5</ele><time>2026-04-18T10:00:18.134Z</time></trkpt><trkpt lat="45.9937453" lon="12.0134109"><ele>1189.6666666666665</ele><time>2026-04-18T10:00:19.132Z</time></trkpt><trkpt lat="45.9938198" lon="12.013422"><ele>1187.8333333333333</ele><time>2026-04-18T10:00:20.132Z</time></trkpt><trkpt lat="45.9938921" lon="12.0134466"><ele>1186.0</ele><time>2026-04-18T10:00:21.132Z</time></trkpt><trkpt lat="45.9939617" lon="12.0134792"><ele>1186.0</ele><time>2026-04-18T10:00:22.133Z</time></trkpt><trkpt lat="45.9940324" lon="12.0135248"><ele>1186.0</ele><time>2026-04-18T10:00:23.133Z</time></trkpt><trkpt lat="45.9941009" lon="12.0135854"><ele>1186.0</ele><time>2026-04-18T10:00:24.134Z</time></trkpt><trkpt lat="45.9941636" lon="12.0136545"><ele>1186.0</ele><time>2026-04-18T10:00:25.133Z</time></trkpt><trkpt lat="45.9942346" lon="12.0137294"><ele>1186.0</ele><time>2026-04-18T10:00:26.133Z</time></trkpt><trkpt lat="45.994311" lon="12.0138144"><ele>1186.0</ele><time>2026-04-18T10:00:27.132Z</time></trkpt><trkpt lat="45.9943908" lon="12.0139051"><ele>1184.6666666666665</ele><time>2026-04-18T10:00:28.132Z</time></trkpt><trkpt lat="45.9944644" lon="12.0139874"><ele>1183.3333333333333</ele><time>2026-04-18T10:00:29.133Z</time></trkpt><trkpt lat="45.9945383" lon="12.0140635"><ele>1182.0</ele><time>2026-04-18T10:00:30.132Z</time></trkpt><trkpt lat="45.9946027" lon="12.0141285"><ele>1180.6666666666667</ele><time>2026-04-18T10:00:31.132Z</time></trkpt><trkpt lat="45.9946611" lon="12.0141917"><ele>1179.3333333333335</ele><time>2026-04-18T10:00:32.132Z</time></trkpt><trkpt lat="45.994727" lon="12.0142629"><ele>1178.0</ele><time>2026-04-18T10:00:33.133Z</time></trkpt><trkpt lat="45.9948018" lon="12.0143427"><ele>1178.0</ele><time>2026-04-18T10:00:34.133Z</time></trkpt><trkpt lat="45.9948686" lon="12.0144022"><ele>1178.0</ele><time>2026-04-18T10:00:35.132Z</time></trkpt><trkpt lat="45.9949334" lon="12.0144629"><ele>1178.0</ele><time>2026-04-18T10:00:36.133Z</time></trkpt><trkpt lat="45.9949934" lon="12.0145309"><ele>1178.0</ele><time>2026-04-18T10:00:37.133Z</time></trkpt><trkpt lat="45.9950531" lon="12.0145969"><ele>1178.0</ele><time>2026-04-18T10:00:38.133Z</time></trkpt><trkpt lat="45.9951213" lon="12.0146545"><ele>1178.0</ele><time>2026-04-18T10:00:39.132Z</time></trkpt><trkpt lat="45.9951941" lon="12.0147046"><ele>1176.0</ele><time>2026-04-18T10:00:40.133Z</time></trkpt><trkpt lat="45.9952844" lon="12.0147596"><ele>1174.0</ele><time>2026-04-18T10:00:41.133Z</time></trkpt><trkpt lat="45.9953651" lon="12.0148105"><ele>1172.0</ele><time>2026-04-18T10:00:42.133Z</time></trkpt><trkpt lat="45.9954565" lon="12.014853"><ele>1170.0</ele><time>2026-04-18T10:00:43.133Z</time></trkpt><trkpt lat="45.9955526" lon="12.0148839"><ele>1168.0</ele><time>2026-04-18T10:00:44.132Z</time></trkpt><trkpt lat="45.9956403" lon="12.0149154"><ele>1168.0</ele><time>2026-04-18T10:00:45.132Z</time></trkpt><trkpt lat="45.9957311" lon="12.0149429"><ele>1168.0</ele><time>2026-04-18T10:00:46.132Z</time></trkpt><trkpt lat="45.9958251" lon="12.014973"><ele>1168.0</ele><time>2026-04-18T10:00:47.132Z</time></trkpt><trkpt lat="45.9959175" lon="12.0150027"><ele>1168.0</ele><time>2026-04-18T10:00:48.134Z</time></trkpt><trkpt lat="45.9960101" lon="12.0150348"><ele>1168.0</ele><time>2026-04-18T10:00:49.132Z</time></trkpt><trkpt lat="45.9961169" lon="12.0150623"><ele>1166.2</ele><time>2026-04-18T10:00:50.133Z</time></trkpt><trkpt lat="45.9962089" lon="12.015121"><ele>1164.4</ele><time>2026-04-18T10:00:51.132Z</time></trkpt><trkpt lat="45.9963072" lon="12.0151936"><ele>1162.6000000000001</ele><time>2026-04-18T10:00:52.132Z</time></trkpt><trkpt lat="45.9964314" lon="12.0152896"><ele>1160.8</ele><time>2026-04-18T10:00:53.132Z</time></trkpt><trkpt lat="45.9965229" lon="12.0153365"><ele>1159.0</ele><time>2026-04-18T10:00:54.133Z</time></trkpt><trkpt lat="45.9966048" lon="12.015403"><ele>1157.0</ele><time>2026-04-18T10:00:55.132Z</time></trkpt><trkpt lat="45.9966938" lon="12.0154531"><ele>1155.0</ele><time>2026-04-18T10:00:56.132Z</time></trkpt><trkpt lat="45.9967806" lon="12.0155082"><ele>1153.0</ele><time>2026-04-18T10:00:57.132Z</time></trkpt><trkpt lat="45.9968691" lon="12.0155532"><ele>1151.0</ele><time>2026-04-18T10:00:58.132Z</time></trkpt><trkpt lat="45.9969645" lon="12.0155969"><ele>1149.0</ele><time>2026-04-18T10:00:59.132Z</time></trkpt><trkpt lat="45.9970592" lon="12.0156394"><ele>1149.0</ele><time>2026-04-18T10:01:00.133Z</time></trkpt><trkpt lat="45.997165" lon="12.0156844"><ele>1149.0</ele><time>2026-04-18T10:01:01.133Z</time></trkpt><trkpt lat="45.9972643" lon="12.0157261"><ele>1149.0</ele><time>2026-04-18T10:01:02.133Z</time></trkpt><trkpt lat="45.9973685" lon="12.015768"><ele>1149.0</ele><time>2026-04-18T10:01:03.132Z</time></trkpt><trkpt lat="45.9974815" lon="12.0158041"><ele>1149.0</ele><time>2026-04-18T10:01:04.132Z</time></trkpt><trkpt lat="45.9976143" lon="12.0158414"><ele>1150.5</ele><time>2026-04-18T10:01:05.133Z</time></trkpt><trkpt lat="45.9977397" lon="12.0158747"><ele>1152.0</ele><time>2026-04-18T10:01:06.132Z</time></trkpt><trkpt lat="45.9978915" lon="12.0159053"><ele>1153.5</ele><time>2026-04-18T10:01:07.132Z</time></trkpt><trkpt lat="45.9980471" lon="12.0159386"><ele>1155.0</ele><time>2026-04-18T10:01:08.133Z</time></trkpt><trkpt lat="45.9981872" lon="12.0159823"><ele>1155.0</ele><time>2026-04-18T10:01:09.132Z</time></trkpt><trkpt lat="45.9983121" lon="12.016024"><ele>1155.0</ele><time>2026-04-18T10:01:10.132Z</time></trkpt><trkpt lat="45.9984217" lon="12.0160708"><ele>1155.0</ele><time>2026-04-18T10:01:11.134Z</time></trkpt><trkpt lat="45.9985352" lon="12.0161471"><ele>1155.0</ele><time>2026-04-18T10:01:12.132Z</time></trkpt><trkpt lat="45.9986414" lon="12.0162488"><ele>1155.2</ele><time>2026-04-18T10:01:13.134Z</time></trkpt><trkpt lat="45.9987216" lon="12.0163434"><ele>1155.4</ele><time>2026-04-18T10:01:14.133Z</time></trkpt><trkpt lat="45.9988115" lon="12.0164182"><ele>1155.6</ele><time>2026-04-18T10:01:15.133Z</time></trkpt><trkpt lat="45.9989036" lon="12.0164693"><ele>1155.8</ele><time>2026-04-18T10:01:16.132Z</time></trkpt><trkpt lat="45.998995" lon="12.0164209"><ele>1156.0</ele><time>2026-04-18T10:01:17.133Z</time></trkpt><trkpt lat="45.9990952" lon="12.0163644"><ele>1155.0</ele><time>2026-04-18T10:01:18.132Z</time></trkpt><trkpt lat="45.9991785" lon="12.0163316"><ele>1154.0</ele><time>2026-04-18T10:01:19.132Z</time></trkpt><trkpt lat="45.9992795" lon="12.0163168"><ele>1153.0</ele><time>2026-04-18T10:01:20.133Z</time></trkpt><trkpt lat="45.9993878" lon="12.0163068"><ele>1152.0</ele><time>2026-04-18T10:01:21.132Z</time></trkpt><trkpt lat="45.9994877" lon="12.016309"><ele>1151.0</ele><time>2026-04-18T10:01:22.132Z</time></trkpt><trkpt lat="45.9995656" lon="12.0163347"><ele>1151.0</ele><time>2026-04-18T10:01:23.133Z</time></trkpt><trkpt lat="45.9996345" lon="12.0163581"><ele>1151.0</ele><time>2026-04-18T10:01:24.133Z</time></trkpt><trkpt lat="45.9997079" lon="12.0163864"><ele>1151.0</ele><time>2026-04-18T10:01:25.132Z</time></trkpt><trkpt lat="45.9997884" lon="12.0164274"><ele>1151.0</ele><time>2026-04-18T10:01:26.132Z</time></trkpt><trkpt lat="45.9998915" lon="12.0164766"><ele>1151.0</ele><time>2026-04-18T10:01:27.133Z</time></trkpt><trkpt lat="45.9999753" lon="12.0165116"><ele>1151.0</ele><time>2026-04-18T10:01:28.133Z</time></trkpt><trkpt lat="46.0000638" lon="12.0165727"><ele>1151.0</ele><time>2026-04-18T10:01:29.132Z</time></trkpt><trkpt lat="46.0001757" lon="12.0166368"><ele>1151.0</ele><time>2026-04-18T10:01:30.133Z</time></trkpt><trkpt lat="46.0002707" lon="12.0167763"><ele>1151.0</ele><time>2026-04-18T10:01:32.133Z</time></trkpt><trkpt lat="46.0003142" lon="12.0168848"><ele>1151.0</ele><time>2026-04-18T10:01:33.133Z</time></trkpt><trkpt lat="46.0003439" lon="12.0169883"><ele>1151.0</ele><time>2026-04-18T10:01:34.132Z</time></trkpt><trkpt lat="46.0003693" lon="12.0170816"><ele>1154.8333333333335</ele><time>2026-04-18T10:01:35.132Z</time></trkpt><trkpt lat="46.0003887" lon="12.0171727"><ele>1158.6666666666667</ele><time>2026-04-18T10:01:36.133Z</time></trkpt><trkpt lat="46.0004104" lon="12.0173491"><ele>1162.5</ele><time>2026-04-18T10:01:38.133Z</time></trkpt><trkpt lat="46.0004227" lon="12.0174467"><ele>1166.3333333333333</ele><time>2026-04-18T10:01:39.133Z</time></trkpt><trkpt lat="46.0004483" lon="12.017549"><ele>1170.1666666666665</ele><time>2026-04-18T10:01:40.133Z</time></trkpt><trkpt lat="46.000476" lon="12.0176498"><ele>1174.0</ele><time>2026-04-18T10:01:41.132Z</time></trkpt><trkpt lat="46.0005156" lon="12.017734"><ele>1174.2</ele><time>2026-04-18T10:01:42.133Z</time></trkpt><trkpt lat="46.0006005" lon="12.017845"><ele>1174.4</ele><time>2026-04-18T10:01:44.133Z</time></trkpt><trkpt lat="46.0006923" lon="12.0179434"><ele>1174.6</ele><time>2026-04-18T10:01:46.133Z</time></trkpt><trkpt lat="46.0007853" lon="12.018063"><ele>1174.8</ele><time>2026-04-18T10:01:48.133Z</time></trkpt><trkpt lat="46.0008401" lon="12.018118"><ele>1175.0</ele><time>2026-04-18T10:01:49.133Z</time></trkpt><trkpt lat="46.0009049" lon="12.0181715"><ele>1175.5</ele><time>2026-04-18T10:01:50.134Z</time></trkpt><trkpt lat="46.0009771" lon="12.0182135"><ele>1176.0</ele><time>2026-04-18T10:01:51.133Z</time></trkpt><trkpt lat="46.0010528" lon="12.0182461"><ele>1176.5</ele><time>2026-04-18T10:01:52.132Z</time></trkpt><trkpt lat="46.0011338" lon="12.0182748"><ele>1177.0</ele><time>2026-04-18T10:01:53.132Z</time></trkpt><trkpt lat="46.0012166" lon="12.018306"><ele>1177.5</ele><time>2026-04-18T10:01:54.132Z</time></trkpt><trkpt lat="46.0013007" lon="12.0183442"><ele>1178.0</ele><time>2026-04-18T10:01:55.132Z</time></trkpt><trkpt lat="46.001388" lon="12.0183826"><ele>1175.6</ele><time>2026-04-18T10:01:56.132Z</time></trkpt><trkpt lat="46.0014736" lon="12.0184262"><ele>1173.1999999999998</ele><time>2026-04-18T10:01:57.132Z</time></trkpt><trkpt lat="46.0015605" lon="12.018468"><ele>1170.8</ele><time>2026-04-18T10:01:58.132Z</time></trkpt><trkpt lat="46.0016486" lon="12.018507"><ele>1168.3999999999999</ele><time>2026-04-18T10:01:59.132Z</time></trkpt><trkpt lat="46.0017351" lon="12.0185522"><ele>1166.0</ele><time>2026-04-18T10:02:00.133Z</time></trkpt><trkpt lat="46.0018191" lon="12.0186011"><ele>1165.6666666666667</ele><time>2026-04-18T10:02:01.134Z</time></trkpt><trkpt lat="46.0018941" lon="12.0186486"><ele>1165.3333333333335</ele><time>2026-04-18T10:02:02.134Z</time></trkpt><trkpt lat="46.0019727" lon="12.0187051"><ele>1165.0</ele><time>2026-04-18T10:02:03.133Z</time></trkpt><trkpt lat="46.0020428" lon="12.0187699"><ele>1164.6666666666667</ele><time>2026-04-18T10:02:04.134Z</time></trkpt><trkpt lat="46.0021093" lon="12.0188321"><ele>1164.3333333333333</ele><time>2026-04-18T10:02:05.132Z</time></trkpt><trkpt lat="46.0021686" lon="12.0188923"><ele>1164.0</ele><time>2026-04-18T10:02:06.132Z</time></trkpt><trkpt lat="46.002223" lon="12.0189443"><ele>1164.0</ele><time>2026-04-18T10:02:07.133Z</time></trkpt><trkpt lat="46.0022781" lon="12.0189941"><ele>1164.0</ele><time>2026-04-18T10:02:08.133Z</time></trkpt><trkpt lat="46.0023377" lon="12.0190463"><ele>1164.0</ele><time>2026-04-18T10:02:09.132Z</time></trkpt><trkpt lat="46.0023946" lon="12.0191027"><ele>1164.0</ele><time>2026-04-18T10:02:10.132Z</time></trkpt><trkpt lat="46.0024495" lon="12.0191634"><ele>1164.0</ele><time>2026-04-18T10:02:11.132Z</time></trkpt><trkpt lat="46.0025106" lon="12.019222"><ele>1164.0</ele><time>2026-04-18T10:02:12.132Z</time></trkpt><trkpt lat="46.0025658" lon="12.0192755"><ele>1164.0</ele><time>2026-04-18T10:02:13.133Z</time></trkpt><trkpt lat="46.0026244" lon="12.0193276"><ele>1161.3333333333333</ele><time>2026-04-18T10:02:14.133Z</time></trkpt><trkpt lat="46.0026846" lon="12.0193782"><ele>1158.6666666666667</ele><time>2026-04-18T10:02:15.132Z</time></trkpt><trkpt lat="46.0027515" lon="12.0194301"><ele>1156.0</ele><time>2026-04-18T10:02:16.133Z</time></trkpt><trkpt lat="46.0028227" lon="12.0194818"><ele>1153.3333333333335</ele><time>2026-04-18T10:02:17.132Z</time></trkpt><trkpt lat="46.0029016" lon="12.019522"><ele>1150.6666666666667</ele><time>2026-04-18T10:02:18.132Z</time></trkpt><trkpt lat="46.0029786" lon="12.0195616"><ele>1148.0</ele><time>2026-04-18T10:02:19.133Z</time></trkpt><trkpt lat="46.0030522" lon="12.0196075"><ele>1148.0</ele><time>2026-04-18T10:02:20.132Z</time></trkpt><trkpt lat="46.0031287" lon="12.0196576"><ele>1148.0</ele><time>2026-04-18T10:02:21.133Z</time></trkpt><trkpt lat="46.0032052" lon="12.0197079"><ele>1148.0</ele><time>2026-04-18T10:02:22.133Z</time></trkpt><trkpt lat="46.0032789" lon="12.0197614"><ele>1148.0</ele><time>2026-04-18T10:02:23.132Z</time></trkpt><trkpt lat="46.0033464" lon="12.0198124"><ele>1148.0</ele><time>2026-04-18T10:02:24.133Z</time></trkpt><trkpt lat="46.0034155" lon="12.0198647"><ele>1148.0</ele><time>2026-04-18T10:02:25.133Z</time></trkpt><trkpt lat="46.0034826" lon="12.0199196"><ele>1146.8333333333335</ele><time>2026-04-18T10:02:26.133Z</time></trkpt><trkpt lat="46.0035483" lon="12.0199831"><ele>1145.6666666666667</ele><time>2026-04-18T10:02:27.132Z</time></trkpt><trkpt lat="46.0036167" lon="12.0200511"><ele>1144.5</ele><time>2026-04-18T10:02:28.133Z</time></trkpt><trkpt lat="46.0036811" lon="12.0201172"><ele>1143.3333333333333</ele><time>2026-04-18T10:02:29.133Z</time></trkpt><trkpt lat="46.0037487" lon="12.0201845"><ele>1142.1666666666665</ele><time>2026-04-18T10:02:30.132Z</time></trkpt><trkpt lat="46.0038136" lon="12.0202508"><ele>1141.0</ele><time>2026-04-18T10:02:31.133Z</time></trkpt><trkpt lat="46.0038788" lon="12.0203126"><ele>1139.8333333333333</ele><time>2026-04-18T10:02:32.132Z</time></trkpt><trkpt lat="46.0039489" lon="12.0203751"><ele>1138.6666666666665</ele><time>2026-04-18T10:02:33.133Z</time></trkpt><trkpt lat="46.0040135" lon="12.0204475"><ele>1137.5</ele><time>2026-04-18T10:02:34.132Z</time></trkpt><trkpt lat="46.0040777" lon="12.0205239"><ele>1136.3333333333333</ele><time>2026-04-18T10:02:35.132Z</time></trkpt><trkpt lat="46.0041359" lon="12.0205938"><ele>1135.1666666666667</ele><time>2026-04-18T10:02:36.133Z</time></trkpt><trkpt lat="46.0041934" lon="12.0206698"><ele>1134.0</ele><time>2026-04-18T10:02:37.132Z</time></trkpt><trkpt lat="46.0042525" lon="12.0207402"><ele>1133.8333333333333</ele><time>2026-04-18T10:02:38.132Z</time></trkpt><trkpt lat="46.0043206" lon="12.0208026"><ele>1133.6666666666667</ele><time>2026-04-18T10:02:39.132Z</time></trkpt><trkpt lat="46.0043927" lon="12.0208482"><ele>1133.5</ele><time>2026-04-18T10:02:40.132Z</time></trkpt><trkpt lat="46.004456" lon="12.020889"><ele>1133.3333333333335</ele><time>2026-04-18T10:02:41.132Z</time></trkpt><trkpt lat="46.0045314" lon="12.0209156"><ele>1133.1666666666667</ele><time>2026-04-18T10:02:42.133Z</time></trkpt><trkpt lat="46.0046104" lon="12.020934"><ele>1133.0</ele><time>2026-04-18T10:02:43.134Z</time></trkpt><trkpt lat="46.0046931" lon="12.0209416"><ele>1130.8333333333335</ele><time>2026-04-18T10:02:44.132Z</time></trkpt><trkpt lat="46.0047748" lon="12.0209491"><ele>1128.6666666666667</ele><time>2026-04-18T10:02:45.132Z</time></trkpt><trkpt lat="46.0048601" lon="12.0209691"><ele>1126.5</ele><time>2026-04-18T10:02:46.132Z</time></trkpt><trkpt lat="46.0049387" lon="12.020999"><ele>1124.3333333333333</ele><time>2026-04-18T10:02:47.132Z</time></trkpt><trkpt lat="46.0050085" lon="12.0210442"><ele>1122.1666666666665</ele><time>2026-04-18T10:02:48.134Z</time></trkpt><trkpt lat="46.0050741" lon="12.0211012"><ele>1120.0</ele><time>2026-04-18T10:02:49.133Z</time></trkpt><trkpt lat="46.0051332" lon="12.0211594"><ele>1120.0</ele><time>2026-04-18T10:02:50.132Z</time></trkpt><trkpt lat="46.0051911" lon="12.0212155"><ele>1120.0</ele><time>2026-04-18T10:02:51.133Z</time></trkpt><trkpt lat="46.0052476" lon="12.0212656"><ele>1120.0</ele><time>2026-04-18T10:02:52.133Z</time></trkpt><trkpt lat="46.0053051" lon="12.0213059"><ele>1120.0</ele><time>2026-04-18T10:02:53.134Z</time></trkpt><trkpt lat="46.0053651" lon="12.0213377"><ele>1120.0</ele><time>2026-04-18T10:02:54.132Z</time></trkpt><trkpt lat="46.0054835" lon="12.0213944"><ele>1120.0</ele><time>2026-04-18T10:02:56.132Z</time></trkpt><trkpt lat="46.0055924" lon="12.0214775"><ele>1120.0</ele><time>2026-04-18T10:02:58.133Z</time></trkpt><trkpt lat="46.005649" lon="12.0215244"><ele>1120.0</ele><time>2026-04-18T10:02:59.133Z</time></trkpt><trkpt lat="46.0057033" lon="12.0215769"><ele>1120.0</ele><time>2026-04-18T10:03:00.133Z</time></trkpt><trkpt lat="46.0057604" lon="12.0216335"><ele>1120.0</ele><time>2026-04-18T10:03:01.133Z</time></trkpt><trkpt lat="46.0058139" lon="12.0216911"><ele>1120.0</ele><time>2026-04-18T10:03:02.132Z</time></trkpt><trkpt lat="46.0058692" lon="12.021752"><ele>1120.0</ele><time>2026-04-18T10:03:03.133Z</time></trkpt><trkpt lat="46.0059274" lon="12.0218057"><ele>1120.0</ele><time>2026-04-18T10:03:04.133Z</time></trkpt><trkpt lat="46.0059922" lon="12.0218657"><ele>1117.8333333333333</ele><time>2026-04-18T10:03:05.133Z</time></trkpt><trkpt lat="46.0060556" lon="12.0219197"><ele>1115.6666666666665</ele><time>2026-04-18T10:03:06.132Z</time></trkpt><trkpt lat="46.0061235" lon="12.0219694"><ele>1113.5</ele><time>2026-04-18T10:03:07.132Z</time></trkpt><trkpt lat="46.0061972" lon="12.022016"><ele>1111.3333333333333</ele><time>2026-04-18T10:03:08.133Z</time></trkpt><trkpt lat="46.0062783" lon="12.0220593"><ele>1109.1666666666667</ele><time>2026-04-18T10:03:09.132Z</time></trkpt><trkpt lat="46.0063605" lon="12.0220948"><ele>1107.0</ele><time>2026-04-18T10:03:10.132Z</time></trkpt><trkpt lat="46.0064468" lon="12.0221349"><ele>1107.0</ele><time>2026-04-18T10:03:11.132Z</time></trkpt><trkpt lat="46.0065337" lon="12.0221711"><ele>1107.0</ele><time>2026-04-18T10:03:12.133Z</time></trkpt><trkpt lat="46.0066251" lon="12.0222031"><ele>1107.0</ele><time>2026-04-18T10:03:13.132Z</time></trkpt><trkpt lat="46.0067159" lon="12.0222354"><ele>1107.0</ele><time>2026-04-18T10:03:14.132Z</time></trkpt><trkpt lat="46.0068097" lon="12.0222775"><ele>1107.0</ele><time>2026-04-18T10:03:15.133Z</time></trkpt><trkpt lat="46.006904" lon="12.022326"><ele>1104.4</ele><time>2026-04-18T10:03:16.132Z</time></trkpt><trkpt lat="46.0069965" lon="12.0223806"><ele>1101.8000000000002</ele><time>2026-04-18T10:03:17.132Z</time></trkpt><trkpt lat="46.0070888" lon="12.0224355"><ele>1099.2</ele><time>2026-04-18T10:03:18.133Z</time></trkpt><trkpt lat="46.0071742" lon="12.0225061"><ele>1096.6000000000001</ele><time>2026-04-18T10:03:19.133Z</time></trkpt><trkpt lat="46.0072535" lon="12.0225869"><ele>1094.0</ele><time>2026-04-18T10:03:20.133Z</time></trkpt><trkpt lat="46.0073326" lon="12.0226757"><ele>1092.0</ele><time>2026-04-18T10:03:21.134Z</time></trkpt><trkpt lat="46.0074109" lon="12.022767"><ele>1090.0</ele><time>2026-04-18T10:03:22.133Z</time></trkpt><trkpt lat="46.0074944" lon="12.0228517"><ele>1088.0</ele><time>2026-04-18T10:03:23.133Z</time></trkpt><trkpt lat="46.0075838" lon="12.0229285"><ele>1086.0</ele><time>2026-04-18T10:03:24.132Z</time></trkpt><trkpt lat="46.0076743" lon="12.0229825"><ele>1084.0</ele><time>2026-04-18T10:03:25.132Z</time></trkpt><trkpt lat="46.0077654" lon="12.0230245"><ele>1081.8333333333333</ele><time>2026-04-18T10:03:26.132Z</time></trkpt><trkpt lat="46.0078512" lon="12.0230652"><ele>1079.6666666666665</ele><time>2026-04-18T10:03:27.133Z</time></trkpt><trkpt lat="46.0079411" lon="12.0230919"><ele>1077.5</ele><time>2026-04-18T10:03:28.134Z</time></trkpt><trkpt lat="46.0080305" lon="12.0231013"><ele>1075.3333333333333</ele><time>2026-04-18T10:03:29.133Z</time></trkpt><trkpt lat="46.0081186" lon="12.0230947"><ele>1073.1666666666667</ele><time>2026-04-18T10:03:30.133Z</time></trkpt><trkpt lat="46.0082043" lon="12.0230742"><ele>1071.0</ele><time>2026-04-18T10:03:31.133Z</time></trkpt><trkpt lat="46.0082861" lon="12.0230518"><ele>1068.6666666666667</ele><time>2026-04-18T10:03:32.133Z</time></trkpt><trkpt lat="46.0083724" lon="12.0230387"><ele>1066.3333333333333</ele><time>2026-04-18T10:03:33.134Z</time></trkpt><trkpt lat="46.0084578" lon="12.0230406"><ele>1064.0</ele><time>2026-04-18T10:03:34.132Z</time></trkpt><trkpt lat="46.0085403" lon="12.0230618"><ele>1061.6666666666665</ele><time>2026-04-18T10:03:35.132Z</time></trkpt><trkpt lat="46.0086246" lon="12.0231045"><ele>1059.3333333333333</ele><time>2026-04-18T10:03:36.132Z</time></trkpt><trkpt lat="46.0087027" lon="12.0231677"><ele>1057.0</ele><time>2026-04-18T10:03:37.132Z</time></trkpt><trkpt lat="46.0087744" lon="12.0232538"><ele>1057.0</ele><time>2026-04-18T10:03:38.132Z</time></trkpt><trkpt lat="46.0088427" lon="12.0233462"><ele>1057.0</ele><time>2026-04-18T10:03:39.132Z</time></trkpt><trkpt lat="46.0089188" lon="12.0234356"><ele>1057.0</ele><time>2026-04-18T10:03:40.134Z</time></trkpt><trkpt lat="46.0089942" lon="12.0235269"><ele>1057.0</ele><time>2026-04-18T10:03:41.132Z</time></trkpt><trkpt lat="46.0090705" lon="12.0236202"><ele>1057.0</ele><time>2026-04-18T10:03:42.132Z</time></trkpt><trkpt lat="46.0091465" lon="12.0237182"><ele>1055.6</ele><time>2026-04-18T10:03:43.132Z</time></trkpt><trkpt lat="46.0092203" lon="12.0238179"><ele>1054.2</ele><time>2026-04-18T10:03:44.132Z</time></trkpt><trkpt lat="46.0092956" lon="12.0239141"><ele>1052.8</ele><time>2026-04-18T10:03:45.133Z</time></trkpt><trkpt lat="46.0093755" lon="12.0240064"><ele>1051.4</ele><time>2026-04-18T10:03:46.133Z</time></trkpt><trkpt lat="46.0094558" lon="12.0240931"><ele>1050.0</ele><time>2026-04-18T10:03:47.133Z</time></trkpt><trkpt lat="46.0095409" lon="12.024171"><ele>1050.0</ele><time>2026-04-18T10:03:48.132Z</time></trkpt><trkpt lat="46.0096307" lon="12.0242292"><ele>1050.0</ele><time>2026-04-18T10:03:49.132Z</time></trkpt><trkpt lat="46.0097243" lon="12.0242806"><ele>1050.0</ele><time>2026-04-18T10:03:50.132Z</time></trkpt><trkpt lat="46.0098317" lon="12.0243372"><ele>1050.0</ele><time>2026-04-18T10:03:51.132Z</time></trkpt><trkpt lat="46.0099502" lon="12.0243895"><ele>1050.0</ele><time>2026-04-18T10:03:52.132Z</time></trkpt><trkpt lat="46.0100886" lon="12.024443"><ele>1046.0</ele><time>2026-04-18T10:03:53.132Z</time></trkpt><trkpt lat="46.0102212" lon="12.0244998"><ele>1042.0</ele><time>2026-04-18T10:03:54.134Z</time></trkpt><trkpt lat="46.0103508" lon="12.0245537"><ele>1038.0</ele><time>2026-04-18T10:03:55.133Z</time></trkpt><trkpt lat="46.0104773" lon="12.0245918"><ele>1034.0</ele><time>2026-04-18T10:03:56.132Z</time></trkpt><trkpt lat="46.0106025" lon="12.0246065"><ele>1034.0</ele><time>2026-04-18T10:03:57.132Z</time></trkpt><trkpt lat="46.0107215" lon="12.0245856"><ele>1034.0</ele><time>2026-04-18T10:03:58.132Z</time></trkpt><trkpt lat="46.0108353" lon="12.0245429"><ele>1034.0</ele><time>2026-04-18T10:03:59.132Z</time></trkpt><trkpt lat="46.0109481" lon="12.0245009"><ele>1034.0</ele><time>2026-04-18T10:04:00.133Z</time></trkpt><trkpt lat="46.0110574" lon="12.0244584"><ele>1029.0</ele><time>2026-04-18T10:04:01.134Z</time></trkpt><trkpt lat="46.011165" lon="12.0244259"><ele>1024.0</ele><time>2026-04-18T10:04:02.132Z</time></trkpt><trkpt lat="46.011275" lon="12.0243971"><ele>1019.0000000000001</ele><time>2026-04-18T10:04:03.132Z</time></trkpt><trkpt lat="46.0113854" lon="12.0243797"><ele>1014.0</ele><time>2026-04-18T10:04:04.132Z</time></trkpt><trkpt lat="46.0114987" lon="12.0243911"><ele>1009.0</ele><time>2026-04-18T10:04:05.131Z</time></trkpt><trkpt lat="46.0116089" lon="12.0244302"><ele>1007.0</ele><time>2026-04-18T10:04:06.132Z</time></trkpt><trkpt lat="46.0117156" lon="12.0244702"><ele>1005.0000000000001</ele><time>2026-04-18T10:04:07.133Z</time></trkpt><trkpt lat="46.0118224" lon="12.0245105"><ele>1003.0000000000001</ele><time>2026-04-18T10:04:08.131Z</time></trkpt><trkpt lat="46.0119305" lon="12.024546"><ele>1001.0</ele><time>2026-04-18T10:04:09.133Z</time></trkpt><trkpt lat="46.0120367" lon="12.0245887"><ele>999.0</ele><time>2026-04-18T10:04:10.132Z</time></trkpt><trkpt lat="46.0121357" lon="12.0246245"><ele>999.0</ele><time>2026-04-18T10:04:11.132Z</time></trkpt><trkpt lat="46.012231" lon="12.0246663"><ele>999.0000000000001</ele><time>2026-04-18T10:04:12.131Z</time></trkpt><trkpt lat="46.0123257" lon="12.024709"><ele>999.0000000000001</ele><time>2026-04-18T10:04:13.133Z</time></trkpt><trkpt lat="46.0124174" lon="12.0247631"><ele>999.0</ele><time>2026-04-18T10:04:14.133Z</time></trkpt><trkpt lat="46.0124917" lon="12.0248346"><ele>999.0</ele><time>2026-04-18T10:04:15.132Z</time></trkpt><trkpt lat="46.0125505" lon="12.024927"><ele>998.0</ele><time>2026-04-18T10:04:16.131Z</time></trkpt><trkpt lat="46.0126068" lon="12.0250281"><ele>997.0000000000001</ele><time>2026-04-18T10:04:17.131Z</time></trkpt><trkpt lat="46.0126651" lon="12.0251282"><ele>996.0000000000001</ele><time>2026-04-18T10:04:18.131Z</time></trkpt><trkpt lat="46.0127294" lon="12.0252214"><ele>995.0</ele><time>2026-04-18T10:04:19.131Z</time></trkpt><trkpt lat="46.0128087" lon="12.0252898"><ele>994.0</ele><time>2026-04-18T10:04:20.131Z</time></trkpt><trkpt lat="46.0129002" lon="12.0253435"><ele>994.0</ele><time>2026-04-18T10:04:21.131Z</time></trkpt><trkpt lat="46.0129979" lon="12.0253874"><ele>994.0000000000001</ele><time>2026-04-18T10:04:22.132Z</time></trkpt><trkpt lat="46.013094" lon="12.0254345"><ele>994.0000000000001</ele><time>2026-04-18T10:04:23.132Z</time></trkpt><trkpt lat="46.0131891" lon="12.0254965"><ele>994.0</ele><time>2026-04-18T10:04:24.131Z</time></trkpt><trkpt lat="46.013275" lon="12.0255797"><ele>994.0</ele><time>2026-04-18T10:04:25.131Z</time></trkpt><trkpt lat="46.0133517" lon="12.0256731"><ele>991.4000000000001</ele><time>2026-04-18T10:04:26.132Z</time></trkpt><trkpt lat="46.0134185" lon="12.0257819"><ele>988.8000000000001</ele><time>2026-04-18T10:04:27.131Z</time></trkpt><trkpt lat="46.0134785" lon="12.0259019"><ele>986.1999999999999</ele><time>2026-04-18T10:04:28.131Z</time></trkpt><trkpt lat="46.0135322" lon="12.0260246"><ele>983.5999999999999</ele><time>2026-04-18T10:04:29.131Z</time></trkpt><trkpt lat="46.0135791" lon="12.0261525"><ele>981.0</ele><time>2026-04-18T10:04:30.131Z</time></trkpt><trkpt lat="46.0136177" lon="12.0262866"><ele>981.0</ele><time>2026-04-18T10:04:31.131Z</time></trkpt><trkpt lat="46.0136518" lon="12.0264259"><ele>980.9999999999999</ele><time>2026-04-18T10:04:32.131Z</time></trkpt><trkpt lat="46.0136876" lon="12.0265632"><ele>980.9999999999999</ele><time>2026-04-18T10:04:33.132Z</time></trkpt><trkpt lat="46.0137319" lon="12.0266973"><ele>981.0</ele><time>2026-04-18T10:04:34.131Z</time></trkpt><trkpt lat="46.0137913" lon="12.0268162"><ele>981.0</ele><time>2026-04-18T10:04:35.131Z</time></trkpt><trkpt lat="46.0138621" lon="12.0269288"><ele>981.8</ele><time>2026-04-18T10:04:36.131Z</time></trkpt><trkpt lat="46.0139327" lon="12.0270399"><ele>982.5999999999999</ele><time>2026-04-18T10:04:37.131Z</time></trkpt><trkpt lat="46.0140013" lon="12.0271572"><ele>983.4</ele><time>2026-04-18T10:04:38.131Z</time></trkpt><trkpt lat="46.0140618" lon="12.0272822"><ele>984.2</ele><time>2026-04-18T10:04:39.131Z</time></trkpt><trkpt lat="46.0141181" lon="12.0274092"><ele>985.0</ele><time>2026-04-18T10:04:40.132Z</time></trkpt><trkpt lat="46.0141799" lon="12.0275325"><ele>977.4</ele><time>2026-04-18T10:04:41.131Z</time></trkpt><trkpt lat="46.0142432" lon="12.0276546"><ele>969.8</ele><time>2026-04-18T10:04:42.131Z</time></trkpt><trkpt lat="46.0143013" lon="12.0277749"><ele>962.2</ele><time>2026-04-18T10:04:43.131Z</time></trkpt><trkpt lat="46.0143574" lon="12.0279004"><ele>954.6</ele><time>2026-04-18T10:04:44.131Z</time></trkpt><trkpt lat="46.014418" lon="12.0280265"><ele>947.0</ele><time>2026-04-18T10:04:45.131Z</time></trkpt><trkpt lat="46.01448" lon="12.0281529"><ele>947.0</ele><time>2026-04-18T10:04:46.131Z</time></trkpt><trkpt lat="46.0145401" lon="12.0282753"><ele>947.0</ele><time>2026-04-18T10:04:47.131Z</time></trkpt><trkpt lat="46.0145999" lon="12.0283994"><ele>947.0</ele><time>2026-04-18T10:04:48.131Z</time></trkpt><trkpt lat="46.0146546" lon="12.0285206"><ele>947.0</ele><time>2026-04-18T10:04:49.133Z</time></trkpt><trkpt lat="46.0146941" lon="12.0286445"><ele>947.0</ele><time>2026-04-18T10:04:50.133Z</time></trkpt><trkpt lat="46.0147179" lon="12.0287735"><ele>946.0</ele><time>2026-04-18T10:04:51.131Z</time></trkpt><trkpt lat="46.0147235" lon="12.0289115"><ele>945.0</ele><time>2026-04-18T10:04:52.132Z</time></trkpt><trkpt lat="46.0147171" lon="12.0290436"><ele>944.0</ele><time>2026-04-18T10:04:53.131Z</time></trkpt><trkpt lat="46.014726" lon="12.0291758"><ele>943.0</ele><time>2026-04-18T10:04:54.131Z</time></trkpt><trkpt lat="46.0147522" lon="12.0293089"><ele>942.0</ele><time>2026-04-18T10:04:55.132Z</time></trkpt><trkpt lat="46.0147928" lon="12.029428"><ele>939.8</ele><time>2026-04-18T10:04:56.132Z</time></trkpt><trkpt lat="46.0148402" lon="12.0295457"><ele>937.6</ele><time>2026-04-18T10:04:57.131Z</time></trkpt><trkpt lat="46.0148908" lon="12.0296545"><ele>935.3999999999999</ele><time>2026-04-18T10:04:58.131Z</time></trkpt><trkpt lat="46.0149486" lon="12.0297616"><ele>933.1999999999999</ele><time>2026-04-18T10:04:59.132Z</time></trkpt><trkpt lat="46.0150141" lon="12.0298586"><ele>931.0</ele><time>2026-04-18T10:05:00.131Z</time></trkpt><trkpt lat="46.0150788" lon="12.0299455"><ele>928.4999999999999</ele><time>2026-04-18T10:05:01.132Z</time></trkpt><trkpt lat="46.0151477" lon="12.0300277"><ele>926.0</ele><time>2026-04-18T10:05:02.131Z</time></trkpt><trkpt lat="46.0152146" lon="12.0300967"><ele>923.5</ele><time>2026-04-18T10:05:03.132Z</time></trkpt><trkpt lat="46.015273" lon="12.030142"><ele>921.0</ele><time>2026-04-18T10:05:04.131Z</time></trkpt><trkpt lat="46.0153463" lon="12.0301996"><ele>918.4999999999999</ele><time>2026-04-18T10:05:06.132Z</time></trkpt><trkpt lat="46.0154169" lon="12.0302248"><ele>916.0</ele><time>2026-04-18T10:05:15.133Z</time></trkpt><trkpt lat="46.015537" lon="12.0302309"><ele>915.9999999999999</ele><time>2026-04-18T10:05:17.131Z</time></trkpt><trkpt lat="46.0156083" lon="12.0302085"><ele>916.0</ele><time>2026-04-18T10:05:18.131Z</time></trkpt><trkpt lat="46.0156863" lon="12.0301548"><ele>916.0</ele><time>2026-04-18T10:05:19.132Z</time></trkpt><trkpt lat="46.01575" lon="12.0300793"><ele>916.0</ele><time>2026-04-18T10:05:20.131Z</time></trkpt><trkpt lat="46.0157888" lon="12.0299784"><ele>915.9999999999999</ele><time>2026-04-18T10:05:21.131Z</time></trkpt><trkpt lat="46.0158063" lon="12.0298489"><ele>916.0</ele><time>2026-04-18T10:05:22.132Z</time></trkpt><trkpt lat="46.0158115" lon="12.0297171"><ele>917.4</ele><time>2026-04-18T10:05:23.132Z</time></trkpt><trkpt lat="46.0157963" lon="12.0295755"><ele>918.8</ele><time>2026-04-18T10:05:24.132Z</time></trkpt><trkpt lat="46.0157556" lon="12.0294358"><ele>920.1999999999999</ele><time>2026-04-18T10:05:25.132Z</time></trkpt><trkpt lat="46.0156969" lon="12.0293166"><ele>921.5999999999999</ele><time>2026-04-18T10:05:26.132Z</time></trkpt><trkpt lat="46.0156769" lon="12.0291999"><ele>923.0</ele><time>2026-04-18T10:05:27.132Z</time></trkpt><trkpt lat="46.0156716" lon="12.0290915"><ele>923.8</ele><time>2026-04-18T10:05:28.131Z</time></trkpt><trkpt lat="46.0156935" lon="12.0289929"><ele>924.5999999999999</ele><time>2026-04-18T10:05:29.131Z</time></trkpt><trkpt lat="46.0157377" lon="12.0289116"><ele>925.4000000000001</ele><time>2026-04-18T10:05:30.131Z</time></trkpt><trkpt lat="46.0158596" lon="12.0289141"><ele>926.2</ele><time>2026-04-18T10:05:32.131Z</time></trkpt><trkpt lat="46.0159097" lon="12.0290018"><ele>927.0</ele><time>2026-04-18T10:05:33.131Z</time></trkpt><trkpt lat="46.0159492" lon="12.0291449"><ele>921.0</ele><time>2026-04-18T10:05:34.132Z</time></trkpt><trkpt lat="46.0159829" lon="12.029315"><ele>915.0</ele><time>2026-04-18T10:05:35.131Z</time></trkpt><trkpt lat="46.0160233" lon="12.0294644"><ele>909.0</ele><time>2026-04-18T10:05:36.132Z</time></trkpt><trkpt lat="46.0160645" lon="12.0296127"><ele>903.0</ele><time>2026-04-18T10:05:37.131Z</time></trkpt><trkpt lat="46.0161132" lon="12.0297522"><ele>903.0</ele><time>2026-04-18T10:05:38.131Z</time></trkpt><trkpt lat="46.0161696" lon="12.0298814"><ele>903.0</ele><time>2026-04-18T10:05:39.132Z</time></trkpt><trkpt lat="46.0162305" lon="12.0300017"><ele>903.0</ele><time>2026-04-18T10:05:40.131Z</time></trkpt><trkpt lat="46.0162985" lon="12.0301119"><ele>903.0</ele><time>2026-04-18T10:05:41.131Z</time></trkpt><trkpt lat="46.016364" lon="12.0302146"><ele>903.0</ele><time>2026-04-18T10:05:42.131Z</time></trkpt><trkpt lat="46.0164241" lon="12.0303094"><ele>903.0</ele><time>2026-04-18T10:05:43.131Z</time></trkpt><trkpt lat="46.0164791" lon="12.0303979"><ele>903.0</ele><time>2026-04-18T10:05:44.133Z</time></trkpt><trkpt lat="46.0165328" lon="12.0304763"><ele>903.0</ele><time>2026-04-18T10:05:45.132Z</time></trkpt><trkpt lat="46.0165919" lon="12.0305395"><ele>903.0</ele><time>2026-04-18T10:05:46.131Z</time></trkpt><trkpt lat="46.0166585" lon="12.0305783"><ele>903.0</ele><time>2026-04-18T10:05:47.132Z</time></trkpt><trkpt lat="46.0167675" lon="12.0305522"><ele>903.0</ele><time>2026-04-18T10:05:49.131Z</time></trkpt><trkpt lat="46.0168369" lon="12.0305865"><ele>899.0</ele><time>2026-04-18T10:05:51.132Z</time></trkpt><trkpt lat="46.0168274" lon="12.0307653"><ele>895.0</ele><time>2026-04-18T10:05:53.132Z</time></trkpt><trkpt lat="46.0168086" lon="12.0309069"><ele>891.0</ele><time>2026-04-18T10:05:54.131Z</time></trkpt><trkpt lat="46.0167977" lon="12.0310362"><ele>887.0</ele><time>2026-04-18T10:05:55.131Z</time></trkpt><trkpt lat="46.0167861" lon="12.0311528"><ele>883.0</ele><time>2026-04-18T10:05:56.131Z</time></trkpt><trkpt lat="46.0167778" lon="12.0312575"><ele>882.9999999999999</ele><time>2026-04-18T10:05:57.132Z</time></trkpt><trkpt lat="46.0167929" lon="12.0313544"><ele>883.0</ele><time>2026-04-18T10:05:58.131Z</time></trkpt><trkpt lat="46.0168237" lon="12.0314408"><ele>883.0</ele><time>2026-04-18T10:05:59.132Z</time></trkpt><trkpt lat="46.0168634" lon="12.0315211"><ele>883.0</ele><time>2026-04-18T10:06:00.131Z</time></trkpt><trkpt lat="46.0169076" lon="12.0316035"><ele>882.9999999999999</ele><time>2026-04-18T10:06:01.132Z</time></trkpt><trkpt lat="46.0169507" lon="12.0316842"><ele>883.0</ele><time>2026-04-18T10:06:02.131Z</time></trkpt><trkpt lat="46.0170223" lon="12.0318391"><ele>882.6666666666666</ele><time>2026-04-18T10:06:04.132Z</time></trkpt><trkpt lat="46.0170746" lon="12.0319349"><ele>882.3333333333333</ele><time>2026-04-18T10:06:05.131Z</time></trkpt><trkpt lat="46.0171201" lon="12.0320244"><ele>882.0</ele><time>2026-04-18T10:06:06.131Z</time></trkpt><trkpt lat="46.0171644" lon="12.0321213"><ele>881.6666666666667</ele><time>2026-04-18T10:06:07.132Z</time></trkpt><trkpt lat="46.0172097" lon="12.0321993"><ele>881.3333333333334</ele><time>2026-04-18T10:06:08.131Z</time></trkpt><trkpt lat="46.0172572" lon="12.0322896"><ele>881.0</ele><time>2026-04-18T10:06:09.132Z</time></trkpt><trkpt lat="46.0173038" lon="12.0323801"><ele>880.0000000000001</ele><time>2026-04-18T10:06:10.132Z</time></trkpt><trkpt lat="46.0173518" lon="12.0324809"><ele>879.0</ele><time>2026-04-18T10:06:11.132Z</time></trkpt><trkpt lat="46.0174133" lon="12.0325789"><ele>878.0</ele><time>2026-04-18T10:06:12.131Z</time></trkpt><trkpt lat="46.01747" lon="12.0326703"><ele>877.0</ele><time>2026-04-18T10:06:13.131Z</time></trkpt><trkpt lat="46.0175102" lon="12.0327624"><ele>876.0000000000001</ele><time>2026-04-18T10:06:14.132Z</time></trkpt><trkpt lat="46.0175806" lon="12.032832"><ele>875.0</ele><time>2026-04-18T10:06:15.133Z</time></trkpt><trkpt lat="46.0176355" lon="12.0329012"><ele>873.5000000000001</ele><time>2026-04-18T10:06:16.131Z</time></trkpt><trkpt lat="46.0176894" lon="12.0329683"><ele>872.0</ele><time>2026-04-18T10:06:17.131Z</time></trkpt><trkpt lat="46.0177383" lon="12.0330328"><ele>870.5</ele><time>2026-04-18T10:06:18.132Z</time></trkpt><trkpt lat="46.0177917" lon="12.0330862"><ele>869.0</ele><time>2026-04-18T10:06:19.131Z</time></trkpt><trkpt lat="46.0178984" lon="12.0331619"><ele>867.5000000000001</ele><time>2026-04-18T10:06:21.132Z</time></trkpt><trkpt lat="46.0179999" lon="12.0332105"><ele>866.0</ele><time>2026-04-18T10:06:23.131Z</time></trkpt><trkpt lat="46.0180645" lon="12.0332851"><ele>865.5000000000001</ele><time>2026-04-18T10:06:25.132Z</time></trkpt><trkpt lat="46.0180838" lon="12.0334321"><ele>865.0</ele><time>2026-04-18T10:06:27.132Z</time></trkpt><trkpt lat="46.0180655" lon="12.0335217"><ele>864.5</ele><time>2026-04-18T10:06:28.132Z</time></trkpt><trkpt lat="46.0180347" lon="12.0336342"><ele>864.0</ele><time>2026-04-18T10:06:29.131Z</time></trkpt><trkpt lat="46.0180148" lon="12.0337483"><ele>863.5000000000001</ele><time>2026-04-18T10:06:30.131Z</time></trkpt><trkpt lat="46.0180005" lon="12.0338555"><ele>863.0</ele><time>2026-04-18T10:06:31.131Z</time></trkpt><trkpt lat="46.0179849" lon="12.0339576"><ele>863.0</ele><time>2026-04-18T10:06:32.132Z</time></trkpt><trkpt lat="46.0179625" lon="12.0340554"><ele>863.0</ele><time>2026-04-18T10:06:33.131Z</time></trkpt><trkpt lat="46.0179264" lon="12.0341753"><ele>863.0</ele><time>2026-04-18T10:06:34.131Z</time></trkpt><trkpt lat="46.0178814" lon="12.0342894"><ele>863.0</ele><time>2026-04-18T10:06:35.132Z</time></trkpt><trkpt lat="46.0178393" lon="12.0344384"><ele>863.0</ele><time>2026-04-18T10:06:36.131Z</time></trkpt><trkpt lat="46.0178021" lon="12.0345776"><ele>861.8</ele><time>2026-04-18T10:06:37.132Z</time></trkpt><trkpt lat="46.0177517" lon="12.0347023"><ele>860.5999999999999</ele><time>2026-04-18T10:06:38.131Z</time></trkpt><trkpt lat="46.0177109" lon="12.0348073"><ele>859.4000000000001</ele><time>2026-04-18T10:06:39.131Z</time></trkpt><trkpt lat="46.0176793" lon="12.034929"><ele>858.2</ele><time>2026-04-18T10:06:40.131Z</time></trkpt><trkpt lat="46.0176601" lon="12.0350558"><ele>857.0</ele><time>2026-04-18T10:06:41.131Z</time></trkpt><trkpt lat="46.0176701" lon="12.0351842"><ele>855.8</ele><time>2026-04-18T10:06:42.131Z</time></trkpt><trkpt lat="46.0176781" lon="12.0352869"><ele>854.6</ele><time>2026-04-18T10:06:43.131Z</time></trkpt><trkpt lat="46.0176865" lon="12.0353874"><ele>853.4</ele><time>2026-04-18T10:06:44.132Z</time></trkpt><trkpt lat="46.0176612" lon="12.0355568"><ele>852.1999999999999</ele><time>2026-04-18T10:06:46.131Z</time></trkpt><trkpt lat="46.0175852" lon="12.0357105"><ele>851.0</ele><time>2026-04-18T10:06:48.131Z</time></trkpt><trkpt lat="46.0175314" lon="12.0357686"><ele>849.5000000000001</ele><time>2026-04-18T10:06:49.131Z</time></trkpt><trkpt lat="46.0174654" lon="12.035809"><ele>848.0</ele><time>2026-04-18T10:06:50.133Z</time></trkpt><trkpt lat="46.0173931" lon="12.0358381"><ele>846.5</ele><time>2026-04-18T10:06:51.132Z</time></trkpt><trkpt lat="46.0173196" lon="12.0358669"><ele>845.0</ele><time>2026-04-18T10:06:52.132Z</time></trkpt><trkpt lat="46.0172491" lon="12.0358934"><ele>843.5000000000001</ele><time>2026-04-18T10:06:53.132Z</time></trkpt><trkpt lat="46.0171769" lon="12.03592"><ele>842.0</ele><time>2026-04-18T10:06:54.131Z</time></trkpt><trkpt lat="46.0170657" lon="12.0359897"><ele>842.0000000000001</ele><time>2026-04-18T10:06:56.132Z</time></trkpt><trkpt lat="46.017011" lon="12.0360405"><ele>842.0</ele><time>2026-04-18T10:06:57.131Z</time></trkpt><trkpt lat="46.0169567" lon="12.0360961"><ele>842.0</ele><time>2026-04-18T10:06:58.132Z</time></trkpt><trkpt lat="46.0169022" lon="12.0361463"><ele>842.0</ele><time>2026-04-18T10:06:59.131Z</time></trkpt><trkpt lat="46.016806" lon="12.0362237"><ele>842.0000000000001</ele><time>2026-04-18T10:07:01.132Z</time></trkpt><trkpt lat="46.0167152" lon="12.0362655"><ele>842.0</ele><time>2026-04-18T10:07:03.131Z</time></trkpt><trkpt lat="46.0166476" lon="12.0363246"><ele>842.0</ele><time>2026-04-18T10:07:05.131Z</time></trkpt><trkpt lat="46.0166345" lon="12.0364298"><ele>842.0</ele><time>2026-04-18T10:07:07.131Z</time></trkpt><trkpt lat="46.016684" lon="12.0365838"><ele>842.0</ele><time>2026-04-18T10:07:09.131Z</time></trkpt><trkpt lat="46.0167473" lon="12.0367159"><ele>842.0</ele><time>2026-04-18T10:07:11.131Z</time></trkpt><trkpt lat="46.0168258" lon="12.0368104"><ele>842.0</ele><time>2026-04-18T10:07:13.132Z</time></trkpt><trkpt lat="46.0169045" lon="12.0368828"><ele>839.8</ele><time>2026-04-18T10:07:15.132Z</time></trkpt><trkpt lat="46.0169911" lon="12.0369649"><ele>837.6</ele><time>2026-04-18T10:07:17.133Z</time></trkpt><trkpt lat="46.0170709" lon="12.0370589"><ele>835.4</ele><time>2026-04-18T10:07:19.132Z</time></trkpt><trkpt lat="46.0171497" lon="12.0371668"><ele>833.1999999999999</ele><time>2026-04-18T10:07:21.132Z</time></trkpt><trkpt lat="46.0172281" lon="12.0372887"><ele>831.0</ele><time>2026-04-18T10:07:23.131Z</time></trkpt><trkpt lat="46.0172778" lon="12.0373447"><ele>831.0</ele><time>2026-04-18T10:07:24.131Z</time></trkpt><trkpt lat="46.0173841" lon="12.0374366"><ele>831.0</ele><time>2026-04-18T10:07:26.132Z</time></trkpt><trkpt lat="46.0174875" lon="12.0375205"><ele>831.0</ele><time>2026-04-18T10:07:28.132Z</time></trkpt><trkpt lat="46.0175874" lon="12.0375713"><ele>831.0</ele><time>2026-04-18T10:07:30.132Z</time></trkpt><trkpt lat="46.0176924" lon="12.0375802"><ele>828.0</ele><time>2026-04-18T10:07:32.132Z</time></trkpt><trkpt lat="46.0177944" lon="12.0375591"><ele>825.0</ele><time>2026-04-18T10:07:34.132Z</time></trkpt><trkpt lat="46.0178865" lon="12.0375522"><ele>822.0</ele><time>2026-04-18T10:07:36.131Z</time></trkpt><trkpt lat="46.0179528" lon="12.0375808"><ele>819.0</ele><time>2026-04-18T10:07:38.131Z</time></trkpt><trkpt lat="46.018" lon="12.0376804"><ele>816.0</ele><time>2026-04-18T10:07:45.132Z</time></trkpt><trkpt lat="46.0179161" lon="12.037733"><ele>813.0</ele><time>2026-04-18T10:07:48.131Z</time></trkpt><trkpt lat="46.0178293" lon="12.0377619"><ele>813.0</ele><time>2026-04-18T10:07:50.131Z</time></trkpt><trkpt lat="46.0177055" lon="12.0377986"><ele>813.0</ele><time>2026-04-18T10:07:52.131Z</time></trkpt><trkpt lat="46.0176319" lon="12.0378232"><ele>813.0</ele><time>2026-04-18T10:07:53.131Z</time></trkpt><trkpt lat="46.0175536" lon="12.0378527"><ele>813.0</ele><time>2026-04-18T10:07:54.131Z</time></trkpt><trkpt lat="46.0174779" lon="12.0378756"><ele>813.0</ele><time>2026-04-18T10:07:55.131Z</time></trkpt><trkpt lat="46.0174058" lon="12.037897"><ele>813.0</ele><time>2026-04-18T10:07:56.132Z</time></trkpt><trkpt lat="46.0173402" lon="12.0379175"><ele>813.2</ele><time>2026-04-18T10:07:57.131Z</time></trkpt><trkpt lat="46.0172216" lon="12.0379513"><ele>813.4</ele><time>2026-04-18T10:07:59.132Z</time></trkpt><trkpt lat="46.0170987" lon="12.0379793"><ele>813.6</ele><time>2026-04-18T10:08:01.131Z</time></trkpt><trkpt lat="46.0170335" lon="12.0379886"><ele>813.8000000000001</ele><time>2026-04-18T10:08:02.132Z</time></trkpt><trkpt lat="46.01695" lon="12.0379892"><ele>814.0</ele><time>2026-04-18T10:08:03.131Z</time></trkpt><trkpt lat="46.0168551" lon="12.0379883"><ele>814.0000000000001</ele><time>2026-04-18T10:08:04.131Z</time></trkpt><trkpt lat="46.0167704" lon="12.0379801"><ele>814.0</ele><time>2026-04-18T10:08:05.133Z</time></trkpt><trkpt lat="46.0166953" lon="12.0379756"><ele>814.0</ele><time>2026-04-18T10:08:06.131Z</time></trkpt><trkpt lat="46.0166277" lon="12.0379688"><ele>814.0</ele><time>2026-04-18T10:08:07.132Z</time></trkpt><trkpt lat="46.0165553" lon="12.0379455"><ele>814.0</ele><time>2026-04-18T10:08:08.132Z</time></trkpt><trkpt lat="46.0164924" lon="12.0379392"><ele>814.0000000000001</ele><time>2026-04-18T10:08:09.131Z</time></trkpt><trkpt lat="46.0164273" lon="12.0379215"><ele>814.0</ele><time>2026-04-18T10:08:10.131Z</time></trkpt><trkpt lat="46.0163574" lon="12.0379123"><ele>812.1666666666666</ele><time>2026-04-18T10:08:11.133Z</time></trkpt><trkpt lat="46.016285" lon="12.0379057"><ele>810.3333333333333</ele><time>2026-04-18T10:08:12.131Z</time></trkpt><trkpt lat="46.016216" lon="12.0379095"><ele>808.5</ele><time>2026-04-18T10:08:13.132Z</time></trkpt><trkpt lat="46.0161506" lon="12.0379074"><ele>806.6666666666667</ele><time>2026-04-18T10:08:14.131Z</time></trkpt><trkpt lat="46.0160843" lon="12.0379048"><ele>804.8333333333334</ele><time>2026-04-18T10:08:15.132Z</time></trkpt><trkpt lat="46.0159643" lon="12.0378818"><ele>803.0</ele><time>2026-04-18T10:08:17.133Z</time></trkpt><trkpt lat="46.0158419" lon="12.0378116"><ele>801.1428571428571</ele><time>2026-04-18T10:08:19.132Z</time></trkpt><trkpt lat="46.0157833" lon="12.0377532"><ele>799.2857142857142</ele><time>2026-04-18T10:08:20.131Z</time></trkpt><trkpt lat="46.0157204" lon="12.0377056"><ele>797.4285714285713</ele><time>2026-04-18T10:08:21.132Z</time></trkpt><trkpt lat="46.0156562" lon="12.0376777"><ele>795.5714285714286</ele><time>2026-04-18T10:08:22.132Z</time></trkpt><trkpt lat="46.0155815" lon="12.0376415"><ele>793.7142857142858</ele><time>2026-04-18T10:08:23.131Z</time></trkpt><trkpt lat="46.015506" lon="12.0376216"><ele>791.8571428571428</ele><time>2026-04-18T10:08:24.132Z</time></trkpt><trkpt lat="46.0154313" lon="12.037618"><ele>790.0</ele><time>2026-04-18T10:08:25.131Z</time></trkpt><trkpt lat="46.0153717" lon="12.037582"><ele>790.0</ele><time>2026-04-18T10:08:26.132Z</time></trkpt><trkpt lat="46.0153023" lon="12.037548"><ele>790.0</ele><time>2026-04-18T10:08:27.132Z</time></trkpt><trkpt lat="46.0152286" lon="12.0375228"><ele>790.0</ele><time>2026-04-18T10:08:28.132Z</time></trkpt><trkpt lat="46.0151292" lon="12.0374844"><ele>790.0</ele><time>2026-04-18T10:08:29.132Z</time></trkpt><trkpt lat="46.0150465" lon="12.0374187"><ele>790.0</ele><time>2026-04-18T10:08:30.132Z</time></trkpt><trkpt lat="46.0149546" lon="12.0373476"><ele>790.1666666666666</ele><time>2026-04-18T10:08:31.131Z</time></trkpt><trkpt lat="46.0148867" lon="12.0372649"><ele>790.3333333333333</ele><time>2026-04-18T10:08:32.132Z</time></trkpt><trkpt lat="46.0147953" lon="12.0371914"><ele>790.5</ele><time>2026-04-18T10:08:33.132Z</time></trkpt><trkpt lat="46.0147142" lon="12.0371461"><ele>790.6666666666667</ele><time>2026-04-18T10:08:34.133Z</time></trkpt><trkpt lat="46.014648" lon="12.0370953"><ele>790.8333333333334</ele><time>2026-04-18T10:08:35.133Z</time></trkpt><trkpt lat="46.0145852" lon="12.0370392"><ele>791.0</ele><time>2026-04-18T10:08:36.132Z</time></trkpt><trkpt lat="46.0144815" lon="12.0369811"><ele>791.0000000000001</ele><time>2026-04-18T10:08:38.131Z</time></trkpt><trkpt lat="46.0144248" lon="12.0369296"><ele>791.0</ele><time>2026-04-18T10:08:39.132Z</time></trkpt><trkpt lat="46.0143763" lon="12.0368658"><ele>791.0</ele><time>2026-04-18T10:08:40.132Z</time></trkpt><trkpt lat="46.0142798" lon="12.036742"><ele>791.0</ele><time>2026-04-18T10:08:42.131Z</time></trkpt><trkpt lat="46.0142499" lon="12.0366452"><ele>791.0000000000001</ele><time>2026-04-18T10:08:43.132Z</time></trkpt><trkpt lat="46.0142129" lon="12.0365525"><ele>791.0</ele><time>2026-04-18T10:08:44.131Z</time></trkpt><trkpt lat="46.0142484" lon="12.0364156"><ele>793.0</ele><time>2026-04-18T10:08:45.131Z</time></trkpt><trkpt lat="46.0142344" lon="12.0362704"><ele>795.0</ele><time>2026-04-18T10:08:46.131Z</time></trkpt><trkpt lat="46.0142337" lon="12.0361211"><ele>797.0</ele><time>2026-04-18T10:08:47.131Z</time></trkpt><trkpt lat="46.014226" lon="12.0359597"><ele>799.0</ele><time>2026-04-18T10:08:48.131Z</time></trkpt><trkpt lat="46.0142201" lon="12.0357984"><ele>801.0</ele><time>2026-04-18T10:08:49.132Z</time></trkpt><trkpt lat="46.0142164" lon="12.0356686"><ele>801.6666666666666</ele><time>2026-04-18T10:08:50.132Z</time></trkpt><trkpt lat="46.0142113" lon="12.0355368"><ele>802.3333333333333</ele><time>2026-04-18T10:08:51.133Z</time></trkpt><trkpt lat="46.0141763" lon="12.0354269"><ele>803.0</ele><time>2026-04-18T10:08:52.131Z</time></trkpt><trkpt lat="46.0141589" lon="12.0352829"><ele>803.6666666666666</ele><time>2026-04-18T10:08:53.131Z</time></trkpt><trkpt lat="46.0141419" lon="12.0351495"><ele>804.3333333333333</ele><time>2026-04-18T10:08:54.131Z</time></trkpt><trkpt lat="46.0141087" lon="12.0350651"><ele>805.0</ele><time>2026-04-18T10:08:55.131Z</time></trkpt><trkpt lat="46.0140689" lon="12.0349576"><ele>794.2</ele><time>2026-04-18T10:08:56.131Z</time></trkpt><trkpt lat="46.0140412" lon="12.0348487"><ele>783.4</ele><time>2026-04-18T10:08:57.131Z</time></trkpt><trkpt lat="46.0140138" lon="12.0347659"><ele>772.5999999999999</ele><time>2026-04-18T10:08:58.131Z</time></trkpt><trkpt lat="46.0140278" lon="12.034623"><ele>761.8</ele><time>2026-04-18T10:09:00.131Z</time></trkpt><trkpt lat="46.0140289" lon="12.0344144"><ele>751.0</ele><time>2026-04-18T10:09:02.131Z</time></trkpt><trkpt lat="46.0140432" lon="12.0342909"><ele>751.0</ele><time>2026-04-18T10:09:03.132Z</time></trkpt><trkpt lat="46.0140603" lon="12.0341802"><ele>751.0</ele><time>2026-04-18T10:09:04.132Z</time></trkpt><trkpt lat="46.0140629" lon="12.0340701"><ele>751.0</ele><time>2026-04-18T10:09:05.132Z</time></trkpt><trkpt lat="46.0140729" lon="12.0339639"><ele>751.0</ele><time>2026-04-18T10:09:06.131Z</time></trkpt><trkpt lat="46.0140112" lon="12.0338866"><ele>751.0</ele><time>2026-04-18T10:09:07.132Z</time></trkpt><trkpt lat="46.0139447" lon="12.0337362"><ele>751.0</ele><time>2026-04-18T10:09:09.132Z</time></trkpt><trkpt lat="46.0139171" lon="12.0336508"><ele>753.8333333333334</ele><time>2026-04-18T10:09:10.132Z</time></trkpt><trkpt lat="46.0139227" lon="12.0335498"><ele>756.6666666666667</ele><time>2026-04-18T10:09:11.132Z</time></trkpt><trkpt lat="46.0139186" lon="12.0334546"><ele>759.5</ele><time>2026-04-18T10:09:12.131Z</time></trkpt><trkpt lat="46.0139239" lon="12.0332932"><ele>762.3333333333334</ele><time>2026-04-18T10:09:14.131Z</time></trkpt><trkpt lat="46.0138775" lon="12.0331865"><ele>765.1666666666666</ele><time>2026-04-18T10:09:15.131Z</time></trkpt><trkpt lat="46.01382" lon="12.033113"><ele>768.0</ele><time>2026-04-18T10:09:16.131Z</time></trkpt><trkpt lat="46.0137761" lon="12.0330342"><ele>772.8333333333334</ele><time>2026-04-18T10:09:17.13Z</time></trkpt><trkpt lat="46.0137528" lon="12.0329369"><ele>777.6666666666667</ele><time>2026-04-18T10:09:18.131Z</time></trkpt><trkpt lat="46.0137378" lon="12.0328084"><ele>782.5</ele><time>2026-04-18T10:09:19.13Z</time></trkpt><trkpt lat="46.0137545" lon="12.0326817"><ele>787.3333333333334</ele><time>2026-04-18T10:09:20.13Z</time></trkpt><trkpt lat="46.0137483" lon="12.0325252"><ele>792.1666666666667</ele><time>2026-04-18T10:09:22.13Z</time></trkpt><trkpt lat="46.0136965" lon="12.032471"><ele>797.0</ele><time>2026-04-18T10:09:23.13Z</time></trkpt><trkpt lat="46.0135994" lon="12.0324289"><ele>794.8333333333334</ele><time>2026-04-18T10:09:25.13Z</time></trkpt><trkpt lat="46.0134921" lon="12.0323723"><ele>792.6666666666667</ele><time>2026-04-18T10:09:27.131Z</time></trkpt><trkpt lat="46.0134223" lon="12.032337"><ele>790.5</ele><time>2026-04-18T10:09:28.131Z</time></trkpt><trkpt lat="46.0133844" lon="12.0322404"><ele>788.3333333333333</ele><time>2026-04-18T10:09:29.13Z</time></trkpt><trkpt lat="46.0133374" lon="12.0321688"><ele>786.1666666666666</ele><time>2026-04-18T10:09:30.13Z</time></trkpt><trkpt lat="46.0133044" lon="12.0320702"><ele>784.0</ele><time>2026-04-18T10:09:31.13Z</time></trkpt><trkpt lat="46.0132586" lon="12.0319983"><ele>784.0</ele><time>2026-04-18T10:09:32.13Z</time></trkpt><trkpt lat="46.0131847" lon="12.0320168"><ele>784.0</ele><time>2026-04-18T10:09:33.131Z</time></trkpt><trkpt lat="46.0130671" lon="12.032003"><ele>784.0</ele><time>2026-04-18T10:09:35.131Z</time></trkpt><trkpt lat="46.0129616" lon="12.0319831"><ele>784.0</ele><time>2026-04-18T10:09:37.13Z</time></trkpt><trkpt lat="46.0129007" lon="12.0318854"><ele>784.0</ele><time>2026-04-18T10:09:39.13Z</time></trkpt><trkpt lat="46.0128772" lon="12.0316834"><ele>789.3333333333333</ele><time>2026-04-18T10:09:41.13Z</time></trkpt><trkpt lat="46.0128541" lon="12.0315867"><ele>794.6666666666666</ele><time>2026-04-18T10:09:42.13Z</time></trkpt><trkpt lat="46.0128231" lon="12.0314817"><ele>800.0</ele><time>2026-04-18T10:09:43.13Z</time></trkpt><trkpt lat="46.0127951" lon="12.0313881"><ele>805.3333333333333</ele><time>2026-04-18T10:09:44.13Z</time></trkpt><trkpt lat="46.0127584" lon="12.0312877"><ele>810.6666666666666</ele><time>2026-04-18T10:09:45.13Z</time></trkpt><trkpt lat="46.0127222" lon="12.0311693"><ele>816.0</ele><time>2026-04-18T10:09:47.132Z</time></trkpt><trkpt lat="46.0126489" lon="12.0311116"><ele>816.0</ele><time>2026-04-18T10:09:49.13Z</time></trkpt><trkpt lat="46.0125289" lon="12.0310863"><ele>816.0</ele><time>2026-04-18T10:09:51.131Z</time></trkpt><trkpt lat="46.0124157" lon="12.0310364"><ele>816.0</ele><time>2026-04-18T10:09:53.13Z</time></trkpt><trkpt lat="46.0123396" lon="12.0308876"><ele>816.0</ele><time>2026-04-18T10:09:55.13Z</time></trkpt><trkpt lat="46.0122909" lon="12.0308265"><ele>816.0</ele><time>2026-04-18T10:09:56.131Z</time></trkpt><trkpt lat="46.0122036" lon="12.0308208"><ele>818.1666666666666</ele><time>2026-04-18T10:09:58.13Z</time></trkpt><trkpt lat="46.0121417" lon="12.0307561"><ele>820.3333333333333</ele><time>2026-04-18T10:09:59.13Z</time></trkpt><trkpt lat="46.0120586" lon="12.0306518"><ele>822.5</ele><time>2026-04-18T10:10:01.13Z</time></trkpt><trkpt lat="46.0120046" lon="12.0305474"><ele>824.6666666666666</ele><time>2026-04-18T10:10:03.13Z</time></trkpt><trkpt lat="46.0119355" lon="12.0305137"><ele>826.8333333333333</ele><time>2026-04-18T10:10:05.13Z</time></trkpt><trkpt lat="46.0118782" lon="12.0305578"><ele>829.0</ele><time>2026-04-18T10:10:07.132Z</time></trkpt><trkpt lat="46.0118226" lon="12.0306289"><ele>829.0</ele><time>2026-04-18T10:10:09.131Z</time></trkpt><trkpt lat="46.0117553" lon="12.0306786"><ele>829.0</ele><time>2026-04-18T10:10:11.13Z</time></trkpt><trkpt lat="46.0116426" lon="12.0306478"><ele>829.0</ele><time>2026-04-18T10:10:13.132Z</time></trkpt><trkpt lat="46.0115741" lon="12.03063"><ele>829.0</ele><time>2026-04-18T10:10:14.132Z</time></trkpt><trkpt lat="46.0114949" lon="12.0305608"><ele>829.0</ele><time>2026-04-18T10:10:15.131Z</time></trkpt><trkpt lat="46.0113912" lon="12.0305202"><ele>829.2</ele><time>2026-04-18T10:10:17.13Z</time></trkpt><trkpt lat="46.0113088" lon="12.0305194"><ele>829.4000000000001</ele><time>2026-04-18T10:10:18.131Z</time></trkpt><trkpt lat="46.0112481" lon="12.0306349"><ele>829.6</ele><time>2026-04-18T10:10:19.13Z</time></trkpt><trkpt lat="46.0111069" lon="12.0307148"><ele>829.8</ele><time>2026-04-18T10:10:20.131Z</time></trkpt><trkpt lat="46.0110221" lon="12.030791"><ele>830.0</ele><time>2026-04-18T10:10:21.13Z</time></trkpt><trkpt lat="46.0109377" lon="12.0308477"><ele>825.1666666666667</ele><time>2026-04-18T10:10:22.131Z</time></trkpt><trkpt lat="46.0108647" lon="12.0308679"><ele>820.3333333333334</ele><time>2026-04-18T10:10:23.13Z</time></trkpt><trkpt lat="46.0107932" lon="12.0308969"><ele>815.5</ele><time>2026-04-18T10:10:24.132Z</time></trkpt><trkpt lat="46.0107131" lon="12.0309157"><ele>810.6666666666667</ele><time>2026-04-18T10:10:25.13Z</time></trkpt><trkpt lat="46.0106458" lon="12.0309309"><ele>805.8333333333334</ele><time>2026-04-18T10:10:26.13Z</time></trkpt><trkpt lat="46.0105818" lon="12.0309481"><ele>801.0</ele><time>2026-04-18T10:10:27.13Z</time></trkpt><trkpt lat="46.0104676" lon="12.0309555"><ele>798.5999999999999</ele><time>2026-04-18T10:10:29.131Z</time></trkpt><trkpt lat="46.0103513" lon="12.0309424"><ele>796.2</ele><time>2026-04-18T10:10:31.13Z</time></trkpt><trkpt lat="46.0102609" lon="12.0308887"><ele>793.8</ele><time>2026-04-18T10:10:33.131Z</time></trkpt><trkpt lat="46.0101879" lon="12.0307961"><ele>791.4000000000001</ele><time>2026-04-18T10:10:35.131Z</time></trkpt><trkpt lat="46.0101427" lon="12.030722"><ele>789.0</ele><time>2026-04-18T10:10:36.131Z</time></trkpt><trkpt lat="46.0100952" lon="12.0306408"><ele>793.4000000000001</ele><time>2026-04-18T10:10:37.13Z</time></trkpt><trkpt lat="46.0100314" lon="12.0305774"><ele>797.8</ele><time>2026-04-18T10:10:38.13Z</time></trkpt><trkpt lat="46.0099713" lon="12.0305256"><ele>802.2</ele><time>2026-04-18T10:10:39.131Z</time></trkpt><trkpt lat="46.0099129" lon="12.0304805"><ele>806.5999999999999</ele><time>2026-04-18T10:10:40.13Z</time></trkpt><trkpt lat="46.0097948" lon="12.0304029"><ele>811.0</ele><time>2026-04-18T10:10:42.131Z</time></trkpt><trkpt lat="46.0096734" lon="12.0304316"><ele>811.0</ele><time>2026-04-18T10:10:44.13Z</time></trkpt><trkpt lat="46.0096071" lon="12.0304467"><ele>811.0</ele><time>2026-04-18T10:10:45.13Z</time></trkpt><trkpt lat="46.0094918" lon="12.0304835"><ele>811.0</ele><time>2026-04-18T10:10:47.131Z</time></trkpt><trkpt lat="46.0093872" lon="12.0304691"><ele>811.0</ele><time>2026-04-18T10:10:49.131Z</time></trkpt><trkpt lat="46.009268" lon="12.0303977"><ele>811.0</ele><time>2026-04-18T10:10:51.13Z</time></trkpt><trkpt lat="46.0092036" lon="12.0303622"><ele>810.1666666666666</ele><time>2026-04-18T10:10:52.13Z</time></trkpt><trkpt lat="46.0091362" lon="12.0303443"><ele>809.3333333333333</ele><time>2026-04-18T10:10:53.13Z</time></trkpt><trkpt lat="46.0090658" lon="12.0303232"><ele>808.5</ele><time>2026-04-18T10:10:54.13Z</time></trkpt><trkpt lat="46.0089938" lon="12.0302941"><ele>807.6666666666667</ele><time>2026-04-18T10:10:55.13Z</time></trkpt><trkpt lat="46.0089193" lon="12.0302567"><ele>806.8333333333334</ele><time>2026-04-18T10:10:56.13Z</time></trkpt><trkpt lat="46.008848" lon="12.0302394"><ele>806.0</ele><time>2026-04-18T10:10:57.13Z</time></trkpt><trkpt lat="46.008719" lon="12.0302136"><ele>806.0</ele><time>2026-04-18T10:10:59.131Z</time></trkpt><trkpt lat="46.0086105" lon="12.030171"><ele>806.0</ele><time>2026-04-18T10:11:01.131Z</time></trkpt><trkpt lat="46.0085098" lon="12.0301685"><ele>806.0</ele><time>2026-04-18T10:11:03.13Z</time></trkpt><trkpt lat="46.0084312" lon="12.0302297"><ele>806.0</ele><time>2026-04-18T10:11:05.131Z</time></trkpt><trkpt lat="46.0084174" lon="12.0303726"><ele>806.0</ele><time>2026-04-18T10:11:07.131Z</time></trkpt><trkpt lat="46.0083726" lon="12.030526"><ele>808.0</ele><time>2026-04-18T10:11:09.13Z</time></trkpt><trkpt lat="46.0082963" lon="12.0306539"><ele>810.0</ele><time>2026-04-18T10:11:11.131Z</time></trkpt><trkpt lat="46.0082007" lon="12.0307438"><ele>812.0</ele><time>2026-04-18T10:11:13.13Z</time></trkpt><trkpt lat="46.0080814" lon="12.0307205"><ele>814.0</ele><time>2026-04-18T10:11:15.131Z</time></trkpt><trkpt lat="46.0080172" lon="12.030694"><ele>816.0</ele><time>2026-04-18T10:11:16.13Z</time></trkpt><trkpt lat="46.0079533" lon="12.0306796"><ele>816.0</ele><time>2026-04-18T10:11:17.131Z</time></trkpt><trkpt lat="46.0078889" lon="12.0306814"><ele>816.0</ele><time>2026-04-18T10:11:18.131Z</time></trkpt><trkpt lat="46.0077736" lon="12.030727"><ele>816.0</ele><time>2026-04-18T10:11:20.13Z</time></trkpt><trkpt lat="46.0077285" lon="12.0307947"><ele>816.0</ele><time>2026-04-18T10:11:21.13Z</time></trkpt><trkpt lat="46.0076689" lon="12.0308573"><ele>816.0</ele><time>2026-04-18T10:11:22.131Z</time></trkpt><trkpt lat="46.0075836" lon="12.0309662"><ele>816.0</ele><time>2026-04-18T10:11:24.13Z</time></trkpt><trkpt lat="46.0074662" lon="12.0310772"><ele>809.0</ele><time>2026-04-18T10:11:26.13Z</time></trkpt><trkpt lat="46.0073891" lon="12.0311253"><ele>802.0</ele><time>2026-04-18T10:11:27.13Z</time></trkpt><trkpt lat="46.0072827" lon="12.0311455"><ele>795.0</ele><time>2026-04-18T10:11:28.13Z</time></trkpt><trkpt lat="46.007207" lon="12.0311647"><ele>788.0</ele><time>2026-04-18T10:11:29.13Z</time></trkpt><trkpt lat="46.0071392" lon="12.0311939"><ele>781.0</ele><time>2026-04-18T10:11:30.131Z</time></trkpt><trkpt lat="46.0070431" lon="12.031174"><ele>774.0</ele><time>2026-04-18T10:11:32.131Z</time></trkpt><trkpt lat="46.0069489" lon="12.031147"><ele>774.0</ele><time>2026-04-18T10:11:34.13Z</time></trkpt><trkpt lat="46.0068794" lon="12.0311058"><ele>774.0</ele><time>2026-04-18T10:11:35.131Z</time></trkpt><trkpt lat="46.0067655" lon="12.0310465"><ele>774.0</ele><time>2026-04-18T10:11:37.13Z</time></trkpt><trkpt lat="46.0066491" lon="12.0310272"><ele>774.0</ele><time>2026-04-18T10:11:39.13Z</time></trkpt><trkpt lat="46.0065341" lon="12.0310049"><ele>774.0</ele><time>2026-04-18T10:11:41.13Z</time></trkpt><trkpt lat="46.00642" lon="12.0309878"><ele>771.6</ele><time>2026-04-18T10:11:43.13Z</time></trkpt><trkpt lat="46.006353" lon="12.0309597"><ele>769.2</ele><time>2026-04-18T10:11:44.131Z</time></trkpt><trkpt lat="46.0062378" lon="12.0309294"><ele>766.8000000000001</ele><time>2026-04-18T10:11:46.132Z</time></trkpt><trkpt lat="46.0061514" lon="12.0308513"><ele>764.4000000000001</ele><time>2026-04-18T10:11:48.13Z</time></trkpt><trkpt lat="46.0061" lon="12.0307379"><ele>762.0</ele><time>2026-04-18T10:11:50.13Z</time></trkpt><trkpt lat="46.0060368" lon="12.0306156"><ele>762.0</ele><time>2026-04-18T10:11:52.13Z</time></trkpt><trkpt lat="46.0059561" lon="12.0304769"><ele>762.0</ele><time>2026-04-18T10:11:54.131Z</time></trkpt><trkpt lat="46.0059191" lon="12.0304012"><ele>762.0</ele><time>2026-04-18T10:11:55.13Z</time></trkpt><trkpt lat="46.0058545" lon="12.0302483"><ele>762.0</ele><time>2026-04-18T10:11:57.131Z</time></trkpt><trkpt lat="46.0057789" lon="12.0301414"><ele>762.0</ele><time>2026-04-18T10:11:59.131Z</time></trkpt><trkpt lat="46.0056792" lon="12.0300088"><ele>772.6</ele><time>2026-04-18T10:12:01.131Z</time></trkpt><trkpt lat="46.0056125" lon="12.0298968"><ele>783.2</ele><time>2026-04-18T10:12:03.131Z</time></trkpt><trkpt lat="46.0055801" lon="12.0298016"><ele>793.8</ele><time>2026-04-18T10:12:06.131Z</time></trkpt><trkpt lat="46.0054718" lon="12.0298185"><ele>804.4</ele><time>2026-04-18T10:12:08.131Z</time></trkpt><trkpt lat="46.0054186" lon="12.0298701"><ele>815.0</ele><time>2026-04-18T10:12:09.131Z</time></trkpt><trkpt lat="46.0053245" lon="12.0299319"><ele>810.5000000000001</ele><time>2026-04-18T10:12:11.13Z</time></trkpt><trkpt lat="46.0053129" lon="12.0300389"><ele>806.0</ele><time>2026-04-18T10:12:14.131Z</time></trkpt><trkpt lat="46.0052605" lon="12.0301481"><ele>801.5</ele><time>2026-04-18T10:13:36.13Z</time></trkpt><trkpt lat="46.0051715" lon="12.0302058"><ele>797.0</ele><time>2026-04-18T10:13:39.131Z</time></trkpt><trkpt lat="46.0050601" lon="12.0302302"><ele>792.5000000000001</ele><time>2026-04-18T10:13:41.13Z</time></trkpt><trkpt lat="46.0049989" lon="12.0302761"><ele>788.0</ele><time>2026-04-18T10:13:42.131Z</time></trkpt><trkpt lat="46.0049295" lon="12.0303451"><ele>788.0000000000001</ele><time>2026-04-18T10:13:43.132Z</time></trkpt><trkpt lat="46.0048613" lon="12.0304078"><ele>788.0</ele><time>2026-04-18T10:13:44.131Z</time></trkpt><trkpt lat="46.004805" lon="12.0304888"><ele>788.0</ele><time>2026-04-18T10:13:46.131Z</time></trkpt><trkpt lat="46.0047273" lon="12.0305139"><ele>788.0</ele><time>2026-04-18T10:13:47.131Z</time></trkpt><trkpt lat="46.0046519" lon="12.0305519"><ele>788.0000000000001</ele><time>2026-04-18T10:13:48.129Z</time></trkpt><trkpt lat="46.004564" lon="12.0305671"><ele>788.0</ele><time>2026-04-18T10:13:49.129Z</time></trkpt><trkpt lat="46.0044958" lon="12.0306075"><ele>788.0000000000001</ele><time>2026-04-18T10:13:50.13Z</time></trkpt><trkpt lat="46.0044118" lon="12.0306454"><ele>788.0</ele><time>2026-04-18T10:13:51.13Z</time></trkpt><trkpt lat="46.0043183" lon="12.0306866"><ele>788.0</ele><time>2026-04-18T10:13:52.129Z</time></trkpt><trkpt lat="46.0042327" lon="12.0306995"><ele>788.0</ele><time>2026-04-18T10:13:53.129Z</time></trkpt><trkpt lat="46.0041543" lon="12.0306635"><ele>788.0000000000001</ele><time>2026-04-18T10:13:54.129Z</time></trkpt><trkpt lat="46.0040749" lon="12.0306732"><ele>788.0</ele><time>2026-04-18T10:13:55.13Z</time></trkpt><trkpt lat="46.0039764" lon="12.0306802"><ele>783.4</ele><time>2026-04-18T10:13:56.13Z</time></trkpt><trkpt lat="46.0039024" lon="12.0307052"><ele>778.8</ele><time>2026-04-18T10:13:57.13Z</time></trkpt><trkpt lat="46.003808" lon="12.0307131"><ele>774.2</ele><time>2026-04-18T10:13:58.13Z</time></trkpt><trkpt lat="46.0036644" lon="12.0307196"><ele>769.6</ele><time>2026-04-18T10:14:00.13Z</time></trkpt><trkpt lat="46.0035814" lon="12.030702"><ele>765.0</ele><time>2026-04-18T10:14:01.13Z</time></trkpt><trkpt lat="46.0035159" lon="12.0307022"><ele>765.0</ele><time>2026-04-18T10:14:02.13Z</time></trkpt><trkpt lat="46.0033984" lon="12.0307228"><ele>765.0</ele><time>2026-04-18T10:14:04.13Z</time></trkpt><trkpt lat="46.0033005" lon="12.0307414"><ele>765.0</ele><time>2026-04-18T10:14:06.13Z</time></trkpt><trkpt lat="46.0032261" lon="12.0306792"><ele>765.0</ele><time>2026-04-18T10:14:08.13Z</time></trkpt><trkpt lat="46.0031778" lon="12.0305517"><ele>765.0</ele><time>2026-04-18T10:14:10.13Z</time></trkpt><trkpt lat="46.0031256" lon="12.0304177"><ele>767.8333333333334</ele><time>2026-04-18T10:14:12.13Z</time></trkpt><trkpt lat="46.0030864" lon="12.0303184"><ele>770.6666666666667</ele><time>2026-04-18T10:14:14.131Z</time></trkpt><trkpt lat="46.0030541" lon="12.0301894"><ele>773.5</ele><time>2026-04-18T10:14:17.129Z</time></trkpt><trkpt lat="46.0030268" lon="12.0300897"><ele>776.3333333333334</ele><time>2026-04-18T10:14:19.13Z</time></trkpt><trkpt lat="46.0030094" lon="12.0299873"><ele>779.1666666666667</ele><time>2026-04-18T10:14:21.13Z</time></trkpt><trkpt lat="46.0029893" lon="12.0298869"><ele>782.0</ele><time>2026-04-18T10:14:23.13Z</time></trkpt><trkpt lat="46.002951" lon="12.0297805"><ele>782.0</ele><time>2026-04-18T10:14:25.13Z</time></trkpt><trkpt lat="46.002889" lon="12.0296773"><ele>782.0</ele><time>2026-04-18T10:14:27.13Z</time></trkpt><trkpt lat="46.0028115" lon="12.0295926"><ele>782.0</ele><time>2026-04-18T10:14:29.129Z</time></trkpt><trkpt lat="46.0027404" lon="12.0295339"><ele>782.0</ele><time>2026-04-18T10:14:31.129Z</time></trkpt><trkpt lat="46.0026558" lon="12.0295392"><ele>782.0</ele><time>2026-04-18T10:14:34.129Z</time></trkpt><trkpt lat="46.0025708" lon="12.0295992"><ele>782.0</ele><time>2026-04-18T10:14:36.129Z</time></trkpt><trkpt lat="46.0025286" lon="12.0297385"><ele>782.0</ele><time>2026-04-18T10:14:38.13Z</time></trkpt><trkpt lat="46.0024525" lon="12.0298321"><ele>782.0</ele><time>2026-04-18T10:14:40.131Z</time></trkpt><trkpt lat="46.0023553" lon="12.029939"><ele>782.0</ele><time>2026-04-18T10:14:42.129Z</time></trkpt><trkpt lat="46.0022919" lon="12.0299824"><ele>782.0</ele><time>2026-04-18T10:14:43.13Z</time></trkpt><trkpt lat="46.0021899" lon="12.0300323"><ele>782.0</ele><time>2026-04-18T10:14:45.13Z</time></trkpt><trkpt lat="46.0020952" lon="12.0300473"><ele>782.0</ele><time>2026-04-18T10:14:47.129Z</time></trkpt><trkpt lat="46.0019842" lon="12.0300192"><ele>782.0</ele><time>2026-04-18T10:14:49.131Z</time></trkpt><trkpt lat="46.0018719" lon="12.0299867"><ele>782.0</ele><time>2026-04-18T10:14:51.131Z</time></trkpt><trkpt lat="46.001754" lon="12.029957"><ele>782.0</ele><time>2026-04-18T10:14:53.129Z</time></trkpt><trkpt lat="46.0016386" lon="12.029924"><ele>779.6</ele><time>2026-04-18T10:14:55.13Z</time></trkpt><trkpt lat="46.0015323" lon="12.0299496"><ele>777.2</ele><time>2026-04-18T10:14:57.13Z</time></trkpt><trkpt lat="46.0014264" lon="12.0299784"><ele>774.8</ele><time>2026-04-18T10:14:59.131Z</time></trkpt><trkpt lat="46.0013109" lon="12.0300032"><ele>772.4</ele><time>2026-04-18T10:15:01.13Z</time></trkpt><trkpt lat="46.0012092" lon="12.0300213"><ele>770.0</ele><time>2026-04-18T10:15:03.131Z</time></trkpt><trkpt lat="46.0010872" lon="12.030003"><ele>770.0</ele><time>2026-04-18T10:15:05.13Z</time></trkpt><trkpt lat="46.000965" lon="12.0299775"><ele>770.0</ele><time>2026-04-18T10:15:07.129Z</time></trkpt><trkpt lat="46.000899" lon="12.0299694"><ele>770.0</ele><time>2026-04-18T10:15:08.129Z</time></trkpt><trkpt lat="46.0007948" lon="12.0299416"><ele>770.0</ele><time>2026-04-18T10:15:10.13Z</time></trkpt><trkpt lat="46.0007023" lon="12.0299281"><ele>770.0</ele><time>2026-04-18T10:15:12.129Z</time></trkpt><trkpt lat="46.0005999" lon="12.0298916"><ele>767.6</ele><time>2026-04-18T10:15:14.13Z</time></trkpt><trkpt lat="46.0004898" lon="12.0298842"><ele>765.2</ele><time>2026-04-18T10:15:16.13Z</time></trkpt><trkpt lat="46.0003907" lon="12.029871"><ele>762.8</ele><time>2026-04-18T10:15:18.129Z</time></trkpt><trkpt lat="46.0002743" lon="12.0298617"><ele>760.4</ele><time>2026-04-18T10:15:20.129Z</time></trkpt><trkpt lat="46.0001665" lon="12.0298503"><ele>758.0</ele><time>2026-04-18T10:15:22.129Z</time></trkpt><trkpt lat="46.0000553" lon="12.0298435"><ele>758.0</ele><time>2026-04-18T10:15:24.129Z</time></trkpt><trkpt lat="45.9999435" lon="12.0298415"><ele>758.0</ele><time>2026-04-18T10:15:26.129Z</time></trkpt><trkpt lat="45.9998341" lon="12.0298038"><ele>758.0</ele><time>2026-04-18T10:15:28.131Z</time></trkpt><trkpt lat="45.9997691" lon="12.0297659"><ele>758.0</ele><time>2026-04-18T10:15:30.129Z</time></trkpt><trkpt lat="45.9996644" lon="12.0297501"><ele>758.0</ele><time>2026-04-18T10:15:32.129Z</time></trkpt><trkpt lat="45.9995466" lon="12.0297153"><ele>758.0</ele><time>2026-04-18T10:15:34.13Z</time></trkpt><trkpt lat="45.9994544" lon="12.0297042"><ele>758.0</ele><time>2026-04-18T10:15:36.13Z</time></trkpt><trkpt lat="45.9993494" lon="12.0297092"><ele>758.0</ele><time>2026-04-18T10:15:38.13Z</time></trkpt><trkpt lat="45.9992421" lon="12.0297048"><ele>758.0</ele><time>2026-04-18T10:15:40.13Z</time></trkpt><trkpt lat="45.9991422" lon="12.0296709"><ele>758.0</ele><time>2026-04-18T10:15:42.129Z</time></trkpt><trkpt lat="45.999031" lon="12.0296181"><ele>752.5999999999999</ele><time>2026-04-18T10:15:44.13Z</time></trkpt><trkpt lat="45.9989219" lon="12.0295417"><ele>747.1999999999999</ele><time>2026-04-18T10:15:46.129Z</time></trkpt><trkpt lat="45.9988588" lon="12.0295134"><ele>741.8</ele><time>2026-04-18T10:15:47.129Z</time></trkpt><trkpt lat="45.9987679" lon="12.0294273"><ele>736.4</ele><time>2026-04-18T10:15:49.13Z</time></trkpt><trkpt lat="45.9986826" lon="12.0293483"><ele>731.0</ele><time>2026-04-18T10:15:51.13Z</time></trkpt><trkpt lat="45.9986135" lon="12.0292544"><ele>735.0</ele><time>2026-04-18T10:15:53.129Z</time></trkpt><trkpt lat="45.9985545" lon="12.0291049"><ele>739.0</ele><time>2026-04-18T10:15:55.13Z</time></trkpt><trkpt lat="45.9985118" lon="12.0289823"><ele>743.0</ele><time>2026-04-18T10:15:57.13Z</time></trkpt><trkpt lat="45.9984944" lon="12.0288565"><ele>747.0</ele><time>2026-04-18T10:15:59.129Z</time></trkpt><trkpt lat="45.9984924" lon="12.0287252"><ele>751.0</ele><time>2026-04-18T10:16:01.129Z</time></trkpt><trkpt lat="45.9984865" lon="12.0286056"><ele>751.0000000000001</ele><time>2026-04-18T10:16:03.129Z</time></trkpt><trkpt lat="45.9984716" lon="12.0284915"><ele>751.0</ele><time>2026-04-18T10:16:05.129Z</time></trkpt><trkpt lat="45.9984396" lon="12.0284004"><ele>751.0</ele><time>2026-04-18T10:16:07.13Z</time></trkpt><trkpt lat="45.9983754" lon="12.0283915"><ele>751.0</ele><time>2026-04-18T10:16:09.129Z</time></trkpt><trkpt lat="45.9983067" lon="12.0283753"><ele>751.0</ele><time>2026-04-18T10:16:11.13Z</time></trkpt><trkpt lat="45.9982299" lon="12.0283481"><ele>751.0000000000001</ele><time>2026-04-18T10:16:13.131Z</time></trkpt><trkpt lat="45.9981596" lon="12.0283139"><ele>751.0</ele><time>2026-04-18T10:16:16.129Z</time></trkpt><trkpt lat="45.9981533" lon="12.0284251"><ele>751.0</ele><time>2026-04-18T10:16:20.129Z</time></trkpt><trkpt lat="45.9982141" lon="12.0284539"><ele>751.0</ele><time>2026-04-18T10:16:22.129Z</time></trkpt><trkpt lat="45.9982985" lon="12.0285115"><ele>751.0</ele><time>2026-04-18T10:16:24.13Z</time></trkpt><trkpt lat="45.998349" lon="12.028588"><ele>751.0</ele><time>2026-04-18T10:16:26.13Z</time></trkpt><trkpt lat="45.9983707" lon="12.0287269"><ele>751.0</ele><time>2026-04-18T10:16:29.13Z</time></trkpt><trkpt lat="45.9983527" lon="12.0288787"><ele>751.0</ele><time>2026-04-18T10:16:31.13Z</time></trkpt><trkpt lat="45.9983486" lon="12.0289726"><ele>751.0</ele><time>2026-04-18T10:16:32.13Z</time></trkpt><trkpt lat="45.9983474" lon="12.0290699"><ele>751.0</ele><time>2026-04-18T10:16:33.129Z</time></trkpt><trkpt lat="45.9983439" lon="12.0291657"><ele>751.0</ele><time>2026-04-18T10:16:34.129Z</time></trkpt><trkpt lat="45.9983609" lon="12.0293109"><ele>751.0</ele><time>2026-04-18T10:16:36.131Z</time></trkpt><trkpt lat="45.9983778" lon="12.0294681"><ele>751.0</ele><time>2026-04-18T10:16:38.131Z</time></trkpt><trkpt lat="45.9984015" lon="12.02966"><ele>747.0</ele><time>2026-04-18T10:16:40.13Z</time></trkpt><trkpt lat="45.9984303" lon="12.0298162"><ele>743.0</ele><time>2026-04-18T10:16:42.13Z</time></trkpt><trkpt lat="45.9984372" lon="12.0299879"><ele>739.0</ele><time>2026-04-18T10:16:44.129Z</time></trkpt><trkpt lat="45.9984485" lon="12.0300779"><ele>735.0</ele><time>2026-04-18T10:16:45.129Z</time></trkpt><trkpt lat="45.998482" lon="12.0301562"><ele>731.0</ele><time>2026-04-18T10:16:46.129Z</time></trkpt><trkpt lat="45.998536" lon="12.030277"><ele>726.0</ele><time>2026-04-18T10:16:48.129Z</time></trkpt><trkpt lat="45.9985868" lon="12.0303369"><ele>721.0</ele><time>2026-04-18T10:16:50.129Z</time></trkpt><trkpt lat="45.9986573" lon="12.0303799"><ele>716.0</ele><time>2026-04-18T10:16:54.13Z</time></trkpt><trkpt lat="45.9987168" lon="12.0304108"><ele>711.0</ele><time>2026-04-18T10:16:57.13Z</time></trkpt><trkpt lat="45.9988005" lon="12.0304467"><ele>706.0</ele><time>2026-04-18T10:17:00.131Z</time></trkpt><trkpt lat="45.9988502" lon="12.0305143"><ele>701.0</ele><time>2026-04-18T10:17:02.13Z</time></trkpt><trkpt lat="45.998903" lon="12.0305979"><ele>696.0</ele><time>2026-04-18T10:17:04.129Z</time></trkpt><trkpt lat="45.998989" lon="12.0306789"><ele>696.0</ele><time>2026-04-18T10:17:06.129Z</time></trkpt><trkpt lat="45.9990873" lon="12.0307342"><ele>696.0</ele><time>2026-04-18T10:17:08.129Z</time></trkpt><trkpt lat="45.9991891" lon="12.0307569"><ele>696.0</ele><time>2026-04-18T10:17:10.13Z</time></trkpt><trkpt lat="45.999299" lon="12.0307703"><ele>696.0</ele><time>2026-04-18T10:17:12.13Z</time></trkpt><trkpt lat="45.9994127" lon="12.030802"><ele>696.0</ele><time>2026-04-18T10:17:14.131Z</time></trkpt><trkpt lat="45.9995221" lon="12.0308624"><ele>691.8</ele><time>2026-04-18T10:17:16.129Z</time></trkpt><trkpt lat="45.9996257" lon="12.030952"><ele>687.5999999999999</ele><time>2026-04-18T10:17:18.13Z</time></trkpt><trkpt lat="45.9996881" lon="12.0310018"><ele>683.4</ele><time>2026-04-18T10:17:19.131Z</time></trkpt><trkpt lat="45.9997782" lon="12.0310886"><ele>679.2</ele><time>2026-04-18T10:17:21.13Z</time></trkpt><trkpt lat="45.9998455" lon="12.031157"><ele>675.0</ele><time>2026-04-18T10:17:22.131Z</time></trkpt><trkpt lat="45.9998999" lon="12.0312238"><ele>675.0</ele><time>2026-04-18T10:17:23.13Z</time></trkpt><trkpt lat="45.9999568" lon="12.0313059"><ele>675.0</ele><time>2026-04-18T10:17:24.13Z</time></trkpt><trkpt lat="46.0000146" lon="12.0313692"><ele>675.0</ele><time>2026-04-18T10:17:25.129Z</time></trkpt><trkpt lat="46.0000868" lon="12.031384"><ele>675.0</ele><time>2026-04-18T10:17:26.129Z</time></trkpt><trkpt lat="46.000155" lon="12.0314256"><ele>675.0</ele><time>2026-04-18T10:17:27.129Z</time></trkpt><trkpt lat="46.000228" lon="12.0314616"><ele>675.0</ele><time>2026-04-18T10:17:28.13Z</time></trkpt><trkpt lat="46.0003077" lon="12.0315149"><ele>675.0</ele><time>2026-04-18T10:17:29.129Z</time></trkpt><trkpt lat="46.0003815" lon="12.0315684"><ele>675.0</ele><time>2026-04-18T10:17:30.13Z</time></trkpt><trkpt lat="46.0004501" lon="12.0316062"><ele>675.0</ele><time>2026-04-18T10:17:31.129Z</time></trkpt><trkpt lat="46.0005505" lon="12.0316262"><ele>675.0</ele><time>2026-04-18T10:17:32.13Z</time></trkpt><trkpt lat="46.0006254" lon="12.0316404"><ele>675.0</ele><time>2026-04-18T10:17:33.129Z</time></trkpt><trkpt lat="46.0006988" lon="12.0316488"><ele>675.0</ele><time>2026-04-18T10:17:34.13Z</time></trkpt><trkpt lat="46.0008536" lon="12.0316934"><ele>671.6666666666666</ele><time>2026-04-18T10:17:36.13Z</time></trkpt><trkpt lat="46.0009307" lon="12.0317176"><ele>668.3333333333334</ele><time>2026-04-18T10:17:37.129Z</time></trkpt><trkpt lat="46.0009935" lon="12.031755"><ele>665.0</ele><time>2026-04-18T10:17:38.13Z</time></trkpt><trkpt lat="46.0010935" lon="12.0318007"><ele>661.6666666666667</ele><time>2026-04-18T10:17:40.13Z</time></trkpt><trkpt lat="46.0011661" lon="12.0318232"><ele>658.3333333333334</ele><time>2026-04-18T10:17:41.13Z</time></trkpt><trkpt lat="46.0012585" lon="12.0317822"><ele>655.0</ele><time>2026-04-18T10:17:43.13Z</time></trkpt><trkpt lat="46.0013429" lon="12.0317227"><ele>655.0</ele><time>2026-04-18T10:17:45.13Z</time></trkpt><trkpt lat="46.0014036" lon="12.0316868"><ele>655.0</ele><time>2026-04-18T10:17:47.129Z</time></trkpt><trkpt lat="46.0015049" lon="12.0316235"><ele>655.0</ele><time>2026-04-18T10:17:49.13Z</time></trkpt><trkpt lat="46.0015938" lon="12.0315455"><ele>655.0</ele><time>2026-04-18T10:17:51.129Z</time></trkpt><trkpt lat="46.0016943" lon="12.0315152"><ele>655.0</ele><time>2026-04-18T10:17:53.129Z</time></trkpt><trkpt lat="46.0017912" lon="12.0314764"><ele>655.2</ele><time>2026-04-18T10:17:55.13Z</time></trkpt><trkpt lat="46.0018877" lon="12.0315023"><ele>655.4</ele><time>2026-04-18T10:17:57.13Z</time></trkpt><trkpt lat="46.0018815" lon="12.0316157"><ele>655.5999999999999</ele><time>2026-04-18T10:18:01.129Z</time></trkpt><trkpt lat="46.0018219" lon="12.0317387"><ele>655.8</ele><time>2026-04-18T10:18:03.129Z</time></trkpt><trkpt lat="46.0018063" lon="12.0318731"><ele>656.0</ele><time>2026-04-18T10:18:05.13Z</time></trkpt><trkpt lat="46.0018123" lon="12.0320156"><ele>656.0</ele><time>2026-04-18T10:18:07.129Z</time></trkpt><trkpt lat="46.0018258" lon="12.0321598"><ele>656.0</ele><time>2026-04-18T10:18:09.13Z</time></trkpt><trkpt lat="46.0018488" lon="12.0323256"><ele>656.0</ele><time>2026-04-18T10:18:11.129Z</time></trkpt><trkpt lat="46.0018751" lon="12.0325056"><ele>656.0</ele><time>2026-04-18T10:18:13.128Z</time></trkpt><trkpt lat="46.0018849" lon="12.0326202"><ele>656.0</ele><time>2026-04-18T10:18:14.129Z</time></trkpt><trkpt lat="46.0018961" lon="12.0327279"><ele>651.0</ele><time>2026-04-18T10:18:15.128Z</time></trkpt><trkpt lat="46.0019128" lon="12.0328338"><ele>646.0</ele><time>2026-04-18T10:18:16.129Z</time></trkpt><trkpt lat="46.0019294" lon="12.0329485"><ele>641.0</ele><time>2026-04-18T10:18:17.129Z</time></trkpt><trkpt lat="46.0019465" lon="12.0330628"><ele>636.0</ele><time>2026-04-18T10:18:18.13Z</time></trkpt><trkpt lat="46.001966" lon="12.0331576"><ele>631.0</ele><time>2026-04-18T10:18:19.128Z</time></trkpt><trkpt lat="46.0019873" lon="12.0332492"><ele>626.0</ele><time>2026-04-18T10:18:20.129Z</time></trkpt><trkpt lat="46.0020462" lon="12.0333882"><ele>621.2</ele><time>2026-04-18T10:18:22.128Z</time></trkpt><trkpt lat="46.0020991" lon="12.033517"><ele>616.4000000000001</ele><time>2026-04-18T10:18:24.129Z</time></trkpt><trkpt lat="46.0021357" lon="12.0336597"><ele>611.6</ele><time>2026-04-18T10:18:26.129Z</time></trkpt><trkpt lat="46.0021739" lon="12.0338013"><ele>606.8000000000001</ele><time>2026-04-18T10:18:28.128Z</time></trkpt><trkpt lat="46.002222" lon="12.0339288"><ele>602.0</ele><time>2026-04-18T10:18:30.128Z</time></trkpt><trkpt lat="46.0023032" lon="12.0339868"><ele>602.0</ele><time>2026-04-18T10:18:32.13Z</time></trkpt><trkpt lat="46.0024104" lon="12.0339739"><ele>602.0</ele><time>2026-04-18T10:18:34.129Z</time></trkpt><trkpt lat="46.0025215" lon="12.0339888"><ele>602.0</ele><time>2026-04-18T10:18:36.129Z</time></trkpt><trkpt lat="46.0026315" lon="12.034028"><ele>602.0</ele><time>2026-04-18T10:18:38.128Z</time></trkpt><trkpt lat="46.0027436" lon="12.0340553"><ele>602.0</ele><time>2026-04-18T10:18:40.129Z</time></trkpt><trkpt lat="46.0028622" lon="12.0340705"><ele>604.75</ele><time>2026-04-18T10:18:42.129Z</time></trkpt><trkpt lat="46.0029787" lon="12.0340869"><ele>607.5</ele><time>2026-04-18T10:18:44.128Z</time></trkpt><trkpt lat="46.0030947" lon="12.0340987"><ele>610.25</ele><time>2026-04-18T10:18:46.129Z</time></trkpt><trkpt lat="46.0032059" lon="12.0341169"><ele>613.0</ele><time>2026-04-18T10:18:48.128Z</time></trkpt><trkpt lat="46.0033207" lon="12.0341398"><ele>613.6</ele><time>2026-04-18T10:18:50.128Z</time></trkpt><trkpt lat="46.003417" lon="12.0341726"><ele>614.1999999999999</ele><time>2026-04-18T10:18:52.128Z</time></trkpt><trkpt lat="46.0035114" lon="12.0341597"><ele>614.8</ele><time>2026-04-18T10:18:54.129Z</time></trkpt><trkpt lat="46.0036119" lon="12.0340851"><ele>615.4</ele><time>2026-04-18T10:18:56.128Z</time></trkpt><trkpt lat="46.0037193" lon="12.034011"><ele>616.0</ele><time>2026-04-18T10:18:58.13Z</time></trkpt><trkpt lat="46.0038285" lon="12.0339409"><ele>617.8</ele><time>2026-04-18T10:19:00.129Z</time></trkpt><trkpt lat="46.0039424" lon="12.0339099"><ele>619.6</ele><time>2026-04-18T10:19:02.129Z</time></trkpt><trkpt lat="46.0040358" lon="12.0338696"><ele>621.4</ele><time>2026-04-18T10:19:04.13Z</time></trkpt><trkpt lat="46.0041" lon="12.0338095"><ele>623.2</ele><time>2026-04-18T10:19:06.128Z</time></trkpt><trkpt lat="46.0041633" lon="12.0337314"><ele>625.0</ele><time>2026-04-18T10:19:08.128Z</time></trkpt><trkpt lat="46.0042143" lon="12.0336289"><ele>625.0</ele><time>2026-04-18T10:19:10.128Z</time></trkpt><trkpt lat="46.0042463" lon="12.0334971"><ele>625.0</ele><time>2026-04-18T10:19:12.129Z</time></trkpt><trkpt lat="46.0042797" lon="12.0333831"><ele>625.0</ele><time>2026-04-18T10:19:14.128Z</time></trkpt><trkpt lat="46.0043345" lon="12.0332901"><ele>625.0</ele><time>2026-04-18T10:19:16.128Z</time></trkpt><trkpt lat="46.004405" lon="12.0332247"><ele>625.0</ele><time>2026-04-18T10:19:18.13Z</time></trkpt><trkpt lat="46.0044999" lon="12.0331574"><ele>625.0</ele><time>2026-04-18T10:19:20.129Z</time></trkpt><trkpt lat="46.0045787" lon="12.0331131"><ele>625.0</ele><time>2026-04-18T10:19:22.129Z</time></trkpt><trkpt lat="46.0046503" lon="12.0331074"><ele>625.0</ele><time>2026-04-18T10:19:25.129Z</time></trkpt><trkpt lat="46.004663" lon="12.0332157"><ele>625.0</ele><time>2026-04-18T10:19:26.128Z</time></trkpt><trkpt lat="46.0047077" lon="12.0333407"><ele>625.0</ele><time>2026-04-18T10:19:27.129Z</time></trkpt><trkpt lat="46.0047374" lon="12.0334505"><ele>625.0</ele><time>2026-04-18T10:19:28.128Z</time></trkpt><trkpt lat="46.0047448" lon="12.0336094"><ele>625.0</ele><time>2026-04-18T10:19:30.128Z</time></trkpt><trkpt lat="46.0047955" lon="12.0337815"><ele>625.0</ele><time>2026-04-18T10:19:32.129Z</time></trkpt><trkpt lat="46.0048506" lon="12.033857"><ele>625.0</ele><time>2026-04-18T10:19:33.129Z</time></trkpt><trkpt lat="46.0049045" lon="12.0339298"><ele>625.0</ele><time>2026-04-18T10:19:34.128Z</time></trkpt><trkpt lat="46.004948" lon="12.03401"><ele>625.0</ele><time>2026-04-18T10:19:35.128Z</time></trkpt><trkpt lat="46.0050055" lon="12.0340958"><ele>625.0</ele><time>2026-04-18T10:19:36.128Z</time></trkpt><trkpt lat="46.0050654" lon="12.0341817"><ele>617.6</ele><time>2026-04-18T10:19:37.129Z</time></trkpt><trkpt lat="46.0051343" lon="12.0342511"><ele>610.2</ele><time>2026-04-18T10:19:38.128Z</time></trkpt><trkpt lat="46.0051973" lon="12.0343034"><ele>602.8</ele><time>2026-04-18T10:19:39.129Z</time></trkpt><trkpt lat="46.005262" lon="12.0343497"><ele>595.4</ele><time>2026-04-18T10:19:40.129Z</time></trkpt><trkpt lat="46.0053927" lon="12.0344048"><ele>588.0</ele><time>2026-04-18T10:19:42.128Z</time></trkpt><trkpt lat="46.0055237" lon="12.03442"><ele>588.0</ele><time>2026-04-18T10:19:44.128Z</time></trkpt><trkpt lat="46.0056005" lon="12.0344275"><ele>588.0</ele><time>2026-04-18T10:19:45.128Z</time></trkpt><trkpt lat="46.0056979" lon="12.0344404"><ele>588.0</ele><time>2026-04-18T10:19:47.128Z</time></trkpt><trkpt lat="46.0058207" lon="12.0344878"><ele>588.0</ele><time>2026-04-18T10:19:49.128Z</time></trkpt><trkpt lat="46.0059307" lon="12.0345735"><ele>588.0</ele><time>2026-04-18T10:19:50.129Z</time></trkpt><trkpt lat="46.0060005" lon="12.0346272"><ele>590.3333333333334</ele><time>2026-04-18T10:19:51.128Z</time></trkpt><trkpt lat="46.0060633" lon="12.0346808"><ele>592.6666666666666</ele><time>2026-04-18T10:19:52.128Z</time></trkpt><trkpt lat="46.006122" lon="12.0347257"><ele>595.0</ele><time>2026-04-18T10:19:53.128Z</time></trkpt><trkpt lat="46.0062119" lon="12.0347106"><ele>597.3333333333333</ele><time>2026-04-18T10:19:55.128Z</time></trkpt><trkpt lat="46.0062868" lon="12.0346831"><ele>599.6666666666666</ele><time>2026-04-18T10:19:56.128Z</time></trkpt><trkpt lat="46.0064088" lon="12.0347048"><ele>602.0</ele><time>2026-04-18T10:19:58.128Z</time></trkpt><trkpt lat="46.0064717" lon="12.0347453"><ele>602.0</ele><time>2026-04-18T10:19:59.128Z</time></trkpt><trkpt lat="46.0065299" lon="12.0347813"><ele>602.0</ele><time>2026-04-18T10:20:00.13Z</time></trkpt><trkpt lat="46.0066156" lon="12.034907"><ele>602.0</ele><time>2026-04-18T10:20:02.129Z</time></trkpt><trkpt lat="46.0067389" lon="12.0350117"><ele>602.0</ele><time>2026-04-18T10:20:04.129Z</time></trkpt><trkpt lat="46.006869" lon="12.0351105"><ele>595.4</ele><time>2026-04-18T10:20:06.128Z</time></trkpt><trkpt lat="46.0069303" lon="12.0351998"><ele>588.8000000000001</ele><time>2026-04-18T10:20:08.129Z</time></trkpt><trkpt lat="46.0070118" lon="12.0352258"><ele>582.2</ele><time>2026-04-18T10:20:10.128Z</time></trkpt><trkpt lat="46.0070995" lon="12.0351773"><ele>575.6</ele><time>2026-04-18T10:20:12.129Z</time></trkpt><trkpt lat="46.0072301" lon="12.0351547"><ele>569.0</ele><time>2026-04-18T10:20:14.129Z</time></trkpt><trkpt lat="46.0073416" lon="12.03517"><ele>569.0</ele><time>2026-04-18T10:20:16.128Z</time></trkpt><trkpt lat="46.0074604" lon="12.0351709"><ele>569.0</ele><time>2026-04-18T10:20:18.128Z</time></trkpt><trkpt lat="46.0075604" lon="12.0351509"><ele>569.0</ele><time>2026-04-18T10:20:20.128Z</time></trkpt><trkpt lat="46.0076497" lon="12.0351016"><ele>569.0</ele><time>2026-04-18T10:20:22.128Z</time></trkpt><trkpt lat="46.0077492" lon="12.0350226"><ele>569.0</ele><time>2026-04-18T10:20:24.129Z</time></trkpt><trkpt lat="46.0078445" lon="12.0349107"><ele>575.8333333333333</ele><time>2026-04-18T10:20:26.129Z</time></trkpt><trkpt lat="46.0079366" lon="12.0348215"><ele>582.6666666666666</ele><time>2026-04-18T10:20:28.128Z</time></trkpt><trkpt lat="46.0079963" lon="12.0347432"><ele>589.5</ele><time>2026-04-18T10:20:29.128Z</time></trkpt><trkpt lat="46.0080477" lon="12.0346817"><ele>596.3333333333334</ele><time>2026-04-18T10:20:30.128Z</time></trkpt><trkpt lat="46.0081197" lon="12.0346307"><ele>603.1666666666667</ele><time>2026-04-18T10:20:31.128Z</time></trkpt><trkpt lat="46.0082013" lon="12.0346089"><ele>610.0</ele><time>2026-04-18T10:20:32.128Z</time></trkpt><trkpt lat="46.0082637" lon="12.0346632"><ele>608.0</ele><time>2026-04-18T10:20:33.13Z</time></trkpt><trkpt lat="46.008332" lon="12.0346821"><ele>606.0</ele><time>2026-04-18T10:20:34.128Z</time></trkpt><trkpt lat="46.0083918" lon="12.034747"><ele>604.0</ele><time>2026-04-18T10:20:35.129Z</time></trkpt><trkpt lat="46.008453" lon="12.0349096"><ele>602.0</ele><time>2026-04-18T10:20:37.13Z</time></trkpt><trkpt lat="46.0084902" lon="12.0350411"><ele>600.0</ele><time>2026-04-18T10:20:38.128Z</time></trkpt><trkpt lat="46.0085165" lon="12.0351627"><ele>594.6666666666666</ele><time>2026-04-18T10:20:39.129Z</time></trkpt><trkpt lat="46.0085513" lon="12.0352716"><ele>589.3333333333334</ele><time>2026-04-18T10:20:40.128Z</time></trkpt><trkpt lat="46.0085849" lon="12.03537"><ele>584.0</ele><time>2026-04-18T10:20:41.128Z</time></trkpt><trkpt lat="46.0086241" lon="12.0354586"><ele>578.6666666666667</ele><time>2026-04-18T10:20:42.129Z</time></trkpt><trkpt lat="46.0086614" lon="12.0355317"><ele>573.3333333333334</ele><time>2026-04-18T10:20:43.128Z</time></trkpt><trkpt lat="46.0087628" lon="12.0356278"><ele>568.0</ele><time>2026-04-18T10:20:45.128Z</time></trkpt><trkpt lat="46.0088379" lon="12.0356678"><ele>568.0</ele><time>2026-04-18T10:20:46.128Z</time></trkpt><trkpt lat="46.0089296" lon="12.035695"><ele>568.0</ele><time>2026-04-18T10:20:47.129Z</time></trkpt><trkpt lat="46.0090235" lon="12.0357234"><ele>568.0</ele><time>2026-04-18T10:20:48.128Z</time></trkpt><trkpt lat="46.0090975" lon="12.0357593"><ele>568.0</ele><time>2026-04-18T10:20:49.128Z</time></trkpt><trkpt lat="46.0091589" lon="12.0358081"><ele>568.0</ele><time>2026-04-18T10:20:50.128Z</time></trkpt><trkpt lat="46.0092194" lon="12.0358499"><ele>568.0</ele><time>2026-04-18T10:20:51.128Z</time></trkpt><trkpt lat="46.0093365" lon="12.0358929"><ele>567.8</ele><time>2026-04-18T10:20:53.128Z</time></trkpt><trkpt lat="46.009454" lon="12.0359124"><ele>567.5999999999999</ele><time>2026-04-18T10:20:55.128Z</time></trkpt><trkpt lat="46.0096121" lon="12.0358932"><ele>567.4000000000001</ele><time>2026-04-18T10:20:57.128Z</time></trkpt><trkpt lat="46.0096877" lon="12.0358392"><ele>567.2</ele><time>2026-04-18T10:20:58.129Z</time></trkpt><trkpt lat="46.0097649" lon="12.0358202"><ele>567.0</ele><time>2026-04-18T10:20:59.128Z</time></trkpt><trkpt lat="46.0098398" lon="12.0358206"><ele>576.25</ele><time>2026-04-18T10:21:00.129Z</time></trkpt><trkpt lat="46.0099511" lon="12.0357909"><ele>585.5</ele><time>2026-04-18T10:21:02.129Z</time></trkpt><trkpt lat="46.0100624" lon="12.0357164"><ele>594.75</ele><time>2026-04-18T10:21:04.129Z</time></trkpt><trkpt lat="46.0101683" lon="12.035647"><ele>604.0</ele><time>2026-04-18T10:21:06.128Z</time></trkpt><trkpt lat="46.0102936" lon="12.0355899"><ele>604.2</ele><time>2026-04-18T10:21:08.128Z</time></trkpt><trkpt lat="46.0103897" lon="12.0354887"><ele>604.4</ele><time>2026-04-18T10:21:10.13Z</time></trkpt><trkpt lat="46.0104707" lon="12.0353918"><ele>604.6</ele><time>2026-04-18T10:21:12.129Z</time></trkpt><trkpt lat="46.0105637" lon="12.0353069"><ele>604.8</ele><time>2026-04-18T10:21:14.128Z</time></trkpt><trkpt lat="46.0106283" lon="12.035259"><ele>605.0</ele><time>2026-04-18T10:21:15.128Z</time></trkpt><trkpt lat="46.0107336" lon="12.0352264"><ele>601.2</ele><time>2026-04-18T10:21:17.128Z</time></trkpt><trkpt lat="46.0108308" lon="12.0351569"><ele>597.4</ele><time>2026-04-18T10:21:19.129Z</time></trkpt><trkpt lat="46.0109279" lon="12.0351281"><ele>593.6</ele><time>2026-04-18T10:21:21.129Z</time></trkpt><trkpt lat="46.0110226" lon="12.0351857"><ele>589.8</ele><time>2026-04-18T10:21:23.128Z</time></trkpt><trkpt lat="46.0110905" lon="12.035301"><ele>586.0</ele><time>2026-04-18T10:21:25.128Z</time></trkpt><trkpt lat="46.0110991" lon="12.0354358"><ele>586.0</ele><time>2026-04-18T10:21:27.128Z</time></trkpt><trkpt lat="46.0110185" lon="12.0354853"><ele>586.0</ele><time>2026-04-18T10:21:28.128Z</time></trkpt><trkpt lat="46.0109527" lon="12.0355643"><ele>586.0</ele><time>2026-04-18T10:21:29.128Z</time></trkpt><trkpt lat="46.0109122" lon="12.035634"><ele>586.0</ele><time>2026-04-18T10:21:30.128Z</time></trkpt><trkpt lat="46.0108841" lon="12.035778"><ele>586.0</ele><time>2026-04-18T10:21:32.128Z</time></trkpt><trkpt lat="46.0109226" lon="12.0359303"><ele>582.0</ele><time>2026-04-18T10:21:34.129Z</time></trkpt><trkpt lat="46.0109041" lon="12.0360872"><ele>578.0</ele><time>2026-04-18T10:21:36.129Z</time></trkpt><trkpt lat="46.0108817" lon="12.0361841"><ele>574.0</ele><time>2026-04-18T10:21:37.129Z</time></trkpt><trkpt lat="46.010854" lon="12.0363013"><ele>570.0</ele><time>2026-04-18T10:21:38.128Z</time></trkpt><trkpt lat="46.0108262" lon="12.03642"><ele>566.0</ele><time>2026-04-18T10:21:39.128Z</time></trkpt><trkpt lat="46.010804" lon="12.0365401"><ele>562.0</ele><time>2026-04-18T10:21:40.129Z</time></trkpt><trkpt lat="46.0107733" lon="12.036644"><ele>555.5</ele><time>2026-04-18T10:21:41.129Z</time></trkpt><trkpt lat="46.0107404" lon="12.0367466"><ele>549.0</ele><time>2026-04-18T10:21:42.129Z</time></trkpt><trkpt lat="46.0107096" lon="12.0368332"><ele>542.5</ele><time>2026-04-18T10:21:43.129Z</time></trkpt><trkpt lat="46.0106792" lon="12.0369276"><ele>536.0</ele><time>2026-04-18T10:21:44.128Z</time></trkpt><trkpt lat="46.0106515" lon="12.0370342"><ele>529.5</ele><time>2026-04-18T10:21:45.128Z</time></trkpt><trkpt lat="46.0106269" lon="12.0371497"><ele>523.0</ele><time>2026-04-18T10:21:46.128Z</time></trkpt><trkpt lat="46.0105983" lon="12.037264"><ele>523.0</ele><time>2026-04-18T10:21:47.128Z</time></trkpt><trkpt lat="46.0105754" lon="12.0373656"><ele>523.0</ele><time>2026-04-18T10:21:48.128Z</time></trkpt><trkpt lat="46.0105501" lon="12.0374745"><ele>523.0</ele><time>2026-04-18T10:21:49.128Z</time></trkpt><trkpt lat="46.0105377" lon="12.0375687"><ele>523.0</ele><time>2026-04-18T10:21:50.129Z</time></trkpt><trkpt lat="46.0105379" lon="12.0376698"><ele>523.0</ele><time>2026-04-18T10:21:51.128Z</time></trkpt><trkpt lat="46.0105492" lon="12.0378357"><ele>523.0</ele><time>2026-04-18T10:21:53.129Z</time></trkpt><trkpt lat="46.0105892" lon="12.0379142"><ele>520.4285714285713</ele><time>2026-04-18T10:21:54.129Z</time></trkpt><trkpt lat="46.0106204" lon="12.0380032"><ele>517.8571428571429</ele><time>2026-04-18T10:21:55.128Z</time></trkpt><trkpt lat="46.0106574" lon="12.0380884"><ele>515.2857142857142</ele><time>2026-04-18T10:21:56.128Z</time></trkpt><trkpt lat="46.0106985" lon="12.0381736"><ele>512.7142857142857</ele><time>2026-04-18T10:21:57.128Z</time></trkpt><trkpt lat="46.0107436" lon="12.0382548"><ele>510.1428571428571</ele><time>2026-04-18T10:21:58.128Z</time></trkpt><trkpt lat="46.0107877" lon="12.0383305"><ele>507.57142857142856</ele><time>2026-04-18T10:21:59.128Z</time></trkpt><trkpt lat="46.0108259" lon="12.0384076"><ele>505.0</ele><time>2026-04-18T10:22:00.128Z</time></trkpt><trkpt lat="46.0108655" lon="12.0384821"><ele>511.2857142857143</ele><time>2026-04-18T10:22:01.129Z</time></trkpt><trkpt lat="46.0109084" lon="12.0385606"><ele>517.5714285714286</ele><time>2026-04-18T10:22:02.128Z</time></trkpt><trkpt lat="46.0109491" lon="12.0386384"><ele>523.8571428571429</ele><time>2026-04-18T10:22:03.128Z</time></trkpt><trkpt lat="46.0109975" lon="12.0387133"><ele>530.1428571428571</ele><time>2026-04-18T10:22:04.128Z</time></trkpt><trkpt lat="46.0110519" lon="12.0387826"><ele>536.4285714285714</ele><time>2026-04-18T10:22:05.128Z</time></trkpt><trkpt lat="46.0111025" lon="12.0388491"><ele>542.7142857142857</ele><time>2026-04-18T10:22:06.129Z</time></trkpt><trkpt lat="46.0111534" lon="12.0389193"><ele>549.0</ele><time>2026-04-18T10:22:07.128Z</time></trkpt><trkpt lat="46.0112024" lon="12.0389825"><ele>549.0</ele><time>2026-04-18T10:22:08.128Z</time></trkpt><trkpt lat="46.0112552" lon="12.0390458"><ele>549.0</ele><time>2026-04-18T10:22:09.128Z</time></trkpt><trkpt lat="46.0113042" lon="12.0391096"><ele>549.0</ele><time>2026-04-18T10:22:10.128Z</time></trkpt><trkpt lat="46.0113538" lon="12.0391759"><ele>549.0</ele><time>2026-04-18T10:22:11.129Z</time></trkpt><trkpt lat="46.0113944" lon="12.0392484"><ele>549.0</ele><time>2026-04-18T10:22:12.129Z</time></trkpt><trkpt lat="46.0114361" lon="12.0393188"><ele>549.0</ele><time>2026-04-18T10:22:13.129Z</time></trkpt><trkpt lat="46.0114745" lon="12.0393923"><ele>549.0</ele><time>2026-04-18T10:22:14.13Z</time></trkpt><trkpt lat="46.0115108" lon="12.0394745"><ele>547.4285714285714</ele><time>2026-04-18T10:22:15.129Z</time></trkpt><trkpt lat="46.0115474" lon="12.0395553"><ele>545.8571428571429</ele><time>2026-04-18T10:22:16.128Z</time></trkpt><trkpt lat="46.0115857" lon="12.0396382"><ele>544.2857142857143</ele><time>2026-04-18T10:22:17.129Z</time></trkpt><trkpt lat="46.011631" lon="12.0397205"><ele>542.7142857142858</ele><time>2026-04-18T10:22:18.129Z</time></trkpt><trkpt lat="46.0116756" lon="12.0398061"><ele>541.1428571428572</ele><time>2026-04-18T10:22:19.129Z</time></trkpt><trkpt lat="46.0117241" lon="12.0398877"><ele>539.5714285714286</ele><time>2026-04-18T10:22:20.129Z</time></trkpt><trkpt lat="46.0117742" lon="12.0399651"><ele>538.0</ele><time>2026-04-18T10:22:21.128Z</time></trkpt><trkpt lat="46.0118201" lon="12.0400448"><ele>538.0</ele><time>2026-04-18T10:22:22.128Z</time></trkpt><trkpt lat="46.0118721" lon="12.0401352"><ele>538.0</ele><time>2026-04-18T10:22:23.129Z</time></trkpt><trkpt lat="46.0119197" lon="12.0402321"><ele>538.0</ele><time>2026-04-18T10:22:24.129Z</time></trkpt><trkpt lat="46.0119654" lon="12.0403301"><ele>538.0</ele><time>2026-04-18T10:22:25.128Z</time></trkpt><trkpt lat="46.0120112" lon="12.0404301"><ele>538.0</ele><time>2026-04-18T10:22:26.128Z</time></trkpt><trkpt lat="46.0120582" lon="12.0405291"><ele>538.0</ele><time>2026-04-18T10:22:27.128Z</time></trkpt><trkpt lat="46.012107" lon="12.0406286"><ele>538.0</ele><time>2026-04-18T10:22:28.129Z</time></trkpt><trkpt lat="46.0121521" lon="12.0407289"><ele>538.0</ele><time>2026-04-18T10:22:29.129Z</time></trkpt><trkpt lat="46.0121981" lon="12.0408265"><ele>538.0</ele><time>2026-04-18T10:22:30.128Z</time></trkpt><trkpt lat="46.0122402" lon="12.0409239"><ele>538.0</ele><time>2026-04-18T10:22:31.128Z</time></trkpt><trkpt lat="46.0122785" lon="12.0410118"><ele>538.0</ele><time>2026-04-18T10:22:32.129Z</time></trkpt><trkpt lat="46.0123319" lon="12.0411638"><ele>538.0</ele><time>2026-04-18T10:22:34.128Z</time></trkpt><trkpt lat="46.0123262" lon="12.0412723"><ele>536.1666666666667</ele><time>2026-04-18T10:22:35.128Z</time></trkpt><trkpt lat="46.0123184" lon="12.0413668"><ele>534.3333333333334</ele><time>2026-04-18T10:22:36.129Z</time></trkpt><trkpt lat="46.0123553" lon="12.0415292"><ele>532.5</ele><time>2026-04-18T10:22:38.128Z</time></trkpt><trkpt lat="46.0124029" lon="12.0416001"><ele>530.6666666666666</ele><time>2026-04-18T10:22:39.13Z</time></trkpt><trkpt lat="46.0124699" lon="12.0416737"><ele>528.8333333333333</ele><time>2026-04-18T10:22:40.129Z</time></trkpt><trkpt lat="46.0125281" lon="12.0417705"><ele>527.0</ele><time>2026-04-18T10:22:41.129Z</time></trkpt><trkpt lat="46.0125784" lon="12.041886"><ele>527.0</ele><time>2026-04-18T10:22:42.129Z</time></trkpt><trkpt lat="46.0126268" lon="12.041999"><ele>527.0</ele><time>2026-04-18T10:22:43.127Z</time></trkpt><trkpt lat="46.0126874" lon="12.0421034"><ele>527.0</ele><time>2026-04-18T10:22:44.128Z</time></trkpt><trkpt lat="46.0127509" lon="12.0421943"><ele>527.0</ele><time>2026-04-18T10:22:45.127Z</time></trkpt><trkpt lat="46.0128188" lon="12.042281"><ele>527.0</ele><time>2026-04-18T10:22:46.128Z</time></trkpt><trkpt lat="46.0128869" lon="12.0423636"><ele>527.0</ele><time>2026-04-18T10:22:47.127Z</time></trkpt><trkpt lat="46.0129612" lon="12.0424335"><ele>527.0</ele><time>2026-04-18T10:22:48.127Z</time></trkpt><trkpt lat="46.0130383" lon="12.0424879"><ele>527.0</ele><time>2026-04-18T10:22:49.128Z</time></trkpt><trkpt lat="46.0131179" lon="12.0425212"><ele>527.0</ele><time>2026-04-18T10:22:50.128Z</time></trkpt><trkpt lat="46.013193" lon="12.0425499"><ele>527.0</ele><time>2026-04-18T10:22:51.127Z</time></trkpt><trkpt lat="46.0132719" lon="12.0425775"><ele>527.0</ele><time>2026-04-18T10:22:52.127Z</time></trkpt><trkpt lat="46.0133478" lon="12.0425409"><ele>527.7142857142858</ele><time>2026-04-18T10:22:53.128Z</time></trkpt><trkpt lat="46.0134157" lon="12.0425787"><ele>528.4285714285714</ele><time>2026-04-18T10:22:54.129Z</time></trkpt><trkpt lat="46.0134577" lon="12.0426537"><ele>529.1428571428571</ele><time>2026-04-18T10:22:55.129Z</time></trkpt><trkpt lat="46.0134921" lon="12.0427331"><ele>529.8571428571429</ele><time>2026-04-18T10:22:56.127Z</time></trkpt><trkpt lat="46.0135362" lon="12.0428154"><ele>530.5714285714286</ele><time>2026-04-18T10:22:57.127Z</time></trkpt><trkpt lat="46.0136009" lon="12.0428857"><ele>531.2857142857143</ele><time>2026-04-18T10:22:58.127Z</time></trkpt><trkpt lat="46.0136692" lon="12.042962"><ele>532.0</ele><time>2026-04-18T10:22:59.127Z</time></trkpt><trkpt lat="46.0137354" lon="12.0430545"><ele>532.0</ele><time>2026-04-18T10:23:00.129Z</time></trkpt><trkpt lat="46.013771" lon="12.0431601"><ele>532.0</ele><time>2026-04-18T10:23:01.127Z</time></trkpt><trkpt lat="46.0137909" lon="12.0432582"><ele>532.0</ele><time>2026-04-18T10:23:02.127Z</time></trkpt><trkpt lat="46.0138593" lon="12.0433901"><ele>532.0</ele><time>2026-04-18T10:23:04.128Z</time></trkpt><trkpt lat="46.0139363" lon="12.0434395"><ele>532.0</ele><time>2026-04-18T10:23:05.128Z</time></trkpt><trkpt lat="46.0140335" lon="12.0435055"><ele>530.3333333333334</ele><time>2026-04-18T10:23:06.127Z</time></trkpt><trkpt lat="46.0141148" lon="12.0435638"><ele>528.6666666666667</ele><time>2026-04-18T10:23:07.128Z</time></trkpt><trkpt lat="46.0141912" lon="12.0436147"><ele>527.0</ele><time>2026-04-18T10:23:08.128Z</time></trkpt><trkpt lat="46.0142527" lon="12.043641"><ele>525.3333333333334</ele><time>2026-04-18T10:23:09.128Z</time></trkpt><trkpt lat="46.0143161" lon="12.0436688"><ele>523.6666666666666</ele><time>2026-04-18T10:23:11.127Z</time></trkpt><trkpt lat="46.0144476" lon="12.0436299"><ele>522.0</ele><time>2026-04-18T10:29:21.127Z</time></trkpt><trkpt lat="46.0145257" lon="12.0436089"><ele>522.0</ele><time>2026-04-18T10:29:23.128Z</time></trkpt><trkpt lat="46.0146269" lon="12.0436015"><ele>522.0</ele><time>2026-04-18T10:29:25.126Z</time></trkpt><trkpt lat="46.0147153" lon="12.0436078"><ele>522.0</ele><time>2026-04-18T10:29:27.127Z</time></trkpt><trkpt lat="46.0147774" lon="12.0436601"><ele>522.0</ele><time>2026-04-18T10:29:29.128Z</time></trkpt><trkpt lat="46.0148338" lon="12.0437373"><ele>522.0</ele><time>2026-04-18T10:29:31.126Z</time></trkpt><trkpt lat="46.0149191" lon="12.043814"><ele>522.0</ele><time>2026-04-18T10:29:33.127Z</time></trkpt><trkpt lat="46.0150384" lon="12.043858"><ele>522.8333333333334</ele><time>2026-04-18T10:29:35.127Z</time></trkpt><trkpt lat="46.01511" lon="12.0438739"><ele>523.6666666666666</ele><time>2026-04-18T10:29:36.127Z</time></trkpt><trkpt lat="46.0151937" lon="12.0438902"><ele>524.5</ele><time>2026-04-18T10:29:37.127Z</time></trkpt><trkpt lat="46.0152795" lon="12.0439031"><ele>525.3333333333333</ele><time>2026-04-18T10:29:38.126Z</time></trkpt><trkpt lat="46.0153678" lon="12.0438967"><ele>526.1666666666666</ele><time>2026-04-18T10:29:39.126Z</time></trkpt><trkpt lat="46.0154707" lon="12.0438854"><ele>527.0</ele><time>2026-04-18T10:29:40.126Z</time></trkpt><trkpt lat="46.015568" lon="12.043879"><ele>527.0</ele><time>2026-04-18T10:29:41.127Z</time></trkpt><trkpt lat="46.0156656" lon="12.0438762"><ele>527.0</ele><time>2026-04-18T10:29:42.127Z</time></trkpt><trkpt lat="46.0157568" lon="12.0438794"><ele>527.0</ele><time>2026-04-18T10:29:43.127Z</time></trkpt><trkpt lat="46.0158477" lon="12.043894"><ele>527.0</ele><time>2026-04-18T10:29:44.126Z</time></trkpt><trkpt lat="46.01594" lon="12.0439058"><ele>527.0</ele><time>2026-04-18T10:29:45.127Z</time></trkpt><trkpt lat="46.0160376" lon="12.0439158"><ele>528.2</ele><time>2026-04-18T10:29:46.127Z</time></trkpt><trkpt lat="46.0161392" lon="12.0439219"><ele>529.4000000000001</ele><time>2026-04-18T10:29:47.126Z</time></trkpt><trkpt lat="46.0162393" lon="12.0439278"><ele>530.5999999999999</ele><time>2026-04-18T10:29:48.126Z</time></trkpt><trkpt lat="46.0163419" lon="12.0439411"><ele>531.8</ele><time>2026-04-18T10:29:49.126Z</time></trkpt><trkpt lat="46.0164385" lon="12.0439593"><ele>533.0</ele><time>2026-04-18T10:29:50.126Z</time></trkpt><trkpt lat="46.0165269" lon="12.0439774"><ele>533.0</ele><time>2026-04-18T10:29:51.126Z</time></trkpt><trkpt lat="46.016611" lon="12.0439872"><ele>533.0</ele><time>2026-04-18T10:29:52.126Z</time></trkpt><trkpt lat="46.0166988" lon="12.0439987"><ele>533.0</ele><time>2026-04-18T10:29:53.127Z</time></trkpt><trkpt lat="46.0167897" lon="12.0439948"><ele>533.0</ele><time>2026-04-18T10:29:54.126Z</time></trkpt><trkpt lat="46.0168966" lon="12.0439793"><ele>533.0</ele><time>2026-04-18T10:29:55.126Z</time></trkpt><trkpt lat="46.0169912" lon="12.0439467"><ele>534.8</ele><time>2026-04-18T10:29:56.126Z</time></trkpt><trkpt lat="46.017093" lon="12.0439312"><ele>536.5999999999999</ele><time>2026-04-18T10:29:57.126Z</time></trkpt><trkpt lat="46.0171762" lon="12.043918"><ele>538.4000000000001</ele><time>2026-04-18T10:29:58.126Z</time></trkpt><trkpt lat="46.0172681" lon="12.0439128"><ele>540.2</ele><time>2026-04-18T10:29:59.126Z</time></trkpt><trkpt lat="46.0173667" lon="12.0439112"><ele>542.0</ele><time>2026-04-18T10:30:00.127Z</time></trkpt><trkpt lat="46.0174497" lon="12.0438993"><ele>540.3333333333333</ele><time>2026-04-18T10:30:01.126Z</time></trkpt><trkpt lat="46.0175354" lon="12.0438748"><ele>538.6666666666666</ele><time>2026-04-18T10:30:02.126Z</time></trkpt><trkpt lat="46.0176105" lon="12.0438268"><ele>537.0</ele><time>2026-04-18T10:30:03.128Z</time></trkpt><trkpt lat="46.0176782" lon="12.0437689"><ele>535.3333333333334</ele><time>2026-04-18T10:30:04.127Z</time></trkpt><trkpt lat="46.0177365" lon="12.0436761"><ele>533.6666666666667</ele><time>2026-04-18T10:30:05.126Z</time></trkpt><trkpt lat="46.0177894" lon="12.0435994"><ele>532.0</ele><time>2026-04-18T10:30:06.126Z</time></trkpt><trkpt lat="46.0178498" lon="12.0435337"><ele>532.0</ele><time>2026-04-18T10:30:07.126Z</time></trkpt><trkpt lat="46.0179637" lon="12.0435116"><ele>532.0</ele><time>2026-04-18T10:30:09.127Z</time></trkpt><trkpt lat="46.0180417" lon="12.043681"><ele>532.0</ele><time>2026-04-18T10:30:11.127Z</time></trkpt><trkpt lat="46.0180826" lon="12.0438379"><ele>532.0</ele><time>2026-04-18T10:30:12.127Z</time></trkpt><trkpt lat="46.0181269" lon="12.0440201"><ele>525.8000000000001</ele><time>2026-04-18T10:30:13.126Z</time></trkpt><trkpt lat="46.0181593" lon="12.0441834"><ele>519.6</ele><time>2026-04-18T10:30:14.126Z</time></trkpt><trkpt lat="46.0181969" lon="12.0443193"><ele>513.4000000000001</ele><time>2026-04-18T10:30:15.127Z</time></trkpt><trkpt lat="46.0182421" lon="12.0444297"><ele>507.20000000000005</ele><time>2026-04-18T10:30:16.127Z</time></trkpt><trkpt lat="46.0183086" lon="12.0445033"><ele>501.0</ele><time>2026-04-18T10:30:17.127Z</time></trkpt><trkpt lat="46.0183986" lon="12.0445656"><ele>501.0</ele><time>2026-04-18T10:30:18.126Z</time></trkpt><trkpt lat="46.0185034" lon="12.0446054"><ele>501.0</ele><time>2026-04-18T10:30:19.126Z</time></trkpt><trkpt lat="46.0185982" lon="12.044646"><ele>501.0</ele><time>2026-04-18T10:30:20.126Z</time></trkpt><trkpt lat="46.018682" lon="12.0447108"><ele>501.0</ele><time>2026-04-18T10:30:21.126Z</time></trkpt><trkpt lat="46.0187578" lon="12.0447976"><ele>501.0</ele><time>2026-04-18T10:30:22.127Z</time></trkpt><trkpt lat="46.0188164" lon="12.0449043"><ele>502.8</ele><time>2026-04-18T10:30:23.127Z</time></trkpt><trkpt lat="46.0188625" lon="12.0450238"><ele>504.6</ele><time>2026-04-18T10:30:24.127Z</time></trkpt><trkpt lat="46.0189204" lon="12.0451449"><ele>506.4</ele><time>2026-04-18T10:30:25.128Z</time></trkpt><trkpt lat="46.0189767" lon="12.0452613"><ele>508.2</ele><time>2026-04-18T10:30:26.126Z</time></trkpt><trkpt lat="46.019068" lon="12.0453371"><ele>510.0</ele><time>2026-04-18T10:30:27.127Z</time></trkpt><trkpt lat="46.0191769" lon="12.0454122"><ele>510.0</ele><time>2026-04-18T10:30:28.127Z</time></trkpt><trkpt lat="46.0192781" lon="12.0454826"><ele>510.0</ele><time>2026-04-18T10:30:29.126Z</time></trkpt><trkpt lat="46.0193992" lon="12.0455572"><ele>510.0</ele><time>2026-04-18T10:30:30.126Z</time></trkpt><trkpt lat="46.0195263" lon="12.0456494"><ele>510.0</ele><time>2026-04-18T10:30:31.126Z</time></trkpt><trkpt lat="46.0196389" lon="12.0457702"><ele>510.0</ele><time>2026-04-18T10:30:32.128Z</time></trkpt><trkpt lat="46.0197436" lon="12.0458834"><ele>510.0</ele><time>2026-04-18T10:30:33.128Z</time></trkpt><trkpt lat="46.0198378" lon="12.0460031"><ele>510.0</ele><time>2026-04-18T10:30:34.127Z</time></trkpt><trkpt lat="46.0199385" lon="12.0461191"><ele>510.0</ele><time>2026-04-18T10:30:35.127Z</time></trkpt><trkpt lat="46.0200157" lon="12.0462247"><ele>510.0</ele><time>2026-04-18T10:30:36.126Z</time></trkpt><trkpt lat="46.0200817" lon="12.0463195"><ele>510.0</ele><time>2026-04-18T10:30:37.125Z</time></trkpt><trkpt lat="46.0201525" lon="12.0464057"><ele>510.0</ele><time>2026-04-18T10:30:38.125Z</time></trkpt><trkpt lat="46.0202241" lon="12.04649"><ele>510.0</ele><time>2026-04-18T10:30:39.125Z</time></trkpt><trkpt lat="46.0203144" lon="12.0465571"><ele>510.0</ele><time>2026-04-18T10:30:40.126Z</time></trkpt><trkpt lat="46.0204135" lon="12.0466146"><ele>507.75</ele><time>2026-04-18T10:30:41.127Z</time></trkpt><trkpt lat="46.0205138" lon="12.0466814"><ele>505.5</ele><time>2026-04-18T10:30:42.125Z</time></trkpt><trkpt lat="46.0206282" lon="12.0467539"><ele>503.25</ele><time>2026-04-18T10:30:43.126Z</time></trkpt><trkpt lat="46.0207532" lon="12.0468193"><ele>501.0</ele><time>2026-04-18T10:30:44.125Z</time></trkpt><trkpt lat="46.0208815" lon="12.0468881"><ele>501.0</ele><time>2026-04-18T10:30:45.126Z</time></trkpt><trkpt lat="46.021014" lon="12.0469547"><ele>501.0</ele><time>2026-04-18T10:30:46.125Z</time></trkpt><trkpt lat="46.0211385" lon="12.0470207"><ele>501.0</ele><time>2026-04-18T10:30:47.125Z</time></trkpt><trkpt lat="46.021255" lon="12.0470863"><ele>501.0</ele><time>2026-04-18T10:30:48.126Z</time></trkpt><trkpt lat="46.0213604" lon="12.0471539"><ele>501.0</ele><time>2026-04-18T10:30:49.126Z</time></trkpt><trkpt lat="46.0214569" lon="12.0472261"><ele>501.0</ele><time>2026-04-18T10:30:50.125Z</time></trkpt><trkpt lat="46.0215538" lon="12.0472841"><ele>501.0</ele><time>2026-04-18T10:30:51.125Z</time></trkpt><trkpt lat="46.0216568" lon="12.0473238"><ele>501.0</ele><time>2026-04-18T10:30:52.126Z</time></trkpt><trkpt lat="46.0217545" lon="12.0473499"><ele>501.0</ele><time>2026-04-18T10:30:53.125Z</time></trkpt><trkpt lat="46.0218432" lon="12.0473752"><ele>501.28571428571433</ele><time>2026-04-18T10:30:54.125Z</time></trkpt><trkpt lat="46.0219134" lon="12.0474211"><ele>501.57142857142856</ele><time>2026-04-18T10:30:55.125Z</time></trkpt><trkpt lat="46.0219596" lon="12.0475018"><ele>501.8571428571429</ele><time>2026-04-18T10:30:56.126Z</time></trkpt><trkpt lat="46.0219859" lon="12.0475968"><ele>502.14285714285717</ele><time>2026-04-18T10:30:57.125Z</time></trkpt><trkpt lat="46.0220023" lon="12.0476896"><ele>502.42857142857144</ele><time>2026-04-18T10:30:58.126Z</time></trkpt><trkpt lat="46.0220298" lon="12.0477858"><ele>502.7142857142857</ele><time>2026-04-18T10:30:59.125Z</time></trkpt><trkpt lat="46.0220687" lon="12.0478829"><ele>503.0</ele><time>2026-04-18T10:31:00.126Z</time></trkpt><trkpt lat="46.0221254" lon="12.0479552"><ele>500.4</ele><time>2026-04-18T10:31:01.126Z</time></trkpt><trkpt lat="46.0221973" lon="12.0480089"><ele>497.79999999999995</ele><time>2026-04-18T10:31:02.126Z</time></trkpt><trkpt lat="46.0222852" lon="12.0480379"><ele>495.2</ele><time>2026-04-18T10:31:03.125Z</time></trkpt><trkpt lat="46.022388" lon="12.0480496"><ele>492.6</ele><time>2026-04-18T10:31:04.126Z</time></trkpt><trkpt lat="46.0225012" lon="12.0480523"><ele>490.0</ele><time>2026-04-18T10:31:05.126Z</time></trkpt><trkpt lat="46.022629" lon="12.0480604"><ele>490.0</ele><time>2026-04-18T10:31:06.127Z</time></trkpt><trkpt lat="46.022759" lon="12.048081"><ele>490.0</ele><time>2026-04-18T10:31:07.126Z</time></trkpt><trkpt lat="46.0228775" lon="12.0481053"><ele>490.0</ele><time>2026-04-18T10:31:08.126Z</time></trkpt><trkpt lat="46.0229915" lon="12.0481322"><ele>490.0</ele><time>2026-04-18T10:31:09.125Z</time></trkpt><trkpt lat="46.0230961" lon="12.0481478"><ele>490.0</ele><time>2026-04-18T10:31:10.125Z</time></trkpt><trkpt lat="46.0231898" lon="12.0481521"><ele>490.0</ele><time>2026-04-18T10:31:11.126Z</time></trkpt><trkpt lat="46.0232822" lon="12.0481249"><ele>490.0</ele><time>2026-04-18T10:31:12.127Z</time></trkpt><trkpt lat="46.0233696" lon="12.0480653"><ele>490.0</ele><time>2026-04-18T10:31:13.125Z</time></trkpt><trkpt lat="46.0234619" lon="12.0480162"><ele>490.0</ele><time>2026-04-18T10:31:14.125Z</time></trkpt><trkpt lat="46.0235508" lon="12.0479693"><ele>489.00000000000006</ele><time>2026-04-18T10:31:15.125Z</time></trkpt><trkpt lat="46.0236197" lon="12.047899"><ele>488.0</ele><time>2026-04-18T10:31:16.125Z</time></trkpt><trkpt lat="46.023669" lon="12.0478111"><ele>487.0</ele><time>2026-04-18T10:31:17.126Z</time></trkpt><trkpt lat="46.0237041" lon="12.0477132"><ele>486.0</ele><time>2026-04-18T10:31:18.125Z</time></trkpt><trkpt lat="46.0237163" lon="12.0476019"><ele>485.00000000000006</ele><time>2026-04-18T10:31:19.125Z</time></trkpt><trkpt lat="46.0237758" lon="12.0475341"><ele>484.0</ele><time>2026-04-18T10:31:20.126Z</time></trkpt><trkpt lat="46.0238301" lon="12.0474679"><ele>484.00000000000006</ele><time>2026-04-18T10:31:21.126Z</time></trkpt><trkpt lat="46.02391" lon="12.0474487"><ele>484.0</ele><time>2026-04-18T10:31:22.125Z</time></trkpt><trkpt lat="46.0239838" lon="12.0474689"><ele>484.0</ele><time>2026-04-18T10:31:23.125Z</time></trkpt><trkpt lat="46.0240528" lon="12.0474318"><ele>484.0</ele><time>2026-04-18T10:31:24.126Z</time></trkpt><trkpt lat="46.0241137" lon="12.0473697"><ele>484.00000000000006</ele><time>2026-04-18T10:31:25.125Z</time></trkpt><trkpt lat="46.0241615" lon="12.0472822"><ele>484.0</ele><time>2026-04-18T10:31:26.125Z</time></trkpt><trkpt lat="46.024212" lon="12.0471904"><ele>483.1666666666667</ele><time>2026-04-18T10:31:27.125Z</time></trkpt><trkpt lat="46.0242797" lon="12.0471001"><ele>482.33333333333337</ele><time>2026-04-18T10:31:28.125Z</time></trkpt><trkpt lat="46.0243526" lon="12.0470188"><ele>481.5</ele><time>2026-04-18T10:31:29.125Z</time></trkpt><trkpt lat="46.0244132" lon="12.0469309"><ele>480.66666666666663</ele><time>2026-04-18T10:31:30.125Z</time></trkpt><trkpt lat="46.0244717" lon="12.0468397"><ele>479.8333333333333</ele><time>2026-04-18T10:31:31.125Z</time></trkpt><trkpt lat="46.024534" lon="12.0467599"><ele>479.0</ele><time>2026-04-18T10:31:32.126Z</time></trkpt><trkpt lat="46.0246046" lon="12.0467025"><ele>478.99999999999994</ele><time>2026-04-18T10:31:33.125Z</time></trkpt><trkpt lat="46.0246849" lon="12.0466597"><ele>479.0</ele><time>2026-04-18T10:31:34.125Z</time></trkpt><trkpt lat="46.024766" lon="12.0466316"><ele>479.0</ele><time>2026-04-18T10:31:35.125Z</time></trkpt><trkpt lat="46.0248527" lon="12.0466037"><ele>479.0</ele><time>2026-04-18T10:31:36.125Z</time></trkpt><trkpt lat="46.024941" lon="12.046564"><ele>478.99999999999994</ele><time>2026-04-18T10:31:37.126Z</time></trkpt><trkpt lat="46.0250254" lon="12.0465195"><ele>479.0</ele><time>2026-04-18T10:31:38.126Z</time></trkpt><trkpt lat="46.0251075" lon="12.046474"><ele>478.3333333333333</ele><time>2026-04-18T10:31:39.125Z</time></trkpt><trkpt lat="46.0251893" lon="12.0464404"><ele>477.66666666666663</ele><time>2026-04-18T10:31:40.125Z</time></trkpt><trkpt lat="46.0252683" lon="12.0464171"><ele>477.0</ele><time>2026-04-18T10:31:41.125Z</time></trkpt><trkpt lat="46.0253458" lon="12.0463992"><ele>476.33333333333337</ele><time>2026-04-18T10:31:42.126Z</time></trkpt><trkpt lat="46.0254221" lon="12.0463806"><ele>475.6666666666667</ele><time>2026-04-18T10:31:43.125Z</time></trkpt><trkpt lat="46.0255037" lon="12.0463512"><ele>475.0</ele><time>2026-04-18T10:31:44.126Z</time></trkpt><trkpt lat="46.0255876" lon="12.046314"><ele>475.0</ele><time>2026-04-18T10:31:45.125Z</time></trkpt><trkpt lat="46.0256742" lon="12.0462701"><ele>475.0</ele><time>2026-04-18T10:31:46.125Z</time></trkpt><trkpt lat="46.0257688" lon="12.0462257"><ele>475.0</ele><time>2026-04-18T10:31:47.125Z</time></trkpt><trkpt lat="46.0258648" lon="12.0461809"><ele>475.0</ele><time>2026-04-18T10:31:48.126Z</time></trkpt><trkpt lat="46.0259562" lon="12.0461389"><ele>475.0</ele><time>2026-04-18T10:31:49.125Z</time></trkpt><trkpt lat="46.0260394" lon="12.0460905"><ele>473.00000000000006</ele><time>2026-04-18T10:31:50.125Z</time></trkpt><trkpt lat="46.0261248" lon="12.0460502"><ele>471.0</ele><time>2026-04-18T10:31:51.125Z</time></trkpt><trkpt lat="46.0262059" lon="12.0460181"><ele>469.0</ele><time>2026-04-18T10:31:52.126Z</time></trkpt><trkpt lat="46.0262831" lon="12.0460044"><ele>467.0</ele><time>2026-04-18T10:31:53.126Z</time></trkpt><trkpt lat="46.026358" lon="12.0460168"><ele>465.00000000000006</ele><time>2026-04-18T10:31:54.127Z</time></trkpt><trkpt lat="46.0264258" lon="12.046025"><ele>463.0</ele><time>2026-04-18T10:31:55.126Z</time></trkpt><trkpt lat="46.0265383" lon="12.0459796"><ele>463.00000000000006</ele><time>2026-04-18T10:31:57.126Z</time></trkpt><trkpt lat="46.0266059" lon="12.0458381"><ele>463.0</ele><time>2026-04-18T10:31:59.126Z</time></trkpt><trkpt lat="46.0266366" lon="12.0457514"><ele>463.0</ele><time>2026-04-18T10:32:00.125Z</time></trkpt><trkpt lat="46.0266685" lon="12.0456635"><ele>463.0</ele><time>2026-04-18T10:32:01.126Z</time></trkpt><trkpt lat="46.0266976" lon="12.045569"><ele>463.00000000000006</ele><time>2026-04-18T10:32:02.125Z</time></trkpt><trkpt lat="46.0267279" lon="12.0454797"><ele>463.0</ele><time>2026-04-18T10:32:03.126Z</time></trkpt><trkpt lat="46.0267606" lon="12.0453963"><ele>462.85714285714283</ele><time>2026-04-18T10:32:04.125Z</time></trkpt><trkpt lat="46.0268026" lon="12.0453238"><ele>462.71428571428567</ele><time>2026-04-18T10:32:05.126Z</time></trkpt><trkpt lat="46.0268538" lon="12.0452626"><ele>462.57142857142856</ele><time>2026-04-18T10:32:06.126Z</time></trkpt><trkpt lat="46.0269049" lon="12.0451932"><ele>462.42857142857144</ele><time>2026-04-18T10:32:07.127Z</time></trkpt><trkpt lat="46.026947" lon="12.0451099"><ele>462.2857142857143</ele><time>2026-04-18T10:32:08.125Z</time></trkpt><trkpt lat="46.0269808" lon="12.0450183"><ele>462.1428571428571</ele><time>2026-04-18T10:32:09.125Z</time></trkpt><trkpt lat="46.0270106" lon="12.0449277"><ele>462.0</ele><time>2026-04-18T10:32:10.125Z</time></trkpt><trkpt lat="46.0270416" lon="12.04484"><ele>464.8333333333333</ele><time>2026-04-18T10:32:11.125Z</time></trkpt><trkpt lat="46.027074" lon="12.044753"><ele>467.66666666666663</ele><time>2026-04-18T10:32:12.126Z</time></trkpt><trkpt lat="46.0270984" lon="12.0446693"><ele>470.5</ele><time>2026-04-18T10:32:13.126Z</time></trkpt><trkpt lat="46.0271316" lon="12.0445013"><ele>473.3333333333333</ele><time>2026-04-18T10:32:15.125Z</time></trkpt><trkpt lat="46.0271497" lon="12.0444129"><ele>476.16666666666663</ele><time>2026-04-18T10:32:16.125Z</time></trkpt><trkpt lat="46.0272302" lon="12.0442832"><ele>479.0</ele><time>2026-04-18T10:32:18.126Z</time></trkpt><trkpt lat="46.0272882" lon="12.0442392"><ele>478.99999999999994</ele><time>2026-04-18T10:32:19.125Z</time></trkpt><trkpt lat="46.0273765" lon="12.0442717"><ele>479.0</ele><time>2026-04-18T10:32:20.125Z</time></trkpt><trkpt lat="46.0274578" lon="12.0442874"><ele>479.0</ele><time>2026-04-18T10:32:21.126Z</time></trkpt><trkpt lat="46.0275328" lon="12.0442814"><ele>479.0</ele><time>2026-04-18T10:32:22.126Z</time></trkpt><trkpt lat="46.0275995" lon="12.0442628"><ele>478.99999999999994</ele><time>2026-04-18T10:32:23.125Z</time></trkpt><trkpt lat="46.0277128" lon="12.0442156"><ele>479.0</ele><time>2026-04-18T10:32:25.126Z</time></trkpt><trkpt lat="46.0277736" lon="12.0441823"><ele>481.49999999999994</ele><time>2026-04-18T10:32:26.125Z</time></trkpt><trkpt lat="46.0278889" lon="12.0441066"><ele>484.0</ele><time>2026-04-18T10:32:28.125Z</time></trkpt><trkpt lat="46.0279532" lon="12.0440706"><ele>486.5</ele><time>2026-04-18T10:32:29.125Z</time></trkpt><trkpt lat="46.0280242" lon="12.0440251"><ele>489.0</ele><time>2026-04-18T10:32:30.125Z</time></trkpt><trkpt lat="46.0280937" lon="12.0439704"><ele>491.49999999999994</ele><time>2026-04-18T10:32:31.125Z</time></trkpt><trkpt lat="46.0281719" lon="12.0439142"><ele>494.0</ele><time>2026-04-18T10:32:32.127Z</time></trkpt><trkpt lat="46.0282542" lon="12.0438595"><ele>491.2</ele><time>2026-04-18T10:32:33.126Z</time></trkpt><trkpt lat="46.0283511" lon="12.0438242"><ele>488.4</ele><time>2026-04-18T10:32:34.126Z</time></trkpt><trkpt lat="46.028456" lon="12.0438007"><ele>485.6</ele><time>2026-04-18T10:32:35.125Z</time></trkpt><trkpt lat="46.0285652" lon="12.0437698"><ele>482.8</ele><time>2026-04-18T10:32:36.125Z</time></trkpt><trkpt lat="46.0286675" lon="12.0437414"><ele>480.0</ele><time>2026-04-18T10:32:37.125Z</time></trkpt><trkpt lat="46.0287798" lon="12.0437163"><ele>480.0</ele><time>2026-04-18T10:32:38.126Z</time></trkpt><trkpt lat="46.0288859" lon="12.0436333"><ele>480.0</ele><time>2026-04-18T10:32:39.125Z</time></trkpt><trkpt lat="46.0290015" lon="12.0435777"><ele>480.0</ele><time>2026-04-18T10:32:40.126Z</time></trkpt><trkpt lat="46.0290851" lon="12.0435644"><ele>480.0</ele><time>2026-04-18T10:32:41.125Z</time></trkpt><trkpt lat="46.0291754" lon="12.0435372"><ele>480.0</ele><time>2026-04-18T10:32:42.126Z</time></trkpt><trkpt lat="46.0292595" lon="12.0434866"><ele>482.25</ele><time>2026-04-18T10:32:43.126Z</time></trkpt><trkpt lat="46.0293737" lon="12.0434352"><ele>484.5</ele><time>2026-04-18T10:32:44.126Z</time></trkpt><trkpt lat="46.0294787" lon="12.0433652"><ele>486.75</ele><time>2026-04-18T10:32:45.125Z</time></trkpt><trkpt lat="46.0295862" lon="12.0433002"><ele>489.0</ele><time>2026-04-18T10:32:46.126Z</time></trkpt><trkpt lat="46.0296838" lon="12.0432239"><ele>489.0</ele><time>2026-04-18T10:32:47.125Z</time></trkpt><trkpt lat="46.0297805" lon="12.0431467"><ele>489.0</ele><time>2026-04-18T10:32:48.126Z</time></trkpt><trkpt lat="46.0298651" lon="12.0430649"><ele>489.0</ele><time>2026-04-18T10:32:49.127Z</time></trkpt><trkpt lat="46.029937" lon="12.0429767"><ele>489.0</ele><time>2026-04-18T10:32:50.126Z</time></trkpt><trkpt lat="46.0300067" lon="12.042889"><ele>489.0</ele><time>2026-04-18T10:32:51.126Z</time></trkpt><trkpt lat="46.030079" lon="12.0428016"><ele>482.4</ele><time>2026-04-18T10:32:52.125Z</time></trkpt><trkpt lat="46.0301663" lon="12.0427353"><ele>475.79999999999995</ele><time>2026-04-18T10:32:53.125Z</time></trkpt><trkpt lat="46.0302519" lon="12.0426677"><ele>469.20000000000005</ele><time>2026-04-18T10:32:54.126Z</time></trkpt><trkpt lat="46.0303401" lon="12.0426119"><ele>462.6</ele><time>2026-04-18T10:32:55.125Z</time></trkpt><trkpt lat="46.0304661" lon="12.0426317"><ele>456.0</ele><time>2026-04-18T10:32:56.126Z</time></trkpt><trkpt lat="46.0305719" lon="12.0426411"><ele>456.0</ele><time>2026-04-18T10:32:57.125Z</time></trkpt><trkpt lat="46.0306721" lon="12.0426631"><ele>456.0</ele><time>2026-04-18T10:32:58.126Z</time></trkpt><trkpt lat="46.0307682" lon="12.0426945"><ele>456.0</ele><time>2026-04-18T10:32:59.125Z</time></trkpt><trkpt lat="46.0308551" lon="12.0427202"><ele>456.0</ele><time>2026-04-18T10:33:00.126Z</time></trkpt><trkpt lat="46.0309461" lon="12.0427059"><ele>456.0</ele><time>2026-04-18T10:33:01.125Z</time></trkpt><trkpt lat="46.0310274" lon="12.0426505"><ele>456.6666666666667</ele><time>2026-04-18T10:33:02.125Z</time></trkpt><trkpt lat="46.0310922" lon="12.0425609"><ele>457.33333333333337</ele><time>2026-04-18T10:33:03.126Z</time></trkpt><trkpt lat="46.031142" lon="12.0424663"><ele>458.0</ele><time>2026-04-18T10:33:04.127Z</time></trkpt><trkpt lat="46.0311701" lon="12.0423545"><ele>458.6666666666667</ele><time>2026-04-18T10:33:05.125Z</time></trkpt><trkpt lat="46.0311609" lon="12.0422421"><ele>459.33333333333337</ele><time>2026-04-18T10:33:06.127Z</time></trkpt><trkpt lat="46.0311746" lon="12.0421392"><ele>460.0</ele><time>2026-04-18T10:33:07.125Z</time></trkpt><trkpt lat="46.0312369" lon="12.0419911"><ele>460.0</ele><time>2026-04-18T10:33:09.127Z</time></trkpt><trkpt lat="46.0313883" lon="12.0419505"><ele>460.0</ele><time>2026-04-18T10:33:10.126Z</time></trkpt><trkpt lat="46.0314781" lon="12.0418606"><ele>460.0</ele><time>2026-04-18T10:33:11.125Z</time></trkpt><trkpt lat="46.0315654" lon="12.0417693"><ele>460.0</ele><time>2026-04-18T10:33:12.126Z</time></trkpt><trkpt lat="46.0316547" lon="12.0416764"><ele>457.6</ele><time>2026-04-18T10:33:13.125Z</time></trkpt><trkpt lat="46.0317466" lon="12.0415987"><ele>455.2</ele><time>2026-04-18T10:33:14.127Z</time></trkpt><trkpt lat="46.0318382" lon="12.0415262"><ele>452.79999999999995</ele><time>2026-04-18T10:33:15.125Z</time></trkpt><trkpt lat="46.0319382" lon="12.0414765"><ele>450.4</ele><time>2026-04-18T10:33:16.126Z</time></trkpt><trkpt lat="46.032041" lon="12.0414558"><ele>448.0</ele><time>2026-04-18T10:33:17.126Z</time></trkpt><trkpt lat="46.0321483" lon="12.0414511"><ele>448.0</ele><time>2026-04-18T10:33:18.127Z</time></trkpt><trkpt lat="46.0322581" lon="12.0414641"><ele>447.99999999999994</ele><time>2026-04-18T10:33:19.125Z</time></trkpt><trkpt lat="46.0323663" lon="12.0414841"><ele>447.99999999999994</ele><time>2026-04-18T10:33:20.125Z</time></trkpt><trkpt lat="46.0324677" lon="12.0415035"><ele>448.0</ele><time>2026-04-18T10:33:21.126Z</time></trkpt><trkpt lat="46.0325738" lon="12.0415094"><ele>448.0</ele><time>2026-04-18T10:33:22.125Z</time></trkpt><trkpt lat="46.0326762" lon="12.0415002"><ele>445.2</ele><time>2026-04-18T10:33:23.126Z</time></trkpt><trkpt lat="46.0327793" lon="12.0414723"><ele>442.4</ele><time>2026-04-18T10:33:24.125Z</time></trkpt><trkpt lat="46.0328774" lon="12.0414313"><ele>439.59999999999997</ele><time>2026-04-18T10:33:25.125Z</time></trkpt><trkpt lat="46.0329727" lon="12.0413848"><ele>436.79999999999995</ele><time>2026-04-18T10:33:26.126Z</time></trkpt><trkpt lat="46.0330662" lon="12.0413271"><ele>434.0</ele><time>2026-04-18T10:33:27.125Z</time></trkpt><trkpt lat="46.0331593" lon="12.0412679"><ele>434.0</ele><time>2026-04-18T10:33:28.126Z</time></trkpt><trkpt lat="46.0332522" lon="12.041204"><ele>434.0</ele><time>2026-04-18T10:33:29.126Z</time></trkpt><trkpt lat="46.0333432" lon="12.0411421"><ele>434.0</ele><time>2026-04-18T10:33:30.126Z</time></trkpt><trkpt lat="46.033441" lon="12.0410878"><ele>434.0</ele><time>2026-04-18T10:33:31.126Z</time></trkpt><trkpt lat="46.033543" lon="12.041043"><ele>434.0</ele><time>2026-04-18T10:33:32.126Z</time></trkpt><trkpt lat="46.0336393" lon="12.0409921"><ele>433.6</ele><time>2026-04-18T10:33:33.127Z</time></trkpt><trkpt lat="46.0337362" lon="12.0409429"><ele>433.2</ele><time>2026-04-18T10:33:34.125Z</time></trkpt><trkpt lat="46.0338323" lon="12.0408931"><ele>432.80000000000007</ele><time>2026-04-18T10:33:35.125Z</time></trkpt><trkpt lat="46.03393" lon="12.0408426"><ele>432.40000000000003</ele><time>2026-04-18T10:33:36.126Z</time></trkpt><trkpt lat="46.0340359" lon="12.040794"><ele>432.0</ele><time>2026-04-18T10:33:37.126Z</time></trkpt><trkpt lat="46.0341377" lon="12.040763"><ele>430.20000000000005</ele><time>2026-04-18T10:33:38.126Z</time></trkpt><trkpt lat="46.034238" lon="12.0407403"><ele>428.40000000000003</ele><time>2026-04-18T10:33:39.125Z</time></trkpt><trkpt lat="46.0343429" lon="12.0407328"><ele>426.6</ele><time>2026-04-18T10:33:40.125Z</time></trkpt><trkpt lat="46.0344469" lon="12.0407426"><ele>424.79999999999995</ele><time>2026-04-18T10:33:41.126Z</time></trkpt><trkpt lat="46.0345478" lon="12.0407801"><ele>423.0</ele><time>2026-04-18T10:33:42.125Z</time></trkpt><trkpt lat="46.0346488" lon="12.0407989"><ele>423.0</ele><time>2026-04-18T10:33:43.125Z</time></trkpt><trkpt lat="46.0347476" lon="12.0408191"><ele>423.0</ele><time>2026-04-18T10:33:44.126Z</time></trkpt><trkpt lat="46.0348531" lon="12.0408037"><ele>423.0</ele><time>2026-04-18T10:33:45.125Z</time></trkpt><trkpt lat="46.0349642" lon="12.0407821"><ele>423.0</ele><time>2026-04-18T10:33:46.125Z</time></trkpt><trkpt lat="46.0350615" lon="12.0407448"><ele>423.0</ele><time>2026-04-18T10:33:47.126Z</time></trkpt><trkpt lat="46.035153" lon="12.040676"><ele>419.2</ele><time>2026-04-18T10:33:48.125Z</time></trkpt><trkpt lat="46.0352308" lon="12.0405942"><ele>415.4</ele><time>2026-04-18T10:33:49.125Z</time></trkpt><trkpt lat="46.0352932" lon="12.0404899"><ele>411.59999999999997</ele><time>2026-04-18T10:33:50.125Z</time></trkpt><trkpt lat="46.0353553" lon="12.0403934"><ele>407.79999999999995</ele><time>2026-04-18T10:33:51.125Z</time></trkpt><trkpt lat="46.0354343" lon="12.0403133"><ele>404.0</ele><time>2026-04-18T10:33:52.125Z</time></trkpt><trkpt lat="46.0355329" lon="12.0402673"><ele>404.0</ele><time>2026-04-18T10:33:53.125Z</time></trkpt><trkpt lat="46.0356566" lon="12.0402386"><ele>404.0</ele><time>2026-04-18T10:33:54.125Z</time></trkpt><trkpt lat="46.035794" lon="12.0402042"><ele>404.0</ele><time>2026-04-18T10:33:55.125Z</time></trkpt><trkpt lat="46.035943" lon="12.0401521"><ele>404.0</ele><time>2026-04-18T10:33:56.125Z</time></trkpt><trkpt lat="46.0360872" lon="12.0401017"><ele>405.75</ele><time>2026-04-18T10:33:57.125Z</time></trkpt><trkpt lat="46.0362248" lon="12.0400471"><ele>407.5</ele><time>2026-04-18T10:33:58.125Z</time></trkpt><trkpt lat="46.0363619" lon="12.0399901"><ele>409.25</ele><time>2026-04-18T10:33:59.126Z</time></trkpt><trkpt lat="46.0364942" lon="12.0399341"><ele>411.0</ele><time>2026-04-18T10:34:00.126Z</time></trkpt><trkpt lat="46.0366204" lon="12.039882"><ele>406.0</ele><time>2026-04-18T10:34:01.127Z</time></trkpt><trkpt lat="46.0367467" lon="12.0398316"><ele>401.0</ele><time>2026-04-18T10:34:02.125Z</time></trkpt><trkpt lat="46.0368618" lon="12.0397858"><ele>396.0</ele><time>2026-04-18T10:34:03.126Z</time></trkpt><trkpt lat="46.0369757" lon="12.0397628"><ele>391.0</ele><time>2026-04-18T10:34:04.126Z</time></trkpt><trkpt lat="46.0370921" lon="12.0397622"><ele>391.0</ele><time>2026-04-18T10:34:05.127Z</time></trkpt><trkpt lat="46.0372069" lon="12.0397806"><ele>391.0</ele><time>2026-04-18T10:34:06.126Z</time></trkpt><trkpt lat="46.0373215" lon="12.0398097"><ele>391.0</ele><time>2026-04-18T10:34:07.125Z</time></trkpt><trkpt lat="46.0374325" lon="12.0398478"><ele>391.0</ele><time>2026-04-18T10:34:08.126Z</time></trkpt><trkpt lat="46.0375348" lon="12.0398797"><ele>386.6</ele><time>2026-04-18T10:34:09.125Z</time></trkpt><trkpt lat="46.0376351" lon="12.0399012"><ele>382.20000000000005</ele><time>2026-04-18T10:34:10.125Z</time></trkpt><trkpt lat="46.0377285" lon="12.0398943"><ele>377.79999999999995</ele><time>2026-04-18T10:34:11.126Z</time></trkpt><trkpt lat="46.0378186" lon="12.0398588"><ele>373.4</ele><time>2026-04-18T10:34:12.127Z</time></trkpt><trkpt lat="46.0379134" lon="12.0397903"><ele>369.0</ele><time>2026-04-18T10:34:13.126Z</time></trkpt><trkpt lat="46.0380158" lon="12.039704"><ele>369.0</ele><time>2026-04-18T10:34:14.125Z</time></trkpt><trkpt lat="46.0381235" lon="12.0396215"><ele>369.0</ele><time>2026-04-18T10:34:15.125Z</time></trkpt><trkpt lat="46.0382323" lon="12.039556"><ele>369.0</ele><time>2026-04-18T10:34:16.125Z</time></trkpt><trkpt lat="46.0383306" lon="12.0394987"><ele>369.0</ele><time>2026-04-18T10:34:17.125Z</time></trkpt><trkpt lat="46.038414" lon="12.0394354"><ele>369.0</ele><time>2026-04-18T10:34:18.127Z</time></trkpt><trkpt lat="46.0384878" lon="12.0393456"><ele>367.75</ele><time>2026-04-18T10:34:19.125Z</time></trkpt><trkpt lat="46.0385477" lon="12.0392133"><ele>366.5</ele><time>2026-04-18T10:34:20.127Z</time></trkpt><trkpt lat="46.0386061" lon="12.0390682"><ele>365.25</ele><time>2026-04-18T10:34:21.126Z</time></trkpt><trkpt lat="46.0386498" lon="12.0389111"><ele>364.0</ele><time>2026-04-18T10:34:22.125Z</time></trkpt><trkpt lat="46.0386771" lon="12.0387386"><ele>364.0</ele><time>2026-04-18T10:34:23.125Z</time></trkpt><trkpt lat="46.038703" lon="12.0385577"><ele>364.0</ele><time>2026-04-18T10:34:24.126Z</time></trkpt><trkpt lat="46.0387296" lon="12.0383796"><ele>364.0</ele><time>2026-04-18T10:34:25.127Z</time></trkpt><trkpt lat="46.0387548" lon="12.0382096"><ele>364.0</ele><time>2026-04-18T10:34:26.124Z</time></trkpt><trkpt lat="46.0387797" lon="12.0380452"><ele>364.25</ele><time>2026-04-18T10:34:27.124Z</time></trkpt><trkpt lat="46.038808" lon="12.0378831"><ele>364.5</ele><time>2026-04-18T10:34:28.124Z</time></trkpt><trkpt lat="46.0388364" lon="12.0377203"><ele>364.75</ele><time>2026-04-18T10:34:29.125Z</time></trkpt><trkpt lat="46.0388646" lon="12.0375657"><ele>365.0</ele><time>2026-04-18T10:34:30.125Z</time></trkpt><trkpt lat="46.038893" lon="12.0374116"><ele>364.4</ele><time>2026-04-18T10:34:31.126Z</time></trkpt><trkpt lat="46.0389176" lon="12.0372605"><ele>363.8</ele><time>2026-04-18T10:34:32.124Z</time></trkpt><trkpt lat="46.0389439" lon="12.0371147"><ele>363.20000000000005</ele><time>2026-04-18T10:34:33.124Z</time></trkpt><trkpt lat="46.0389749" lon="12.0369759"><ele>362.6</ele><time>2026-04-18T10:34:34.124Z</time></trkpt><trkpt lat="46.0390269" lon="12.0368521"><ele>362.0</ele><time>2026-04-18T10:34:35.124Z</time></trkpt><trkpt lat="46.0391018" lon="12.0367503"><ele>360.40000000000003</ele><time>2026-04-18T10:34:36.126Z</time></trkpt><trkpt lat="46.0391994" lon="12.0366916"><ele>358.8</ele><time>2026-04-18T10:34:37.125Z</time></trkpt><trkpt lat="46.0393033" lon="12.0366531"><ele>357.2</ele><time>2026-04-18T10:34:38.125Z</time></trkpt><trkpt lat="46.0394018" lon="12.0366158"><ele>355.6</ele><time>2026-04-18T10:34:39.126Z</time></trkpt><trkpt lat="46.0394938" lon="12.0365567"><ele>354.0</ele><time>2026-04-18T10:34:40.124Z</time></trkpt><trkpt lat="46.0395769" lon="12.0364766"><ele>354.0</ele><time>2026-04-18T10:34:41.124Z</time></trkpt><trkpt lat="46.039652" lon="12.0363629"><ele>354.0</ele><time>2026-04-18T10:34:42.125Z</time></trkpt><trkpt lat="46.0397099" lon="12.0361951"><ele>354.0</ele><time>2026-04-18T10:34:43.124Z</time></trkpt><trkpt lat="46.0397571" lon="12.0359776"><ele>354.0</ele><time>2026-04-18T10:34:44.124Z</time></trkpt><trkpt lat="46.0397931" lon="12.0357768"><ele>354.25</ele><time>2026-04-18T10:34:45.124Z</time></trkpt><trkpt lat="46.0398194" lon="12.0355742"><ele>354.5</ele><time>2026-04-18T10:34:46.126Z</time></trkpt><trkpt lat="46.0398539" lon="12.0353704"><ele>354.75</ele><time>2026-04-18T10:34:47.124Z</time></trkpt><trkpt lat="46.0399077" lon="12.0351721"><ele>355.0</ele><time>2026-04-18T10:34:48.124Z</time></trkpt><trkpt lat="46.0399729" lon="12.03499"><ele>352.5</ele><time>2026-04-18T10:34:49.124Z</time></trkpt><trkpt lat="46.0400453" lon="12.0348258"><ele>350.0</ele><time>2026-04-18T10:34:50.124Z</time></trkpt><trkpt lat="46.0401172" lon="12.0346642"><ele>347.5</ele><time>2026-04-18T10:34:51.124Z</time></trkpt><trkpt lat="46.0401825" lon="12.0345009"><ele>345.0</ele><time>2026-04-18T10:34:52.124Z</time></trkpt><trkpt lat="46.0402445" lon="12.0343394"><ele>345.0</ele><time>2026-04-18T10:34:53.125Z</time></trkpt><trkpt lat="46.0403083" lon="12.0341922"><ele>345.0</ele><time>2026-04-18T10:34:54.124Z</time></trkpt><trkpt lat="46.0403796" lon="12.0340567"><ele>345.0</ele><time>2026-04-18T10:34:55.125Z</time></trkpt><trkpt lat="46.0404524" lon="12.0338827"><ele>345.0</ele><time>2026-04-18T10:34:56.125Z</time></trkpt><trkpt lat="46.0405155" lon="12.0336805"><ele>345.25</ele><time>2026-04-18T10:34:57.125Z</time></trkpt><trkpt lat="46.040574" lon="12.0334869"><ele>345.5</ele><time>2026-04-18T10:34:58.125Z</time></trkpt><trkpt lat="46.0406305" lon="12.0332939"><ele>345.75</ele><time>2026-04-18T10:34:59.126Z</time></trkpt><trkpt lat="46.0406769" lon="12.033104"><ele>346.0</ele><time>2026-04-18T10:35:00.124Z</time></trkpt><trkpt lat="46.0407192" lon="12.0329167"><ele>346.0</ele><time>2026-04-18T10:35:01.124Z</time></trkpt><trkpt lat="46.0407712" lon="12.032738"><ele>346.0</ele><time>2026-04-18T10:35:02.125Z</time></trkpt><trkpt lat="46.0408408" lon="12.0325708"><ele>346.0</ele><time>2026-04-18T10:35:03.126Z</time></trkpt><trkpt lat="46.0409238" lon="12.0324192"><ele>346.0</ele><time>2026-04-18T10:35:04.126Z</time></trkpt><trkpt lat="46.0410201" lon="12.0322955"><ele>341.5</ele><time>2026-04-18T10:35:05.125Z</time></trkpt><trkpt lat="46.0411227" lon="12.0321902"><ele>337.0</ele><time>2026-04-18T10:35:06.125Z</time></trkpt><trkpt lat="46.0412168" lon="12.0320881"><ele>332.5</ele><time>2026-04-18T10:35:07.126Z</time></trkpt><trkpt lat="46.0412995" lon="12.0319679"><ele>328.0</ele><time>2026-04-18T10:35:08.124Z</time></trkpt><trkpt lat="46.0413775" lon="12.0318302"><ele>328.0</ele><time>2026-04-18T10:35:09.125Z</time></trkpt><trkpt lat="46.0414566" lon="12.031685"><ele>328.0</ele><time>2026-04-18T10:35:10.124Z</time></trkpt><trkpt lat="46.0415262" lon="12.0315209"><ele>328.0</ele><time>2026-04-18T10:35:11.124Z</time></trkpt><trkpt lat="46.0415857" lon="12.0313499"><ele>328.0</ele><time>2026-04-18T10:35:12.124Z</time></trkpt><trkpt lat="46.0416508" lon="12.0311858"><ele>326.25</ele><time>2026-04-18T10:35:13.125Z</time></trkpt><trkpt lat="46.0417145" lon="12.0310202"><ele>324.5</ele><time>2026-04-18T10:35:14.124Z</time></trkpt><trkpt lat="46.0417794" lon="12.0308592"><ele>322.75</ele><time>2026-04-18T10:35:15.125Z</time></trkpt><trkpt lat="46.0418492" lon="12.0307239"><ele>321.0</ele><time>2026-04-18T10:35:16.124Z</time></trkpt><trkpt lat="46.0419272" lon="12.0305984"><ele>321.0</ele><time>2026-04-18T10:35:17.125Z</time></trkpt><trkpt lat="46.0420156" lon="12.0304943"><ele>321.0</ele><time>2026-04-18T10:35:18.124Z</time></trkpt><trkpt lat="46.0421103" lon="12.0304177"><ele>321.0</ele><time>2026-04-18T10:35:19.125Z</time></trkpt><trkpt lat="46.0422052" lon="12.0303289"><ele>321.0</ele><time>2026-04-18T10:35:20.125Z</time></trkpt><trkpt lat="46.0422807" lon="12.0302283"><ele>321.0</ele><time>2026-04-18T10:35:21.124Z</time></trkpt><trkpt lat="46.0423573" lon="12.0300982"><ele>322.5</ele><time>2026-04-18T10:35:22.125Z</time></trkpt><trkpt lat="46.042443" lon="12.0299537"><ele>324.0</ele><time>2026-04-18T10:35:23.124Z</time></trkpt><trkpt lat="46.0425139" lon="12.0298203"><ele>325.5</ele><time>2026-04-18T10:35:24.124Z</time></trkpt><trkpt lat="46.0425807" lon="12.0296634"><ele>327.0</ele><time>2026-04-18T10:35:25.125Z</time></trkpt><trkpt lat="46.042642" lon="12.0294841"><ele>322.5</ele><time>2026-04-18T10:35:26.124Z</time></trkpt><trkpt lat="46.0427159" lon="12.0292764"><ele>318.0</ele><time>2026-04-18T10:35:27.125Z</time></trkpt><trkpt lat="46.0427921" lon="12.0290753"><ele>313.5</ele><time>2026-04-18T10:35:28.125Z</time></trkpt><trkpt lat="46.0428475" lon="12.0289274"><ele>309.0</ele><time>2026-04-18T10:35:29.124Z</time></trkpt><trkpt lat="46.0429104" lon="12.0287698"><ele>309.0</ele><time>2026-04-18T10:35:30.125Z</time></trkpt><trkpt lat="46.0429866" lon="12.0286184"><ele>309.0</ele><time>2026-04-18T10:35:31.124Z</time></trkpt><trkpt lat="46.0430464" lon="12.0284804"><ele>309.0</ele><time>2026-04-18T10:35:32.125Z</time></trkpt><trkpt lat="46.0431293" lon="12.0283483"><ele>309.0</ele><time>2026-04-18T10:35:33.125Z</time></trkpt><trkpt lat="46.0432171" lon="12.0282857"><ele>308.75</ele><time>2026-04-18T10:35:34.124Z</time></trkpt><trkpt lat="46.0432884" lon="12.0281739"><ele>308.5</ele><time>2026-04-18T10:35:35.124Z</time></trkpt><trkpt lat="46.0433372" lon="12.0280249"><ele>308.25</ele><time>2026-04-18T10:35:36.124Z</time></trkpt><trkpt lat="46.04332" lon="12.0278666"><ele>308.0</ele><time>2026-04-18T10:35:37.124Z</time></trkpt><trkpt lat="46.0433241" lon="12.027686"><ele>308.33333333333337</ele><time>2026-04-18T10:35:38.124Z</time></trkpt><trkpt lat="46.0433019" lon="12.0274765"><ele>308.6666666666667</ele><time>2026-04-18T10:35:39.124Z</time></trkpt><trkpt lat="46.0432894" lon="12.0272388"><ele>309.0</ele><time>2026-04-18T10:35:40.124Z</time></trkpt><trkpt lat="46.0432901" lon="12.0270198"><ele>309.0</ele><time>2026-04-18T10:35:41.125Z</time></trkpt><trkpt lat="46.0432882" lon="12.0268137"><ele>309.0</ele><time>2026-04-18T10:35:42.124Z</time></trkpt><trkpt lat="46.0432925" lon="12.0266119"><ele>309.0</ele><time>2026-04-18T10:35:43.124Z</time></trkpt><trkpt lat="46.0433013" lon="12.0264266"><ele>309.0</ele><time>2026-04-18T10:35:44.125Z</time></trkpt><trkpt lat="46.0433126" lon="12.0262588"><ele>302.8</ele><time>2026-04-18T10:35:45.125Z</time></trkpt><trkpt lat="46.0433229" lon="12.0261018"><ele>296.59999999999997</ele><time>2026-04-18T10:35:46.125Z</time></trkpt><trkpt lat="46.043331" lon="12.0259617"><ele>290.4</ele><time>2026-04-18T10:35:47.125Z</time></trkpt><trkpt lat="46.0433384" lon="12.025843"><ele>284.2</ele><time>2026-04-18T10:35:48.124Z</time></trkpt><trkpt lat="46.0433545" lon="12.0257381"><ele>278.0</ele><time>2026-04-18T10:35:49.124Z</time></trkpt><trkpt lat="46.0434422" lon="12.0256093"><ele>277.25</ele><time>2026-04-18T10:35:51.124Z</time></trkpt><trkpt lat="46.0435356" lon="12.0255733"><ele>276.5</ele><time>2026-04-18T10:35:52.125Z</time></trkpt><trkpt lat="46.0436682" lon="12.0255202"><ele>275.75</ele><time>2026-04-18T10:35:53.124Z</time></trkpt><trkpt lat="46.0438038" lon="12.0254345"><ele>275.0</ele><time>2026-04-18T10:35:54.124Z</time></trkpt><trkpt lat="46.0439232" lon="12.0253561"><ele>275.0</ele><time>2026-04-18T10:35:55.124Z</time></trkpt><trkpt lat="46.0440304" lon="12.0252694"><ele>275.0</ele><time>2026-04-18T10:35:56.124Z</time></trkpt><trkpt lat="46.0441351" lon="12.0251815"><ele>275.0</ele><time>2026-04-18T10:35:57.124Z</time></trkpt><trkpt lat="46.0442541" lon="12.0251326"><ele>275.0</ele><time>2026-04-18T10:35:58.124Z</time></trkpt><trkpt lat="46.0443858" lon="12.0251104"><ele>273.4</ele><time>2026-04-18T10:35:59.125Z</time></trkpt><trkpt lat="46.0445057" lon="12.0251109"><ele>271.8</ele><time>2026-04-18T10:36:00.124Z</time></trkpt><trkpt lat="46.044619" lon="12.0251147"><ele>270.2</ele><time>2026-04-18T10:36:01.124Z</time></trkpt><trkpt lat="46.0447286" lon="12.0251167"><ele>268.6</ele><time>2026-04-18T10:36:02.124Z</time></trkpt><trkpt lat="46.0448279" lon="12.0251144"><ele>267.0</ele><time>2026-04-18T10:36:03.124Z</time></trkpt><trkpt lat="46.0449149" lon="12.0251128"><ele>266.5</ele><time>2026-04-18T10:36:04.124Z</time></trkpt><trkpt lat="46.0449913" lon="12.0251164"><ele>266.0</ele><time>2026-04-18T10:36:05.125Z</time></trkpt><trkpt lat="46.0450576" lon="12.0251194"><ele>265.5</ele><time>2026-04-18T10:36:06.124Z</time></trkpt><trkpt lat="46.0451482" lon="12.025137"><ele>265.0</ele><time>2026-04-18T10:36:08.124Z</time></trkpt><trkpt lat="46.0452301" lon="12.0250886"><ele>264.5</ele><time>2026-04-18T10:36:13.124Z</time></trkpt><trkpt lat="46.0452581" lon="12.0249864"><ele>264.0</ele><time>2026-04-18T10:36:14.125Z</time></trkpt><trkpt lat="46.0452685" lon="12.0248613"><ele>264.0</ele><time>2026-04-18T10:36:15.125Z</time></trkpt><trkpt lat="46.0452819" lon="12.0246967"><ele>264.0</ele><time>2026-04-18T10:36:16.124Z</time></trkpt><trkpt lat="46.0452991" lon="12.0245148"><ele>264.0</ele><time>2026-04-18T10:36:17.124Z</time></trkpt><trkpt lat="46.0453119" lon="12.0243096"><ele>264.0</ele><time>2026-04-18T10:36:18.124Z</time></trkpt><trkpt lat="46.045316" lon="12.0240897"><ele>263.6666666666667</ele><time>2026-04-18T10:36:19.125Z</time></trkpt><trkpt lat="46.0453032" lon="12.0238683"><ele>263.33333333333337</ele><time>2026-04-18T10:36:20.125Z</time></trkpt><trkpt lat="46.0452778" lon="12.0236478"><ele>263.0</ele><time>2026-04-18T10:36:21.125Z</time></trkpt><trkpt lat="46.045243" lon="12.023432"><ele>262.6666666666667</ele><time>2026-04-18T10:36:22.124Z</time></trkpt><trkpt lat="46.0452059" lon="12.0232145"><ele>262.3333333333333</ele><time>2026-04-18T10:36:23.124Z</time></trkpt><trkpt lat="46.0451696" lon="12.0229986"><ele>262.0</ele><time>2026-04-18T10:36:24.125Z</time></trkpt><trkpt lat="46.0451345" lon="12.0227891"><ele>262.0</ele><time>2026-04-18T10:36:25.125Z</time></trkpt><trkpt lat="46.0450995" lon="12.0225871"><ele>262.0</ele><time>2026-04-18T10:36:26.124Z</time></trkpt><trkpt lat="46.0450665" lon="12.0223872"><ele>262.0</ele><time>2026-04-18T10:36:27.125Z</time></trkpt><trkpt lat="46.0450338" lon="12.022189"><ele>262.0</ele><time>2026-04-18T10:36:28.125Z</time></trkpt><trkpt lat="46.0450015" lon="12.0219967"><ele>261.75</ele><time>2026-04-18T10:36:29.125Z</time></trkpt><trkpt lat="46.0449627" lon="12.0218136"><ele>261.5</ele><time>2026-04-18T10:36:30.125Z</time></trkpt><trkpt lat="46.0449178" lon="12.0216365"><ele>261.25</ele><time>2026-04-18T10:36:31.126Z</time></trkpt><trkpt lat="46.0448587" lon="12.0214482"><ele>261.0</ele><time>2026-04-18T10:36:32.124Z</time></trkpt><trkpt lat="46.0448024" lon="12.0212533"><ele>261.0</ele><time>2026-04-18T10:36:33.125Z</time></trkpt><trkpt lat="46.0447547" lon="12.0210445"><ele>261.0</ele><time>2026-04-18T10:36:34.124Z</time></trkpt><trkpt lat="46.044705" lon="12.0208091"><ele>261.0</ele><time>2026-04-18T10:36:35.126Z</time></trkpt><trkpt lat="46.0446539" lon="12.0205533"><ele>261.0</ele><time>2026-04-18T10:36:36.124Z</time></trkpt><trkpt lat="46.0446104" lon="12.0202877"><ele>261.0</ele><time>2026-04-18T10:36:37.125Z</time></trkpt><trkpt lat="46.0445825" lon="12.02001"><ele>261.0</ele><time>2026-04-18T10:36:38.124Z</time></trkpt><trkpt lat="46.0445712" lon="12.0197287"><ele>260.3333333333333</ele><time>2026-04-18T10:36:39.125Z</time></trkpt><trkpt lat="46.0445637" lon="12.0194302"><ele>259.66666666666663</ele><time>2026-04-18T10:36:40.124Z</time></trkpt><trkpt lat="46.0445571" lon="12.0191404"><ele>259.0</ele><time>2026-04-18T10:36:41.124Z</time></trkpt><trkpt lat="46.0445545" lon="12.018863"><ele>258.66666666666663</ele><time>2026-04-18T10:36:42.125Z</time></trkpt><trkpt lat="46.04456" lon="12.018591"><ele>258.3333333333333</ele><time>2026-04-18T10:36:43.125Z</time></trkpt><trkpt lat="46.0445611" lon="12.0183186"><ele>258.0</ele><time>2026-04-18T10:36:44.125Z</time></trkpt><trkpt lat="46.0445609" lon="12.0180507"><ele>257.6666666666667</ele><time>2026-04-18T10:36:45.125Z</time></trkpt><trkpt lat="46.0445602" lon="12.0177839"><ele>257.33333333333337</ele><time>2026-04-18T10:36:46.125Z</time></trkpt><trkpt lat="46.0445608" lon="12.0175174"><ele>257.0</ele><time>2026-04-18T10:36:47.125Z</time></trkpt><trkpt lat="46.0445616" lon="12.0172434"><ele>257.0</ele><time>2026-04-18T10:36:48.124Z</time></trkpt><trkpt lat="46.0445507" lon="12.0169489"><ele>257.0</ele><time>2026-04-18T10:36:49.124Z</time></trkpt><trkpt lat="46.0445179" lon="12.0166533"><ele>257.0</ele><time>2026-04-18T10:36:50.124Z</time></trkpt><trkpt lat="46.0444577" lon="12.0163653"><ele>257.0</ele><time>2026-04-18T10:36:51.125Z</time></trkpt><trkpt lat="46.0443858" lon="12.016094"><ele>257.0</ele><time>2026-04-18T10:36:52.125Z</time></trkpt><trkpt lat="46.0443114" lon="12.0158428"><ele>257.0</ele><time>2026-04-18T10:36:53.125Z</time></trkpt><trkpt lat="46.0442413" lon="12.0155982"><ele>256.6666666666667</ele><time>2026-04-18T10:36:54.125Z</time></trkpt><trkpt lat="46.0441686" lon="12.015358"><ele>256.3333333333333</ele><time>2026-04-18T10:36:55.124Z</time></trkpt><trkpt lat="46.0441018" lon="12.015125"><ele>256.0</ele><time>2026-04-18T10:36:56.125Z</time></trkpt><trkpt lat="46.0440334" lon="12.0148893"><ele>256.0</ele><time>2026-04-18T10:36:57.125Z</time></trkpt><trkpt lat="46.0439649" lon="12.0146493"><ele>256.0</ele><time>2026-04-18T10:36:58.125Z</time></trkpt><trkpt lat="46.0438992" lon="12.0144123"><ele>256.0</ele><time>2026-04-18T10:36:59.124Z</time></trkpt><trkpt lat="46.0438344" lon="12.0141767"><ele>254.66666666666666</ele><time>2026-04-18T10:37:00.125Z</time></trkpt><trkpt lat="46.0437675" lon="12.013936"><ele>253.33333333333331</ele><time>2026-04-18T10:37:01.124Z</time></trkpt><trkpt lat="46.0437017" lon="12.0136943"><ele>252.0</ele><time>2026-04-18T10:37:02.124Z</time></trkpt><trkpt lat="46.0436348" lon="12.0134565"><ele>251.33333333333331</ele><time>2026-04-18T10:37:03.124Z</time></trkpt><trkpt lat="46.0435661" lon="12.0132257"><ele>250.66666666666666</ele><time>2026-04-18T10:37:04.125Z</time></trkpt><trkpt lat="46.0435033" lon="12.0130032"><ele>250.0</ele><time>2026-04-18T10:37:05.124Z</time></trkpt><trkpt lat="46.0434392" lon="12.0127909"><ele>250.0</ele><time>2026-04-18T10:37:06.125Z</time></trkpt><trkpt lat="46.0433786" lon="12.0125867"><ele>250.0</ele><time>2026-04-18T10:37:07.124Z</time></trkpt><trkpt lat="46.0433235" lon="12.0123976"><ele>250.0</ele><time>2026-04-18T10:37:08.125Z</time></trkpt><trkpt lat="46.043277" lon="12.0122175"><ele>250.0</ele><time>2026-04-18T10:37:09.125Z</time></trkpt><trkpt lat="46.0432307" lon="12.0120482"><ele>250.0</ele><time>2026-04-18T10:37:10.125Z</time></trkpt><trkpt lat="46.0431864" lon="12.0118913"><ele>250.0</ele><time>2026-04-18T10:37:11.124Z</time></trkpt><trkpt lat="46.0431412" lon="12.0117364"><ele>250.0</ele><time>2026-04-18T10:37:12.124Z</time></trkpt><trkpt lat="46.0431032" lon="12.011594"><ele>250.0</ele><time>2026-04-18T10:37:13.125Z</time></trkpt><trkpt lat="46.043065" lon="12.0114643"><ele>250.0</ele><time>2026-04-18T10:37:14.126Z</time></trkpt><trkpt lat="46.0430318" lon="12.0113487"><ele>249.99999999999997</ele><time>2026-04-18T10:37:15.126Z</time></trkpt><trkpt lat="46.0430134" lon="12.011241"><ele>250.0</ele><time>2026-04-18T10:37:16.124Z</time></trkpt><trkpt lat="46.0430134" lon="12.01113"><ele>250.0</ele><time>2026-04-18T10:37:17.124Z</time></trkpt><trkpt lat="46.0430166" lon="12.0110099"><ele>250.0</ele><time>2026-04-18T10:37:18.125Z</time></trkpt><trkpt lat="46.0429943" lon="12.0108864"><ele>249.99999999999997</ele><time>2026-04-18T10:37:19.124Z</time></trkpt><trkpt lat="46.0429388" lon="12.0107754"><ele>250.0</ele><time>2026-04-18T10:37:20.124Z</time></trkpt><trkpt lat="46.0428579" lon="12.0106528"><ele>249.75</ele><time>2026-04-18T10:37:21.124Z</time></trkpt><trkpt lat="46.0427896" lon="12.0105013"><ele>249.5</ele><time>2026-04-18T10:37:22.124Z</time></trkpt><trkpt lat="46.0427273" lon="12.0103315"><ele>249.25</ele><time>2026-04-18T10:37:23.124Z</time></trkpt><trkpt lat="46.0426432" lon="12.0101414"><ele>249.0</ele><time>2026-04-18T10:37:24.124Z</time></trkpt><trkpt lat="46.0425521" lon="12.0099132"><ele>249.0</ele><time>2026-04-18T10:37:25.124Z</time></trkpt><trkpt lat="46.0424634" lon="12.0096664"><ele>249.0</ele><time>2026-04-18T10:37:26.124Z</time></trkpt><trkpt lat="46.0423607" lon="12.0094032"><ele>249.0</ele><time>2026-04-18T10:37:27.124Z</time></trkpt><trkpt lat="46.0422417" lon="12.0091265"><ele>249.0</ele><time>2026-04-18T10:37:28.124Z</time></trkpt><trkpt lat="46.0421203" lon="12.0088462"><ele>249.0</ele><time>2026-04-18T10:37:29.124Z</time></trkpt><trkpt lat="46.042008" lon="12.0085804"><ele>249.0</ele><time>2026-04-18T10:37:30.125Z</time></trkpt><trkpt lat="46.0418954" lon="12.008329"><ele>248.66666666666669</ele><time>2026-04-18T10:37:31.124Z</time></trkpt><trkpt lat="46.0417863" lon="12.0080827"><ele>248.33333333333334</ele><time>2026-04-18T10:37:32.124Z</time></trkpt><trkpt lat="46.0416862" lon="12.0078571"><ele>248.0</ele><time>2026-04-18T10:37:33.125Z</time></trkpt><trkpt lat="46.0415894" lon="12.007641"><ele>247.66666666666669</ele><time>2026-04-18T10:37:34.126Z</time></trkpt><trkpt lat="46.0414999" lon="12.0074361"><ele>247.33333333333331</ele><time>2026-04-18T10:37:35.124Z</time></trkpt><trkpt lat="46.0414161" lon="12.0072413"><ele>247.0</ele><time>2026-04-18T10:37:36.125Z</time></trkpt><trkpt lat="46.0413362" lon="12.0070584"><ele>247.0</ele><time>2026-04-18T10:37:37.125Z</time></trkpt><trkpt lat="46.0412624" lon="12.0068873"><ele>247.0</ele><time>2026-04-18T10:37:38.124Z</time></trkpt><trkpt lat="46.0411936" lon="12.0067301"><ele>247.0</ele><time>2026-04-18T10:37:39.124Z</time></trkpt><trkpt lat="46.0411276" lon="12.0065816"><ele>247.0</ele><time>2026-04-18T10:37:40.124Z</time></trkpt><trkpt lat="46.0410602" lon="12.006421"><ele>246.66666666666666</ele><time>2026-04-18T10:37:41.125Z</time></trkpt><trkpt lat="46.0409815" lon="12.0062403"><ele>246.33333333333331</ele><time>2026-04-18T10:37:42.124Z</time></trkpt><trkpt lat="46.0408994" lon="12.0060415"><ele>246.0</ele><time>2026-04-18T10:37:43.124Z</time></trkpt><trkpt lat="46.0408119" lon="12.0058247"><ele>246.0</ele><time>2026-04-18T10:37:44.125Z</time></trkpt><trkpt lat="46.0407199" lon="12.0055971"><ele>246.0</ele><time>2026-04-18T10:37:45.124Z</time></trkpt><trkpt lat="46.0406137" lon="12.0053658"><ele>246.0</ele><time>2026-04-18T10:37:46.124Z</time></trkpt><trkpt lat="46.0405015" lon="12.0051211"><ele>245.66666666666669</ele><time>2026-04-18T10:37:47.124Z</time></trkpt><trkpt lat="46.0403897" lon="12.0048642"><ele>245.33333333333334</ele><time>2026-04-18T10:37:48.124Z</time></trkpt><trkpt lat="46.0402701" lon="12.0045937"><ele>245.0</ele><time>2026-04-18T10:37:49.125Z</time></trkpt><trkpt lat="46.0401529" lon="12.0043322"><ele>244.33333333333334</ele><time>2026-04-18T10:37:50.124Z</time></trkpt><trkpt lat="46.040046" lon="12.0040837"><ele>243.66666666666669</ele><time>2026-04-18T10:37:51.124Z</time></trkpt><trkpt lat="46.0399356" lon="12.0038468"><ele>243.0</ele><time>2026-04-18T10:37:52.124Z</time></trkpt><trkpt lat="46.0398205" lon="12.0036191"><ele>243.0</ele><time>2026-04-18T10:37:53.124Z</time></trkpt><trkpt lat="46.0397069" lon="12.0034094"><ele>243.0</ele><time>2026-04-18T10:37:54.125Z</time></trkpt><trkpt lat="46.0395928" lon="12.0032126"><ele>243.0</ele><time>2026-04-18T10:37:55.125Z</time></trkpt><trkpt lat="46.0394811" lon="12.0030266"><ele>243.0</ele><time>2026-04-18T10:37:56.126Z</time></trkpt><trkpt lat="46.0393754" lon="12.0028505"><ele>243.0</ele><time>2026-04-18T10:37:57.124Z</time></trkpt><trkpt lat="46.0392799" lon="12.0026897"><ele>243.0</ele><time>2026-04-18T10:37:58.124Z</time></trkpt><trkpt lat="46.0391925" lon="12.0025469"><ele>243.0</ele><time>2026-04-18T10:37:59.124Z</time></trkpt><trkpt lat="46.0391154" lon="12.0024251"><ele>243.0</ele><time>2026-04-18T10:38:00.123Z</time></trkpt><trkpt lat="46.0390559" lon="12.0023286"><ele>243.0</ele><time>2026-04-18T10:38:01.124Z</time></trkpt><trkpt lat="46.0390115" lon="12.0022542"><ele>243.0</ele><time>2026-04-18T10:38:02.124Z</time></trkpt><trkpt lat="46.0389634" lon="12.0021764"><ele>243.0</ele><time>2026-04-18T10:38:04.124Z</time></trkpt><trkpt lat="46.0389147" lon="12.0021063"><ele>243.0</ele><time>2026-04-18T10:38:18.123Z</time></trkpt><trkpt lat="46.0388714" lon="12.0020375"><ele>243.0</ele><time>2026-04-18T10:38:23.123Z</time></trkpt><trkpt lat="46.0388219" lon="12.0019521"><ele>243.0</ele><time>2026-04-18T10:38:25.123Z</time></trkpt><trkpt lat="46.0387469" lon="12.0018261"><ele>243.0</ele><time>2026-04-18T10:38:27.124Z</time></trkpt><trkpt lat="46.0386874" lon="12.0017365"><ele>243.0</ele><time>2026-04-18T10:38:28.124Z</time></trkpt><trkpt lat="46.0386076" lon="12.0016259"><ele>243.0</ele><time>2026-04-18T10:38:29.123Z</time></trkpt><trkpt lat="46.0385136" lon="12.0014842"><ele>243.0</ele><time>2026-04-18T10:38:30.123Z</time></trkpt><trkpt lat="46.0384126" lon="12.0013276"><ele>243.33333333333331</ele><time>2026-04-18T10:38:31.124Z</time></trkpt><trkpt lat="46.0383041" lon="12.001152"><ele>243.66666666666666</ele><time>2026-04-18T10:38:32.124Z</time></trkpt><trkpt lat="46.0381968" lon="12.0009745"><ele>244.0</ele><time>2026-04-18T10:38:33.123Z</time></trkpt><trkpt lat="46.0380909" lon="12.0008005"><ele>243.0</ele><time>2026-04-18T10:38:34.123Z</time></trkpt><trkpt lat="46.0379907" lon="12.0006323"><ele>242.0</ele><time>2026-04-18T10:38:35.124Z</time></trkpt><trkpt lat="46.0378906" lon="12.0004713"><ele>241.0</ele><time>2026-04-18T10:38:36.123Z</time></trkpt><trkpt lat="46.0377916" lon="12.0003118"><ele>241.0</ele><time>2026-04-18T10:38:37.124Z</time></trkpt><trkpt lat="46.0376927" lon="12.0001535"><ele>241.0</ele><time>2026-04-18T10:38:38.123Z</time></trkpt><trkpt lat="46.0375976" lon="12.0000012"><ele>241.0</ele><time>2026-04-18T10:38:39.124Z</time></trkpt><trkpt lat="46.0375098" lon="11.9998583"><ele>241.0</ele><time>2026-04-18T10:38:40.124Z</time></trkpt><trkpt lat="46.0374208" lon="11.9997121"><ele>241.0</ele><time>2026-04-18T10:38:41.123Z</time></trkpt><trkpt lat="46.0373286" lon="11.9995611"><ele>241.0</ele><time>2026-04-18T10:38:42.123Z</time></trkpt><trkpt lat="46.0372362" lon="11.999405"><ele>241.0</ele><time>2026-04-18T10:38:43.124Z</time></trkpt><trkpt lat="46.0371386" lon="11.999246"><ele>241.0</ele><time>2026-04-18T10:38:44.123Z</time></trkpt><trkpt lat="46.0370374" lon="11.999083"><ele>241.0</ele><time>2026-04-18T10:38:45.124Z</time></trkpt><trkpt lat="46.0369328" lon="11.9989162"><ele>241.0</ele><time>2026-04-18T10:38:46.123Z</time></trkpt><trkpt lat="46.0368183" lon="11.9987551"><ele>241.0</ele><time>2026-04-18T10:38:47.123Z</time></trkpt><trkpt lat="46.0366934" lon="11.9985936"><ele>240.66666666666666</ele><time>2026-04-18T10:38:48.123Z</time></trkpt><trkpt lat="46.0365652" lon="11.9984465"><ele>240.33333333333331</ele><time>2026-04-18T10:38:49.123Z</time></trkpt><trkpt lat="46.0364352" lon="11.9983142"><ele>240.0</ele><time>2026-04-18T10:38:50.124Z</time></trkpt><trkpt lat="46.0363077" lon="11.9981991"><ele>239.75</ele><time>2026-04-18T10:38:51.123Z</time></trkpt><trkpt lat="46.0361805" lon="11.9981009"><ele>239.5</ele><time>2026-04-18T10:38:52.123Z</time></trkpt><trkpt lat="46.0360634" lon="11.9980143"><ele>239.25</ele><time>2026-04-18T10:38:53.124Z</time></trkpt><trkpt lat="46.0359532" lon="11.9979446"><ele>239.0</ele><time>2026-04-18T10:38:54.123Z</time></trkpt><trkpt lat="46.0358521" lon="11.9978847"><ele>239.00000000000003</ele><time>2026-04-18T10:38:55.123Z</time></trkpt><trkpt lat="46.0357624" lon="11.9978349"><ele>239.0</ele><time>2026-04-18T10:38:56.123Z</time></trkpt><trkpt lat="46.0356841" lon="11.9977911"><ele>239.0</ele><time>2026-04-18T10:38:57.123Z</time></trkpt><trkpt lat="46.0356211" lon="11.9977294"><ele>239.0</ele><time>2026-04-18T10:38:58.125Z</time></trkpt><trkpt lat="46.0355465" lon="11.9975907"><ele>239.00000000000003</ele><time>2026-04-18T10:39:00.123Z</time></trkpt><trkpt lat="46.0355031" lon="11.9975167"><ele>239.0</ele><time>2026-04-18T10:39:01.124Z</time></trkpt><trkpt lat="46.0354319" lon="11.9974718"><ele>239.0</ele><time>2026-04-18T10:39:02.124Z</time></trkpt><trkpt lat="46.0353485" lon="11.9974626"><ele>238.99999999999997</ele><time>2026-04-18T10:39:03.123Z</time></trkpt><trkpt lat="46.0352523" lon="11.9974882"><ele>238.99999999999997</ele><time>2026-04-18T10:39:04.124Z</time></trkpt><trkpt lat="46.0351418" lon="11.9975193"><ele>239.0</ele><time>2026-04-18T10:39:05.124Z</time></trkpt><trkpt lat="46.0350161" lon="11.9975216"><ele>239.0</ele><time>2026-04-18T10:39:06.124Z</time></trkpt><trkpt lat="46.0348806" lon="11.9975225"><ele>239.66666666666669</ele><time>2026-04-18T10:39:07.124Z</time></trkpt><trkpt lat="46.0347168" lon="11.9975312"><ele>240.33333333333331</ele><time>2026-04-18T10:39:08.123Z</time></trkpt><trkpt lat="46.0345301" lon="11.9975429"><ele>241.0</ele><time>2026-04-18T10:39:09.123Z</time></trkpt><trkpt lat="46.0343248" lon="11.9975528"><ele>240.0</ele><time>2026-04-18T10:39:10.123Z</time></trkpt><trkpt lat="46.0341077" lon="11.9975608"><ele>239.0</ele><time>2026-04-18T10:39:11.123Z</time></trkpt><trkpt lat="46.0338732" lon="11.997567"><ele>239.0</ele><time>2026-04-18T10:39:12.123Z</time></trkpt><trkpt lat="46.0336221" lon="11.9975736"><ele>239.0</ele><time>2026-04-18T10:39:13.123Z</time></trkpt><trkpt lat="46.033363" lon="11.9975842"><ele>238.5</ele><time>2026-04-18T10:39:14.124Z</time></trkpt><trkpt lat="46.0331025" lon="11.9975942"><ele>238.0</ele><time>2026-04-18T10:39:15.124Z</time></trkpt><trkpt lat="46.0328311" lon="11.9976044"><ele>238.0</ele><time>2026-04-18T10:39:16.124Z</time></trkpt><trkpt lat="46.0325593" lon="11.9976118"><ele>238.0</ele><time>2026-04-18T10:39:17.124Z</time></trkpt><trkpt lat="46.03229" lon="11.9976185"><ele>237.0</ele><time>2026-04-18T10:39:18.124Z</time></trkpt><trkpt lat="46.0320379" lon="11.9976232"><ele>236.0</ele><time>2026-04-18T10:39:19.123Z</time></trkpt><trkpt lat="46.0317982" lon="11.9976286"><ele>237.0</ele><time>2026-04-18T10:39:20.123Z</time></trkpt><trkpt lat="46.0315659" lon="11.997637"><ele>238.0</ele><time>2026-04-18T10:39:21.124Z</time></trkpt><trkpt lat="46.0313413" lon="11.9976457"><ele>238.0</ele><time>2026-04-18T10:39:22.124Z</time></trkpt><trkpt lat="46.0311181" lon="11.99765"><ele>238.0</ele><time>2026-04-18T10:39:23.124Z</time></trkpt><trkpt lat="46.0308955" lon="11.9976555"><ele>238.0</ele><time>2026-04-18T10:39:24.124Z</time></trkpt><trkpt lat="46.0306744" lon="11.9976573"><ele>237.33333333333331</ele><time>2026-04-18T10:39:25.124Z</time></trkpt><trkpt lat="46.0304527" lon="11.9976608"><ele>236.66666666666669</ele><time>2026-04-18T10:39:26.124Z</time></trkpt><trkpt lat="46.0302344" lon="11.9976684"><ele>236.0</ele><time>2026-04-18T10:39:27.123Z</time></trkpt><trkpt lat="46.0300198" lon="11.9976782"><ele>236.66666666666669</ele><time>2026-04-18T10:39:28.123Z</time></trkpt><trkpt lat="46.0298022" lon="11.9976849"><ele>237.33333333333331</ele><time>2026-04-18T10:39:29.124Z</time></trkpt><trkpt lat="46.029587" lon="11.9976941"><ele>238.0</ele><time>2026-04-18T10:39:30.125Z</time></trkpt><trkpt lat="46.0293721" lon="11.9977013"><ele>238.0</ele><time>2026-04-18T10:39:31.124Z</time></trkpt><trkpt lat="46.0291555" lon="11.9977006"><ele>238.0</ele><time>2026-04-18T10:39:32.123Z</time></trkpt><trkpt lat="46.0289411" lon="11.9977003"><ele>238.0</ele><time>2026-04-18T10:39:33.124Z</time></trkpt><trkpt lat="46.0287255" lon="11.9976921"><ele>239.5</ele><time>2026-04-18T10:39:34.123Z</time></trkpt><trkpt lat="46.0285023" lon="11.9976684"><ele>241.0</ele><time>2026-04-18T10:39:35.123Z</time></trkpt><trkpt lat="46.0282712" lon="11.9976218"><ele>241.0</ele><time>2026-04-18T10:39:36.123Z</time></trkpt><trkpt lat="46.0280338" lon="11.9975509"><ele>241.0</ele><time>2026-04-18T10:39:37.124Z</time></trkpt><trkpt lat="46.0277969" lon="11.997452"><ele>240.5</ele><time>2026-04-18T10:39:38.124Z</time></trkpt><trkpt lat="46.0275609" lon="11.9973262"><ele>240.0</ele><time>2026-04-18T10:39:39.124Z</time></trkpt><trkpt lat="46.0273319" lon="11.9971727"><ele>240.0</ele><time>2026-04-18T10:39:40.123Z</time></trkpt><trkpt lat="46.0271059" lon="11.996993"><ele>240.0</ele><time>2026-04-18T10:39:41.123Z</time></trkpt><trkpt lat="46.0268864" lon="11.9967904"><ele>243.5</ele><time>2026-04-18T10:39:42.124Z</time></trkpt><trkpt lat="46.0266736" lon="11.9965788"><ele>247.0</ele><time>2026-04-18T10:39:43.124Z</time></trkpt><trkpt lat="46.0264636" lon="11.9963563"><ele>247.0</ele><time>2026-04-18T10:39:44.123Z</time></trkpt><trkpt lat="46.0262527" lon="11.9961313"><ele>247.0</ele><time>2026-04-18T10:39:45.123Z</time></trkpt><trkpt lat="46.0260343" lon="11.9958984"><ele>259.0</ele><time>2026-04-18T10:39:46.124Z</time></trkpt><trkpt lat="46.0258082" lon="11.9956616"><ele>271.0</ele><time>2026-04-18T10:39:47.124Z</time></trkpt><trkpt lat="46.0255854" lon="11.9954275"><ele>271.0</ele><time>2026-04-18T10:39:48.124Z</time></trkpt><trkpt lat="46.0253708" lon="11.9952009"><ele>271.0</ele><time>2026-04-18T10:39:49.123Z</time></trkpt><trkpt lat="46.025148" lon="11.994988"><ele>272.0</ele><time>2026-04-18T10:39:50.123Z</time></trkpt><trkpt lat="46.0249251" lon="11.9947933"><ele>273.0</ele><time>2026-04-18T10:39:51.124Z</time></trkpt><trkpt lat="46.0247039" lon="11.9946311"><ele>273.0</ele><time>2026-04-18T10:39:52.124Z</time></trkpt><trkpt lat="46.0244897" lon="11.9944922"><ele>273.0</ele><time>2026-04-18T10:39:53.123Z</time></trkpt><trkpt lat="46.024279" lon="11.994364"><ele>268.6666666666667</ele><time>2026-04-18T10:39:54.124Z</time></trkpt><trkpt lat="46.024079" lon="11.9942475"><ele>264.33333333333337</ele><time>2026-04-18T10:39:55.123Z</time></trkpt><trkpt lat="46.0238883" lon="11.9941362"><ele>260.0</ele><time>2026-04-18T10:39:56.123Z</time></trkpt><trkpt lat="46.0237045" lon="11.9940295"><ele>260.0</ele><time>2026-04-18T10:39:57.124Z</time></trkpt><trkpt lat="46.023525" lon="11.9939282"><ele>260.0</ele><time>2026-04-18T10:39:58.123Z</time></trkpt><trkpt lat="46.0233455" lon="11.9938243"><ele>260.0</ele><time>2026-04-18T10:39:59.125Z</time></trkpt><trkpt lat="46.0231606" lon="11.9937172"><ele>266.0</ele><time>2026-04-18T10:40:00.124Z</time></trkpt><trkpt lat="46.0229811" lon="11.9936123"><ele>272.0</ele><time>2026-04-18T10:40:01.124Z</time></trkpt><trkpt lat="46.0228058" lon="11.993512"><ele>278.0</ele><time>2026-04-18T10:40:02.123Z</time></trkpt><trkpt lat="46.0226283" lon="11.9934083"><ele>275.33333333333337</ele><time>2026-04-18T10:40:03.123Z</time></trkpt><trkpt lat="46.0224476" lon="11.9933049"><ele>272.6666666666667</ele><time>2026-04-18T10:40:04.124Z</time></trkpt><trkpt lat="46.0222677" lon="11.9932018"><ele>270.0</ele><time>2026-04-18T10:40:05.124Z</time></trkpt><trkpt lat="46.0220885" lon="11.9930993"><ele>270.0</ele><time>2026-04-18T10:40:06.124Z</time></trkpt><trkpt lat="46.0219085" lon="11.992989"><ele>270.0</ele><time>2026-04-18T10:40:07.123Z</time></trkpt><trkpt lat="46.0217359" lon="11.9928657"><ele>270.0</ele><time>2026-04-18T10:40:08.123Z</time></trkpt><trkpt lat="46.0215663" lon="11.9927336"><ele>264.3333333333333</ele><time>2026-04-18T10:40:09.123Z</time></trkpt><trkpt lat="46.0214036" lon="11.992595"><ele>258.66666666666663</ele><time>2026-04-18T10:40:10.124Z</time></trkpt><trkpt lat="46.0212388" lon="11.9924335"><ele>253.0</ele><time>2026-04-18T10:40:11.125Z</time></trkpt><trkpt lat="46.0210683" lon="11.992251"><ele>253.0</ele><time>2026-04-18T10:40:12.124Z</time></trkpt><trkpt lat="46.0208894" lon="11.9920389"><ele>253.0</ele><time>2026-04-18T10:40:13.124Z</time></trkpt><trkpt lat="46.0207029" lon="11.9918052"><ele>252.5</ele><time>2026-04-18T10:40:14.123Z</time></trkpt><trkpt lat="46.0205151" lon="11.9915603"><ele>252.0</ele><time>2026-04-18T10:40:15.124Z</time></trkpt><trkpt lat="46.0203265" lon="11.991302"><ele>252.0</ele><time>2026-04-18T10:40:16.125Z</time></trkpt><trkpt lat="46.0201347" lon="11.9910488"><ele>252.0</ele><time>2026-04-18T10:40:17.124Z</time></trkpt><trkpt lat="46.0199439" lon="11.9908038"><ele>258.0</ele><time>2026-04-18T10:40:18.123Z</time></trkpt><trkpt lat="46.0197542" lon="11.990563"><ele>264.0</ele><time>2026-04-18T10:40:19.123Z</time></trkpt><trkpt lat="46.0195673" lon="11.9903302"><ele>264.0</ele><time>2026-04-18T10:40:20.124Z</time></trkpt><trkpt lat="46.0193863" lon="11.9901089"><ele>264.0</ele><time>2026-04-18T10:40:21.123Z</time></trkpt><trkpt lat="46.0192143" lon="11.9898964"><ele>265.6666666666667</ele><time>2026-04-18T10:40:22.123Z</time></trkpt><trkpt lat="46.0190451" lon="11.9896888"><ele>267.33333333333337</ele><time>2026-04-18T10:40:23.123Z</time></trkpt><trkpt lat="46.0188823" lon="11.9894857"><ele>269.0</ele><time>2026-04-18T10:40:24.124Z</time></trkpt><trkpt lat="46.018724" lon="11.9892876"><ele>272.33333333333337</ele><time>2026-04-18T10:40:25.125Z</time></trkpt><trkpt lat="46.0185678" lon="11.9890956"><ele>275.6666666666667</ele><time>2026-04-18T10:40:26.123Z</time></trkpt><trkpt lat="46.0184113" lon="11.9889135"><ele>279.0</ele><time>2026-04-18T10:40:27.123Z</time></trkpt><trkpt lat="46.0182575" lon="11.9887524"><ele>279.0</ele><time>2026-04-18T10:40:28.123Z</time></trkpt><trkpt lat="46.0181029" lon="11.9886105"><ele>279.0</ele><time>2026-04-18T10:40:29.123Z</time></trkpt><trkpt lat="46.0179303" lon="11.9884805"><ele>279.0</ele><time>2026-04-18T10:40:30.123Z</time></trkpt><trkpt lat="46.0177479" lon="11.9883538"><ele>281.6666666666667</ele><time>2026-04-18T10:40:31.123Z</time></trkpt><trkpt lat="46.0175673" lon="11.9882275"><ele>284.33333333333337</ele><time>2026-04-18T10:40:32.124Z</time></trkpt><trkpt lat="46.0173965" lon="11.988103"><ele>287.0</ele><time>2026-04-18T10:40:33.125Z</time></trkpt><trkpt lat="46.0172353" lon="11.9879674"><ele>287.0</ele><time>2026-04-18T10:40:34.124Z</time></trkpt><trkpt lat="46.0170784" lon="11.9878095"><ele>287.0</ele><time>2026-04-18T10:40:35.123Z</time></trkpt><trkpt lat="46.0169266" lon="11.9876291"><ele>287.0</ele><time>2026-04-18T10:40:36.124Z</time></trkpt><trkpt lat="46.0167851" lon="11.9874316"><ele>287.6666666666667</ele><time>2026-04-18T10:40:37.123Z</time></trkpt><trkpt lat="46.0166526" lon="11.9872224"><ele>288.3333333333333</ele><time>2026-04-18T10:40:38.124Z</time></trkpt><trkpt lat="46.0165309" lon="11.9870101"><ele>289.0</ele><time>2026-04-18T10:40:39.123Z</time></trkpt><trkpt lat="46.0164186" lon="11.9867899"><ele>281.0</ele><time>2026-04-18T10:40:40.123Z</time></trkpt><trkpt lat="46.016308" lon="11.9865673"><ele>273.0</ele><time>2026-04-18T10:40:41.124Z</time></trkpt><trkpt lat="46.0161945" lon="11.9863464"><ele>265.0</ele><time>2026-04-18T10:40:42.124Z</time></trkpt><trkpt lat="46.016088" lon="11.9861323"><ele>265.0</ele><time>2026-04-18T10:40:43.124Z</time></trkpt><trkpt lat="46.0159827" lon="11.9859238"><ele>265.0</ele><time>2026-04-18T10:40:44.124Z</time></trkpt><trkpt lat="46.0158799" lon="11.9857177"><ele>265.0</ele><time>2026-04-18T10:40:45.124Z</time></trkpt><trkpt lat="46.015793" lon="11.9855002"><ele>271.0</ele><time>2026-04-18T10:40:46.124Z</time></trkpt><trkpt lat="46.0157148" lon="11.9852753"><ele>277.0</ele><time>2026-04-18T10:40:47.124Z</time></trkpt><trkpt lat="46.0156535" lon="11.9850322"><ele>283.0</ele><time>2026-04-18T10:40:48.123Z</time></trkpt><trkpt lat="46.0155985" lon="11.9847875"><ele>283.0</ele><time>2026-04-18T10:40:49.123Z</time></trkpt><trkpt lat="46.0155477" lon="11.9845445"><ele>283.0</ele><time>2026-04-18T10:40:50.123Z</time></trkpt><trkpt lat="46.0154921" lon="11.984307"><ele>283.0</ele><time>2026-04-18T10:40:51.124Z</time></trkpt><trkpt lat="46.0154202" lon="11.9840732"><ele>279.0</ele><time>2026-04-18T10:40:52.124Z</time></trkpt><trkpt lat="46.0153299" lon="11.9838493"><ele>275.0</ele><time>2026-04-18T10:40:53.125Z</time></trkpt><trkpt lat="46.0152232" lon="11.9836439"><ele>271.0</ele><time>2026-04-18T10:40:54.123Z</time></trkpt><trkpt lat="46.0151044" lon="11.9834561"><ele>266.66666666666663</ele><time>2026-04-18T10:40:55.123Z</time></trkpt><trkpt lat="46.014975" lon="11.9832866"><ele>262.3333333333333</ele><time>2026-04-18T10:40:56.124Z</time></trkpt><trkpt lat="46.0148261" lon="11.9831394"><ele>258.0</ele><time>2026-04-18T10:40:57.124Z</time></trkpt><trkpt lat="46.0146682" lon="11.9830044"><ele>258.0</ele><time>2026-04-18T10:40:58.124Z</time></trkpt><trkpt lat="46.0145065" lon="11.9828848"><ele>258.0</ele><time>2026-04-18T10:40:59.124Z</time></trkpt><trkpt lat="46.0143373" lon="11.9827822"><ele>258.0</ele><time>2026-04-18T10:41:00.123Z</time></trkpt><trkpt lat="46.0141618" lon="11.9826935"><ele>259.3333333333333</ele><time>2026-04-18T10:41:01.124Z</time></trkpt><trkpt lat="46.0139665" lon="11.9826111"><ele>260.66666666666663</ele><time>2026-04-18T10:41:02.125Z</time></trkpt><trkpt lat="46.0137541" lon="11.9825405"><ele>262.0</ele><time>2026-04-18T10:41:03.123Z</time></trkpt><trkpt lat="46.0135266" lon="11.9824504"><ele>250.0</ele><time>2026-04-18T10:41:04.123Z</time></trkpt><trkpt lat="46.0132901" lon="11.9823603"><ele>238.0</ele><time>2026-04-18T10:41:05.123Z</time></trkpt><trkpt lat="46.0130669" lon="11.9822827"><ele>238.0</ele><time>2026-04-18T10:41:06.123Z</time></trkpt><trkpt lat="46.0128477" lon="11.9822099"><ele>238.0</ele><time>2026-04-18T10:41:07.125Z</time></trkpt><trkpt lat="46.0126312" lon="11.9821323"><ele>238.0</ele><time>2026-04-18T10:41:08.124Z</time></trkpt><trkpt lat="46.0124181" lon="11.9820573"><ele>246.66666666666666</ele><time>2026-04-18T10:41:09.125Z</time></trkpt><trkpt lat="46.012206" lon="11.9819834"><ele>255.33333333333331</ele><time>2026-04-18T10:41:10.125Z</time></trkpt><trkpt lat="46.0119953" lon="11.9819147"><ele>264.0</ele><time>2026-04-18T10:41:11.124Z</time></trkpt><trkpt lat="46.0117918" lon="11.9818478"><ele>270.3333333333333</ele><time>2026-04-18T10:41:12.123Z</time></trkpt><trkpt lat="46.0115905" lon="11.9817916"><ele>276.66666666666663</ele><time>2026-04-18T10:41:13.124Z</time></trkpt><trkpt lat="46.0113884" lon="11.9817574"><ele>283.0</ele><time>2026-04-18T10:41:14.125Z</time></trkpt><trkpt lat="46.011182" lon="11.9817521"><ele>283.0</ele><time>2026-04-18T10:41:15.123Z</time></trkpt><trkpt lat="46.0109582" lon="11.9817772"><ele>283.0</ele><time>2026-04-18T10:41:16.123Z</time></trkpt><trkpt lat="46.0107216" lon="11.9818084"><ele>279.0</ele><time>2026-04-18T10:41:17.122Z</time></trkpt><trkpt lat="46.0104731" lon="11.981845"><ele>275.0</ele><time>2026-04-18T10:41:18.122Z</time></trkpt><trkpt lat="46.0102154" lon="11.9818784"><ele>267.0</ele><time>2026-04-18T10:41:19.122Z</time></trkpt><trkpt lat="46.0099496" lon="11.9819043"><ele>259.0</ele><time>2026-04-18T10:41:20.122Z</time></trkpt><trkpt lat="46.0096766" lon="11.981939"><ele>259.0</ele><time>2026-04-18T10:41:21.123Z</time></trkpt><trkpt lat="46.0093951" lon="11.9819731"><ele>259.0</ele><time>2026-04-18T10:41:22.122Z</time></trkpt><trkpt lat="46.0091147" lon="11.9820123"><ele>246.0</ele><time>2026-04-18T10:41:23.122Z</time></trkpt><trkpt lat="46.0088259" lon="11.9820459"><ele>233.0</ele><time>2026-04-18T10:41:24.122Z</time></trkpt><trkpt lat="46.0085242" lon="11.9820744"><ele>226.5</ele><time>2026-04-18T10:41:25.123Z</time></trkpt><trkpt lat="46.0082142" lon="11.9821005"><ele>220.0</ele><time>2026-04-18T10:41:26.123Z</time></trkpt><trkpt lat="46.0079004" lon="11.9821259"><ele>220.0</ele><time>2026-04-18T10:41:27.122Z</time></trkpt><trkpt lat="46.0075843" lon="11.9821598"><ele>220.0</ele><time>2026-04-18T10:41:28.122Z</time></trkpt><trkpt lat="46.0072689" lon="11.9822007"><ele>221.0</ele><time>2026-04-18T10:41:29.122Z</time></trkpt><trkpt lat="46.0069521" lon="11.9822357"><ele>222.0</ele><time>2026-04-18T10:41:30.122Z</time></trkpt><trkpt lat="46.0066347" lon="11.982269"><ele>222.5</ele><time>2026-04-18T10:41:31.123Z</time></trkpt><trkpt lat="46.0063106" lon="11.9823064"><ele>223.0</ele><time>2026-04-18T10:41:32.122Z</time></trkpt><trkpt lat="46.0059814" lon="11.9823418"><ele>222.5</ele><time>2026-04-18T10:41:33.123Z</time></trkpt><trkpt lat="46.0056476" lon="11.9823826"><ele>222.0</ele><time>2026-04-18T10:41:34.123Z</time></trkpt><trkpt lat="46.0053121" lon="11.9824227"><ele>221.0</ele><time>2026-04-18T10:41:35.122Z</time></trkpt><trkpt lat="46.0049739" lon="11.982462"><ele>220.0</ele><time>2026-04-18T10:41:36.122Z</time></trkpt><trkpt lat="46.0046327" lon="11.982499"><ele>224.0</ele><time>2026-04-18T10:41:37.124Z</time></trkpt><trkpt lat="46.0042905" lon="11.9825366"><ele>228.0</ele><time>2026-04-18T10:41:38.123Z</time></trkpt><trkpt lat="46.0039457" lon="11.9825673"><ele>228.0</ele><time>2026-04-18T10:41:39.123Z</time></trkpt><trkpt lat="46.0036052" lon="11.9825964"><ele>228.0</ele><time>2026-04-18T10:41:40.123Z</time></trkpt><trkpt lat="46.0032853" lon="11.9826211"><ele>228.0</ele><time>2026-04-18T10:41:41.122Z</time></trkpt><trkpt lat="46.0029843" lon="11.982649"><ele>228.0</ele><time>2026-04-18T10:41:42.122Z</time></trkpt><trkpt lat="46.0026915" lon="11.9826763"><ele>234.0</ele><time>2026-04-18T10:41:43.122Z</time></trkpt><trkpt lat="46.0024013" lon="11.9827035"><ele>240.0</ele><time>2026-04-18T10:41:44.122Z</time></trkpt><trkpt lat="46.0021137" lon="11.9827292"><ele>240.0</ele><time>2026-04-18T10:41:45.122Z</time></trkpt><trkpt lat="46.0018264" lon="11.9827565"><ele>240.0</ele><time>2026-04-18T10:41:46.123Z</time></trkpt><trkpt lat="46.0015397" lon="11.9827864"><ele>237.0</ele><time>2026-04-18T10:41:47.124Z</time></trkpt><trkpt lat="46.0012555" lon="11.9828142"><ele>234.0</ele><time>2026-04-18T10:41:48.123Z</time></trkpt><trkpt lat="46.0009718" lon="11.9828435"><ele>229.5</ele><time>2026-04-18T10:41:49.122Z</time></trkpt><trkpt lat="46.0006867" lon="11.9828709"><ele>225.0</ele><time>2026-04-18T10:41:50.122Z</time></trkpt><trkpt lat="46.0003996" lon="11.9828973"><ele>225.0</ele><time>2026-04-18T10:41:51.122Z</time></trkpt><trkpt lat="46.0001125" lon="11.9829247"><ele>225.0</ele><time>2026-04-18T10:41:52.122Z</time></trkpt><trkpt lat="45.9998247" lon="11.9829555"><ele>225.0</ele><time>2026-04-18T10:41:53.122Z</time></trkpt><trkpt lat="45.9995344" lon="11.9829878"><ele>225.0</ele><time>2026-04-18T10:41:54.123Z</time></trkpt><trkpt lat="45.9992435" lon="11.9830183"><ele>225.0</ele><time>2026-04-18T10:41:55.123Z</time></trkpt><trkpt lat="45.9989501" lon="11.9830467"><ele>225.0</ele><time>2026-04-18T10:41:56.122Z</time></trkpt><trkpt lat="45.9986564" lon="11.9830698"><ele>225.0</ele><time>2026-04-18T10:41:57.122Z</time></trkpt><trkpt lat="45.998362" lon="11.9830961"><ele>225.0</ele><time>2026-04-18T10:41:58.122Z</time></trkpt><trkpt lat="45.9980673" lon="11.983121"><ele>225.0</ele><time>2026-04-18T10:41:59.122Z</time></trkpt><trkpt lat="45.9977748" lon="11.9831535"><ele>225.0</ele><time>2026-04-18T10:42:00.122Z</time></trkpt><trkpt lat="45.9974839" lon="11.9831865"><ele>230.5</ele><time>2026-04-18T10:42:01.123Z</time></trkpt><trkpt lat="45.9971936" lon="11.9832197"><ele>236.0</ele><time>2026-04-18T10:42:02.123Z</time></trkpt><trkpt lat="45.996906" lon="11.9832526"><ele>234.0</ele><time>2026-04-18T10:42:03.122Z</time></trkpt><trkpt lat="45.9966199" lon="11.9832835"><ele>232.0</ele><time>2026-04-18T10:42:04.123Z</time></trkpt><trkpt lat="45.996338" lon="11.9833134"><ele>232.0</ele><time>2026-04-18T10:42:05.122Z</time></trkpt><trkpt lat="45.9960601" lon="11.9833358"><ele>232.0</ele><time>2026-04-18T10:42:06.123Z</time></trkpt><trkpt lat="45.9957867" lon="11.9833441"><ele>229.5</ele><time>2026-04-18T10:42:07.122Z</time></trkpt><trkpt lat="45.9955151" lon="11.9833267"><ele>227.0</ele><time>2026-04-18T10:42:08.122Z</time></trkpt><trkpt lat="45.995237" lon="11.9832746"><ele>229.5</ele><time>2026-04-18T10:42:09.123Z</time></trkpt><trkpt lat="45.9949557" lon="11.9831943"><ele>232.0</ele><time>2026-04-18T10:42:10.123Z</time></trkpt><trkpt lat="45.9946678" lon="11.9831218"><ele>232.0</ele><time>2026-04-18T10:42:11.124Z</time></trkpt><trkpt lat="45.9943706" lon="11.9830768"><ele>232.0</ele><time>2026-04-18T10:42:12.123Z</time></trkpt><trkpt lat="45.9940644" lon="11.9830572"><ele>233.5</ele><time>2026-04-18T10:42:13.123Z</time></trkpt><trkpt lat="45.9937492" lon="11.9830298"><ele>235.0</ele><time>2026-04-18T10:42:14.124Z</time></trkpt><trkpt lat="45.9934329" lon="11.9829936"><ele>237.0</ele><time>2026-04-18T10:42:15.123Z</time></trkpt><trkpt lat="45.9931427" lon="11.9829582"><ele>239.0</ele><time>2026-04-18T10:42:16.123Z</time></trkpt><trkpt lat="45.9928646" lon="11.9829219"><ele>239.0</ele><time>2026-04-18T10:42:17.123Z</time></trkpt><trkpt lat="45.9925936" lon="11.9828858"><ele>239.0</ele><time>2026-04-18T10:42:18.123Z</time></trkpt><trkpt lat="45.992328" lon="11.9828481"><ele>242.0</ele><time>2026-04-18T10:42:19.123Z</time></trkpt><trkpt lat="45.9920658" lon="11.9828028"><ele>245.0</ele><time>2026-04-18T10:42:20.123Z</time></trkpt><trkpt lat="45.991804" lon="11.9827473"><ele>244.0</ele><time>2026-04-18T10:42:21.123Z</time></trkpt><trkpt lat="45.9915444" lon="11.9826727"><ele>243.0</ele><time>2026-04-18T10:42:22.122Z</time></trkpt><trkpt lat="45.9912886" lon="11.9825794"><ele>234.0</ele><time>2026-04-18T10:42:23.123Z</time></trkpt><trkpt lat="45.9910363" lon="11.9824602"><ele>225.0</ele><time>2026-04-18T10:42:24.122Z</time></trkpt><trkpt lat="45.9907871" lon="11.9823122"><ele>225.0</ele><time>2026-04-18T10:42:25.123Z</time></trkpt><trkpt lat="45.9905418" lon="11.9821334"><ele>225.0</ele><time>2026-04-18T10:42:26.123Z</time></trkpt><trkpt lat="45.9902939" lon="11.9819199"><ele>225.0</ele><time>2026-04-18T10:42:27.122Z</time></trkpt><trkpt lat="45.9900442" lon="11.9816924"><ele>225.0</ele><time>2026-04-18T10:42:28.122Z</time></trkpt><trkpt lat="45.9898002" lon="11.9814682"><ele>223.0</ele><time>2026-04-18T10:42:29.122Z</time></trkpt><trkpt lat="45.9895712" lon="11.9812597"><ele>221.0</ele><time>2026-04-18T10:42:30.123Z</time></trkpt><trkpt lat="45.9893536" lon="11.9810654"><ele>222.5</ele><time>2026-04-18T10:42:31.122Z</time></trkpt><trkpt lat="45.9891328" lon="11.9808793"><ele>224.0</ele><time>2026-04-18T10:42:32.122Z</time></trkpt><trkpt lat="45.9889037" lon="11.9807129"><ele>220.5</ele><time>2026-04-18T10:42:33.123Z</time></trkpt><trkpt lat="45.9886637" lon="11.980572"><ele>217.0</ele><time>2026-04-18T10:42:34.122Z</time></trkpt><trkpt lat="45.9884128" lon="11.9804641"><ele>223.0</ele><time>2026-04-18T10:42:35.123Z</time></trkpt><trkpt lat="45.9881454" lon="11.9803922"><ele>229.0</ele><time>2026-04-18T10:42:36.123Z</time></trkpt><trkpt lat="45.9878687" lon="11.9803498"><ele>229.0</ele><time>2026-04-18T10:42:37.122Z</time></trkpt><trkpt lat="45.9875845" lon="11.9803096"><ele>229.0</ele><time>2026-04-18T10:42:38.122Z</time></trkpt><trkpt lat="45.9873097" lon="11.9802497"><ele>233.5</ele><time>2026-04-18T10:42:39.123Z</time></trkpt><trkpt lat="45.9870379" lon="11.9801748"><ele>238.0</ele><time>2026-04-18T10:42:40.123Z</time></trkpt><trkpt lat="45.9867718" lon="11.980074"><ele>230.5</ele><time>2026-04-18T10:42:41.123Z</time></trkpt><trkpt lat="45.986516" lon="11.9799494"><ele>223.0</ele><time>2026-04-18T10:42:42.122Z</time></trkpt><trkpt lat="45.9862739" lon="11.9797936"><ele>223.0</ele><time>2026-04-18T10:42:43.122Z</time></trkpt><trkpt lat="45.9860388" lon="11.9795991"><ele>223.0</ele><time>2026-04-18T10:42:44.123Z</time></trkpt><trkpt lat="45.9858053" lon="11.9793707"><ele>221.0</ele><time>2026-04-18T10:42:45.124Z</time></trkpt><trkpt lat="45.9855796" lon="11.9791121"><ele>219.0</ele><time>2026-04-18T10:42:46.124Z</time></trkpt><trkpt lat="45.985372" lon="11.9788515"><ele>219.0</ele><time>2026-04-18T10:42:47.123Z</time></trkpt><trkpt lat="45.9851791" lon="11.9785999"><ele>219.0</ele><time>2026-04-18T10:42:48.124Z</time></trkpt><trkpt lat="45.9849845" lon="11.9783874"><ele>221.0</ele><time>2026-04-18T10:42:49.122Z</time></trkpt><trkpt lat="45.9847866" lon="11.978212"><ele>223.0</ele><time>2026-04-18T10:42:50.122Z</time></trkpt><trkpt lat="45.9845853" lon="11.9780688"><ele>223.0</ele><time>2026-04-18T10:42:51.123Z</time></trkpt><trkpt lat="45.9843932" lon="11.9778962"><ele>223.0</ele><time>2026-04-18T10:42:52.122Z</time></trkpt><trkpt lat="45.9842068" lon="11.9777079"><ele>223.0</ele><time>2026-04-18T10:42:53.123Z</time></trkpt><trkpt lat="45.9840343" lon="11.977508"><ele>223.0</ele><time>2026-04-18T10:42:54.122Z</time></trkpt><trkpt lat="45.9838767" lon="11.9773101"><ele>223.0</ele><time>2026-04-18T10:42:55.123Z</time></trkpt><trkpt lat="45.9837392" lon="11.977099"><ele>223.0</ele><time>2026-04-18T10:42:56.123Z</time></trkpt><trkpt lat="45.9836102" lon="11.9768571"><ele>223.0</ele><time>2026-04-18T10:42:57.123Z</time></trkpt><trkpt lat="45.9834838" lon="11.9766022"><ele>223.0</ele><time>2026-04-18T10:42:58.122Z</time></trkpt><trkpt lat="45.9833496" lon="11.9763292"><ele>218.5</ele><time>2026-04-18T10:42:59.122Z</time></trkpt><trkpt lat="45.9832138" lon="11.9760374"><ele>214.0</ele><time>2026-04-18T10:43:00.123Z</time></trkpt><trkpt lat="45.9830781" lon="11.9757175"><ele>214.0</ele><time>2026-04-18T10:43:01.123Z</time></trkpt><trkpt lat="45.9829395" lon="11.9753849"><ele>214.0</ele><time>2026-04-18T10:43:02.123Z</time></trkpt><trkpt lat="45.9827955" lon="11.9750368"><ele>210.5</ele><time>2026-04-18T10:43:03.122Z</time></trkpt><trkpt lat="45.9826436" lon="11.9746857"><ele>207.0</ele><time>2026-04-18T10:43:04.122Z</time></trkpt><trkpt lat="45.9824872" lon="11.9743273"><ele>212.5</ele><time>2026-04-18T10:43:05.122Z</time></trkpt><trkpt lat="45.9823285" lon="11.973963"><ele>218.0</ele><time>2026-04-18T10:43:06.122Z</time></trkpt><trkpt lat="45.9821652" lon="11.9735933"><ele>213.0</ele><time>2026-04-18T10:43:07.123Z</time></trkpt><trkpt lat="45.9820004" lon="11.9732219"><ele>208.0</ele><time>2026-04-18T10:43:08.123Z</time></trkpt><trkpt lat="45.9818361" lon="11.9728464"><ele>216.5</ele><time>2026-04-18T10:43:09.123Z</time></trkpt><trkpt lat="45.9816703" lon="11.972474"><ele>225.0</ele><time>2026-04-18T10:43:10.123Z</time></trkpt><trkpt lat="45.9815077" lon="11.9721007"><ele>225.0</ele><time>2026-04-18T10:43:11.122Z</time></trkpt><trkpt lat="45.9813552" lon="11.9717456"><ele>225.0</ele><time>2026-04-18T10:43:12.122Z</time></trkpt><trkpt lat="45.9812084" lon="11.9714108"><ele>217.5</ele><time>2026-04-18T10:43:13.122Z</time></trkpt><trkpt lat="45.9810665" lon="11.971089"><ele>210.0</ele><time>2026-04-18T10:43:14.122Z</time></trkpt><trkpt lat="45.980926" lon="11.9707733"><ele>215.5</ele><time>2026-04-18T10:43:15.122Z</time></trkpt><trkpt lat="45.9807866" lon="11.9704535"><ele>221.0</ele><time>2026-04-18T10:43:16.122Z</time></trkpt><trkpt lat="45.9806534" lon="11.9701352"><ele>214.5</ele><time>2026-04-18T10:43:17.123Z</time></trkpt><trkpt lat="45.9805312" lon="11.9698269"><ele>208.0</ele><time>2026-04-18T10:43:18.123Z</time></trkpt><trkpt lat="45.9804208" lon="11.9695208"><ele>208.0</ele><time>2026-04-18T10:43:19.124Z</time></trkpt><trkpt lat="45.980323" lon="11.9692128"><ele>208.0</ele><time>2026-04-18T10:43:20.123Z</time></trkpt><trkpt lat="45.9802379" lon="11.9688988"><ele>206.5</ele><time>2026-04-18T10:43:21.122Z</time></trkpt><trkpt lat="45.980159" lon="11.9685648"><ele>205.0</ele><time>2026-04-18T10:43:22.123Z</time></trkpt><trkpt lat="45.9800876" lon="11.968206"><ele>204.5</ele><time>2026-04-18T10:43:23.122Z</time></trkpt><trkpt lat="45.9800214" lon="11.9678253"><ele>204.0</ele><time>2026-04-18T10:43:24.122Z</time></trkpt><trkpt lat="45.9799492" lon="11.9674292"><ele>206.0</ele><time>2026-04-18T10:43:25.122Z</time></trkpt><trkpt lat="45.9798677" lon="11.9670243"><ele>208.0</ele><time>2026-04-18T10:43:26.123Z</time></trkpt><trkpt lat="45.9797817" lon="11.9666148"><ele>208.0</ele><time>2026-04-18T10:43:27.123Z</time></trkpt><trkpt lat="45.9796985" lon="11.9661926"><ele>208.0</ele><time>2026-04-18T10:43:28.122Z</time></trkpt><trkpt lat="45.9796174" lon="11.9657622"><ele>208.0</ele><time>2026-04-18T10:43:29.123Z</time></trkpt><trkpt lat="45.9795368" lon="11.965335"><ele>208.0</ele><time>2026-04-18T10:43:30.123Z</time></trkpt><trkpt lat="45.9794649" lon="11.9649416"><ele>207.0</ele><time>2026-04-18T10:43:31.122Z</time></trkpt><trkpt lat="45.9793956" lon="11.9645694"><ele>206.0</ele><time>2026-04-18T10:43:32.123Z</time></trkpt><trkpt lat="45.979317" lon="11.9642113"><ele>206.0</ele><time>2026-04-18T10:43:33.123Z</time></trkpt><trkpt lat="45.9792163" lon="11.9638578"><ele>206.0</ele><time>2026-04-18T10:43:34.122Z</time></trkpt><trkpt lat="45.9790929" lon="11.9635039"><ele>208.0</ele><time>2026-04-18T10:43:35.122Z</time></trkpt><trkpt lat="45.9789429" lon="11.9631591"><ele>210.0</ele><time>2026-04-18T10:43:36.122Z</time></trkpt><trkpt lat="45.9787771" lon="11.9628212"><ele>209.0</ele><time>2026-04-18T10:43:37.124Z</time></trkpt><trkpt lat="45.9785964" lon="11.9624833"><ele>208.0</ele><time>2026-04-18T10:43:38.123Z</time></trkpt><trkpt lat="45.9784138" lon="11.9621337"><ele>208.5</ele><time>2026-04-18T10:43:39.123Z</time></trkpt><trkpt lat="45.9782297" lon="11.9617792"><ele>209.0</ele><time>2026-04-18T10:43:40.123Z</time></trkpt><trkpt lat="45.9780437" lon="11.9614196"><ele>209.0</ele><time>2026-04-18T10:43:41.122Z</time></trkpt><trkpt lat="45.9778544" lon="11.9610575"><ele>209.0</ele><time>2026-04-18T10:43:42.122Z</time></trkpt><trkpt lat="45.9776648" lon="11.9606931"><ele>210.0</ele><time>2026-04-18T10:43:43.123Z</time></trkpt><trkpt lat="45.9774728" lon="11.9603279"><ele>211.0</ele><time>2026-04-18T10:43:44.123Z</time></trkpt><trkpt lat="45.9772797" lon="11.9599648"><ele>211.0</ele><time>2026-04-18T10:43:45.122Z</time></trkpt><trkpt lat="45.9770879" lon="11.9596041"><ele>211.0</ele><time>2026-04-18T10:43:46.123Z</time></trkpt><trkpt lat="45.9769031" lon="11.9592548"><ele>210.0</ele><time>2026-04-18T10:43:47.122Z</time></trkpt><trkpt lat="45.9767318" lon="11.9589277"><ele>209.0</ele><time>2026-04-18T10:43:48.122Z</time></trkpt><trkpt lat="45.9765661" lon="11.9586122"><ele>210.5</ele><time>2026-04-18T10:43:49.123Z</time></trkpt><trkpt lat="45.9764034" lon="11.9582997"><ele>212.0</ele><time>2026-04-18T10:43:50.123Z</time></trkpt><trkpt lat="45.9762462" lon="11.957991"><ele>212.0</ele><time>2026-04-18T10:43:51.122Z</time></trkpt><trkpt lat="45.976101" lon="11.9576759"><ele>212.0</ele><time>2026-04-18T10:43:52.122Z</time></trkpt><trkpt lat="45.9759688" lon="11.9573472"><ele>210.5</ele><time>2026-04-18T10:43:53.122Z</time></trkpt><trkpt lat="45.9758559" lon="11.95701"><ele>209.0</ele><time>2026-04-18T10:43:54.122Z</time></trkpt><trkpt lat="45.9757598" lon="11.956657"><ele>212.5</ele><time>2026-04-18T10:43:55.123Z</time></trkpt><trkpt lat="45.9756682" lon="11.9562823"><ele>216.0</ele><time>2026-04-18T10:43:56.123Z</time></trkpt><trkpt lat="45.9755881" lon="11.9559087"><ele>213.5</ele><time>2026-04-18T10:43:57.122Z</time></trkpt><trkpt lat="45.9755203" lon="11.9555579"><ele>211.0</ele><time>2026-04-18T10:43:58.123Z</time></trkpt><trkpt lat="45.9754568" lon="11.955239"><ele>210.33333333333331</ele><time>2026-04-18T10:43:59.123Z</time></trkpt><trkpt lat="45.9753949" lon="11.9549394"><ele>209.66666666666669</ele><time>2026-04-18T10:44:00.122Z</time></trkpt><trkpt lat="45.9753368" lon="11.9546557"><ele>209.0</ele><time>2026-04-18T10:44:01.123Z</time></trkpt><trkpt lat="45.9752778" lon="11.9543902"><ele>208.33333333333334</ele><time>2026-04-18T10:44:02.123Z</time></trkpt><trkpt lat="45.9752327" lon="11.9541261"><ele>207.66666666666669</ele><time>2026-04-18T10:44:03.124Z</time></trkpt><trkpt lat="45.9751982" lon="11.9538585"><ele>207.0</ele><time>2026-04-18T10:44:04.123Z</time></trkpt><trkpt lat="45.975179" lon="11.953594"><ele>206.66666666666669</ele><time>2026-04-18T10:44:05.122Z</time></trkpt><trkpt lat="45.9751752" lon="11.9533396"><ele>206.33333333333334</ele><time>2026-04-18T10:44:06.122Z</time></trkpt><trkpt lat="45.9751884" lon="11.9530861"><ele>206.0</ele><time>2026-04-18T10:44:07.122Z</time></trkpt><trkpt lat="45.9752155" lon="11.9528272"><ele>206.0</ele><time>2026-04-18T10:44:08.123Z</time></trkpt><trkpt lat="45.9752564" lon="11.9525621"><ele>206.0</ele><time>2026-04-18T10:44:09.124Z</time></trkpt><trkpt lat="45.9753136" lon="11.9523006"><ele>206.0</ele><time>2026-04-18T10:44:10.122Z</time></trkpt><trkpt lat="45.9753751" lon="11.9520437"><ele>206.0</ele><time>2026-04-18T10:44:11.122Z</time></trkpt><trkpt lat="45.9754424" lon="11.9517959"><ele>206.0</ele><time>2026-04-18T10:44:12.123Z</time></trkpt><trkpt lat="45.9755056" lon="11.9515469"><ele>206.0</ele><time>2026-04-18T10:44:13.123Z</time></trkpt><trkpt lat="45.9755632" lon="11.9512756"><ele>206.0</ele><time>2026-04-18T10:44:14.123Z</time></trkpt><trkpt lat="45.975605" lon="11.9509987"><ele>206.0</ele><time>2026-04-18T10:44:15.122Z</time></trkpt><trkpt lat="45.9756354" lon="11.9507267"><ele>206.0</ele><time>2026-04-18T10:44:16.122Z</time></trkpt><trkpt lat="45.9756495" lon="11.950454"><ele>205.66666666666669</ele><time>2026-04-18T10:44:17.123Z</time></trkpt><trkpt lat="45.9756449" lon="11.9501787"><ele>205.33333333333331</ele><time>2026-04-18T10:44:18.122Z</time></trkpt><trkpt lat="45.9756253" lon="11.9498994"><ele>205.0</ele><time>2026-04-18T10:44:19.123Z</time></trkpt><trkpt lat="45.9755882" lon="11.9496216"><ele>205.0</ele><time>2026-04-18T10:44:20.124Z</time></trkpt><trkpt lat="45.975532" lon="11.9493278"><ele>205.0</ele><time>2026-04-18T10:44:21.123Z</time></trkpt><trkpt lat="45.975446" lon="11.9490284"><ele>205.0</ele><time>2026-04-18T10:44:22.123Z</time></trkpt><trkpt lat="45.9753418" lon="11.9487188"><ele>204.5</ele><time>2026-04-18T10:44:23.123Z</time></trkpt><trkpt lat="45.9752329" lon="11.9483931"><ele>204.0</ele><time>2026-04-18T10:44:24.122Z</time></trkpt><trkpt lat="45.9751195" lon="11.9480527"><ele>203.0</ele><time>2026-04-18T10:44:25.122Z</time></trkpt><trkpt lat="45.9750066" lon="11.9476965"><ele>202.0</ele><time>2026-04-18T10:44:26.122Z</time></trkpt><trkpt lat="45.9748947" lon="11.9473252"><ele>202.0</ele><time>2026-04-18T10:44:27.123Z</time></trkpt><trkpt lat="45.9747704" lon="11.9469457"><ele>202.0</ele><time>2026-04-18T10:44:28.122Z</time></trkpt><trkpt lat="45.9746409" lon="11.9465585"><ele>201.5</ele><time>2026-04-18T10:44:29.122Z</time></trkpt><trkpt lat="45.9745066" lon="11.9461601"><ele>201.0</ele><time>2026-04-18T10:44:30.122Z</time></trkpt><trkpt lat="45.9743713" lon="11.9457594"><ele>201.0</ele><time>2026-04-18T10:44:31.124Z</time></trkpt><trkpt lat="45.974238" lon="11.9453547"><ele>201.0</ele><time>2026-04-18T10:44:32.123Z</time></trkpt><trkpt lat="45.9741024" lon="11.9449437"><ele>201.5</ele><time>2026-04-18T10:44:33.123Z</time></trkpt><trkpt lat="45.9739659" lon="11.9445329"><ele>202.0</ele><time>2026-04-18T10:44:34.124Z</time></trkpt><trkpt lat="45.9738328" lon="11.9441335"><ele>202.0</ele><time>2026-04-18T10:44:35.123Z</time></trkpt><trkpt lat="45.9737059" lon="11.9437642"><ele>202.0</ele><time>2026-04-18T10:44:36.121Z</time></trkpt><trkpt lat="45.9735868" lon="11.9434311"><ele>199.0</ele><time>2026-04-18T10:44:37.122Z</time></trkpt><trkpt lat="45.9734728" lon="11.9431211"><ele>196.0</ele><time>2026-04-18T10:44:38.121Z</time></trkpt><trkpt lat="45.9733672" lon="11.942832"><ele>201.33333333333331</ele><time>2026-04-18T10:44:39.122Z</time></trkpt><trkpt lat="45.9732631" lon="11.9425562"><ele>206.66666666666669</ele><time>2026-04-18T10:44:40.123Z</time></trkpt><trkpt lat="45.9731662" lon="11.942304"><ele>212.0</ele><time>2026-04-18T10:44:41.122Z</time></trkpt><trkpt lat="45.9730743" lon="11.9420668"><ele>212.0</ele><time>2026-04-18T10:44:42.122Z</time></trkpt><trkpt lat="45.9729863" lon="11.9418461"><ele>212.0</ele><time>2026-04-18T10:44:43.121Z</time></trkpt><trkpt lat="45.972902" lon="11.9416333"><ele>212.0</ele><time>2026-04-18T10:44:44.122Z</time></trkpt><trkpt lat="45.972825" lon="11.9414342"><ele>208.5</ele><time>2026-04-18T10:44:45.122Z</time></trkpt><trkpt lat="45.9727515" lon="11.9412474"><ele>205.0</ele><time>2026-04-18T10:44:46.123Z</time></trkpt><trkpt lat="45.9726864" lon="11.9410802"><ele>201.5</ele><time>2026-04-18T10:44:47.121Z</time></trkpt><trkpt lat="45.9726282" lon="11.9409367"><ele>198.0</ele><time>2026-04-18T10:44:48.121Z</time></trkpt><trkpt lat="45.9725798" lon="11.9408141"><ele>197.66666666666666</ele><time>2026-04-18T10:44:49.122Z</time></trkpt><trkpt lat="45.972542" lon="11.9407194"><ele>197.33333333333331</ele><time>2026-04-18T10:44:50.121Z</time></trkpt><trkpt lat="45.9725045" lon="11.9406189"><ele>197.0</ele><time>2026-04-18T10:44:52.122Z</time></trkpt><trkpt lat="45.9724473" lon="11.9405142"><ele>196.66666666666666</ele><time>2026-04-18T10:47:03.122Z</time></trkpt><trkpt lat="45.9724078" lon="11.9404291"><ele>196.33333333333331</ele><time>2026-04-18T10:47:04.121Z</time></trkpt><trkpt lat="45.9723605" lon="11.9403258"><ele>196.0</ele><time>2026-04-18T10:47:05.123Z</time></trkpt><trkpt lat="45.9723059" lon="11.9402074"><ele>198.25</ele><time>2026-04-18T10:47:06.122Z</time></trkpt><trkpt lat="45.9722401" lon="11.9400731"><ele>200.5</ele><time>2026-04-18T10:47:07.122Z</time></trkpt><trkpt lat="45.9721534" lon="11.9399211"><ele>202.75</ele><time>2026-04-18T10:47:08.121Z</time></trkpt><trkpt lat="45.9720638" lon="11.9397491"><ele>205.0</ele><time>2026-04-18T10:47:09.123Z</time></trkpt><trkpt lat="45.971972" lon="11.9395768"><ele>205.0</ele><time>2026-04-18T10:47:10.122Z</time></trkpt><trkpt lat="45.9718745" lon="11.9393911"><ele>205.0</ele><time>2026-04-18T10:47:11.122Z</time></trkpt><trkpt lat="45.9717736" lon="11.9391997"><ele>205.0</ele><time>2026-04-18T10:47:12.122Z</time></trkpt><trkpt lat="45.9716597" lon="11.9390032"><ele>208.33333333333331</ele><time>2026-04-18T10:47:13.122Z</time></trkpt><trkpt lat="45.9715371" lon="11.9388097"><ele>211.66666666666669</ele><time>2026-04-18T10:47:14.122Z</time></trkpt><trkpt lat="45.9714035" lon="11.9386135"><ele>215.0</ele><time>2026-04-18T10:47:15.123Z</time></trkpt><trkpt lat="45.971263" lon="11.9384247"><ele>210.66666666666669</ele><time>2026-04-18T10:47:16.122Z</time></trkpt><trkpt lat="45.9711115" lon="11.9382321"><ele>206.33333333333331</ele><time>2026-04-18T10:47:17.123Z</time></trkpt><trkpt lat="45.9709416" lon="11.9380338"><ele>202.0</ele><time>2026-04-18T10:47:18.121Z</time></trkpt><trkpt lat="45.9707558" lon="11.9378284"><ele>203.0</ele><time>2026-04-18T10:47:19.122Z</time></trkpt><trkpt lat="45.9705638" lon="11.9376177"><ele>204.0</ele><time>2026-04-18T10:47:20.121Z</time></trkpt><trkpt lat="45.9703655" lon="11.9374153"><ele>204.0</ele><time>2026-04-18T10:47:21.121Z</time></trkpt><trkpt lat="45.9701471" lon="11.9372241"><ele>204.0</ele><time>2026-04-18T10:47:22.121Z</time></trkpt><trkpt lat="45.969911" lon="11.9370492"><ele>217.0</ele><time>2026-04-18T10:47:23.122Z</time></trkpt><trkpt lat="45.9696574" lon="11.9368997"><ele>230.0</ele><time>2026-04-18T10:47:24.122Z</time></trkpt><trkpt lat="45.969389" lon="11.9367829"><ele>222.5</ele><time>2026-04-18T10:47:25.122Z</time></trkpt><trkpt lat="45.9691109" lon="11.9366823"><ele>215.0</ele><time>2026-04-18T10:47:26.121Z</time></trkpt><trkpt lat="45.9688246" lon="11.9366035"><ele>215.0</ele><time>2026-04-18T10:47:27.122Z</time></trkpt><trkpt lat="45.968542" lon="11.9365352"><ele>215.0</ele><time>2026-04-18T10:47:28.122Z</time></trkpt><trkpt lat="45.9682581" lon="11.9364847"><ele>216.5</ele><time>2026-04-18T10:47:29.121Z</time></trkpt><trkpt lat="45.967979" lon="11.9364367"><ele>218.0</ele><time>2026-04-18T10:47:30.12Z</time></trkpt><trkpt lat="45.9677078" lon="11.9363886"><ele>218.0</ele><time>2026-04-18T10:47:31.121Z</time></trkpt><trkpt lat="45.9674436" lon="11.9363568"><ele>218.0</ele><time>2026-04-18T10:47:32.121Z</time></trkpt><trkpt lat="45.9671728" lon="11.9363501"><ele>218.0</ele><time>2026-04-18T10:47:33.121Z</time></trkpt><trkpt lat="45.9668985" lon="11.936365"><ele>218.0</ele><time>2026-04-18T10:47:34.12Z</time></trkpt><trkpt lat="45.9666259" lon="11.9364063"><ele>217.5</ele><time>2026-04-18T10:47:35.12Z</time></trkpt><trkpt lat="45.966355" lon="11.9364766"><ele>217.0</ele><time>2026-04-18T10:47:36.12Z</time></trkpt><trkpt lat="45.9660791" lon="11.9365829"><ele>214.0</ele><time>2026-04-18T10:47:37.121Z</time></trkpt><trkpt lat="45.9658006" lon="11.9367051"><ele>211.0</ele><time>2026-04-18T10:47:38.12Z</time></trkpt><trkpt lat="45.9655199" lon="11.9368461"><ele>211.5</ele><time>2026-04-18T10:47:39.12Z</time></trkpt><trkpt lat="45.9652375" lon="11.9369988"><ele>212.0</ele><time>2026-04-18T10:47:40.121Z</time></trkpt><trkpt lat="45.9649537" lon="11.9371505"><ele>212.0</ele><time>2026-04-18T10:47:41.121Z</time></trkpt><trkpt lat="45.964673" lon="11.9373048"><ele>212.0</ele><time>2026-04-18T10:47:42.12Z</time></trkpt><trkpt lat="45.9643962" lon="11.9374606"><ele>219.0</ele><time>2026-04-18T10:47:43.12Z</time></trkpt><trkpt lat="45.9641199" lon="11.9376191"><ele>226.0</ele><time>2026-04-18T10:47:44.12Z</time></trkpt><trkpt lat="45.963849" lon="11.9377783"><ele>226.0</ele><time>2026-04-18T10:47:45.121Z</time></trkpt><trkpt lat="45.9635778" lon="11.9379353"><ele>226.0</ele><time>2026-04-18T10:47:46.12Z</time></trkpt><trkpt lat="45.9633107" lon="11.9380891"><ele>218.5</ele><time>2026-04-18T10:47:47.121Z</time></trkpt><trkpt lat="45.9630441" lon="11.938235"><ele>211.0</ele><time>2026-04-18T10:47:48.12Z</time></trkpt><trkpt lat="45.9627745" lon="11.9383697"><ele>215.0</ele><time>2026-04-18T10:47:49.121Z</time></trkpt><trkpt lat="45.9624926" lon="11.9384808"><ele>219.0</ele><time>2026-04-18T10:47:50.12Z</time></trkpt><trkpt lat="45.9622008" lon="11.938568"><ele>219.0</ele><time>2026-04-18T10:47:51.12Z</time></trkpt><trkpt lat="45.9619081" lon="11.9386313"><ele>219.0</ele><time>2026-04-18T10:47:52.121Z</time></trkpt><trkpt lat="45.9616146" lon="11.9386631"><ele>213.0</ele><time>2026-04-18T10:47:53.12Z</time></trkpt><trkpt lat="45.9613102" lon="11.9386622"><ele>207.0</ele><time>2026-04-18T10:47:54.12Z</time></trkpt><trkpt lat="45.9609995" lon="11.9386423"><ele>209.0</ele><time>2026-04-18T10:47:55.12Z</time></trkpt><trkpt lat="45.9606889" lon="11.9386224"><ele>211.0</ele><time>2026-04-18T10:47:56.12Z</time></trkpt><trkpt lat="45.9603766" lon="11.9386047"><ele>211.0</ele><time>2026-04-18T10:47:57.121Z</time></trkpt><trkpt lat="45.9600632" lon="11.9385877"><ele>211.0</ele><time>2026-04-18T10:47:58.12Z</time></trkpt><trkpt lat="45.9597536" lon="11.9385686"><ele>212.0</ele><time>2026-04-18T10:47:59.12Z</time></trkpt><trkpt lat="45.9594449" lon="11.9385479"><ele>213.0</ele><time>2026-04-18T10:48:00.12Z</time></trkpt><trkpt lat="45.9591398" lon="11.9385278"><ele>213.5</ele><time>2026-04-18T10:48:01.121Z</time></trkpt><trkpt lat="45.9588365" lon="11.9385095"><ele>214.0</ele><time>2026-04-18T10:48:02.12Z</time></trkpt><trkpt lat="45.9585358" lon="11.9384943"><ele>209.5</ele><time>2026-04-18T10:48:03.12Z</time></trkpt><trkpt lat="45.9582419" lon="11.9384809"><ele>205.0</ele><time>2026-04-18T10:48:04.12Z</time></trkpt><trkpt lat="45.9579536" lon="11.9384648"><ele>205.0</ele><time>2026-04-18T10:48:05.12Z</time></trkpt><trkpt lat="45.9576697" lon="11.9384483"><ele>205.0</ele><time>2026-04-18T10:48:06.121Z</time></trkpt><trkpt lat="45.9573936" lon="11.9384302"><ele>207.5</ele><time>2026-04-18T10:48:07.121Z</time></trkpt><trkpt lat="45.957123" lon="11.9384127"><ele>210.0</ele><time>2026-04-18T10:48:08.12Z</time></trkpt><trkpt lat="45.956857" lon="11.9383958"><ele>204.5</ele><time>2026-04-18T10:48:09.121Z</time></trkpt><trkpt lat="45.9565866" lon="11.9383739"><ele>199.0</ele><time>2026-04-18T10:48:10.121Z</time></trkpt><trkpt lat="45.956319" lon="11.9383483"><ele>199.0</ele><time>2026-04-18T10:48:11.121Z</time></trkpt><trkpt lat="45.9560474" lon="11.9383101"><ele>199.0</ele><time>2026-04-18T10:48:12.12Z</time></trkpt><trkpt lat="45.9557769" lon="11.9382413"><ele>199.5</ele><time>2026-04-18T10:48:13.121Z</time></trkpt><trkpt lat="45.9555142" lon="11.9381351"><ele>200.0</ele><time>2026-04-18T10:48:14.12Z</time></trkpt><trkpt lat="45.9552488" lon="11.9380038"><ele>205.5</ele><time>2026-04-18T10:48:15.121Z</time></trkpt><trkpt lat="45.9549858" lon="11.9378723"><ele>211.0</ele><time>2026-04-18T10:48:16.12Z</time></trkpt><trkpt lat="45.9547233" lon="11.9377425"><ele>211.0</ele><time>2026-04-18T10:48:17.121Z</time></trkpt><trkpt lat="45.9544533" lon="11.937591"><ele>211.0</ele><time>2026-04-18T10:48:18.122Z</time></trkpt><trkpt lat="45.9541918" lon="11.9374166"><ele>207.0</ele><time>2026-04-18T10:48:19.121Z</time></trkpt><trkpt lat="45.9539698" lon="11.9372409"><ele>203.0</ele><time>2026-04-18T10:48:20.12Z</time></trkpt><trkpt lat="45.9537776" lon="11.9370618"><ele>203.0</ele><time>2026-04-18T10:48:21.12Z</time></trkpt><trkpt lat="45.9536146" lon="11.9368898"><ele>203.0</ele><time>2026-04-18T10:48:22.12Z</time></trkpt><trkpt lat="45.9534621" lon="11.9367111"><ele>203.0</ele><time>2026-04-18T10:48:23.121Z</time></trkpt><trkpt lat="45.9533035" lon="11.9365144"><ele>204.0</ele><time>2026-04-18T10:48:24.121Z</time></trkpt><trkpt lat="45.9531291" lon="11.9363041"><ele>205.0</ele><time>2026-04-18T10:48:25.121Z</time></trkpt><trkpt lat="45.9529468" lon="11.9360833"><ele>199.5</ele><time>2026-04-18T10:48:26.12Z</time></trkpt><trkpt lat="45.9527536" lon="11.9358452"><ele>194.0</ele><time>2026-04-18T10:48:27.121Z</time></trkpt><trkpt lat="45.9525534" lon="11.9355897"><ele>206.0</ele><time>2026-04-18T10:48:28.12Z</time></trkpt><trkpt lat="45.9523537" lon="11.9353273"><ele>218.0</ele><time>2026-04-18T10:48:29.121Z</time></trkpt><trkpt lat="45.9521562" lon="11.9350543"><ele>207.0</ele><time>2026-04-18T10:48:30.121Z</time></trkpt><trkpt lat="45.9519747" lon="11.9347973"><ele>196.0</ele><time>2026-04-18T10:48:31.121Z</time></trkpt><trkpt lat="45.9518095" lon="11.9345456"><ele>198.66666666666666</ele><time>2026-04-18T10:48:32.121Z</time></trkpt><trkpt lat="45.9516574" lon="11.9343003"><ele>201.33333333333331</ele><time>2026-04-18T10:48:33.12Z</time></trkpt><trkpt lat="45.9515186" lon="11.9340547"><ele>204.0</ele><time>2026-04-18T10:48:34.121Z</time></trkpt><trkpt lat="45.9513922" lon="11.9338079"><ele>204.0</ele><time>2026-04-18T10:48:35.122Z</time></trkpt><trkpt lat="45.9512693" lon="11.9335641"><ele>204.0</ele><time>2026-04-18T10:48:36.121Z</time></trkpt><trkpt lat="45.9511535" lon="11.9333262"><ele>204.0</ele><time>2026-04-18T10:48:37.121Z</time></trkpt><trkpt lat="45.9510469" lon="11.9330896"><ele>207.0</ele><time>2026-04-18T10:48:38.12Z</time></trkpt><trkpt lat="45.9509456" lon="11.9328588"><ele>210.0</ele><time>2026-04-18T10:48:39.122Z</time></trkpt><trkpt lat="45.9508461" lon="11.9326312"><ele>213.0</ele><time>2026-04-18T10:48:40.12Z</time></trkpt><trkpt lat="45.9507426" lon="11.932402"><ele>213.0</ele><time>2026-04-18T10:48:41.121Z</time></trkpt><trkpt lat="45.9506359" lon="11.9321764"><ele>213.0</ele><time>2026-04-18T10:48:42.121Z</time></trkpt><trkpt lat="45.9505181" lon="11.931949"><ele>213.0</ele><time>2026-04-18T10:48:43.121Z</time></trkpt><trkpt lat="45.9503914" lon="11.9317257"><ele>208.0</ele><time>2026-04-18T10:48:44.12Z</time></trkpt><trkpt lat="45.9502592" lon="11.9315086"><ele>203.0</ele><time>2026-04-18T10:48:45.122Z</time></trkpt><trkpt lat="45.9501205" lon="11.9312941"><ele>198.0</ele><time>2026-04-18T10:48:46.12Z</time></trkpt><trkpt lat="45.9499825" lon="11.9310849"><ele>199.0</ele><time>2026-04-18T10:48:47.12Z</time></trkpt><trkpt lat="45.9498443" lon="11.9308862"><ele>200.0</ele><time>2026-04-18T10:48:48.12Z</time></trkpt><trkpt lat="45.9481305" lon="11.9285782"><ele>198.66666666666669</ele><time>2026-04-18T10:49:01.12Z</time></trkpt><trkpt lat="45.947947" lon="11.928388"><ele>197.33333333333331</ele><time>2026-04-18T10:49:02.12Z</time></trkpt><trkpt lat="45.947756" lon="11.9282285"><ele>196.0</ele><time>2026-04-18T10:49:03.12Z</time></trkpt><trkpt lat="45.9475572" lon="11.9280929"><ele>206.0</ele><time>2026-04-18T10:49:04.12Z</time></trkpt><trkpt lat="45.947335" lon="11.9279718"><ele>216.0</ele><time>2026-04-18T10:49:05.121Z</time></trkpt><trkpt lat="45.9471005" lon="11.9278589"><ele>216.0</ele><time>2026-04-18T10:49:06.121Z</time></trkpt><trkpt lat="45.9468731" lon="11.9277437"><ele>216.0</ele><time>2026-04-18T10:49:07.121Z</time></trkpt><trkpt lat="45.9466538" lon="11.9276299"><ele>210.66666666666669</ele><time>2026-04-18T10:49:08.12Z</time></trkpt><trkpt lat="45.9464451" lon="11.9275263"><ele>205.33333333333334</ele><time>2026-04-18T10:49:09.121Z</time></trkpt><trkpt lat="45.9462439" lon="11.9274248"><ele>200.0</ele><time>2026-04-18T10:49:10.122Z</time></trkpt><trkpt lat="45.9460578" lon="11.9273268"><ele>200.0</ele><time>2026-04-18T10:49:11.121Z</time></trkpt><trkpt lat="45.9458821" lon="11.927214"><ele>200.0</ele><time>2026-04-18T10:49:12.12Z</time></trkpt><trkpt lat="45.9457209" lon="11.927089"><ele>200.0</ele><time>2026-04-18T10:49:13.12Z</time></trkpt><trkpt lat="45.9455707" lon="11.9269542"><ele>197.66666666666669</ele><time>2026-04-18T10:49:14.121Z</time></trkpt><trkpt lat="45.9454283" lon="11.9268061"><ele>195.33333333333331</ele><time>2026-04-18T10:49:15.12Z</time></trkpt><trkpt lat="45.9452906" lon="11.9266432"><ele>193.0</ele><time>2026-04-18T10:49:16.121Z</time></trkpt><trkpt lat="45.9451589" lon="11.9264671"><ele>200.0</ele><time>2026-04-18T10:49:17.121Z</time></trkpt><trkpt lat="45.9450337" lon="11.9262869"><ele>207.0</ele><time>2026-04-18T10:49:18.121Z</time></trkpt><trkpt lat="45.9449162" lon="11.926111"><ele>214.0</ele><time>2026-04-18T10:49:19.121Z</time></trkpt><trkpt lat="45.9447986" lon="11.9259449"><ele>208.66666666666666</ele><time>2026-04-18T10:49:20.12Z</time></trkpt><trkpt lat="45.9446803" lon="11.9257807"><ele>203.33333333333331</ele><time>2026-04-18T10:49:21.121Z</time></trkpt><trkpt lat="45.9445637" lon="11.9256161"><ele>198.0</ele><time>2026-04-18T10:49:22.12Z</time></trkpt><trkpt lat="45.944448" lon="11.9254579"><ele>198.0</ele><time>2026-04-18T10:49:23.122Z</time></trkpt><trkpt lat="45.9443374" lon="11.9253054"><ele>198.0</ele><time>2026-04-18T10:49:24.122Z</time></trkpt><trkpt lat="45.9442229" lon="11.925163"><ele>198.0</ele><time>2026-04-18T10:49:25.12Z</time></trkpt><trkpt lat="45.9441067" lon="11.9250306"><ele>198.5</ele><time>2026-04-18T10:49:26.12Z</time></trkpt><trkpt lat="45.9439864" lon="11.9249113"><ele>199.0</ele><time>2026-04-18T10:49:27.12Z</time></trkpt><trkpt lat="45.9438635" lon="11.9248057"><ele>199.5</ele><time>2026-04-18T10:49:28.12Z</time></trkpt><trkpt lat="45.9437422" lon="11.9247119"><ele>200.0</ele><time>2026-04-18T10:49:29.121Z</time></trkpt><trkpt lat="45.9436199" lon="11.9246281"><ele>200.0</ele><time>2026-04-18T10:49:30.122Z</time></trkpt><trkpt lat="45.9434991" lon="11.9245603"><ele>200.0</ele><time>2026-04-18T10:49:31.12Z</time></trkpt><trkpt lat="45.9433741" lon="11.9244943"><ele>200.0</ele><time>2026-04-18T10:49:32.121Z</time></trkpt><trkpt lat="45.9432466" lon="11.9244335"><ele>200.0</ele><time>2026-04-18T10:49:33.121Z</time></trkpt><trkpt lat="45.943116" lon="11.9243783"><ele>197.75</ele><time>2026-04-18T10:49:34.121Z</time></trkpt><trkpt lat="45.9429872" lon="11.9243329"><ele>195.5</ele><time>2026-04-18T10:49:35.12Z</time></trkpt><trkpt lat="45.9428619" lon="11.9242941"><ele>193.25</ele><time>2026-04-18T10:49:36.12Z</time></trkpt><trkpt lat="45.9427365" lon="11.9242609"><ele>191.0</ele><time>2026-04-18T10:49:37.121Z</time></trkpt><trkpt lat="45.9426108" lon="11.9242257"><ele>193.0</ele><time>2026-04-18T10:49:38.121Z</time></trkpt><trkpt lat="45.9424859" lon="11.9241936"><ele>195.0</ele><time>2026-04-18T10:49:39.12Z</time></trkpt><trkpt lat="45.9423669" lon="11.9241719"><ele>197.0</ele><time>2026-04-18T10:49:40.12Z</time></trkpt><trkpt lat="45.9422538" lon="11.9241572"><ele>199.0</ele><time>2026-04-18T10:49:41.12Z</time></trkpt><trkpt lat="45.9421443" lon="11.9241533"><ele>199.0</ele><time>2026-04-18T10:49:42.12Z</time></trkpt><trkpt lat="45.9420366" lon="11.9241595"><ele>199.0</ele><time>2026-04-18T10:49:43.121Z</time></trkpt><trkpt lat="45.9419324" lon="11.9241687"><ele>199.0</ele><time>2026-04-18T10:49:44.12Z</time></trkpt><trkpt lat="45.941832" lon="11.9241808"><ele>199.0</ele><time>2026-04-18T10:49:45.12Z</time></trkpt><trkpt lat="45.941735" lon="11.9241966"><ele>199.0</ele><time>2026-04-18T10:49:46.121Z</time></trkpt><trkpt lat="45.9416419" lon="11.9242078"><ele>198.49999999999997</ele><time>2026-04-18T10:49:47.121Z</time></trkpt><trkpt lat="45.9415545" lon="11.924206"><ele>198.0</ele><time>2026-04-18T10:49:48.121Z</time></trkpt><trkpt lat="45.9414727" lon="11.9241949"><ele>197.5</ele><time>2026-04-18T10:49:49.12Z</time></trkpt><trkpt lat="45.9414004" lon="11.924161"><ele>197.0</ele><time>2026-04-18T10:49:50.121Z</time></trkpt><trkpt lat="45.9413385" lon="11.9241124"><ele>196.49999999999997</ele><time>2026-04-18T10:49:51.12Z</time></trkpt><trkpt lat="45.9412432" lon="11.9240453"><ele>196.0</ele><time>2026-04-18T10:49:53.121Z</time></trkpt><trkpt lat="45.9411445" lon="11.9240762"><ele>196.0</ele><time>2026-04-18T10:49:55.121Z</time></trkpt><trkpt lat="45.9410656" lon="11.9242033"><ele>196.0</ele><time>2026-04-18T10:49:57.12Z</time></trkpt><trkpt lat="45.9410106" lon="11.9242887"><ele>196.0</ele><time>2026-04-18T10:49:58.121Z</time></trkpt><trkpt lat="45.940943" lon="11.9243751"><ele>196.0</ele><time>2026-04-18T10:49:59.12Z</time></trkpt><trkpt lat="45.9408614" lon="11.9244566"><ele>196.0</ele><time>2026-04-18T10:50:00.121Z</time></trkpt><trkpt lat="45.9407829" lon="11.9245547"><ele>199.25</ele><time>2026-04-18T10:50:01.12Z</time></trkpt><trkpt lat="45.9407045" lon="11.9246654"><ele>202.5</ele><time>2026-04-18T10:50:02.121Z</time></trkpt><trkpt lat="45.9406095" lon="11.9247859"><ele>205.75</ele><time>2026-04-18T10:50:03.121Z</time></trkpt><trkpt lat="45.9404952" lon="11.9248989"><ele>209.0</ele><time>2026-04-18T10:50:04.121Z</time></trkpt><trkpt lat="45.9403745" lon="11.9249865"><ele>206.75</ele><time>2026-04-18T10:50:05.121Z</time></trkpt><trkpt lat="45.9402632" lon="11.9250719"><ele>204.5</ele><time>2026-04-18T10:50:06.12Z</time></trkpt><trkpt lat="45.9401596" lon="11.9251533"><ele>202.25</ele><time>2026-04-18T10:50:07.121Z</time></trkpt><trkpt lat="45.9400562" lon="11.9252271"><ele>200.0</ele><time>2026-04-18T10:50:08.121Z</time></trkpt><trkpt lat="45.9399452" lon="11.9253073"><ele>200.0</ele><time>2026-04-18T10:50:09.12Z</time></trkpt><trkpt lat="45.9398194" lon="11.9254034"><ele>200.0</ele><time>2026-04-18T10:50:10.12Z</time></trkpt><trkpt lat="45.9396708" lon="11.9255206"><ele>200.0</ele><time>2026-04-18T10:50:11.12Z</time></trkpt><trkpt lat="45.9395033" lon="11.9256504"><ele>200.0</ele><time>2026-04-18T10:50:12.121Z</time></trkpt><trkpt lat="45.9393186" lon="11.9257847"><ele>200.0</ele><time>2026-04-18T10:50:13.12Z</time></trkpt><trkpt lat="45.939133" lon="11.9259224"><ele>200.0</ele><time>2026-04-18T10:50:14.121Z</time></trkpt><trkpt lat="45.9389294" lon="11.9260645"><ele>197.5</ele><time>2026-04-18T10:50:15.122Z</time></trkpt><trkpt lat="45.9387087" lon="11.9262067"><ele>195.0</ele><time>2026-04-18T10:50:16.122Z</time></trkpt><trkpt lat="45.938492" lon="11.9263603"><ele>192.0</ele><time>2026-04-18T10:50:17.121Z</time></trkpt><trkpt lat="45.9382709" lon="11.9265286"><ele>189.0</ele><time>2026-04-18T10:50:18.12Z</time></trkpt><trkpt lat="45.938048" lon="11.9267108"><ele>189.5</ele><time>2026-04-18T10:50:19.119Z</time></trkpt><trkpt lat="45.9378294" lon="11.9269162"><ele>190.0</ele><time>2026-04-18T10:50:20.119Z</time></trkpt><trkpt lat="45.9376188" lon="11.927149"><ele>189.5</ele><time>2026-04-18T10:50:21.119Z</time></trkpt><trkpt lat="45.9374168" lon="11.9274114"><ele>189.0</ele><time>2026-04-18T10:50:22.119Z</time></trkpt><trkpt lat="45.9372271" lon="11.9276957"><ele>190.0</ele><time>2026-04-18T10:50:23.119Z</time></trkpt><trkpt lat="45.9370462" lon="11.9280028"><ele>191.0</ele><time>2026-04-18T10:50:24.119Z</time></trkpt><trkpt lat="45.9368846" lon="11.9283284"><ele>195.0</ele><time>2026-04-18T10:50:25.121Z</time></trkpt><trkpt lat="45.9367404" lon="11.9286737"><ele>199.0</ele><time>2026-04-18T10:50:26.119Z</time></trkpt><trkpt lat="45.9366157" lon="11.9290262"><ele>202.5</ele><time>2026-04-18T10:50:27.121Z</time></trkpt><trkpt lat="45.9365158" lon="11.9293679"><ele>206.0</ele><time>2026-04-18T10:50:28.12Z</time></trkpt><trkpt lat="45.9364389" lon="11.9296949"><ele>206.0</ele><time>2026-04-18T10:50:29.119Z</time></trkpt><trkpt lat="45.9363798" lon="11.9300076"><ele>206.0</ele><time>2026-04-18T10:50:30.119Z</time></trkpt><trkpt lat="45.9363407" lon="11.9303027"><ele>206.0</ele><time>2026-04-18T10:50:31.12Z</time></trkpt><trkpt lat="45.9363088" lon="11.9305859"><ele>207.0</ele><time>2026-04-18T10:50:32.119Z</time></trkpt><trkpt lat="45.9362894" lon="11.9308571"><ele>208.0</ele><time>2026-04-18T10:50:33.119Z</time></trkpt><trkpt lat="45.9362872" lon="11.9311363"><ele>209.0</ele><time>2026-04-18T10:50:34.12Z</time></trkpt><trkpt lat="45.936296" lon="11.9314184"><ele>209.0</ele><time>2026-04-18T10:50:35.12Z</time></trkpt><trkpt lat="45.9363095" lon="11.9316826"><ele>209.0</ele><time>2026-04-18T10:50:36.119Z</time></trkpt><trkpt lat="45.9363288" lon="11.9319279"><ele>209.0</ele><time>2026-04-18T10:50:37.12Z</time></trkpt><trkpt lat="45.9363547" lon="11.9321579"><ele>209.0</ele><time>2026-04-18T10:50:38.121Z</time></trkpt><trkpt lat="45.9363831" lon="11.9323869"><ele>209.0</ele><time>2026-04-18T10:50:39.12Z</time></trkpt><trkpt lat="45.9364121" lon="11.932613"><ele>209.0</ele><time>2026-04-18T10:50:40.119Z</time></trkpt><trkpt lat="45.9364386" lon="11.9328444"><ele>207.66666666666669</ele><time>2026-04-18T10:50:41.12Z</time></trkpt><trkpt lat="45.9364672" lon="11.9330804"><ele>206.33333333333331</ele><time>2026-04-18T10:50:42.119Z</time></trkpt><trkpt lat="45.9364978" lon="11.9333182"><ele>205.0</ele><time>2026-04-18T10:50:43.12Z</time></trkpt><trkpt lat="45.9365308" lon="11.9335599"><ele>205.0</ele><time>2026-04-18T10:50:44.119Z</time></trkpt><trkpt lat="45.9365626" lon="11.9338026"><ele>205.0</ele><time>2026-04-18T10:50:45.12Z</time></trkpt><trkpt lat="45.9365926" lon="11.9340498"><ele>205.0</ele><time>2026-04-18T10:50:46.119Z</time></trkpt><trkpt lat="45.9366221" lon="11.9342938"><ele>205.0</ele><time>2026-04-18T10:50:47.119Z</time></trkpt><trkpt lat="45.9366482" lon="11.9345237"><ele>205.0</ele><time>2026-04-18T10:50:48.12Z</time></trkpt><trkpt lat="45.9366677" lon="11.9347526"><ele>205.0</ele><time>2026-04-18T10:50:49.119Z</time></trkpt><trkpt lat="45.9366791" lon="11.9349825"><ele>205.66666666666666</ele><time>2026-04-18T10:50:50.12Z</time></trkpt><trkpt lat="45.9366814" lon="11.9352195"><ele>206.33333333333331</ele><time>2026-04-18T10:50:51.12Z</time></trkpt><trkpt lat="45.9366745" lon="11.935458"><ele>207.0</ele><time>2026-04-18T10:50:52.12Z</time></trkpt><trkpt lat="45.9366566" lon="11.9356984"><ele>208.66666666666669</ele><time>2026-04-18T10:50:53.12Z</time></trkpt><trkpt lat="45.9366226" lon="11.9359378"><ele>210.33333333333334</ele><time>2026-04-18T10:50:54.12Z</time></trkpt><trkpt lat="45.9365722" lon="11.9361797"><ele>212.0</ele><time>2026-04-18T10:50:55.12Z</time></trkpt><trkpt lat="45.9365089" lon="11.9364243"><ele>212.0</ele><time>2026-04-18T10:50:56.119Z</time></trkpt><trkpt lat="45.9364354" lon="11.9366636"><ele>212.0</ele><time>2026-04-18T10:50:57.12Z</time></trkpt><trkpt lat="45.936348" lon="11.936892"><ele>212.0</ele><time>2026-04-18T10:50:58.12Z</time></trkpt><trkpt lat="45.9362551" lon="11.9371068"><ele>213.0</ele><time>2026-04-18T10:50:59.119Z</time></trkpt><trkpt lat="45.9361525" lon="11.9373026"><ele>214.0</ele><time>2026-04-18T10:51:00.119Z</time></trkpt><trkpt lat="45.9360408" lon="11.9374822"><ele>215.0</ele><time>2026-04-18T10:51:01.12Z</time></trkpt><trkpt lat="45.9359203" lon="11.9376518"><ele>215.66666666666669</ele><time>2026-04-18T10:51:02.119Z</time></trkpt><trkpt lat="45.9357908" lon="11.9378094"><ele>216.33333333333331</ele><time>2026-04-18T10:51:03.12Z</time></trkpt><trkpt lat="45.9356569" lon="11.9379518"><ele>217.0</ele><time>2026-04-18T10:51:04.12Z</time></trkpt><trkpt lat="45.9355146" lon="11.938079"><ele>217.0</ele><time>2026-04-18T10:51:05.119Z</time></trkpt><trkpt lat="45.9353684" lon="11.9381833"><ele>217.0</ele><time>2026-04-18T10:51:06.12Z</time></trkpt><trkpt lat="45.935225" lon="11.9382643"><ele>217.0</ele><time>2026-04-18T10:51:07.12Z</time></trkpt><trkpt lat="45.9350794" lon="11.9383408"><ele>216.66666666666666</ele><time>2026-04-18T10:51:08.119Z</time></trkpt><trkpt lat="45.9349332" lon="11.9384134"><ele>216.33333333333331</ele><time>2026-04-18T10:51:09.12Z</time></trkpt><trkpt lat="45.9347809" lon="11.9384744"><ele>216.0</ele><time>2026-04-18T10:51:10.12Z</time></trkpt><trkpt lat="45.9346301" lon="11.9385362"><ele>216.0</ele><time>2026-04-18T10:51:11.119Z</time></trkpt><trkpt lat="45.9344799" lon="11.9385958"><ele>216.0</ele><time>2026-04-18T10:51:12.12Z</time></trkpt><trkpt lat="45.934334" lon="11.9386447"><ele>216.0</ele><time>2026-04-18T10:51:13.12Z</time></trkpt><trkpt lat="45.9341938" lon="11.9386976"><ele>216.0</ele><time>2026-04-18T10:51:14.121Z</time></trkpt><trkpt lat="45.9340635" lon="11.9387459"><ele>216.0</ele><time>2026-04-18T10:51:15.121Z</time></trkpt><trkpt lat="45.9339411" lon="11.9387919"><ele>216.0</ele><time>2026-04-18T10:51:16.12Z</time></trkpt><trkpt lat="45.9338278" lon="11.9388455"><ele>216.0</ele><time>2026-04-18T10:51:17.12Z</time></trkpt><trkpt lat="45.9337171" lon="11.9389017"><ele>216.0</ele><time>2026-04-18T10:51:18.12Z</time></trkpt><trkpt lat="45.9336137" lon="11.9389513"><ele>216.00000000000003</ele><time>2026-04-18T10:51:19.12Z</time></trkpt><trkpt lat="45.9335168" lon="11.9389924"><ele>216.00000000000003</ele><time>2026-04-18T10:51:20.119Z</time></trkpt><trkpt lat="45.9334208" lon="11.9390112"><ele>216.0</ele><time>2026-04-18T10:51:21.119Z</time></trkpt><trkpt lat="45.933328" lon="11.9390257"><ele>216.0</ele><time>2026-04-18T10:51:22.119Z</time></trkpt><trkpt lat="45.9332408" lon="11.9390762"><ele>215.20000000000002</ele><time>2026-04-18T10:51:23.119Z</time></trkpt><trkpt lat="45.9331643" lon="11.9391585"><ele>214.40000000000003</ele><time>2026-04-18T10:51:24.119Z</time></trkpt><trkpt lat="45.9331116" lon="11.9392666"><ele>213.6</ele><time>2026-04-18T10:51:25.12Z</time></trkpt><trkpt lat="45.9330928" lon="11.9394084"><ele>212.8</ele><time>2026-04-18T10:51:26.119Z</time></trkpt><trkpt lat="45.9330787" lon="11.9395715"><ele>212.0</ele><time>2026-04-18T10:51:27.12Z</time></trkpt><trkpt lat="45.9330347" lon="11.9397376"><ele>215.66666666666669</ele><time>2026-04-18T10:51:28.12Z</time></trkpt><trkpt lat="45.932963" lon="11.9398933"><ele>219.33333333333331</ele><time>2026-04-18T10:51:29.121Z</time></trkpt><trkpt lat="45.9328603" lon="11.9400519"><ele>223.0</ele><time>2026-04-18T10:51:30.12Z</time></trkpt><trkpt lat="45.9327191" lon="11.9402085"><ele>224.0</ele><time>2026-04-18T10:51:31.12Z</time></trkpt><trkpt lat="45.9325614" lon="11.9403824"><ele>225.0</ele><time>2026-04-18T10:51:32.12Z</time></trkpt><trkpt lat="45.9323963" lon="11.9405617"><ele>226.0</ele><time>2026-04-18T10:51:33.119Z</time></trkpt><trkpt lat="45.9322141" lon="11.9407526"><ele>239.0</ele><time>2026-04-18T10:51:34.119Z</time></trkpt><trkpt lat="45.9320129" lon="11.9409455"><ele>252.0</ele><time>2026-04-18T10:51:35.119Z</time></trkpt><trkpt lat="45.9317955" lon="11.9411118"><ele>248.66666666666669</ele><time>2026-04-18T10:51:36.12Z</time></trkpt><trkpt lat="45.9315846" lon="11.9412359"><ele>245.33333333333334</ele><time>2026-04-18T10:51:37.119Z</time></trkpt><trkpt lat="45.9313808" lon="11.941326"><ele>242.0</ele><time>2026-04-18T10:51:38.119Z</time></trkpt><trkpt lat="45.9311861" lon="11.9414261"><ele>242.0</ele><time>2026-04-18T10:51:39.12Z</time></trkpt><trkpt lat="45.9310037" lon="11.9415634"><ele>242.0</ele><time>2026-04-18T10:51:40.119Z</time></trkpt><trkpt lat="45.9308431" lon="11.9417424"><ele>242.0</ele><time>2026-04-18T10:51:41.119Z</time></trkpt><trkpt lat="45.9306988" lon="11.9419602"><ele>247.0</ele><time>2026-04-18T10:51:42.12Z</time></trkpt><trkpt lat="45.9305758" lon="11.9422361"><ele>252.0</ele><time>2026-04-18T10:51:43.12Z</time></trkpt><trkpt lat="45.9304408" lon="11.9425301"><ele>277.0</ele><time>2026-04-18T10:51:44.12Z</time></trkpt><trkpt lat="45.930305" lon="11.9428252"><ele>302.0</ele><time>2026-04-18T10:51:45.119Z</time></trkpt><trkpt lat="45.9301702" lon="11.9431197"><ele>296.0</ele><time>2026-04-18T10:51:46.12Z</time></trkpt><trkpt lat="45.9300357" lon="11.9434136"><ele>290.0</ele><time>2026-04-18T10:51:47.12Z</time></trkpt><trkpt lat="45.9201694" lon="11.9498836"><ele>239.0</ele><time>2026-04-18T10:52:25.12Z</time></trkpt><trkpt lat="45.9198815" lon="11.9499159"><ele>188.0</ele><time>2026-04-18T10:52:26.12Z</time></trkpt><trkpt lat="45.9196003" lon="11.9499511"><ele>188.0</ele><time>2026-04-18T10:52:27.119Z</time></trkpt><trkpt lat="45.9193247" lon="11.949973"><ele>188.0</ele><time>2026-04-18T10:52:28.119Z</time></trkpt><trkpt lat="45.9190306" lon="11.9500006"><ele>187.5</ele><time>2026-04-18T10:52:29.12Z</time></trkpt><trkpt lat="45.9187268" lon="11.9500274"><ele>187.0</ele><time>2026-04-18T10:52:30.119Z</time></trkpt><trkpt lat="45.9184238" lon="11.9500635"><ele>188.5</ele><time>2026-04-18T10:52:31.12Z</time></trkpt><trkpt lat="45.9181214" lon="11.950101"><ele>190.0</ele><time>2026-04-18T10:52:32.119Z</time></trkpt><trkpt lat="45.9178205" lon="11.9501338"><ele>186.0</ele><time>2026-04-18T10:52:33.12Z</time></trkpt><trkpt lat="45.9175212" lon="11.9501513"><ele>182.0</ele><time>2026-04-18T10:52:34.12Z</time></trkpt><trkpt lat="45.9172211" lon="11.9501492"><ele>182.0</ele><time>2026-04-18T10:52:35.12Z</time></trkpt><trkpt lat="45.9169173" lon="11.9501282"><ele>182.0</ele><time>2026-04-18T10:52:36.12Z</time></trkpt><trkpt lat="45.9166095" lon="11.950107"><ele>181.0</ele><time>2026-04-18T10:52:37.119Z</time></trkpt><trkpt lat="45.9163083" lon="11.9500918"><ele>180.0</ele><time>2026-04-18T10:52:38.12Z</time></trkpt><trkpt lat="45.9160083" lon="11.9500834"><ele>180.0</ele><time>2026-04-18T10:52:39.12Z</time></trkpt><trkpt lat="45.9157072" lon="11.9500833"><ele>180.0</ele><time>2026-04-18T10:52:40.12Z</time></trkpt><trkpt lat="45.9154096" lon="11.950089"><ele>180.0</ele><time>2026-04-18T10:52:41.12Z</time></trkpt><trkpt lat="45.9151251" lon="11.9500979"><ele>180.0</ele><time>2026-04-18T10:52:42.12Z</time></trkpt><trkpt lat="45.914837" lon="11.9500995"><ele>179.0</ele><time>2026-04-18T10:52:43.12Z</time></trkpt><trkpt lat="45.9145416" lon="11.9500894"><ele>178.0</ele><time>2026-04-18T10:52:44.119Z</time></trkpt><trkpt lat="45.9142396" lon="11.9500818"><ele>178.0</ele><time>2026-04-18T10:52:45.12Z</time></trkpt><trkpt lat="45.9139341" lon="11.9500763"><ele>178.0</ele><time>2026-04-18T10:52:46.12Z</time></trkpt><trkpt lat="45.9136248" lon="11.9500767"><ele>177.5</ele><time>2026-04-18T10:52:47.12Z</time></trkpt><trkpt lat="45.9133137" lon="11.9500871"><ele>177.0</ele><time>2026-04-18T10:52:48.119Z</time></trkpt><trkpt lat="45.9129998" lon="11.9501203"><ele>177.0</ele><time>2026-04-18T10:52:49.119Z</time></trkpt><trkpt lat="45.9126785" lon="11.9501814"><ele>177.0</ele><time>2026-04-18T10:52:50.12Z</time></trkpt><trkpt lat="45.9123543" lon="11.9502572"><ele>178.0</ele><time>2026-04-18T10:52:51.12Z</time></trkpt><trkpt lat="45.9120288" lon="11.9503349"><ele>179.0</ele><time>2026-04-18T10:52:52.119Z</time></trkpt><trkpt lat="45.9116987" lon="11.950414"><ele>177.0</ele><time>2026-04-18T10:52:53.12Z</time></trkpt><trkpt lat="45.9113653" lon="11.9504918"><ele>175.0</ele><time>2026-04-18T10:52:54.12Z</time></trkpt><trkpt lat="45.9110294" lon="11.9505727"><ele>175.0</ele><time>2026-04-18T10:52:55.12Z</time></trkpt><trkpt lat="45.9106903" lon="11.9506606"><ele>175.0</ele><time>2026-04-18T10:52:56.119Z</time></trkpt><trkpt lat="45.9103516" lon="11.950753"><ele>175.0</ele><time>2026-04-18T10:52:57.12Z</time></trkpt><trkpt lat="45.9100171" lon="11.9508353"><ele>175.0</ele><time>2026-04-18T10:52:58.119Z</time></trkpt><trkpt lat="45.9097034" lon="11.9509093"><ele>176.0</ele><time>2026-04-18T10:52:59.12Z</time></trkpt><trkpt lat="45.9094073" lon="11.9509799"><ele>177.0</ele><time>2026-04-18T10:53:00.119Z</time></trkpt><trkpt lat="45.9091177" lon="11.9510505"><ele>178.0</ele><time>2026-04-18T10:53:01.119Z</time></trkpt><trkpt lat="45.9088306" lon="11.9511142"><ele>179.0</ele><time>2026-04-18T10:53:02.12Z</time></trkpt><trkpt lat="45.9085485" lon="11.9511782"><ele>178.0</ele><time>2026-04-18T10:53:03.119Z</time></trkpt><trkpt lat="45.9082725" lon="11.9512476"><ele>177.0</ele><time>2026-04-18T10:53:04.119Z</time></trkpt><trkpt lat="45.9080025" lon="11.9513144"><ele>177.0</ele><time>2026-04-18T10:53:05.119Z</time></trkpt><trkpt lat="45.907735" lon="11.9513813"><ele>177.0</ele><time>2026-04-18T10:53:06.121Z</time></trkpt><trkpt lat="45.9074711" lon="11.9514463"><ele>175.5</ele><time>2026-04-18T10:53:07.119Z</time></trkpt><trkpt lat="45.9072065" lon="11.9515087"><ele>174.0</ele><time>2026-04-18T10:53:08.12Z</time></trkpt><trkpt lat="45.90696" lon="11.95157"><ele>174.0</ele><time>2026-04-18T10:53:09.119Z</time></trkpt><trkpt lat="45.9067293" lon="11.9516259"><ele>174.0</ele><time>2026-04-18T10:53:10.12Z</time></trkpt><trkpt lat="45.9065107" lon="11.9516712"><ele>174.0</ele><time>2026-04-18T10:53:11.121Z</time></trkpt><trkpt lat="45.9063025" lon="11.9516928"><ele>174.0</ele><time>2026-04-18T10:53:12.12Z</time></trkpt><trkpt lat="45.9060933" lon="11.9516862"><ele>174.0</ele><time>2026-04-18T10:53:13.12Z</time></trkpt><trkpt lat="45.9058752" lon="11.9516494"><ele>175.0</ele><time>2026-04-18T10:53:14.12Z</time></trkpt><trkpt lat="45.9056435" lon="11.9516145"><ele>176.0</ele><time>2026-04-18T10:53:15.119Z</time></trkpt><trkpt lat="45.9053944" lon="11.9516031"><ele>176.0</ele><time>2026-04-18T10:53:16.119Z</time></trkpt><trkpt lat="45.9051376" lon="11.9516126"><ele>176.0</ele><time>2026-04-18T10:53:17.119Z</time></trkpt><trkpt lat="45.9048672" lon="11.9516363"><ele>181.0</ele><time>2026-04-18T10:53:18.119Z</time></trkpt><trkpt lat="45.9045894" lon="11.9516579"><ele>186.0</ele><time>2026-04-18T10:53:19.12Z</time></trkpt><trkpt lat="45.9043049" lon="11.951666"><ele>185.0</ele><time>2026-04-18T10:53:20.119Z</time></trkpt><trkpt lat="45.9040164" lon="11.9516631"><ele>184.0</ele><time>2026-04-18T10:53:21.12Z</time></trkpt><trkpt lat="45.9037239" lon="11.9516538"><ele>184.0</ele><time>2026-04-18T10:53:22.119Z</time></trkpt><trkpt lat="45.9034295" lon="11.9516463"><ele>184.0</ele><time>2026-04-18T10:53:23.12Z</time></trkpt><trkpt lat="45.9031396" lon="11.9516406"><ele>185.0</ele><time>2026-04-18T10:53:24.118Z</time></trkpt><trkpt lat="45.902854" lon="11.9516319"><ele>186.0</ele><time>2026-04-18T10:53:25.118Z</time></trkpt><trkpt lat="45.9025819" lon="11.9516152"><ele>187.5</ele><time>2026-04-18T10:53:26.119Z</time></trkpt><trkpt lat="45.9023267" lon="11.9515987"><ele>189.0</ele><time>2026-04-18T10:53:27.118Z</time></trkpt><trkpt lat="45.902089" lon="11.9515836"><ele>189.0</ele><time>2026-04-18T10:53:28.12Z</time></trkpt><trkpt lat="45.9018668" lon="11.9515753"><ele>189.0</ele><time>2026-04-18T10:53:29.12Z</time></trkpt><trkpt lat="45.9016543" lon="11.9515751"><ele>189.0</ele><time>2026-04-18T10:53:30.12Z</time></trkpt><trkpt lat="45.9014545" lon="11.9515796"><ele>188.66666666666666</ele><time>2026-04-18T10:53:31.119Z</time></trkpt><trkpt lat="45.901265" lon="11.9515836"><ele>188.33333333333331</ele><time>2026-04-18T10:53:32.119Z</time></trkpt><trkpt lat="45.9010839" lon="11.9515821"><ele>188.0</ele><time>2026-04-18T10:53:33.119Z</time></trkpt><trkpt lat="45.9009164" lon="11.9515831"><ele>189.75</ele><time>2026-04-18T10:53:34.119Z</time></trkpt><trkpt lat="45.9007622" lon="11.9515876"><ele>191.5</ele><time>2026-04-18T10:53:35.12Z</time></trkpt><trkpt lat="45.9006243" lon="11.9515899"><ele>193.25</ele><time>2026-04-18T10:53:36.118Z</time></trkpt><trkpt lat="45.9005024" lon="11.9515718"><ele>195.0</ele><time>2026-04-18T10:53:37.118Z</time></trkpt><trkpt lat="45.9004015" lon="11.9515282"><ele>195.0</ele><time>2026-04-18T10:53:38.119Z</time></trkpt><trkpt lat="45.9003104" lon="11.9515138"><ele>195.0</ele><time>2026-04-18T10:53:39.118Z</time></trkpt><trkpt lat="45.9002231" lon="11.9515511"><ele>195.0</ele><time>2026-04-18T10:53:40.118Z</time></trkpt><trkpt lat="45.9001215" lon="11.9516271"><ele>195.0</ele><time>2026-04-18T10:53:41.119Z</time></trkpt><trkpt lat="45.8999824" lon="11.9517108"><ele>195.0</ele><time>2026-04-18T10:53:42.119Z</time></trkpt><trkpt lat="45.899824" lon="11.9517782"><ele>194.0</ele><time>2026-04-18T10:53:43.119Z</time></trkpt><trkpt lat="45.8996417" lon="11.9518632"><ele>193.0</ele><time>2026-04-18T10:53:44.118Z</time></trkpt><trkpt lat="45.8994407" lon="11.9519638"><ele>192.0</ele><time>2026-04-18T10:53:45.118Z</time></trkpt><trkpt lat="45.8992321" lon="11.9520622"><ele>192.0</ele><time>2026-04-18T10:53:46.118Z</time></trkpt><trkpt lat="45.899007" lon="11.952173"><ele>192.0</ele><time>2026-04-18T10:53:47.119Z</time></trkpt><trkpt lat="45.898764" lon="11.9522819"><ele>192.0</ele><time>2026-04-18T10:53:48.118Z</time></trkpt><trkpt lat="45.8985237" lon="11.9523897"><ele>192.0</ele><time>2026-04-18T10:53:49.118Z</time></trkpt><trkpt lat="45.8982999" lon="11.9524959"><ele>194.5</ele><time>2026-04-18T10:53:50.118Z</time></trkpt><trkpt lat="45.8980859" lon="11.9526102"><ele>197.0</ele><time>2026-04-18T10:53:51.118Z</time></trkpt><trkpt lat="45.8978789" lon="11.9527438"><ele>197.0</ele><time>2026-04-18T10:53:52.118Z</time></trkpt><trkpt lat="45.8976829" lon="11.9528894"><ele>197.0</ele><time>2026-04-18T10:53:53.118Z</time></trkpt><trkpt lat="45.8974956" lon="11.9530521"><ele>197.0</ele><time>2026-04-18T10:53:54.118Z</time></trkpt><trkpt lat="45.8973211" lon="11.9532242"><ele>195.0</ele><time>2026-04-18T10:53:55.118Z</time></trkpt><trkpt lat="45.8971587" lon="11.9533999"><ele>193.0</ele><time>2026-04-18T10:53:56.118Z</time></trkpt><trkpt lat="45.8970091" lon="11.9535768"><ele>191.0</ele><time>2026-04-18T10:53:57.118Z</time></trkpt><trkpt lat="45.8968825" lon="11.9537335"><ele>191.0</ele><time>2026-04-18T10:53:58.12Z</time></trkpt><trkpt lat="45.8967821" lon="11.9538701"><ele>191.0</ele><time>2026-04-18T10:53:59.118Z</time></trkpt><trkpt lat="45.8967032" lon="11.9539746"><ele>191.0</ele><time>2026-04-18T10:54:00.118Z</time></trkpt><trkpt lat="45.8966452" lon="11.9540541"><ele>191.0</ele><time>2026-04-18T10:54:01.119Z</time></trkpt><trkpt lat="45.8965839" lon="11.9541606"><ele>191.0</ele><time>2026-04-18T10:54:03.119Z</time></trkpt><trkpt lat="45.8965381" lon="11.954262"><ele>192.5</ele><time>2026-04-18T10:54:05.119Z</time></trkpt><trkpt lat="45.8964944" lon="11.954422"><ele>194.0</ele><time>2026-04-18T10:54:07.118Z</time></trkpt><trkpt lat="45.8964833" lon="11.9545876"><ele>195.5</ele><time>2026-04-18T10:54:08.118Z</time></trkpt><trkpt lat="45.8964571" lon="11.9547913"><ele>197.0</ele><time>2026-04-18T10:54:09.118Z</time></trkpt><trkpt lat="45.8964097" lon="11.9550195"><ele>201.33333333333334</ele><time>2026-04-18T10:54:10.118Z</time></trkpt><trkpt lat="45.8963494" lon="11.9552729"><ele>205.66666666666669</ele><time>2026-04-18T10:54:11.119Z</time></trkpt><trkpt lat="45.8962967" lon="11.9555594"><ele>210.0</ele><time>2026-04-18T10:54:12.119Z</time></trkpt><trkpt lat="45.8962554" lon="11.9558643"><ele>215.0</ele><time>2026-04-18T10:54:13.118Z</time></trkpt><trkpt lat="45.8962153" lon="11.9561884"><ele>220.0</ele><time>2026-04-18T10:54:14.119Z</time></trkpt><trkpt lat="45.8961665" lon="11.9565295"><ele>224.5</ele><time>2026-04-18T10:54:15.12Z</time></trkpt><trkpt lat="45.8961144" lon="11.9568874"><ele>229.0</ele><time>2026-04-18T10:54:16.119Z</time></trkpt><trkpt lat="45.8960653" lon="11.9572521"><ele>233.5</ele><time>2026-04-18T10:54:17.12Z</time></trkpt><trkpt lat="45.8960183" lon="11.9576256"><ele>238.0</ele><time>2026-04-18T10:54:18.118Z</time></trkpt><trkpt lat="45.8959738" lon="11.9579686"><ele>228.0</ele><time>2026-04-18T10:54:19.118Z</time></trkpt><trkpt lat="45.8959147" lon="11.9582791"><ele>218.0</ele><time>2026-04-18T10:54:20.118Z</time></trkpt><trkpt lat="45.8958286" lon="11.9585551"><ele>208.0</ele><time>2026-04-18T10:54:21.119Z</time></trkpt><trkpt lat="45.8957432" lon="11.9588341"><ele>208.0</ele><time>2026-04-18T10:54:22.119Z</time></trkpt><trkpt lat="45.8956093" lon="11.959087"><ele>208.0</ele><time>2026-04-18T10:54:23.119Z</time></trkpt><trkpt lat="45.895448" lon="11.9593343"><ele>211.66666666666666</ele><time>2026-04-18T10:54:24.119Z</time></trkpt><trkpt lat="45.8953389" lon="11.9595465"><ele>215.33333333333331</ele><time>2026-04-18T10:54:25.119Z</time></trkpt><trkpt lat="45.8952494" lon="11.959741"><ele>219.0</ele><time>2026-04-18T10:54:26.118Z</time></trkpt><trkpt lat="45.8951947" lon="11.9599453"><ele>218.25</ele><time>2026-04-18T10:54:27.119Z</time></trkpt><trkpt lat="45.8951695" lon="11.9601374"><ele>217.5</ele><time>2026-04-18T10:54:28.118Z</time></trkpt><trkpt lat="45.8951662" lon="11.960344"><ele>216.75</ele><time>2026-04-18T10:54:29.119Z</time></trkpt><trkpt lat="45.8951703" lon="11.9605343"><ele>216.0</ele><time>2026-04-18T10:54:30.119Z</time></trkpt><trkpt lat="45.8952364" lon="11.9606683"><ele>216.0</ele><time>2026-04-18T10:54:31.118Z</time></trkpt><trkpt lat="45.8953288" lon="11.9607731"><ele>216.0</ele><time>2026-04-18T10:54:32.119Z</time></trkpt><trkpt lat="45.8954536" lon="11.9608264"><ele>216.0</ele><time>2026-04-18T10:54:33.118Z</time></trkpt><trkpt lat="45.8956008" lon="11.9608264"><ele>216.0</ele><time>2026-04-18T10:54:34.118Z</time></trkpt><trkpt lat="45.8957397" lon="11.960834"><ele>216.75</ele><time>2026-04-18T10:54:35.118Z</time></trkpt><trkpt lat="45.8958699" lon="11.9608707"><ele>217.5</ele><time>2026-04-18T10:54:36.118Z</time></trkpt><trkpt lat="45.8959681" lon="11.9609555"><ele>218.25</ele><time>2026-04-18T10:54:37.119Z</time></trkpt><trkpt lat="45.8960331" lon="11.9610731"><ele>219.0</ele><time>2026-04-18T10:54:38.119Z</time></trkpt><trkpt lat="45.8960457" lon="11.9612151"><ele>221.0</ele><time>2026-04-18T10:54:39.118Z</time></trkpt><trkpt lat="45.896065" lon="11.9613658"><ele>223.0</ele><time>2026-04-18T10:54:40.119Z</time></trkpt><trkpt lat="45.8960448" lon="11.9615216"><ele>225.0</ele><time>2026-04-18T10:54:41.119Z</time></trkpt><trkpt lat="45.8959647" lon="11.9616578"><ele>227.0</ele><time>2026-04-18T10:54:42.118Z</time></trkpt><trkpt lat="45.895755" lon="11.9617856"><ele>227.0</ele><time>2026-04-18T10:54:43.118Z</time></trkpt><trkpt lat="45.8955996" lon="11.9618734"><ele>227.0</ele><time>2026-04-18T10:54:44.118Z</time></trkpt><trkpt lat="45.8954927" lon="11.9620312"><ele>227.0</ele><time>2026-04-18T10:54:45.118Z</time></trkpt><trkpt lat="45.8954044" lon="11.9622349"><ele>227.0</ele><time>2026-04-18T10:54:46.119Z</time></trkpt><trkpt lat="45.895348" lon="11.9624294"><ele>227.0</ele><time>2026-04-18T10:54:47.118Z</time></trkpt><trkpt lat="45.8953327" lon="11.9626244"><ele>227.0</ele><time>2026-04-18T10:54:48.118Z</time></trkpt><trkpt lat="45.8953544" lon="11.9628385"><ele>227.0</ele><time>2026-04-18T10:54:49.118Z</time></trkpt><trkpt lat="45.8954163" lon="11.9630726"><ele>226.33333333333334</ele><time>2026-04-18T10:54:50.119Z</time></trkpt><trkpt lat="45.8954786" lon="11.9633236"><ele>225.66666666666669</ele><time>2026-04-18T10:54:51.119Z</time></trkpt><trkpt lat="45.8955563" lon="11.9635908"><ele>225.0</ele><time>2026-04-18T10:54:52.119Z</time></trkpt><trkpt lat="45.8956373" lon="11.9638841"><ele>224.33333333333331</ele><time>2026-04-18T10:54:53.118Z</time></trkpt><trkpt lat="45.8957153" lon="11.9641644"><ele>223.66666666666666</ele><time>2026-04-18T10:54:54.118Z</time></trkpt><trkpt lat="45.8957894" lon="11.9644257"><ele>223.0</ele><time>2026-04-18T10:54:55.118Z</time></trkpt><trkpt lat="45.895858" lon="11.9646721"><ele>223.0</ele><time>2026-04-18T10:54:56.118Z</time></trkpt><trkpt lat="45.8959199" lon="11.964897"><ele>223.0</ele><time>2026-04-18T10:54:57.119Z</time></trkpt><trkpt lat="45.8959755" lon="11.9651018"><ele>223.0</ele><time>2026-04-18T10:54:58.118Z</time></trkpt><trkpt lat="45.896033" lon="11.9652866"><ele>225.25</ele><time>2026-04-18T10:54:59.118Z</time></trkpt><trkpt lat="45.8961093" lon="11.9654439"><ele>227.5</ele><time>2026-04-18T10:55:00.119Z</time></trkpt><trkpt lat="45.8961761" lon="11.9655899"><ele>229.75</ele><time>2026-04-18T10:55:01.119Z</time></trkpt><trkpt lat="45.8962502" lon="11.9656999"><ele>232.0</ele><time>2026-04-18T10:55:02.119Z</time></trkpt><trkpt lat="45.8962928" lon="11.965827"><ele>232.8</ele><time>2026-04-18T10:55:03.119Z</time></trkpt><trkpt lat="45.8963216" lon="11.9659841"><ele>233.6</ele><time>2026-04-18T10:55:04.119Z</time></trkpt><trkpt lat="45.8963328" lon="11.9661206"><ele>234.40000000000003</ele><time>2026-04-18T10:55:05.118Z</time></trkpt><trkpt lat="45.8963213" lon="11.9662387"><ele>235.20000000000002</ele><time>2026-04-18T10:55:06.119Z</time></trkpt><trkpt lat="45.8963224" lon="11.9663828"><ele>236.0</ele><time>2026-04-18T10:55:07.118Z</time></trkpt><trkpt lat="45.8963216" lon="11.9665598"><ele>236.66666666666669</ele><time>2026-04-18T10:55:08.119Z</time></trkpt><trkpt lat="45.896304" lon="11.9667692"><ele>237.33333333333331</ele><time>2026-04-18T10:55:09.118Z</time></trkpt><trkpt lat="45.8962867" lon="11.9670094"><ele>238.0</ele><time>2026-04-18T10:55:10.118Z</time></trkpt><trkpt lat="45.8962724" lon="11.9672829"><ele>238.66666666666666</ele><time>2026-04-18T10:55:11.118Z</time></trkpt><trkpt lat="45.8962566" lon="11.9675451"><ele>239.33333333333331</ele><time>2026-04-18T10:55:12.118Z</time></trkpt><trkpt lat="45.89624" lon="11.9677952"><ele>240.0</ele><time>2026-04-18T10:55:13.118Z</time></trkpt><trkpt lat="45.896225" lon="11.9680298"><ele>240.0</ele><time>2026-04-18T10:55:14.118Z</time></trkpt><trkpt lat="45.896218" lon="11.9682547"><ele>240.0</ele><time>2026-04-18T10:55:15.118Z</time></trkpt><trkpt lat="45.8962034" lon="11.9684755"><ele>240.0</ele><time>2026-04-18T10:55:16.118Z</time></trkpt><trkpt lat="45.8961944" lon="11.9686772"><ele>240.66666666666669</ele><time>2026-04-18T10:55:17.118Z</time></trkpt><trkpt lat="45.896189" lon="11.9688959"><ele>241.33333333333334</ele><time>2026-04-18T10:55:18.119Z</time></trkpt><trkpt lat="45.8961721" lon="11.9691516"><ele>242.0</ele><time>2026-04-18T10:55:19.118Z</time></trkpt><trkpt lat="45.896139" lon="11.9694412"><ele>242.0</ele><time>2026-04-18T10:55:20.118Z</time></trkpt><trkpt lat="45.8961034" lon="11.9697467"><ele>242.0</ele><time>2026-04-18T10:55:21.119Z</time></trkpt><trkpt lat="45.8960858" lon="11.9700666"><ele>242.0</ele><time>2026-04-18T10:55:22.119Z</time></trkpt><trkpt lat="45.8960807" lon="11.9703702"><ele>242.0</ele><time>2026-04-18T10:55:23.119Z</time></trkpt><trkpt lat="45.8960604" lon="11.9706789"><ele>242.0</ele><time>2026-04-18T10:55:24.12Z</time></trkpt><trkpt lat="45.8960199" lon="11.971001"><ele>242.0</ele><time>2026-04-18T10:55:25.119Z</time></trkpt><trkpt lat="45.8959599" lon="11.9713448"><ele>234.5</ele><time>2026-04-18T10:55:26.119Z</time></trkpt><trkpt lat="45.8958914" lon="11.9717055"><ele>227.0</ele><time>2026-04-18T10:55:27.119Z</time></trkpt><trkpt lat="45.8958223" lon="11.9720884"><ele>227.0</ele><time>2026-04-18T10:55:28.119Z</time></trkpt><trkpt lat="45.895751" lon="11.9724804"><ele>227.0</ele><time>2026-04-18T10:55:29.118Z</time></trkpt><trkpt lat="45.8956847" lon="11.9728632"><ele>229.0</ele><time>2026-04-18T10:55:30.118Z</time></trkpt><trkpt lat="45.8956207" lon="11.9732199"><ele>231.0</ele><time>2026-04-18T10:55:31.119Z</time></trkpt><trkpt lat="45.8955634" lon="11.9735564"><ele>231.5</ele><time>2026-04-18T10:55:32.119Z</time></trkpt><trkpt lat="45.8955136" lon="11.9738818"><ele>232.0</ele><time>2026-04-18T10:55:33.118Z</time></trkpt><trkpt lat="45.8954834" lon="11.974214"><ele>232.0</ele><time>2026-04-18T10:55:34.118Z</time></trkpt><trkpt lat="45.8954833" lon="11.9745661"><ele>232.0</ele><time>2026-04-18T10:55:35.118Z</time></trkpt><trkpt lat="45.8955197" lon="11.9749246"><ele>230.66666666666666</ele><time>2026-04-18T10:55:36.119Z</time></trkpt><trkpt lat="45.8955824" lon="11.9752455"><ele>229.33333333333331</ele><time>2026-04-18T10:55:37.12Z</time></trkpt><trkpt lat="45.8956543" lon="11.9755242"><ele>228.0</ele><time>2026-04-18T10:55:38.119Z</time></trkpt><trkpt lat="45.8957166" lon="11.9757712"><ele>228.0</ele><time>2026-04-18T10:55:39.119Z</time></trkpt><trkpt lat="45.8957768" lon="11.9759974"><ele>228.0</ele><time>2026-04-18T10:55:40.118Z</time></trkpt><trkpt lat="45.8958315" lon="11.9762025"><ele>228.0</ele><time>2026-04-18T10:55:41.118Z</time></trkpt><trkpt lat="45.8958854" lon="11.976383"><ele>227.25</ele><time>2026-04-18T10:55:42.118Z</time></trkpt><trkpt lat="45.8959363" lon="11.9765496"><ele>226.5</ele><time>2026-04-18T10:55:43.119Z</time></trkpt><trkpt lat="45.8959849" lon="11.976717"><ele>225.75</ele><time>2026-04-18T10:55:44.118Z</time></trkpt><trkpt lat="45.8960375" lon="11.9768894"><ele>225.0</ele><time>2026-04-18T10:55:45.118Z</time></trkpt><trkpt lat="45.8960901" lon="11.9770651"><ele>225.0</ele><time>2026-04-18T10:55:46.119Z</time></trkpt><trkpt lat="45.8961534" lon="11.9772689"><ele>225.0</ele><time>2026-04-18T10:55:47.118Z</time></trkpt><trkpt lat="45.8962259" lon="11.9775"><ele>225.0</ele><time>2026-04-18T10:55:48.118Z</time></trkpt><trkpt lat="45.8963031" lon="11.9777636"><ele>225.0</ele><time>2026-04-18T10:55:49.119Z</time></trkpt><trkpt lat="45.896385" lon="11.9780523"><ele>225.0</ele><time>2026-04-18T10:55:50.118Z</time></trkpt><trkpt lat="45.896475" lon="11.9783632"><ele>225.0</ele><time>2026-04-18T10:55:51.118Z</time></trkpt><trkpt lat="45.896567" lon="11.9786884"><ele>225.0</ele><time>2026-04-18T10:55:52.118Z</time></trkpt><trkpt lat="45.8966635" lon="11.9790229"><ele>228.0</ele><time>2026-04-18T10:55:53.118Z</time></trkpt><trkpt lat="45.8967595" lon="11.9793642"><ele>231.0</ele><time>2026-04-18T10:55:54.12Z</time></trkpt><trkpt lat="45.896848" lon="11.9797104"><ele>231.5</ele><time>2026-04-18T10:55:55.119Z</time></trkpt><trkpt lat="45.8969396" lon="11.980057"><ele>232.0</ele><time>2026-04-18T10:55:56.119Z</time></trkpt><trkpt lat="45.8970323" lon="11.980379"><ele>232.0</ele><time>2026-04-18T10:55:57.119Z</time></trkpt><trkpt lat="45.8971254" lon="11.9806839"><ele>232.0</ele><time>2026-04-18T10:55:58.118Z</time></trkpt><trkpt lat="45.8972144" lon="11.9809829"><ele>231.66666666666666</ele><time>2026-04-18T10:55:59.118Z</time></trkpt><trkpt lat="45.8972996" lon="11.981279"><ele>231.33333333333331</ele><time>2026-04-18T10:56:00.119Z</time></trkpt><trkpt lat="45.8973812" lon="11.9815726"><ele>231.0</ele><time>2026-04-18T10:56:01.119Z</time></trkpt><trkpt lat="45.8974642" lon="11.9818587"><ele>231.0</ele><time>2026-04-18T10:56:02.118Z</time></trkpt><trkpt lat="45.8975419" lon="11.9821375"><ele>231.0</ele><time>2026-04-18T10:56:03.118Z</time></trkpt><trkpt lat="45.8976163" lon="11.9823958"><ele>231.0</ele><time>2026-04-18T10:56:04.118Z</time></trkpt><trkpt lat="45.8976861" lon="11.9826349"><ele>233.66666666666669</ele><time>2026-04-18T10:56:05.119Z</time></trkpt><trkpt lat="45.8977559" lon="11.9828601"><ele>236.33333333333334</ele><time>2026-04-18T10:56:06.118Z</time></trkpt><trkpt lat="45.8978149" lon="11.9830656"><ele>239.0</ele><time>2026-04-18T10:56:07.119Z</time></trkpt><trkpt lat="45.8978621" lon="11.9832558"><ele>238.75</ele><time>2026-04-18T10:56:08.118Z</time></trkpt><trkpt lat="45.8978791" lon="11.9834413"><ele>238.5</ele><time>2026-04-18T10:56:09.119Z</time></trkpt><trkpt lat="45.8978608" lon="11.9836475"><ele>238.25</ele><time>2026-04-18T10:56:10.119Z</time></trkpt><trkpt lat="45.8977918" lon="11.9838711"><ele>238.0</ele><time>2026-04-18T10:56:11.12Z</time></trkpt><trkpt lat="45.8977056" lon="11.9841234"><ele>238.0</ele><time>2026-04-18T10:56:12.118Z</time></trkpt><trkpt lat="45.8976213" lon="11.9844101"><ele>238.0</ele><time>2026-04-18T10:56:13.118Z</time></trkpt><trkpt lat="45.8975489" lon="11.9846651"><ele>238.0</ele><time>2026-04-18T10:56:14.119Z</time></trkpt><trkpt lat="45.8974793" lon="11.984895"><ele>239.5</ele><time>2026-04-18T10:56:15.118Z</time></trkpt><trkpt lat="45.897412" lon="11.9850985"><ele>241.0</ele><time>2026-04-18T10:56:16.119Z</time></trkpt><trkpt lat="45.8973323" lon="11.9852619"><ele>242.5</ele><time>2026-04-18T10:56:17.118Z</time></trkpt><trkpt lat="45.8972456" lon="11.9854274"><ele>244.0</ele><time>2026-04-18T10:56:18.119Z</time></trkpt><trkpt lat="45.8971702" lon="11.9856039"><ele>244.0</ele><time>2026-04-18T10:56:19.118Z</time></trkpt><trkpt lat="45.8971207" lon="11.9857941"><ele>244.0</ele><time>2026-04-18T10:56:20.119Z</time></trkpt><trkpt lat="45.8970957" lon="11.986004"><ele>244.0</ele><time>2026-04-18T10:56:21.118Z</time></trkpt><trkpt lat="45.8970871" lon="11.9862436"><ele>244.33333333333331</ele><time>2026-04-18T10:56:22.118Z</time></trkpt><trkpt lat="45.897102" lon="11.9864691"><ele>244.66666666666669</ele><time>2026-04-18T10:56:23.119Z</time></trkpt><trkpt lat="45.897141" lon="11.9866783"><ele>245.0</ele><time>2026-04-18T10:56:24.12Z</time></trkpt><trkpt lat="45.8972123" lon="11.986888"><ele>242.0</ele><time>2026-04-18T10:56:25.12Z</time></trkpt><trkpt lat="45.8973139" lon="11.9870975"><ele>239.0</ele><time>2026-04-18T10:56:26.119Z</time></trkpt><trkpt lat="45.897434" lon="11.987318"><ele>236.0</ele><time>2026-04-18T10:56:27.118Z</time></trkpt><trkpt lat="45.897546" lon="11.9875283"><ele>237.66666666666669</ele><time>2026-04-18T10:56:28.119Z</time></trkpt><trkpt lat="45.8976566" lon="11.9877212"><ele>239.33333333333331</ele><time>2026-04-18T10:56:29.118Z</time></trkpt><trkpt lat="45.8977511" lon="11.9879087"><ele>241.0</ele><time>2026-04-18T10:56:30.119Z</time></trkpt><trkpt lat="45.8978262" lon="11.9880959"><ele>241.0</ele><time>2026-04-18T10:56:31.118Z</time></trkpt><trkpt lat="45.8978587" lon="11.988307"><ele>241.0</ele><time>2026-04-18T10:56:32.119Z</time></trkpt><trkpt lat="45.8978521" lon="11.9885275"><ele>241.0</ele><time>2026-04-18T10:56:33.118Z</time></trkpt><trkpt lat="45.8978039" lon="11.988734"><ele>240.75</ele><time>2026-04-18T10:56:34.118Z</time></trkpt><trkpt lat="45.8977215" lon="11.988915"><ele>240.5</ele><time>2026-04-18T10:56:35.119Z</time></trkpt><trkpt lat="45.8976281" lon="11.9890873"><ele>240.25</ele><time>2026-04-18T10:56:36.118Z</time></trkpt><trkpt lat="45.8975365" lon="11.9892309"><ele>240.0</ele><time>2026-04-18T10:56:37.118Z</time></trkpt><trkpt lat="45.8974652" lon="11.9893731"><ele>240.0</ele><time>2026-04-18T10:56:38.118Z</time></trkpt><trkpt lat="45.8974349" lon="11.989543"><ele>240.0</ele><time>2026-04-18T10:56:39.118Z</time></trkpt><trkpt lat="45.8974344" lon="11.9897433"><ele>240.0</ele><time>2026-04-18T10:56:40.118Z</time></trkpt><trkpt lat="45.897439" lon="11.9899757"><ele>240.0</ele><time>2026-04-18T10:56:41.117Z</time></trkpt><trkpt lat="45.8974502" lon="11.9902387"><ele>240.33333333333331</ele><time>2026-04-18T10:56:42.119Z</time></trkpt><trkpt lat="45.8974599" lon="11.9905321"><ele>240.66666666666666</ele><time>2026-04-18T10:56:43.118Z</time></trkpt><trkpt lat="45.8974677" lon="11.9908344"><ele>241.0</ele><time>2026-04-18T10:56:44.118Z</time></trkpt><trkpt lat="45.8974815" lon="11.9911141"><ele>241.0</ele><time>2026-04-18T10:56:45.119Z</time></trkpt><trkpt lat="45.8974873" lon="11.9913786"><ele>241.0</ele><time>2026-04-18T10:56:46.118Z</time></trkpt><trkpt lat="45.8974962" lon="11.9916285"><ele>241.0</ele><time>2026-04-18T10:56:47.118Z</time></trkpt><trkpt lat="45.8975045" lon="11.9918559"><ele>240.75</ele><time>2026-04-18T10:56:48.117Z</time></trkpt><trkpt lat="45.8975133" lon="11.9920726"><ele>240.5</ele><time>2026-04-18T10:56:49.117Z</time></trkpt><trkpt lat="45.8975433" lon="11.9922761"><ele>240.25</ele><time>2026-04-18T10:56:50.118Z</time></trkpt><trkpt lat="45.8976072" lon="11.9924686"><ele>240.0</ele><time>2026-04-18T10:56:51.119Z</time></trkpt><trkpt lat="45.8977111" lon="11.9926579"><ele>241.0</ele><time>2026-04-18T10:56:52.118Z</time></trkpt><trkpt lat="45.8978191" lon="11.9928189"><ele>242.0</ele><time>2026-04-18T10:56:53.118Z</time></trkpt><trkpt lat="45.8979243" lon="11.9929628"><ele>243.0</ele><time>2026-04-18T10:56:54.119Z</time></trkpt><trkpt lat="45.8980241" lon="11.9930897"><ele>244.0</ele><time>2026-04-18T10:56:55.118Z</time></trkpt><trkpt lat="45.8981278" lon="11.9932013"><ele>244.0</ele><time>2026-04-18T10:56:56.118Z</time></trkpt><trkpt lat="45.8982393" lon="11.9933328"><ele>244.0</ele><time>2026-04-18T10:56:57.118Z</time></trkpt><trkpt lat="45.8983705" lon="11.9934862"><ele>244.0</ele><time>2026-04-18T10:56:58.118Z</time></trkpt><trkpt lat="45.8985254" lon="11.9936378"><ele>245.33333333333331</ele><time>2026-04-18T10:56:59.118Z</time></trkpt><trkpt lat="45.8986776" lon="11.9937999"><ele>246.66666666666669</ele><time>2026-04-18T10:57:00.118Z</time></trkpt><trkpt lat="45.898839" lon="11.9939762"><ele>248.0</ele><time>2026-04-18T10:57:01.118Z</time></trkpt><trkpt lat="45.8989866" lon="11.9941382"><ele>247.66666666666669</ele><time>2026-04-18T10:57:02.119Z</time></trkpt><trkpt lat="45.8991275" lon="11.9942936"><ele>247.33333333333331</ele><time>2026-04-18T10:57:03.118Z</time></trkpt><trkpt lat="45.8992747" lon="11.994442"><ele>247.0</ele><time>2026-04-18T10:57:04.118Z</time></trkpt><trkpt lat="45.8994237" lon="11.9945741"><ele>249.33333333333331</ele><time>2026-04-18T10:57:05.117Z</time></trkpt><trkpt lat="45.8995813" lon="11.9947073"><ele>251.66666666666669</ele><time>2026-04-18T10:57:06.118Z</time></trkpt><trkpt lat="45.8997628" lon="11.9948203"><ele>254.0</ele><time>2026-04-18T10:57:07.117Z</time></trkpt><trkpt lat="45.8999427" lon="11.9949049"><ele>254.33333333333334</ele><time>2026-04-18T10:57:08.117Z</time></trkpt><trkpt lat="45.9001088" lon="11.9949753"><ele>254.66666666666669</ele><time>2026-04-18T10:57:09.117Z</time></trkpt><trkpt lat="45.9002674" lon="11.9950193"><ele>255.0</ele><time>2026-04-18T10:57:10.117Z</time></trkpt><trkpt lat="45.9004162" lon="11.9950404"><ele>255.0</ele><time>2026-04-18T10:57:11.117Z</time></trkpt><trkpt lat="45.9005536" lon="11.9950722"><ele>255.0</ele><time>2026-04-18T10:57:12.119Z</time></trkpt><trkpt lat="45.9006815" lon="11.9951319"><ele>255.0</ele><time>2026-04-18T10:57:13.118Z</time></trkpt><trkpt lat="45.9007883" lon="11.9952071"><ele>255.0</ele><time>2026-04-18T10:57:14.119Z</time></trkpt><trkpt lat="45.9008932" lon="11.9952725"><ele>255.5</ele><time>2026-04-18T10:57:15.118Z</time></trkpt><trkpt lat="45.900982" lon="11.9953361"><ele>256.0</ele><time>2026-04-18T10:57:16.118Z</time></trkpt><trkpt lat="45.9010628" lon="11.9953893"><ele>256.5</ele><time>2026-04-18T10:57:17.118Z</time></trkpt><trkpt lat="45.9011305" lon="11.9954214"><ele>257.0</ele><time>2026-04-18T10:57:18.119Z</time></trkpt><trkpt lat="45.9012077" lon="11.99543"><ele>257.5</ele><time>2026-04-18T10:57:20.117Z</time></trkpt><trkpt lat="45.9012677" lon="11.995368"><ele>258.0</ele><time>2026-04-18T10:57:22.119Z</time></trkpt><trkpt lat="45.9012892" lon="11.9952768"><ele>258.0</ele><time>2026-04-18T10:57:23.118Z</time></trkpt><trkpt lat="45.9012728" lon="11.9951366"><ele>258.0</ele><time>2026-04-18T10:57:24.118Z</time></trkpt><trkpt lat="45.9012483" lon="11.9949616"><ele>258.0</ele><time>2026-04-18T10:57:25.117Z</time></trkpt><trkpt lat="45.9012367" lon="11.9948136"><ele>258.0</ele><time>2026-04-18T10:57:26.118Z</time></trkpt><trkpt lat="45.9012071" lon="11.9947"><ele>258.0</ele><time>2026-04-18T10:57:27.117Z</time></trkpt><trkpt lat="45.9011776" lon="11.9945657"><ele>258.4</ele><time>2026-04-18T10:57:29.118Z</time></trkpt><trkpt lat="45.901225" lon="11.9944649"><ele>258.8</ele><time>2026-04-18T10:57:33.118Z</time></trkpt><trkpt lat="45.9013567" lon="11.9944562"><ele>259.2</ele><time>2026-04-18T10:57:35.118Z</time></trkpt><trkpt lat="45.9014411" lon="11.9944583"><ele>259.6</ele><time>2026-04-18T10:57:36.117Z</time></trkpt><trkpt lat="45.9015249" lon="11.9944479"><ele>260.0</ele><time>2026-04-18T10:57:37.119Z</time></trkpt><trkpt lat="45.9016115" lon="11.9944436"><ele>260.0</ele><time>2026-04-18T10:57:38.117Z</time></trkpt><trkpt lat="45.9016851" lon="11.9944348"><ele>260.0</ele><time>2026-04-18T10:57:39.118Z</time></trkpt><trkpt lat="45.9017537" lon="11.9944118"><ele>260.0</ele><time>2026-04-18T10:57:40.118Z</time></trkpt><trkpt lat="45.9018463" lon="11.9943805"><ele>260.0</ele><time>2026-04-18T10:57:42.117Z</time></trkpt><trkpt lat="45.9019482" lon="11.9943548"><ele>260.0</ele><time>2026-04-18T10:57:44.118Z</time></trkpt><trkpt lat="45.902043" lon="11.9943325"><ele>260.0</ele><time>2026-04-18T10:57:46.118Z</time></trkpt><trkpt lat="45.9021305" lon="11.9943118"><ele>260.33333333333337</ele><time>2026-04-18T10:57:48.117Z</time></trkpt><trkpt lat="45.9021983" lon="11.9942896"><ele>260.6666666666667</ele><time>2026-04-18T10:57:50.117Z</time></trkpt><trkpt lat="45.9022839" lon="11.9942973"><ele>261.0</ele><time>2026-04-18T10:57:53.119Z</time></trkpt><trkpt lat="45.9023457" lon="11.9943582"><ele>261.3333333333333</ele><time>2026-04-18T10:57:58.118Z</time></trkpt><trkpt lat="45.9023949" lon="11.9944605"><ele>261.66666666666663</ele><time>2026-04-18T10:58:02.118Z</time></trkpt><trkpt lat="45.902426" lon="11.9945433"><ele>262.0</ele><time>2026-04-18T10:58:04.117Z</time></trkpt><trkpt lat="45.9023916" lon="11.9946448"><ele>262.0</ele><time>2026-04-18T10:58:06.118Z</time></trkpt><trkpt lat="45.9023082" lon="11.9947404"><ele>262.0</ele><time>2026-04-18T10:58:08.117Z</time></trkpt><trkpt lat="45.9022332" lon="11.9948544"><ele>262.0</ele><time>2026-04-18T10:58:10.117Z</time></trkpt><trkpt lat="45.9021558" lon="11.994976"><ele>262.0</ele><time>2026-04-18T10:58:12.117Z</time></trkpt><trkpt lat="45.9020767" lon="11.9951014"><ele>262.0</ele><time>2026-04-18T10:58:14.118Z</time></trkpt><trkpt lat="45.9020248" lon="11.9951743"><ele>262.0</ele><time>2026-04-18T10:58:15.118Z</time></trkpt><trkpt lat="45.9019733" lon="11.9952406"><ele>262.0</ele><time>2026-04-18T10:58:16.117Z</time></trkpt><trkpt lat="45.9018898" lon="11.9953602"><ele>262.0</ele><time>2026-04-18T10:58:18.118Z</time></trkpt><trkpt lat="45.9018378" lon="11.9955087"><ele>262.0</ele><time>2026-04-18T10:58:20.119Z</time></trkpt><trkpt lat="45.9018315" lon="11.9956124"><ele>262.0</ele><time>2026-04-18T10:58:21.117Z</time></trkpt><trkpt lat="45.9018243" lon="11.9957193"><ele>262.0</ele><time>2026-04-18T10:58:22.118Z</time></trkpt><trkpt lat="45.9018273" lon="11.9958283"><ele>262.0</ele><time>2026-04-18T10:58:23.119Z</time></trkpt><trkpt lat="45.9018348" lon="11.9959436"><ele>262.0</ele><time>2026-04-18T10:58:24.117Z</time></trkpt><trkpt lat="45.9018427" lon="11.9960572"><ele>262.0</ele><time>2026-04-18T10:58:25.118Z</time></trkpt><trkpt lat="45.9018508" lon="11.996167"><ele>262.0</ele><time>2026-04-18T10:58:26.117Z</time></trkpt><trkpt lat="45.9018555" lon="11.9962628"><ele>262.0</ele><time>2026-04-18T10:58:27.117Z</time></trkpt><trkpt lat="45.9018557" lon="11.9963655"><ele>262.3333333333333</ele><time>2026-04-18T10:58:28.118Z</time></trkpt><trkpt lat="45.9018527" lon="11.9964726"><ele>262.66666666666663</ele><time>2026-04-18T10:58:29.117Z</time></trkpt><trkpt lat="45.9018505" lon="11.9965886"><ele>263.0</ele><time>2026-04-18T10:58:30.117Z</time></trkpt><trkpt lat="45.9018466" lon="11.9967072"><ele>263.3333333333333</ele><time>2026-04-18T10:58:31.118Z</time></trkpt><trkpt lat="45.9018343" lon="11.9968249"><ele>263.6666666666667</ele><time>2026-04-18T10:58:32.117Z</time></trkpt><trkpt lat="45.9018266" lon="11.9969464"><ele>264.0</ele><time>2026-04-18T10:58:33.119Z</time></trkpt><trkpt lat="45.9018175" lon="11.9970652"><ele>264.0</ele><time>2026-04-18T10:58:34.117Z</time></trkpt><trkpt lat="45.9018067" lon="11.9971908"><ele>264.0</ele><time>2026-04-18T10:58:35.117Z</time></trkpt><trkpt lat="45.9017946" lon="11.9973122"><ele>264.0</ele><time>2026-04-18T10:58:36.117Z</time></trkpt><trkpt lat="45.901778" lon="11.9974273"><ele>264.0</ele><time>2026-04-18T10:58:37.118Z</time></trkpt><trkpt lat="45.9017636" lon="11.9975245"><ele>264.0</ele><time>2026-04-18T10:58:38.117Z</time></trkpt><trkpt lat="45.9017511" lon="11.9976236"><ele>264.0</ele><time>2026-04-18T10:58:39.119Z</time></trkpt><trkpt lat="45.9017376" lon="11.9977571"><ele>262.1666666666667</ele><time>2026-04-18T10:58:40.117Z</time></trkpt><trkpt lat="45.9017189" lon="11.9979013"><ele>260.3333333333333</ele><time>2026-04-18T10:58:41.118Z</time></trkpt><trkpt lat="45.9017052" lon="11.9980235"><ele>258.5</ele><time>2026-04-18T10:58:42.117Z</time></trkpt><trkpt lat="45.9016902" lon="11.998143"><ele>256.66666666666663</ele><time>2026-04-18T10:58:43.118Z</time></trkpt><trkpt lat="45.9016759" lon="11.998266"><ele>254.83333333333331</ele><time>2026-04-18T10:58:44.118Z</time></trkpt><trkpt lat="45.9016634" lon="11.998389"><ele>253.0</ele><time>2026-04-18T10:58:45.118Z</time></trkpt><trkpt lat="45.9016477" lon="11.99852"><ele>253.0</ele><time>2026-04-18T10:58:46.118Z</time></trkpt><trkpt lat="45.9016316" lon="11.9986571"><ele>253.0</ele><time>2026-04-18T10:58:47.117Z</time></trkpt><trkpt lat="45.9016151" lon="11.9987932"><ele>253.0</ele><time>2026-04-18T10:58:48.119Z</time></trkpt><trkpt lat="45.9015966" lon="11.9989389"><ele>253.0</ele><time>2026-04-18T10:58:49.117Z</time></trkpt><trkpt lat="45.9015729" lon="11.999133"><ele>253.0</ele><time>2026-04-18T10:58:50.118Z</time></trkpt><trkpt lat="45.9015505" lon="11.9993509"><ele>253.0</ele><time>2026-04-18T10:58:51.117Z</time></trkpt><trkpt lat="45.9015273" lon="11.9995469"><ele>253.0</ele><time>2026-04-18T10:58:52.119Z</time></trkpt><trkpt lat="45.9015077" lon="11.9997301"><ele>253.0</ele><time>2026-04-18T10:58:53.118Z</time></trkpt><trkpt lat="45.9014856" lon="11.9998963"><ele>253.0</ele><time>2026-04-18T10:58:54.117Z</time></trkpt><trkpt lat="45.9014649" lon="12.000053"><ele>253.0</ele><time>2026-04-18T10:58:55.118Z</time></trkpt><trkpt lat="45.9014453" lon="12.0002146"><ele>253.0</ele><time>2026-04-18T10:58:56.117Z</time></trkpt><trkpt lat="45.9014257" lon="12.0003665"><ele>253.0</ele><time>2026-04-18T10:58:57.117Z</time></trkpt><trkpt lat="45.9014118" lon="12.000507"><ele>253.0</ele><time>2026-04-18T10:58:58.117Z</time></trkpt><trkpt lat="45.9013997" lon="12.0006322"><ele>253.0</ele><time>2026-04-18T10:58:59.118Z</time></trkpt><trkpt lat="45.9013813" lon="12.0007429"><ele>253.0</ele><time>2026-04-18T10:59:00.117Z</time></trkpt><trkpt lat="45.9013387" lon="12.0008259"><ele>253.0</ele><time>2026-04-18T10:59:01.117Z</time></trkpt><trkpt lat="45.9012668" lon="12.0008747"><ele>253.0</ele><time>2026-04-18T10:59:02.118Z</time></trkpt><trkpt lat="45.9011706" lon="12.0009038"><ele>253.0</ele><time>2026-04-18T10:59:03.117Z</time></trkpt><trkpt lat="45.9010445" lon="12.0009103"><ele>253.0</ele><time>2026-04-18T10:59:04.118Z</time></trkpt><trkpt lat="45.9008986" lon="12.0009022"><ele>251.0</ele><time>2026-04-18T10:59:05.118Z</time></trkpt><trkpt lat="45.9007554" lon="12.0008889"><ele>249.0</ele><time>2026-04-18T10:59:06.117Z</time></trkpt><trkpt lat="45.9006205" lon="12.0008775"><ele>247.0</ele><time>2026-04-18T10:59:07.118Z</time></trkpt><trkpt lat="45.9004908" lon="12.0008718"><ele>245.0</ele><time>2026-04-18T10:59:08.117Z</time></trkpt><trkpt lat="45.9003686" lon="12.000868"><ele>245.0</ele><time>2026-04-18T10:59:09.117Z</time></trkpt><trkpt lat="45.9002529" lon="12.0008626"><ele>245.0</ele><time>2026-04-18T10:59:10.117Z</time></trkpt><trkpt lat="45.9001459" lon="12.0008559"><ele>245.0</ele><time>2026-04-18T10:59:11.118Z</time></trkpt><trkpt lat="45.900046" lon="12.0008564"><ele>245.0</ele><time>2026-04-18T10:59:12.117Z</time></trkpt><trkpt lat="45.8999582" lon="12.0008608"><ele>245.0</ele><time>2026-04-18T10:59:13.117Z</time></trkpt><trkpt lat="45.8998883" lon="12.0008754"><ele>244.0</ele><time>2026-04-18T10:59:14.118Z</time></trkpt><trkpt lat="45.8998037" lon="12.0009319"><ele>243.0</ele><time>2026-04-18T10:59:16.118Z</time></trkpt><trkpt lat="45.8997879" lon="12.0010199"><ele>242.0</ele><time>2026-04-18T10:59:18.117Z</time></trkpt><trkpt lat="45.8998749" lon="12.0012031"><ele>241.0</ele><time>2026-04-18T10:59:20.117Z</time></trkpt><trkpt lat="45.8999485" lon="12.0013146"><ele>240.0</ele><time>2026-04-18T10:59:21.118Z</time></trkpt><trkpt lat="45.9000484" lon="12.0014613"><ele>241.66666666666669</ele><time>2026-04-18T10:59:22.118Z</time></trkpt><trkpt lat="45.9001582" lon="12.0016373"><ele>243.33333333333334</ele><time>2026-04-18T10:59:23.117Z</time></trkpt><trkpt lat="45.9002755" lon="12.0018229"><ele>245.0</ele><time>2026-04-18T10:59:24.117Z</time></trkpt><trkpt lat="45.9004037" lon="12.0020367"><ele>245.0</ele><time>2026-04-18T10:59:25.118Z</time></trkpt><trkpt lat="45.9005279" lon="12.0022424"><ele>245.0</ele><time>2026-04-18T10:59:26.119Z</time></trkpt><trkpt lat="45.9006396" lon="12.0024275"><ele>245.0</ele><time>2026-04-18T10:59:27.119Z</time></trkpt><trkpt lat="45.9007319" lon="12.0025925"><ele>245.8</ele><time>2026-04-18T10:59:28.119Z</time></trkpt><trkpt lat="45.9008024" lon="12.0027423"><ele>246.6</ele><time>2026-04-18T10:59:29.117Z</time></trkpt><trkpt lat="45.9008597" lon="12.0028689"><ele>247.39999999999998</ele><time>2026-04-18T10:59:30.118Z</time></trkpt><trkpt lat="45.9009028" lon="12.002964"><ele>248.2</ele><time>2026-04-18T10:59:31.118Z</time></trkpt><trkpt lat="45.9009145" lon="12.0030579"><ele>249.0</ele><time>2026-04-18T10:59:32.118Z</time></trkpt><trkpt lat="45.9008354" lon="12.003203"><ele>249.0</ele><time>2026-04-18T10:59:34.118Z</time></trkpt><trkpt lat="45.9007799" lon="12.003256"><ele>249.0</ele><time>2026-04-18T10:59:35.117Z</time></trkpt><trkpt lat="45.900687" lon="12.0033354"><ele>254.0</ele><time>2026-04-18T10:59:37.117Z</time></trkpt><trkpt lat="45.9006127" lon="12.0033938"><ele>254.0</ele><time>2026-04-18T10:59:39.118Z</time></trkpt><trkpt lat="45.9005691" lon="12.0034647"><ele>254.0</ele><time>2026-04-18T10:59:41.117Z</time></trkpt></trkseg></trk></gpx>